<?xml version="1.0" encoding="UTF-8" standalone="no" ?>
<gpx xmlns="http://www.topografix.com/GPX/1/1" xmlns:xsi="http://www.w3.org/2001/XMLSchema-instance" xsi:schemaLocation="http://www.topografix.com/GPX/1/1 http://www.topografix.com/GPX/1/1/gpx.xsd" version="1.1" creator="VisuGPX - https://www.visugpx.com">
  <metadata>
    <name>[Base Jump] Monte Casale</name>
    <desc><![CDATA[A n'utiliser qu'avec un parachute ! ]]></desc>
  </metadata>
  <trk>
    <name><![CDATA[Casale]]></name>
    <extensions>
      <line xmlns="http://www.topografix.com/GPX/gpx_style/0/2">
        <color>0000FF</color>
        <width>4</width>
      </line>
    </extensions>
    <trkseg>
      <trkpt lat="46.0198" lon="10.93881">
        <ele>315.36</ele>
        <time>2022-09-18T07:20:34Z</time>
      </trkpt>
      <trkpt lat="46.0198" lon="10.93874">
        <ele>305.36</ele>
        <time>2022-09-18T07:20:35Z</time>
      </trkpt>
      <trkpt lat="46.01979" lon="10.93876">
        <ele>305.95</ele>
        <time>2022-09-18T07:20:36Z</time>
      </trkpt>
      <trkpt lat="46.01978" lon="10.93878">
        <ele>307.06</ele>
        <time>2022-09-18T07:20:37Z</time>
      </trkpt>
      <trkpt lat="46.01977" lon="10.93882">
        <ele>316.49</ele>
        <time>2022-09-18T07:20:38Z</time>
      </trkpt>
      <trkpt lat="46.01973" lon="10.93887">
        <ele>331.5</ele>
        <time>2022-09-18T07:20:39Z</time>
      </trkpt>
      <trkpt lat="46.01975" lon="10.9388">
        <ele>325.2</ele>
        <time>2022-09-18T07:20:40Z</time>
      </trkpt>
      <trkpt lat="46.01974" lon="10.9388">
        <ele>330.67</ele>
        <time>2022-09-18T07:20:41Z</time>
      </trkpt>
      <trkpt lat="46.01973" lon="10.93875">
        <ele>325.94</ele>
        <time>2022-09-18T07:20:42Z</time>
      </trkpt>
      <trkpt lat="46.01972" lon="10.93875">
        <ele>329.78</ele>
        <time>2022-09-18T07:20:44Z</time>
      </trkpt>
      <trkpt lat="46.01971" lon="10.93874">
        <ele>330.42</ele>
        <time>2022-09-18T07:20:46Z</time>
      </trkpt>
      <trkpt lat="46.0197" lon="10.93873">
        <ele>331.56</ele>
        <time>2022-09-18T07:20:48Z</time>
      </trkpt>
      <trkpt lat="46.0197" lon="10.9387">
        <ele>328.94</ele>
        <time>2022-09-18T07:20:50Z</time>
      </trkpt>
      <trkpt lat="46.0197" lon="10.93868">
        <ele>330.85</ele>
        <time>2022-09-18T07:20:52Z</time>
      </trkpt>
      <trkpt lat="46.0197" lon="10.93867">
        <ele>329.08</ele>
        <time>2022-09-18T07:20:54Z</time>
      </trkpt>
      <trkpt lat="46.01969" lon="10.93866">
        <ele>331.33</ele>
        <time>2022-09-18T07:20:56Z</time>
      </trkpt>
      <trkpt lat="46.01968" lon="10.93865">
        <ele>330.79</ele>
        <time>2022-09-18T07:20:57Z</time>
      </trkpt>
      <trkpt lat="46.01967" lon="10.93864">
        <ele>332.05</ele>
        <time>2022-09-18T07:20:58Z</time>
      </trkpt>
      <trkpt lat="46.01966" lon="10.93864">
        <ele>331.84</ele>
        <time>2022-09-18T07:20:59Z</time>
      </trkpt>
      <trkpt lat="46.01965" lon="10.93863">
        <ele>332.4</ele>
        <time>2022-09-18T07:21:00Z</time>
      </trkpt>
      <trkpt lat="46.01964" lon="10.93863">
        <ele>332.13</ele>
        <time>2022-09-18T07:21:01Z</time>
      </trkpt>
      <trkpt lat="46.01963" lon="10.93863">
        <ele>333.42</ele>
        <time>2022-09-18T07:21:02Z</time>
      </trkpt>
      <trkpt lat="46.01962" lon="10.93863">
        <ele>331.86</ele>
        <time>2022-09-18T07:21:03Z</time>
      </trkpt>
      <trkpt lat="46.01962" lon="10.93862">
        <ele>332.02</ele>
        <time>2022-09-18T07:21:04Z</time>
      </trkpt>
      <trkpt lat="46.01961" lon="10.9386">
        <ele>332.03</ele>
        <time>2022-09-18T07:21:05Z</time>
      </trkpt>
      <trkpt lat="46.0196" lon="10.93859">
        <ele>332.02</ele>
        <time>2022-09-18T07:21:06Z</time>
      </trkpt>
      <trkpt lat="46.0196" lon="10.93858">
        <ele>332.02</ele>
        <time>2022-09-18T07:21:07Z</time>
      </trkpt>
      <trkpt lat="46.01959" lon="10.93857">
        <ele>332.02</ele>
        <time>2022-09-18T07:21:08Z</time>
      </trkpt>
      <trkpt lat="46.01959" lon="10.93855">
        <ele>332.02</ele>
        <time>2022-09-18T07:21:09Z</time>
      </trkpt>
      <trkpt lat="46.01958" lon="10.93854">
        <ele>332.02</ele>
        <time>2022-09-18T07:21:10Z</time>
      </trkpt>
      <trkpt lat="46.01957" lon="10.93853">
        <ele>332.02</ele>
        <time>2022-09-18T07:21:11Z</time>
      </trkpt>
      <trkpt lat="46.01952" lon="10.93846">
        <ele>328.78</ele>
        <time>2022-09-18T07:21:16Z</time>
      </trkpt>
      <trkpt lat="46.0195" lon="10.93844">
        <ele>329.03</ele>
        <time>2022-09-18T07:21:17Z</time>
      </trkpt>
      <trkpt lat="46.01949" lon="10.93841">
        <ele>328.95</ele>
        <time>2022-09-18T07:21:18Z</time>
      </trkpt>
      <trkpt lat="46.01948" lon="10.93839">
        <ele>327.14</ele>
        <time>2022-09-18T07:21:19Z</time>
      </trkpt>
      <trkpt lat="46.01947" lon="10.93837">
        <ele>325.95</ele>
        <time>2022-09-18T07:21:20Z</time>
      </trkpt>
      <trkpt lat="46.01946" lon="10.93835">
        <ele>325.79</ele>
        <time>2022-09-18T07:21:21Z</time>
      </trkpt>
      <trkpt lat="46.01946" lon="10.93834">
        <ele>326.78</ele>
        <time>2022-09-18T07:21:22Z</time>
      </trkpt>
      <trkpt lat="46.01945" lon="10.93832">
        <ele>325.96</ele>
        <time>2022-09-18T07:21:23Z</time>
      </trkpt>
      <trkpt lat="46.01945" lon="10.93831">
        <ele>325.95</ele>
        <time>2022-09-18T07:21:24Z</time>
      </trkpt>
      <trkpt lat="46.01944" lon="10.93829">
        <ele>326.39</ele>
        <time>2022-09-18T07:21:25Z</time>
      </trkpt>
      <trkpt lat="46.01944" lon="10.93827">
        <ele>326.39</ele>
        <time>2022-09-18T07:21:26Z</time>
      </trkpt>
      <trkpt lat="46.01944" lon="10.93826">
        <ele>326.4</ele>
        <time>2022-09-18T07:21:27Z</time>
      </trkpt>
      <trkpt lat="46.01943" lon="10.93825">
        <ele>326.4</ele>
        <time>2022-09-18T07:21:28Z</time>
      </trkpt>
      <trkpt lat="46.01943" lon="10.93823">
        <ele>326.93</ele>
        <time>2022-09-18T07:21:29Z</time>
      </trkpt>
      <trkpt lat="46.01943" lon="10.93822">
        <ele>328.17</ele>
        <time>2022-09-18T07:21:30Z</time>
      </trkpt>
      <trkpt lat="46.01942" lon="10.9382">
        <ele>328.33</ele>
        <time>2022-09-18T07:21:32Z</time>
      </trkpt>
      <trkpt lat="46.01942" lon="10.93818">
        <ele>326.79</ele>
        <time>2022-09-18T07:21:33Z</time>
      </trkpt>
      <trkpt lat="46.01941" lon="10.93816">
        <ele>326.32</ele>
        <time>2022-09-18T07:21:34Z</time>
      </trkpt>
      <trkpt lat="46.01941" lon="10.93814">
        <ele>326.44</ele>
        <time>2022-09-18T07:21:35Z</time>
      </trkpt>
      <trkpt lat="46.0194" lon="10.93813">
        <ele>325.73</ele>
        <time>2022-09-18T07:21:36Z</time>
      </trkpt>
      <trkpt lat="46.0194" lon="10.93811">
        <ele>327.31</ele>
        <time>2022-09-18T07:21:37Z</time>
      </trkpt>
      <trkpt lat="46.0194" lon="10.9381">
        <ele>328.5</ele>
        <time>2022-09-18T07:21:38Z</time>
      </trkpt>
      <trkpt lat="46.01939" lon="10.93809">
        <ele>327.19</ele>
        <time>2022-09-18T07:21:39Z</time>
      </trkpt>
      <trkpt lat="46.01938" lon="10.93808">
        <ele>327.41</ele>
        <time>2022-09-18T07:21:40Z</time>
      </trkpt>
      <trkpt lat="46.01938" lon="10.93806">
        <ele>327.62</ele>
        <time>2022-09-18T07:21:41Z</time>
      </trkpt>
      <trkpt lat="46.01937" lon="10.93805">
        <ele>327.22</ele>
        <time>2022-09-18T07:21:42Z</time>
      </trkpt>
      <trkpt lat="46.01937" lon="10.93803">
        <ele>326.1</ele>
        <time>2022-09-18T07:21:43Z</time>
      </trkpt>
      <trkpt lat="46.01937" lon="10.93801">
        <ele>327.14</ele>
        <time>2022-09-18T07:21:44Z</time>
      </trkpt>
      <trkpt lat="46.01937" lon="10.938">
        <ele>325.28</ele>
        <time>2022-09-18T07:21:45Z</time>
      </trkpt>
      <trkpt lat="46.01937" lon="10.93798">
        <ele>325.45</ele>
        <time>2022-09-18T07:21:46Z</time>
      </trkpt>
      <trkpt lat="46.01937" lon="10.93796">
        <ele>324.52</ele>
        <time>2022-09-18T07:21:47Z</time>
      </trkpt>
      <trkpt lat="46.01937" lon="10.93795">
        <ele>325.84</ele>
        <time>2022-09-18T07:21:48Z</time>
      </trkpt>
      <trkpt lat="46.01937" lon="10.93794">
        <ele>327.4</ele>
        <time>2022-09-18T07:21:49Z</time>
      </trkpt>
      <trkpt lat="46.01937" lon="10.93792">
        <ele>328.96</ele>
        <time>2022-09-18T07:21:50Z</time>
      </trkpt>
      <trkpt lat="46.01936" lon="10.93791">
        <ele>329.61</ele>
        <time>2022-09-18T07:21:51Z</time>
      </trkpt>
      <trkpt lat="46.01936" lon="10.9379">
        <ele>329.3</ele>
        <time>2022-09-18T07:21:52Z</time>
      </trkpt>
      <trkpt lat="46.01935" lon="10.93788">
        <ele>329.66</ele>
        <time>2022-09-18T07:21:53Z</time>
      </trkpt>
      <trkpt lat="46.01934" lon="10.93787">
        <ele>329.1</ele>
        <time>2022-09-18T07:21:54Z</time>
      </trkpt>
      <trkpt lat="46.01934" lon="10.93786">
        <ele>328.49</ele>
        <time>2022-09-18T07:21:55Z</time>
      </trkpt>
      <trkpt lat="46.01933" lon="10.93784">
        <ele>328.53</ele>
        <time>2022-09-18T07:21:56Z</time>
      </trkpt>
      <trkpt lat="46.01933" lon="10.93783">
        <ele>329.46</ele>
        <time>2022-09-18T07:21:57Z</time>
      </trkpt>
      <trkpt lat="46.01932" lon="10.93781">
        <ele>328.99</ele>
        <time>2022-09-18T07:21:59Z</time>
      </trkpt>
      <trkpt lat="46.01931" lon="10.9378">
        <ele>324.76</ele>
        <time>2022-09-18T07:22:00Z</time>
      </trkpt>
      <trkpt lat="46.01931" lon="10.93779">
        <ele>325.69</ele>
        <time>2022-09-18T07:22:01Z</time>
      </trkpt>
      <trkpt lat="46.0193" lon="10.93778">
        <ele>326.6</ele>
        <time>2022-09-18T07:22:02Z</time>
      </trkpt>
      <trkpt lat="46.01929" lon="10.93777">
        <ele>327.55</ele>
        <time>2022-09-18T07:22:03Z</time>
      </trkpt>
      <trkpt lat="46.01928" lon="10.93776">
        <ele>329.46</ele>
        <time>2022-09-18T07:22:04Z</time>
      </trkpt>
      <trkpt lat="46.01927" lon="10.93775">
        <ele>330.11</ele>
        <time>2022-09-18T07:22:05Z</time>
      </trkpt>
      <trkpt lat="46.01926" lon="10.93774">
        <ele>331.61</ele>
        <time>2022-09-18T07:22:07Z</time>
      </trkpt>
      <trkpt lat="46.01925" lon="10.93773">
        <ele>331.67</ele>
        <time>2022-09-18T07:22:08Z</time>
      </trkpt>
      <trkpt lat="46.01924" lon="10.93773">
        <ele>332.92</ele>
        <time>2022-09-18T07:22:09Z</time>
      </trkpt>
      <trkpt lat="46.01923" lon="10.93772">
        <ele>332.53</ele>
        <time>2022-09-18T07:22:10Z</time>
      </trkpt>
      <trkpt lat="46.01922" lon="10.93772">
        <ele>332.91</ele>
        <time>2022-09-18T07:22:11Z</time>
      </trkpt>
      <trkpt lat="46.01921" lon="10.93772">
        <ele>332.91</ele>
        <time>2022-09-18T07:22:12Z</time>
      </trkpt>
      <trkpt lat="46.0192" lon="10.93771">
        <ele>332.43</ele>
        <time>2022-09-18T07:22:13Z</time>
      </trkpt>
      <trkpt lat="46.01918" lon="10.93771">
        <ele>333.71</ele>
        <time>2022-09-18T07:22:15Z</time>
      </trkpt>
      <trkpt lat="46.01917" lon="10.9377">
        <ele>334.14</ele>
        <time>2022-09-18T07:22:16Z</time>
      </trkpt>
      <trkpt lat="46.01916" lon="10.93769">
        <ele>334.96</ele>
        <time>2022-09-18T07:22:17Z</time>
      </trkpt>
      <trkpt lat="46.01915" lon="10.93769">
        <ele>334.04</ele>
        <time>2022-09-18T07:22:18Z</time>
      </trkpt>
      <trkpt lat="46.01914" lon="10.93768">
        <ele>332.66</ele>
        <time>2022-09-18T07:22:19Z</time>
      </trkpt>
      <trkpt lat="46.01913" lon="10.93768">
        <ele>332.05</ele>
        <time>2022-09-18T07:22:20Z</time>
      </trkpt>
      <trkpt lat="46.01911" lon="10.93767">
        <ele>331.9</ele>
        <time>2022-09-18T07:22:21Z</time>
      </trkpt>
      <trkpt lat="46.0191" lon="10.93767">
        <ele>330.53</ele>
        <time>2022-09-18T07:22:22Z</time>
      </trkpt>
      <trkpt lat="46.01909" lon="10.93766">
        <ele>330</ele>
        <time>2022-09-18T07:22:23Z</time>
      </trkpt>
      <trkpt lat="46.01908" lon="10.93765">
        <ele>331.64</ele>
        <time>2022-09-18T07:22:24Z</time>
      </trkpt>
      <trkpt lat="46.01907" lon="10.93764">
        <ele>331.27</ele>
        <time>2022-09-18T07:22:25Z</time>
      </trkpt>
      <trkpt lat="46.01906" lon="10.93763">
        <ele>331.57</ele>
        <time>2022-09-18T07:22:26Z</time>
      </trkpt>
      <trkpt lat="46.01904" lon="10.93763">
        <ele>332.64</ele>
        <time>2022-09-18T07:22:27Z</time>
      </trkpt>
      <trkpt lat="46.01903" lon="10.93762">
        <ele>333.15</ele>
        <time>2022-09-18T07:22:28Z</time>
      </trkpt>
      <trkpt lat="46.01902" lon="10.93761">
        <ele>334.14</ele>
        <time>2022-09-18T07:22:29Z</time>
      </trkpt>
      <trkpt lat="46.019" lon="10.93762">
        <ele>334.38</ele>
        <time>2022-09-18T07:22:30Z</time>
      </trkpt>
      <trkpt lat="46.01899" lon="10.93762">
        <ele>333.13</ele>
        <time>2022-09-18T07:22:31Z</time>
      </trkpt>
      <trkpt lat="46.01897" lon="10.93762">
        <ele>333.96</ele>
        <time>2022-09-18T07:22:32Z</time>
      </trkpt>
      <trkpt lat="46.01895" lon="10.93762">
        <ele>334.92</ele>
        <time>2022-09-18T07:22:33Z</time>
      </trkpt>
      <trkpt lat="46.01894" lon="10.93762">
        <ele>335.16</ele>
        <time>2022-09-18T07:22:34Z</time>
      </trkpt>
      <trkpt lat="46.01892" lon="10.93762">
        <ele>335.47</ele>
        <time>2022-09-18T07:22:35Z</time>
      </trkpt>
      <trkpt lat="46.01891" lon="10.93761">
        <ele>335.21</ele>
        <time>2022-09-18T07:22:36Z</time>
      </trkpt>
      <trkpt lat="46.01889" lon="10.9376">
        <ele>334.47</ele>
        <time>2022-09-18T07:22:37Z</time>
      </trkpt>
      <trkpt lat="46.01887" lon="10.9376">
        <ele>335.66</ele>
        <time>2022-09-18T07:22:38Z</time>
      </trkpt>
      <trkpt lat="46.01886" lon="10.93759">
        <ele>336</ele>
        <time>2022-09-18T07:22:39Z</time>
      </trkpt>
      <trkpt lat="46.01885" lon="10.93758">
        <ele>336.71</ele>
        <time>2022-09-18T07:22:40Z</time>
      </trkpt>
      <trkpt lat="46.01883" lon="10.93758">
        <ele>337.16</ele>
        <time>2022-09-18T07:22:41Z</time>
      </trkpt>
      <trkpt lat="46.01882" lon="10.93758">
        <ele>336.88</ele>
        <time>2022-09-18T07:22:42Z</time>
      </trkpt>
      <trkpt lat="46.0188" lon="10.93757">
        <ele>334.66</ele>
        <time>2022-09-18T07:22:43Z</time>
      </trkpt>
      <trkpt lat="46.01879" lon="10.93756">
        <ele>333.94</ele>
        <time>2022-09-18T07:22:44Z</time>
      </trkpt>
      <trkpt lat="46.01877" lon="10.93755">
        <ele>333.83</ele>
        <time>2022-09-18T07:22:45Z</time>
      </trkpt>
      <trkpt lat="46.01876" lon="10.93754">
        <ele>334.43</ele>
        <time>2022-09-18T07:22:46Z</time>
      </trkpt>
      <trkpt lat="46.01875" lon="10.93754">
        <ele>333.83</ele>
        <time>2022-09-18T07:22:47Z</time>
      </trkpt>
      <trkpt lat="46.01874" lon="10.93753">
        <ele>333.82</ele>
        <time>2022-09-18T07:22:48Z</time>
      </trkpt>
      <trkpt lat="46.01873" lon="10.93752">
        <ele>333.81</ele>
        <time>2022-09-18T07:22:49Z</time>
      </trkpt>
      <trkpt lat="46.01872" lon="10.93751">
        <ele>333.8</ele>
        <time>2022-09-18T07:22:50Z</time>
      </trkpt>
      <trkpt lat="46.01871" lon="10.9375">
        <ele>333.81</ele>
        <time>2022-09-18T07:22:51Z</time>
      </trkpt>
      <trkpt lat="46.0187" lon="10.93749">
        <ele>333.81</ele>
        <time>2022-09-18T07:22:52Z</time>
      </trkpt>
      <trkpt lat="46.01869" lon="10.93748">
        <ele>333.81</ele>
        <time>2022-09-18T07:22:53Z</time>
      </trkpt>
      <trkpt lat="46.01868" lon="10.93747">
        <ele>334.52</ele>
        <time>2022-09-18T07:22:54Z</time>
      </trkpt>
      <trkpt lat="46.01867" lon="10.93746">
        <ele>335.66</ele>
        <time>2022-09-18T07:22:55Z</time>
      </trkpt>
      <trkpt lat="46.01866" lon="10.93745">
        <ele>336.13</ele>
        <time>2022-09-18T07:22:56Z</time>
      </trkpt>
      <trkpt lat="46.01865" lon="10.93744">
        <ele>336.51</ele>
        <time>2022-09-18T07:22:57Z</time>
      </trkpt>
      <trkpt lat="46.01864" lon="10.93743">
        <ele>336.89</ele>
        <time>2022-09-18T07:22:58Z</time>
      </trkpt>
      <trkpt lat="46.01863" lon="10.93742">
        <ele>337.79</ele>
        <time>2022-09-18T07:22:59Z</time>
      </trkpt>
      <trkpt lat="46.01862" lon="10.93741">
        <ele>338.09</ele>
        <time>2022-09-18T07:23:00Z</time>
      </trkpt>
      <trkpt lat="46.01861" lon="10.9374">
        <ele>338.88</ele>
        <time>2022-09-18T07:23:01Z</time>
      </trkpt>
      <trkpt lat="46.0186" lon="10.93739">
        <ele>338.41</ele>
        <time>2022-09-18T07:23:02Z</time>
      </trkpt>
      <trkpt lat="46.01859" lon="10.93738">
        <ele>338.56</ele>
        <time>2022-09-18T07:23:03Z</time>
      </trkpt>
      <trkpt lat="46.01858" lon="10.93736">
        <ele>337.34</ele>
        <time>2022-09-18T07:23:04Z</time>
      </trkpt>
      <trkpt lat="46.01857" lon="10.93735">
        <ele>336.35</ele>
        <time>2022-09-18T07:23:05Z</time>
      </trkpt>
      <trkpt lat="46.01856" lon="10.93734">
        <ele>337.62</ele>
        <time>2022-09-18T07:23:06Z</time>
      </trkpt>
      <trkpt lat="46.01854" lon="10.93733">
        <ele>337.65</ele>
        <time>2022-09-18T07:23:07Z</time>
      </trkpt>
      <trkpt lat="46.01853" lon="10.93731">
        <ele>337.57</ele>
        <time>2022-09-18T07:23:08Z</time>
      </trkpt>
      <trkpt lat="46.01852" lon="10.9373">
        <ele>337.99</ele>
        <time>2022-09-18T07:23:09Z</time>
      </trkpt>
      <trkpt lat="46.01851" lon="10.93729">
        <ele>338.78</ele>
        <time>2022-09-18T07:23:10Z</time>
      </trkpt>
      <trkpt lat="46.0185" lon="10.93727">
        <ele>339.01</ele>
        <time>2022-09-18T07:23:11Z</time>
      </trkpt>
      <trkpt lat="46.01849" lon="10.93726">
        <ele>339.07</ele>
        <time>2022-09-18T07:23:12Z</time>
      </trkpt>
      <trkpt lat="46.01848" lon="10.93724">
        <ele>338.48</ele>
        <time>2022-09-18T07:23:13Z</time>
      </trkpt>
      <trkpt lat="46.01847" lon="10.93723">
        <ele>339.2</ele>
        <time>2022-09-18T07:23:14Z</time>
      </trkpt>
      <trkpt lat="46.01846" lon="10.93721">
        <ele>338.53</ele>
        <time>2022-09-18T07:23:15Z</time>
      </trkpt>
      <trkpt lat="46.01846" lon="10.93719">
        <ele>337.45</ele>
        <time>2022-09-18T07:23:16Z</time>
      </trkpt>
      <trkpt lat="46.01845" lon="10.93718">
        <ele>336.42</ele>
        <time>2022-09-18T07:23:17Z</time>
      </trkpt>
      <trkpt lat="46.01844" lon="10.93716">
        <ele>335.97</ele>
        <time>2022-09-18T07:23:18Z</time>
      </trkpt>
      <trkpt lat="46.01843" lon="10.93714">
        <ele>334.85</ele>
        <time>2022-09-18T07:23:19Z</time>
      </trkpt>
      <trkpt lat="46.01842" lon="10.93712">
        <ele>333.85</ele>
        <time>2022-09-18T07:23:20Z</time>
      </trkpt>
      <trkpt lat="46.0184" lon="10.93711">
        <ele>334.17</ele>
        <time>2022-09-18T07:23:21Z</time>
      </trkpt>
      <trkpt lat="46.0184" lon="10.93709">
        <ele>332.96</ele>
        <time>2022-09-18T07:23:22Z</time>
      </trkpt>
      <trkpt lat="46.01839" lon="10.93707">
        <ele>334.22</ele>
        <time>2022-09-18T07:23:23Z</time>
      </trkpt>
      <trkpt lat="46.01838" lon="10.93706">
        <ele>334.26</ele>
        <time>2022-09-18T07:23:24Z</time>
      </trkpt>
      <trkpt lat="46.01838" lon="10.93704">
        <ele>334.99</ele>
        <time>2022-09-18T07:23:25Z</time>
      </trkpt>
      <trkpt lat="46.01837" lon="10.93702">
        <ele>335.63</ele>
        <time>2022-09-18T07:23:26Z</time>
      </trkpt>
      <trkpt lat="46.01837" lon="10.93701">
        <ele>335.44</ele>
        <time>2022-09-18T07:23:27Z</time>
      </trkpt>
      <trkpt lat="46.01837" lon="10.93699">
        <ele>334.83</ele>
        <time>2022-09-18T07:23:28Z</time>
      </trkpt>
      <trkpt lat="46.01837" lon="10.93697">
        <ele>334.7</ele>
        <time>2022-09-18T07:23:29Z</time>
      </trkpt>
      <trkpt lat="46.01837" lon="10.93696">
        <ele>334.3</ele>
        <time>2022-09-18T07:23:30Z</time>
      </trkpt>
      <trkpt lat="46.01837" lon="10.93694">
        <ele>334.99</ele>
        <time>2022-09-18T07:23:31Z</time>
      </trkpt>
      <trkpt lat="46.01836" lon="10.93691">
        <ele>332.46</ele>
        <time>2022-09-18T07:23:32Z</time>
      </trkpt>
      <trkpt lat="46.01836" lon="10.9369">
        <ele>332.13</ele>
        <time>2022-09-18T07:23:33Z</time>
      </trkpt>
      <trkpt lat="46.01835" lon="10.93688">
        <ele>332.7</ele>
        <time>2022-09-18T07:23:34Z</time>
      </trkpt>
      <trkpt lat="46.01835" lon="10.93686">
        <ele>333.11</ele>
        <time>2022-09-18T07:23:35Z</time>
      </trkpt>
      <trkpt lat="46.01834" lon="10.93684">
        <ele>334.1</ele>
        <time>2022-09-18T07:23:36Z</time>
      </trkpt>
      <trkpt lat="46.01834" lon="10.93682">
        <ele>334.53</ele>
        <time>2022-09-18T07:23:37Z</time>
      </trkpt>
      <trkpt lat="46.01834" lon="10.93681">
        <ele>335.38</ele>
        <time>2022-09-18T07:23:38Z</time>
      </trkpt>
      <trkpt lat="46.01833" lon="10.93679">
        <ele>336.31</ele>
        <time>2022-09-18T07:23:39Z</time>
      </trkpt>
      <trkpt lat="46.01832" lon="10.93677">
        <ele>334.79</ele>
        <time>2022-09-18T07:23:40Z</time>
      </trkpt>
      <trkpt lat="46.01832" lon="10.93675">
        <ele>334.43</ele>
        <time>2022-09-18T07:23:41Z</time>
      </trkpt>
      <trkpt lat="46.01831" lon="10.93674">
        <ele>334.53</ele>
        <time>2022-09-18T07:23:42Z</time>
      </trkpt>
      <trkpt lat="46.01831" lon="10.93672">
        <ele>334.71</ele>
        <time>2022-09-18T07:23:43Z</time>
      </trkpt>
      <trkpt lat="46.0183" lon="10.9367">
        <ele>335.03</ele>
        <time>2022-09-18T07:23:44Z</time>
      </trkpt>
      <trkpt lat="46.0183" lon="10.93669">
        <ele>334.02</ele>
        <time>2022-09-18T07:23:45Z</time>
      </trkpt>
      <trkpt lat="46.01829" lon="10.93667">
        <ele>333.87</ele>
        <time>2022-09-18T07:23:46Z</time>
      </trkpt>
      <trkpt lat="46.01829" lon="10.93666">
        <ele>334.52</ele>
        <time>2022-09-18T07:23:47Z</time>
      </trkpt>
      <trkpt lat="46.01829" lon="10.93665">
        <ele>333.86</ele>
        <time>2022-09-18T07:23:48Z</time>
      </trkpt>
      <trkpt lat="46.01828" lon="10.93663">
        <ele>335.22</ele>
        <time>2022-09-18T07:23:49Z</time>
      </trkpt>
      <trkpt lat="46.01828" lon="10.93662">
        <ele>335.74</ele>
        <time>2022-09-18T07:23:50Z</time>
      </trkpt>
      <trkpt lat="46.01828" lon="10.93661">
        <ele>336.25</ele>
        <time>2022-09-18T07:23:51Z</time>
      </trkpt>
      <trkpt lat="46.01828" lon="10.9366">
        <ele>338.12</ele>
        <time>2022-09-18T07:23:52Z</time>
      </trkpt>
      <trkpt lat="46.01827" lon="10.93658">
        <ele>336.39</ele>
        <time>2022-09-18T07:23:54Z</time>
      </trkpt>
      <trkpt lat="46.01827" lon="10.93656">
        <ele>335.37</ele>
        <time>2022-09-18T07:23:56Z</time>
      </trkpt>
      <trkpt lat="46.01826" lon="10.93655">
        <ele>335.19</ele>
        <time>2022-09-18T07:23:58Z</time>
      </trkpt>
      <trkpt lat="46.01826" lon="10.93652">
        <ele>335.9</ele>
        <time>2022-09-18T07:24:00Z</time>
      </trkpt>
      <trkpt lat="46.01825" lon="10.9365">
        <ele>336</ele>
        <time>2022-09-18T07:24:02Z</time>
      </trkpt>
      <trkpt lat="46.01824" lon="10.93649">
        <ele>335.78</ele>
        <time>2022-09-18T07:24:04Z</time>
      </trkpt>
      <trkpt lat="46.01823" lon="10.93647">
        <ele>335.68</ele>
        <time>2022-09-18T07:24:05Z</time>
      </trkpt>
      <trkpt lat="46.01823" lon="10.93646">
        <ele>336.04</ele>
        <time>2022-09-18T07:24:06Z</time>
      </trkpt>
      <trkpt lat="46.01823" lon="10.93645">
        <ele>337.31</ele>
        <time>2022-09-18T07:24:07Z</time>
      </trkpt>
      <trkpt lat="46.01822" lon="10.93644">
        <ele>336.81</ele>
        <time>2022-09-18T07:24:08Z</time>
      </trkpt>
      <trkpt lat="46.01822" lon="10.93642">
        <ele>337.36</ele>
        <time>2022-09-18T07:24:09Z</time>
      </trkpt>
      <trkpt lat="46.01821" lon="10.93641">
        <ele>337.99</ele>
        <time>2022-09-18T07:24:10Z</time>
      </trkpt>
      <trkpt lat="46.0182" lon="10.9364">
        <ele>339.41</ele>
        <time>2022-09-18T07:24:11Z</time>
      </trkpt>
      <trkpt lat="46.0182" lon="10.93639">
        <ele>339.74</ele>
        <time>2022-09-18T07:24:12Z</time>
      </trkpt>
      <trkpt lat="46.01819" lon="10.93638">
        <ele>340.18</ele>
        <time>2022-09-18T07:24:13Z</time>
      </trkpt>
      <trkpt lat="46.01818" lon="10.93637">
        <ele>341.63</ele>
        <time>2022-09-18T07:24:14Z</time>
      </trkpt>
      <trkpt lat="46.01817" lon="10.93636">
        <ele>341.79</ele>
        <time>2022-09-18T07:24:15Z</time>
      </trkpt>
      <trkpt lat="46.01817" lon="10.93635">
        <ele>342.13</ele>
        <time>2022-09-18T07:24:16Z</time>
      </trkpt>
      <trkpt lat="46.01816" lon="10.93634">
        <ele>340.53</ele>
        <time>2022-09-18T07:24:17Z</time>
      </trkpt>
      <trkpt lat="46.01815" lon="10.93633">
        <ele>342.28</ele>
        <time>2022-09-18T07:24:18Z</time>
      </trkpt>
      <trkpt lat="46.01814" lon="10.93633">
        <ele>342.55</ele>
        <time>2022-09-18T07:24:19Z</time>
      </trkpt>
      <trkpt lat="46.01813" lon="10.93632">
        <ele>343.77</ele>
        <time>2022-09-18T07:24:20Z</time>
      </trkpt>
      <trkpt lat="46.01812" lon="10.93632">
        <ele>343.43</ele>
        <time>2022-09-18T07:24:21Z</time>
      </trkpt>
      <trkpt lat="46.01811" lon="10.93631">
        <ele>343.64</ele>
        <time>2022-09-18T07:24:22Z</time>
      </trkpt>
      <trkpt lat="46.0181" lon="10.93631">
        <ele>342.02</ele>
        <time>2022-09-18T07:24:23Z</time>
      </trkpt>
      <trkpt lat="46.01809" lon="10.9363">
        <ele>341.85</ele>
        <time>2022-09-18T07:24:24Z</time>
      </trkpt>
      <trkpt lat="46.01808" lon="10.9363">
        <ele>342.02</ele>
        <time>2022-09-18T07:24:25Z</time>
      </trkpt>
      <trkpt lat="46.01807" lon="10.93628">
        <ele>340.76</ele>
        <time>2022-09-18T07:24:26Z</time>
      </trkpt>
      <trkpt lat="46.01806" lon="10.93627">
        <ele>339.83</ele>
        <time>2022-09-18T07:24:27Z</time>
      </trkpt>
      <trkpt lat="46.01805" lon="10.93625">
        <ele>340.51</ele>
        <time>2022-09-18T07:24:28Z</time>
      </trkpt>
      <trkpt lat="46.01805" lon="10.93624">
        <ele>340.7</ele>
        <time>2022-09-18T07:24:29Z</time>
      </trkpt>
      <trkpt lat="46.01804" lon="10.93623">
        <ele>341.47</ele>
        <time>2022-09-18T07:24:30Z</time>
      </trkpt>
      <trkpt lat="46.01803" lon="10.93623">
        <ele>341.92</ele>
        <time>2022-09-18T07:24:31Z</time>
      </trkpt>
      <trkpt lat="46.01802" lon="10.93623">
        <ele>341.62</ele>
        <time>2022-09-18T07:24:32Z</time>
      </trkpt>
      <trkpt lat="46.018" lon="10.93622">
        <ele>342.5</ele>
        <time>2022-09-18T07:24:33Z</time>
      </trkpt>
      <trkpt lat="46.01799" lon="10.93622">
        <ele>341.87</ele>
        <time>2022-09-18T07:24:34Z</time>
      </trkpt>
      <trkpt lat="46.01798" lon="10.93621">
        <ele>341.17</ele>
        <time>2022-09-18T07:24:35Z</time>
      </trkpt>
      <trkpt lat="46.01798" lon="10.9362">
        <ele>340.02</ele>
        <time>2022-09-18T07:24:36Z</time>
      </trkpt>
      <trkpt lat="46.01797" lon="10.93617">
        <ele>339.9</ele>
        <time>2022-09-18T07:24:38Z</time>
      </trkpt>
      <trkpt lat="46.01797" lon="10.93616">
        <ele>340.2</ele>
        <time>2022-09-18T07:24:39Z</time>
      </trkpt>
      <trkpt lat="46.01796" lon="10.93614">
        <ele>340.1</ele>
        <time>2022-09-18T07:24:40Z</time>
      </trkpt>
      <trkpt lat="46.01796" lon="10.93612">
        <ele>339.69</ele>
        <time>2022-09-18T07:24:41Z</time>
      </trkpt>
      <trkpt lat="46.01795" lon="10.9361">
        <ele>339.42</ele>
        <time>2022-09-18T07:24:42Z</time>
      </trkpt>
      <trkpt lat="46.01794" lon="10.93608">
        <ele>340.27</ele>
        <time>2022-09-18T07:24:43Z</time>
      </trkpt>
      <trkpt lat="46.01793" lon="10.93606">
        <ele>340.13</ele>
        <time>2022-09-18T07:24:44Z</time>
      </trkpt>
      <trkpt lat="46.01793" lon="10.93605">
        <ele>340.09</ele>
        <time>2022-09-18T07:24:45Z</time>
      </trkpt>
      <trkpt lat="46.01792" lon="10.93603">
        <ele>342.11</ele>
        <time>2022-09-18T07:24:47Z</time>
      </trkpt>
      <trkpt lat="46.0179" lon="10.93602">
        <ele>343.9</ele>
        <time>2022-09-18T07:24:49Z</time>
      </trkpt>
      <trkpt lat="46.01789" lon="10.93601">
        <ele>344.38</ele>
        <time>2022-09-18T07:24:51Z</time>
      </trkpt>
      <trkpt lat="46.01788" lon="10.936">
        <ele>344.96</ele>
        <time>2022-09-18T07:24:52Z</time>
      </trkpt>
      <trkpt lat="46.01788" lon="10.93599">
        <ele>344.77</ele>
        <time>2022-09-18T07:24:53Z</time>
      </trkpt>
      <trkpt lat="46.01787" lon="10.93598">
        <ele>344.96</ele>
        <time>2022-09-18T07:24:54Z</time>
      </trkpt>
      <trkpt lat="46.01786" lon="10.93597">
        <ele>344.98</ele>
        <time>2022-09-18T07:24:55Z</time>
      </trkpt>
      <trkpt lat="46.01785" lon="10.93596">
        <ele>344.96</ele>
        <time>2022-09-18T07:24:56Z</time>
      </trkpt>
      <trkpt lat="46.01785" lon="10.93595">
        <ele>344.96</ele>
        <time>2022-09-18T07:24:57Z</time>
      </trkpt>
      <trkpt lat="46.01784" lon="10.93594">
        <ele>344.92</ele>
        <time>2022-09-18T07:24:58Z</time>
      </trkpt>
      <trkpt lat="46.01783" lon="10.93593">
        <ele>345.14</ele>
        <time>2022-09-18T07:24:59Z</time>
      </trkpt>
      <trkpt lat="46.01783" lon="10.93592">
        <ele>345.16</ele>
        <time>2022-09-18T07:25:00Z</time>
      </trkpt>
      <trkpt lat="46.01782" lon="10.93591">
        <ele>345.24</ele>
        <time>2022-09-18T07:25:01Z</time>
      </trkpt>
      <trkpt lat="46.01782" lon="10.9359">
        <ele>344.99</ele>
        <time>2022-09-18T07:25:02Z</time>
      </trkpt>
      <trkpt lat="46.01781" lon="10.93589">
        <ele>345.38</ele>
        <time>2022-09-18T07:25:03Z</time>
      </trkpt>
      <trkpt lat="46.0178" lon="10.93588">
        <ele>345.43</ele>
        <time>2022-09-18T07:25:04Z</time>
      </trkpt>
      <trkpt lat="46.01779" lon="10.93587">
        <ele>345.45</ele>
        <time>2022-09-18T07:25:05Z</time>
      </trkpt>
      <trkpt lat="46.01778" lon="10.93587">
        <ele>348.02</ele>
        <time>2022-09-18T07:25:07Z</time>
      </trkpt>
      <trkpt lat="46.01777" lon="10.93586">
        <ele>348.69</ele>
        <time>2022-09-18T07:25:08Z</time>
      </trkpt>
      <trkpt lat="46.01775" lon="10.93585">
        <ele>348.03</ele>
        <time>2022-09-18T07:25:09Z</time>
      </trkpt>
      <trkpt lat="46.01774" lon="10.93584">
        <ele>345.65</ele>
        <time>2022-09-18T07:25:10Z</time>
      </trkpt>
      <trkpt lat="46.01773" lon="10.93582">
        <ele>346.46</ele>
        <time>2022-09-18T07:25:11Z</time>
      </trkpt>
      <trkpt lat="46.01772" lon="10.9358">
        <ele>345.89</ele>
        <time>2022-09-18T07:25:12Z</time>
      </trkpt>
      <trkpt lat="46.01771" lon="10.93579">
        <ele>345.38</ele>
        <time>2022-09-18T07:25:13Z</time>
      </trkpt>
      <trkpt lat="46.01771" lon="10.93578">
        <ele>347.61</ele>
        <time>2022-09-18T07:25:15Z</time>
      </trkpt>
      <trkpt lat="46.0177" lon="10.93577">
        <ele>348.18</ele>
        <time>2022-09-18T07:25:16Z</time>
      </trkpt>
      <trkpt lat="46.01769" lon="10.93577">
        <ele>347.92</ele>
        <time>2022-09-18T07:25:18Z</time>
      </trkpt>
      <trkpt lat="46.01768" lon="10.93576">
        <ele>348.65</ele>
        <time>2022-09-18T07:25:19Z</time>
      </trkpt>
      <trkpt lat="46.01767" lon="10.93576">
        <ele>349.06</ele>
        <time>2022-09-18T07:25:20Z</time>
      </trkpt>
      <trkpt lat="46.01766" lon="10.93576">
        <ele>350.57</ele>
        <time>2022-09-18T07:25:21Z</time>
      </trkpt>
      <trkpt lat="46.01765" lon="10.93576">
        <ele>351.88</ele>
        <time>2022-09-18T07:25:22Z</time>
      </trkpt>
      <trkpt lat="46.01764" lon="10.93577">
        <ele>350.89</ele>
        <time>2022-09-18T07:25:23Z</time>
      </trkpt>
      <trkpt lat="46.01763" lon="10.93577">
        <ele>348.43</ele>
        <time>2022-09-18T07:25:24Z</time>
      </trkpt>
      <trkpt lat="46.01762" lon="10.93578">
        <ele>346.47</ele>
        <time>2022-09-18T07:25:25Z</time>
      </trkpt>
      <trkpt lat="46.01761" lon="10.93578">
        <ele>348.52</ele>
        <time>2022-09-18T07:25:26Z</time>
      </trkpt>
      <trkpt lat="46.0176" lon="10.93579">
        <ele>347.33</ele>
        <time>2022-09-18T07:25:27Z</time>
      </trkpt>
      <trkpt lat="46.01759" lon="10.9358">
        <ele>348.54</ele>
        <time>2022-09-18T07:25:28Z</time>
      </trkpt>
      <trkpt lat="46.01758" lon="10.93581">
        <ele>349.87</ele>
        <time>2022-09-18T07:25:29Z</time>
      </trkpt>
      <trkpt lat="46.01758" lon="10.93582">
        <ele>348.28</ele>
        <time>2022-09-18T07:25:30Z</time>
      </trkpt>
      <trkpt lat="46.01757" lon="10.93583">
        <ele>349.14</ele>
        <time>2022-09-18T07:25:31Z</time>
      </trkpt>
      <trkpt lat="46.01756" lon="10.93585">
        <ele>349.89</ele>
        <time>2022-09-18T07:25:32Z</time>
      </trkpt>
      <trkpt lat="46.01755" lon="10.93586">
        <ele>351.31</ele>
        <time>2022-09-18T07:25:33Z</time>
      </trkpt>
      <trkpt lat="46.01755" lon="10.93587">
        <ele>350.78</ele>
        <time>2022-09-18T07:25:34Z</time>
      </trkpt>
      <trkpt lat="46.01754" lon="10.93589">
        <ele>349.9</ele>
        <time>2022-09-18T07:25:35Z</time>
      </trkpt>
      <trkpt lat="46.01753" lon="10.9359">
        <ele>348.06</ele>
        <time>2022-09-18T07:25:36Z</time>
      </trkpt>
      <trkpt lat="46.01753" lon="10.93591">
        <ele>347.67</ele>
        <time>2022-09-18T07:25:37Z</time>
      </trkpt>
      <trkpt lat="46.01752" lon="10.93593">
        <ele>347.13</ele>
        <time>2022-09-18T07:25:38Z</time>
      </trkpt>
      <trkpt lat="46.01751" lon="10.93594">
        <ele>346.95</ele>
        <time>2022-09-18T07:25:39Z</time>
      </trkpt>
      <trkpt lat="46.01751" lon="10.93595">
        <ele>346.14</ele>
        <time>2022-09-18T07:25:40Z</time>
      </trkpt>
      <trkpt lat="46.0175" lon="10.93596">
        <ele>344.49</ele>
        <time>2022-09-18T07:25:41Z</time>
      </trkpt>
      <trkpt lat="46.01749" lon="10.93597">
        <ele>345.31</ele>
        <time>2022-09-18T07:25:42Z</time>
      </trkpt>
      <trkpt lat="46.01748" lon="10.93598">
        <ele>345.17</ele>
        <time>2022-09-18T07:25:43Z</time>
      </trkpt>
      <trkpt lat="46.01748" lon="10.93599">
        <ele>345.94</ele>
        <time>2022-09-18T07:25:44Z</time>
      </trkpt>
      <trkpt lat="46.01747" lon="10.936">
        <ele>344.01</ele>
        <time>2022-09-18T07:25:45Z</time>
      </trkpt>
      <trkpt lat="46.01746" lon="10.93602">
        <ele>343.5</ele>
        <time>2022-09-18T07:25:47Z</time>
      </trkpt>
      <trkpt lat="46.01745" lon="10.93603">
        <ele>344.35</ele>
        <time>2022-09-18T07:25:48Z</time>
      </trkpt>
      <trkpt lat="46.01744" lon="10.93604">
        <ele>345.18</ele>
        <time>2022-09-18T07:25:49Z</time>
      </trkpt>
      <trkpt lat="46.01743" lon="10.93605">
        <ele>345.07</ele>
        <time>2022-09-18T07:25:50Z</time>
      </trkpt>
      <trkpt lat="46.01743" lon="10.93606">
        <ele>344.63</ele>
        <time>2022-09-18T07:25:51Z</time>
      </trkpt>
      <trkpt lat="46.01742" lon="10.93608">
        <ele>343.52</ele>
        <time>2022-09-18T07:25:52Z</time>
      </trkpt>
      <trkpt lat="46.01741" lon="10.93609">
        <ele>343.03</ele>
        <time>2022-09-18T07:25:53Z</time>
      </trkpt>
      <trkpt lat="46.0174" lon="10.9361">
        <ele>343.05</ele>
        <time>2022-09-18T07:25:54Z</time>
      </trkpt>
      <trkpt lat="46.01739" lon="10.93611">
        <ele>342.99</ele>
        <time>2022-09-18T07:25:55Z</time>
      </trkpt>
      <trkpt lat="46.01738" lon="10.93612">
        <ele>342.83</ele>
        <time>2022-09-18T07:25:56Z</time>
      </trkpt>
      <trkpt lat="46.01738" lon="10.93613">
        <ele>344.45</ele>
        <time>2022-09-18T07:25:57Z</time>
      </trkpt>
      <trkpt lat="46.01737" lon="10.93615">
        <ele>344.8</ele>
        <time>2022-09-18T07:25:58Z</time>
      </trkpt>
      <trkpt lat="46.01737" lon="10.93616">
        <ele>345.82</ele>
        <time>2022-09-18T07:25:59Z</time>
      </trkpt>
      <trkpt lat="46.01736" lon="10.93617">
        <ele>345.91</ele>
        <time>2022-09-18T07:26:00Z</time>
      </trkpt>
      <trkpt lat="46.01736" lon="10.93618">
        <ele>346.42</ele>
        <time>2022-09-18T07:26:01Z</time>
      </trkpt>
      <trkpt lat="46.01735" lon="10.9362">
        <ele>346.42</ele>
        <time>2022-09-18T07:26:02Z</time>
      </trkpt>
      <trkpt lat="46.01734" lon="10.93621">
        <ele>346.85</ele>
        <time>2022-09-18T07:26:03Z</time>
      </trkpt>
      <trkpt lat="46.01733" lon="10.93622">
        <ele>346.92</ele>
        <time>2022-09-18T07:26:04Z</time>
      </trkpt>
      <trkpt lat="46.01732" lon="10.93624">
        <ele>347.19</ele>
        <time>2022-09-18T07:26:05Z</time>
      </trkpt>
      <trkpt lat="46.01732" lon="10.93626">
        <ele>348.08</ele>
        <time>2022-09-18T07:26:06Z</time>
      </trkpt>
      <trkpt lat="46.01731" lon="10.93627">
        <ele>349.49</ele>
        <time>2022-09-18T07:26:07Z</time>
      </trkpt>
      <trkpt lat="46.0173" lon="10.93629">
        <ele>348.73</ele>
        <time>2022-09-18T07:26:08Z</time>
      </trkpt>
      <trkpt lat="46.0173" lon="10.9363">
        <ele>349.29</ele>
        <time>2022-09-18T07:26:09Z</time>
      </trkpt>
      <trkpt lat="46.01729" lon="10.93632">
        <ele>348.84</ele>
        <time>2022-09-18T07:26:10Z</time>
      </trkpt>
      <trkpt lat="46.01728" lon="10.93634">
        <ele>348.76</ele>
        <time>2022-09-18T07:26:11Z</time>
      </trkpt>
      <trkpt lat="46.01728" lon="10.93636">
        <ele>348.24</ele>
        <time>2022-09-18T07:26:12Z</time>
      </trkpt>
      <trkpt lat="46.01727" lon="10.93638">
        <ele>348.62</ele>
        <time>2022-09-18T07:26:13Z</time>
      </trkpt>
      <trkpt lat="46.01726" lon="10.9364">
        <ele>349.13</ele>
        <time>2022-09-18T07:26:14Z</time>
      </trkpt>
      <trkpt lat="46.01726" lon="10.93642">
        <ele>349.85</ele>
        <time>2022-09-18T07:26:15Z</time>
      </trkpt>
      <trkpt lat="46.01725" lon="10.93643">
        <ele>351.62</ele>
        <time>2022-09-18T07:26:16Z</time>
      </trkpt>
      <trkpt lat="46.01724" lon="10.93645">
        <ele>351.85</ele>
        <time>2022-09-18T07:26:17Z</time>
      </trkpt>
      <trkpt lat="46.01724" lon="10.93647">
        <ele>352.25</ele>
        <time>2022-09-18T07:26:18Z</time>
      </trkpt>
      <trkpt lat="46.01723" lon="10.93649">
        <ele>352.86</ele>
        <time>2022-09-18T07:26:19Z</time>
      </trkpt>
      <trkpt lat="46.01722" lon="10.9365">
        <ele>353.21</ele>
        <time>2022-09-18T07:26:20Z</time>
      </trkpt>
      <trkpt lat="46.01721" lon="10.93652">
        <ele>351.94</ele>
        <time>2022-09-18T07:26:21Z</time>
      </trkpt>
      <trkpt lat="46.0172" lon="10.93653">
        <ele>352.94</ele>
        <time>2022-09-18T07:26:23Z</time>
      </trkpt>
      <trkpt lat="46.01719" lon="10.93653">
        <ele>353.2</ele>
        <time>2022-09-18T07:26:24Z</time>
      </trkpt>
      <trkpt lat="46.01717" lon="10.93653">
        <ele>353.19</ele>
        <time>2022-09-18T07:26:25Z</time>
      </trkpt>
      <trkpt lat="46.01716" lon="10.93652">
        <ele>353.54</ele>
        <time>2022-09-18T07:26:26Z</time>
      </trkpt>
      <trkpt lat="46.01715" lon="10.93651">
        <ele>353.08</ele>
        <time>2022-09-18T07:26:27Z</time>
      </trkpt>
      <trkpt lat="46.01714" lon="10.93649">
        <ele>353.62</ele>
        <time>2022-09-18T07:26:28Z</time>
      </trkpt>
      <trkpt lat="46.01713" lon="10.93647">
        <ele>354.51</ele>
        <time>2022-09-18T07:26:29Z</time>
      </trkpt>
      <trkpt lat="46.01713" lon="10.93646">
        <ele>354.34</ele>
        <time>2022-09-18T07:26:30Z</time>
      </trkpt>
      <trkpt lat="46.01712" lon="10.93644">
        <ele>354.17</ele>
        <time>2022-09-18T07:26:31Z</time>
      </trkpt>
      <trkpt lat="46.01712" lon="10.93642">
        <ele>353.65</ele>
        <time>2022-09-18T07:26:32Z</time>
      </trkpt>
      <trkpt lat="46.01712" lon="10.9364">
        <ele>354.31</ele>
        <time>2022-09-18T07:26:33Z</time>
      </trkpt>
      <trkpt lat="46.01711" lon="10.93638">
        <ele>355.68</ele>
        <time>2022-09-18T07:26:34Z</time>
      </trkpt>
      <trkpt lat="46.01711" lon="10.93636">
        <ele>356.72</ele>
        <time>2022-09-18T07:26:35Z</time>
      </trkpt>
      <trkpt lat="46.01711" lon="10.93634">
        <ele>355.52</ele>
        <time>2022-09-18T07:26:36Z</time>
      </trkpt>
      <trkpt lat="46.01711" lon="10.93632">
        <ele>353.89</ele>
        <time>2022-09-18T07:26:37Z</time>
      </trkpt>
      <trkpt lat="46.01712" lon="10.9363">
        <ele>353.72</ele>
        <time>2022-09-18T07:26:38Z</time>
      </trkpt>
      <trkpt lat="46.01712" lon="10.93628">
        <ele>355.13</ele>
        <time>2022-09-18T07:26:39Z</time>
      </trkpt>
      <trkpt lat="46.01712" lon="10.93627">
        <ele>357.19</ele>
        <time>2022-09-18T07:26:40Z</time>
      </trkpt>
      <trkpt lat="46.01712" lon="10.93625">
        <ele>359.62</ele>
        <time>2022-09-18T07:26:41Z</time>
      </trkpt>
      <trkpt lat="46.01712" lon="10.93624">
        <ele>361.56</ele>
        <time>2022-09-18T07:26:42Z</time>
      </trkpt>
      <trkpt lat="46.01711" lon="10.93623">
        <ele>360.84</ele>
        <time>2022-09-18T07:26:43Z</time>
      </trkpt>
      <trkpt lat="46.01712" lon="10.93621">
        <ele>360.46</ele>
        <time>2022-09-18T07:26:44Z</time>
      </trkpt>
      <trkpt lat="46.01712" lon="10.9362">
        <ele>360.21</ele>
        <time>2022-09-18T07:26:45Z</time>
      </trkpt>
      <trkpt lat="46.01712" lon="10.93618">
        <ele>359.38</ele>
        <time>2022-09-18T07:26:46Z</time>
      </trkpt>
      <trkpt lat="46.01712" lon="10.93617">
        <ele>359.23</ele>
        <time>2022-09-18T07:26:47Z</time>
      </trkpt>
      <trkpt lat="46.01712" lon="10.93615">
        <ele>359.49</ele>
        <time>2022-09-18T07:26:48Z</time>
      </trkpt>
      <trkpt lat="46.01713" lon="10.93614">
        <ele>360.13</ele>
        <time>2022-09-18T07:26:49Z</time>
      </trkpt>
      <trkpt lat="46.01713" lon="10.93612">
        <ele>361.54</ele>
        <time>2022-09-18T07:26:50Z</time>
      </trkpt>
      <trkpt lat="46.01713" lon="10.93611">
        <ele>361.21</ele>
        <time>2022-09-18T07:26:51Z</time>
      </trkpt>
      <trkpt lat="46.01713" lon="10.93609">
        <ele>361.88</ele>
        <time>2022-09-18T07:26:53Z</time>
      </trkpt>
      <trkpt lat="46.01713" lon="10.93607">
        <ele>361.78</ele>
        <time>2022-09-18T07:26:54Z</time>
      </trkpt>
      <trkpt lat="46.01714" lon="10.93606">
        <ele>361.97</ele>
        <time>2022-09-18T07:26:55Z</time>
      </trkpt>
      <trkpt lat="46.01714" lon="10.93604">
        <ele>361.84</ele>
        <time>2022-09-18T07:26:56Z</time>
      </trkpt>
      <trkpt lat="46.01714" lon="10.93603">
        <ele>362.29</ele>
        <time>2022-09-18T07:26:57Z</time>
      </trkpt>
      <trkpt lat="46.01715" lon="10.93602">
        <ele>362.19</ele>
        <time>2022-09-18T07:26:58Z</time>
      </trkpt>
      <trkpt lat="46.01715" lon="10.93601">
        <ele>362.64</ele>
        <time>2022-09-18T07:26:59Z</time>
      </trkpt>
      <trkpt lat="46.01716" lon="10.93599">
        <ele>363.53</ele>
        <time>2022-09-18T07:27:00Z</time>
      </trkpt>
      <trkpt lat="46.01716" lon="10.93598">
        <ele>362.69</ele>
        <time>2022-09-18T07:27:01Z</time>
      </trkpt>
      <trkpt lat="46.01717" lon="10.93596">
        <ele>363.61</ele>
        <time>2022-09-18T07:27:02Z</time>
      </trkpt>
      <trkpt lat="46.01717" lon="10.93595">
        <ele>363.34</ele>
        <time>2022-09-18T07:27:03Z</time>
      </trkpt>
      <trkpt lat="46.01717" lon="10.93594">
        <ele>363.15</ele>
        <time>2022-09-18T07:27:04Z</time>
      </trkpt>
      <trkpt lat="46.01718" lon="10.93592">
        <ele>363.98</ele>
        <time>2022-09-18T07:27:06Z</time>
      </trkpt>
      <trkpt lat="46.01718" lon="10.9359">
        <ele>362.67</ele>
        <time>2022-09-18T07:27:07Z</time>
      </trkpt>
      <trkpt lat="46.01718" lon="10.93589">
        <ele>363.8</ele>
        <time>2022-09-18T07:27:08Z</time>
      </trkpt>
      <trkpt lat="46.01718" lon="10.93587">
        <ele>362.67</ele>
        <time>2022-09-18T07:27:09Z</time>
      </trkpt>
      <trkpt lat="46.01718" lon="10.93586">
        <ele>362.88</ele>
        <time>2022-09-18T07:27:10Z</time>
      </trkpt>
      <trkpt lat="46.01718" lon="10.93584">
        <ele>362.94</ele>
        <time>2022-09-18T07:27:11Z</time>
      </trkpt>
      <trkpt lat="46.01718" lon="10.93582">
        <ele>362.57</ele>
        <time>2022-09-18T07:27:12Z</time>
      </trkpt>
      <trkpt lat="46.01718" lon="10.9358">
        <ele>361.83</ele>
        <time>2022-09-18T07:27:13Z</time>
      </trkpt>
      <trkpt lat="46.01718" lon="10.93579">
        <ele>363.47</ele>
        <time>2022-09-18T07:27:14Z</time>
      </trkpt>
      <trkpt lat="46.01718" lon="10.93577">
        <ele>363.57</ele>
        <time>2022-09-18T07:27:15Z</time>
      </trkpt>
      <trkpt lat="46.01717" lon="10.93575">
        <ele>364.07</ele>
        <time>2022-09-18T07:27:16Z</time>
      </trkpt>
      <trkpt lat="46.01717" lon="10.93573">
        <ele>363.72</ele>
        <time>2022-09-18T07:27:17Z</time>
      </trkpt>
      <trkpt lat="46.01717" lon="10.93571">
        <ele>363.78</ele>
        <time>2022-09-18T07:27:18Z</time>
      </trkpt>
      <trkpt lat="46.01717" lon="10.9357">
        <ele>363.05</ele>
        <time>2022-09-18T07:27:19Z</time>
      </trkpt>
      <trkpt lat="46.01718" lon="10.93566">
        <ele>362.65</ele>
        <time>2022-09-18T07:27:21Z</time>
      </trkpt>
      <trkpt lat="46.01718" lon="10.93565">
        <ele>363.52</ele>
        <time>2022-09-18T07:27:22Z</time>
      </trkpt>
      <trkpt lat="46.01718" lon="10.93562">
        <ele>363.52</ele>
        <time>2022-09-18T07:27:24Z</time>
      </trkpt>
      <trkpt lat="46.01719" lon="10.93558">
        <ele>363.87</ele>
        <time>2022-09-18T07:27:26Z</time>
      </trkpt>
      <trkpt lat="46.01719" lon="10.93557">
        <ele>364.42</ele>
        <time>2022-09-18T07:27:27Z</time>
      </trkpt>
      <trkpt lat="46.01719" lon="10.93555">
        <ele>366.36</ele>
        <time>2022-09-18T07:27:28Z</time>
      </trkpt>
      <trkpt lat="46.0172" lon="10.93553">
        <ele>367.43</ele>
        <time>2022-09-18T07:27:29Z</time>
      </trkpt>
      <trkpt lat="46.0172" lon="10.93552">
        <ele>367.97</ele>
        <time>2022-09-18T07:27:30Z</time>
      </trkpt>
      <trkpt lat="46.0172" lon="10.9355">
        <ele>369.15</ele>
        <time>2022-09-18T07:27:31Z</time>
      </trkpt>
      <trkpt lat="46.01721" lon="10.93548">
        <ele>368.89</ele>
        <time>2022-09-18T07:27:32Z</time>
      </trkpt>
      <trkpt lat="46.01721" lon="10.93547">
        <ele>369.23</ele>
        <time>2022-09-18T07:27:33Z</time>
      </trkpt>
      <trkpt lat="46.01722" lon="10.93545">
        <ele>368.32</ele>
        <time>2022-09-18T07:27:34Z</time>
      </trkpt>
      <trkpt lat="46.01723" lon="10.93542">
        <ele>368.9</ele>
        <time>2022-09-18T07:27:36Z</time>
      </trkpt>
      <trkpt lat="46.01724" lon="10.9354">
        <ele>369.78</ele>
        <time>2022-09-18T07:27:37Z</time>
      </trkpt>
      <trkpt lat="46.01725" lon="10.93538">
        <ele>370.35</ele>
        <time>2022-09-18T07:27:38Z</time>
      </trkpt>
      <trkpt lat="46.01726" lon="10.93537">
        <ele>369.77</ele>
        <time>2022-09-18T07:27:39Z</time>
      </trkpt>
      <trkpt lat="46.01727" lon="10.93535">
        <ele>369.18</ele>
        <time>2022-09-18T07:27:40Z</time>
      </trkpt>
      <trkpt lat="46.01728" lon="10.93534">
        <ele>369.22</ele>
        <time>2022-09-18T07:27:41Z</time>
      </trkpt>
      <trkpt lat="46.0173" lon="10.93533">
        <ele>369.76</ele>
        <time>2022-09-18T07:27:42Z</time>
      </trkpt>
      <trkpt lat="46.01731" lon="10.93531">
        <ele>369.91</ele>
        <time>2022-09-18T07:27:43Z</time>
      </trkpt>
      <trkpt lat="46.01732" lon="10.9353">
        <ele>369.17</ele>
        <time>2022-09-18T07:27:44Z</time>
      </trkpt>
      <trkpt lat="46.01733" lon="10.93529">
        <ele>368.51</ele>
        <time>2022-09-18T07:27:45Z</time>
      </trkpt>
      <trkpt lat="46.01734" lon="10.93528">
        <ele>369.17</ele>
        <time>2022-09-18T07:27:46Z</time>
      </trkpt>
      <trkpt lat="46.01735" lon="10.93526">
        <ele>368.6</ele>
        <time>2022-09-18T07:27:47Z</time>
      </trkpt>
      <trkpt lat="46.01736" lon="10.93525">
        <ele>368.96</ele>
        <time>2022-09-18T07:27:48Z</time>
      </trkpt>
      <trkpt lat="46.01737" lon="10.93524">
        <ele>369.24</ele>
        <time>2022-09-18T07:27:49Z</time>
      </trkpt>
      <trkpt lat="46.01738" lon="10.93522">
        <ele>369.78</ele>
        <time>2022-09-18T07:27:50Z</time>
      </trkpt>
      <trkpt lat="46.01739" lon="10.93521">
        <ele>369.76</ele>
        <time>2022-09-18T07:27:51Z</time>
      </trkpt>
      <trkpt lat="46.0174" lon="10.93521">
        <ele>369.28</ele>
        <time>2022-09-18T07:27:52Z</time>
      </trkpt>
      <trkpt lat="46.01741" lon="10.93521">
        <ele>369.81</ele>
        <time>2022-09-18T07:27:53Z</time>
      </trkpt>
      <trkpt lat="46.01742" lon="10.9352">
        <ele>370.11</ele>
        <time>2022-09-18T07:27:54Z</time>
      </trkpt>
      <trkpt lat="46.01743" lon="10.9352">
        <ele>370.67</ele>
        <time>2022-09-18T07:27:55Z</time>
      </trkpt>
      <trkpt lat="46.01744" lon="10.93519">
        <ele>353.45</ele>
        <time>2022-09-18T07:27:56Z</time>
      </trkpt>
      <trkpt lat="46.01745" lon="10.93518">
        <ele>357.86</ele>
        <time>2022-09-18T07:27:57Z</time>
      </trkpt>
      <trkpt lat="46.01746" lon="10.93517">
        <ele>360.5</ele>
        <time>2022-09-18T07:27:58Z</time>
      </trkpt>
      <trkpt lat="46.01747" lon="10.93516">
        <ele>362.96</ele>
        <time>2022-09-18T07:27:59Z</time>
      </trkpt>
      <trkpt lat="46.01748" lon="10.93516">
        <ele>364.53</ele>
        <time>2022-09-18T07:28:00Z</time>
      </trkpt>
      <trkpt lat="46.01749" lon="10.93515">
        <ele>365.83</ele>
        <time>2022-09-18T07:28:01Z</time>
      </trkpt>
      <trkpt lat="46.0175" lon="10.93514">
        <ele>365.82</ele>
        <time>2022-09-18T07:28:02Z</time>
      </trkpt>
      <trkpt lat="46.0175" lon="10.93512">
        <ele>366.71</ele>
        <time>2022-09-18T07:28:03Z</time>
      </trkpt>
      <trkpt lat="46.01751" lon="10.93511">
        <ele>366.76</ele>
        <time>2022-09-18T07:28:04Z</time>
      </trkpt>
      <trkpt lat="46.01754" lon="10.93509">
        <ele>368.44</ele>
        <time>2022-09-18T07:28:06Z</time>
      </trkpt>
      <trkpt lat="46.01755" lon="10.93509">
        <ele>368.64</ele>
        <time>2022-09-18T07:28:07Z</time>
      </trkpt>
      <trkpt lat="46.01756" lon="10.93508">
        <ele>368.94</ele>
        <time>2022-09-18T07:28:08Z</time>
      </trkpt>
      <trkpt lat="46.01757" lon="10.93508">
        <ele>369.03</ele>
        <time>2022-09-18T07:28:09Z</time>
      </trkpt>
      <trkpt lat="46.01758" lon="10.93507">
        <ele>369.31</ele>
        <time>2022-09-18T07:28:10Z</time>
      </trkpt>
      <trkpt lat="46.0176" lon="10.93506">
        <ele>369.77</ele>
        <time>2022-09-18T07:28:11Z</time>
      </trkpt>
      <trkpt lat="46.01761" lon="10.93506">
        <ele>368.95</ele>
        <time>2022-09-18T07:28:12Z</time>
      </trkpt>
      <trkpt lat="46.01762" lon="10.93505">
        <ele>369.21</ele>
        <time>2022-09-18T07:28:13Z</time>
      </trkpt>
      <trkpt lat="46.01763" lon="10.93505">
        <ele>368.52</ele>
        <time>2022-09-18T07:28:14Z</time>
      </trkpt>
      <trkpt lat="46.01764" lon="10.93504">
        <ele>368.92</ele>
        <time>2022-09-18T07:28:15Z</time>
      </trkpt>
      <trkpt lat="46.01765" lon="10.93503">
        <ele>368.7</ele>
        <time>2022-09-18T07:28:16Z</time>
      </trkpt>
      <trkpt lat="46.01766" lon="10.93502">
        <ele>368.4</ele>
        <time>2022-09-18T07:28:17Z</time>
      </trkpt>
      <trkpt lat="46.01767" lon="10.93501">
        <ele>368.99</ele>
        <time>2022-09-18T07:28:18Z</time>
      </trkpt>
      <trkpt lat="46.01768" lon="10.935">
        <ele>367.4</ele>
        <time>2022-09-18T07:28:19Z</time>
      </trkpt>
      <trkpt lat="46.01769" lon="10.93499">
        <ele>366.44</ele>
        <time>2022-09-18T07:28:20Z</time>
      </trkpt>
      <trkpt lat="46.0177" lon="10.93497">
        <ele>367.43</ele>
        <time>2022-09-18T07:28:21Z</time>
      </trkpt>
      <trkpt lat="46.0177" lon="10.93495">
        <ele>366.9</ele>
        <time>2022-09-18T07:28:22Z</time>
      </trkpt>
      <trkpt lat="46.0177" lon="10.93494">
        <ele>366.44</ele>
        <time>2022-09-18T07:28:23Z</time>
      </trkpt>
      <trkpt lat="46.01769" lon="10.93492">
        <ele>366.28</ele>
        <time>2022-09-18T07:28:24Z</time>
      </trkpt>
      <trkpt lat="46.01769" lon="10.93491">
        <ele>366.63</ele>
        <time>2022-09-18T07:28:25Z</time>
      </trkpt>
      <trkpt lat="46.01767" lon="10.9349">
        <ele>365.91</ele>
        <time>2022-09-18T07:28:26Z</time>
      </trkpt>
      <trkpt lat="46.01766" lon="10.9349">
        <ele>364.01</ele>
        <time>2022-09-18T07:28:27Z</time>
      </trkpt>
      <trkpt lat="46.01764" lon="10.9349">
        <ele>363.94</ele>
        <time>2022-09-18T07:28:28Z</time>
      </trkpt>
      <trkpt lat="46.01763" lon="10.9349">
        <ele>363.84</ele>
        <time>2022-09-18T07:28:29Z</time>
      </trkpt>
      <trkpt lat="46.01762" lon="10.93491">
        <ele>364.18</ele>
        <time>2022-09-18T07:28:30Z</time>
      </trkpt>
      <trkpt lat="46.01761" lon="10.93492">
        <ele>365.28</ele>
        <time>2022-09-18T07:28:31Z</time>
      </trkpt>
      <trkpt lat="46.0176" lon="10.93494">
        <ele>365.4</ele>
        <time>2022-09-18T07:28:32Z</time>
      </trkpt>
      <trkpt lat="46.01759" lon="10.93495">
        <ele>365.67</ele>
        <time>2022-09-18T07:28:33Z</time>
      </trkpt>
      <trkpt lat="46.01758" lon="10.93495">
        <ele>365.92</ele>
        <time>2022-09-18T07:28:34Z</time>
      </trkpt>
      <trkpt lat="46.01757" lon="10.93496">
        <ele>366.51</ele>
        <time>2022-09-18T07:28:35Z</time>
      </trkpt>
      <trkpt lat="46.01755" lon="10.93497">
        <ele>366.53</ele>
        <time>2022-09-18T07:28:36Z</time>
      </trkpt>
      <trkpt lat="46.01754" lon="10.93497">
        <ele>366.6</ele>
        <time>2022-09-18T07:28:37Z</time>
      </trkpt>
      <trkpt lat="46.01753" lon="10.93498">
        <ele>366.43</ele>
        <time>2022-09-18T07:28:38Z</time>
      </trkpt>
      <trkpt lat="46.01752" lon="10.93498">
        <ele>366.66</ele>
        <time>2022-09-18T07:28:39Z</time>
      </trkpt>
      <trkpt lat="46.0175" lon="10.93499">
        <ele>366.78</ele>
        <time>2022-09-18T07:28:40Z</time>
      </trkpt>
      <trkpt lat="46.01749" lon="10.93499">
        <ele>366.96</ele>
        <time>2022-09-18T07:28:41Z</time>
      </trkpt>
      <trkpt lat="46.01748" lon="10.935">
        <ele>366.82</ele>
        <time>2022-09-18T07:28:42Z</time>
      </trkpt>
      <trkpt lat="46.01746" lon="10.93501">
        <ele>366.52</ele>
        <time>2022-09-18T07:28:43Z</time>
      </trkpt>
      <trkpt lat="46.01745" lon="10.93501">
        <ele>365.19</ele>
        <time>2022-09-18T07:28:44Z</time>
      </trkpt>
      <trkpt lat="46.01743" lon="10.93501">
        <ele>364.64</ele>
        <time>2022-09-18T07:28:45Z</time>
      </trkpt>
      <trkpt lat="46.01742" lon="10.93501">
        <ele>363.91</ele>
        <time>2022-09-18T07:28:46Z</time>
      </trkpt>
      <trkpt lat="46.01741" lon="10.935">
        <ele>363.65</ele>
        <time>2022-09-18T07:28:47Z</time>
      </trkpt>
      <trkpt lat="46.01739" lon="10.935">
        <ele>363.73</ele>
        <time>2022-09-18T07:28:48Z</time>
      </trkpt>
      <trkpt lat="46.01738" lon="10.93499">
        <ele>363.81</ele>
        <time>2022-09-18T07:28:49Z</time>
      </trkpt>
      <trkpt lat="46.01737" lon="10.93499">
        <ele>364.63</ele>
        <time>2022-09-18T07:28:50Z</time>
      </trkpt>
      <trkpt lat="46.01735" lon="10.93499">
        <ele>363.65</ele>
        <time>2022-09-18T07:28:51Z</time>
      </trkpt>
      <trkpt lat="46.01734" lon="10.93498">
        <ele>363.73</ele>
        <time>2022-09-18T07:28:52Z</time>
      </trkpt>
      <trkpt lat="46.01733" lon="10.93498">
        <ele>364.58</ele>
        <time>2022-09-18T07:28:53Z</time>
      </trkpt>
      <trkpt lat="46.01731" lon="10.93498">
        <ele>365.41</ele>
        <time>2022-09-18T07:28:54Z</time>
      </trkpt>
      <trkpt lat="46.0173" lon="10.93498">
        <ele>365.42</ele>
        <time>2022-09-18T07:28:55Z</time>
      </trkpt>
      <trkpt lat="46.01729" lon="10.93498">
        <ele>365.83</ele>
        <time>2022-09-18T07:28:56Z</time>
      </trkpt>
      <trkpt lat="46.01728" lon="10.93498">
        <ele>366.13</ele>
        <time>2022-09-18T07:28:57Z</time>
      </trkpt>
      <trkpt lat="46.01727" lon="10.93498">
        <ele>365.42</ele>
        <time>2022-09-18T07:28:58Z</time>
      </trkpt>
      <trkpt lat="46.01726" lon="10.93498">
        <ele>366.13</ele>
        <time>2022-09-18T07:28:59Z</time>
      </trkpt>
      <trkpt lat="46.01725" lon="10.93499">
        <ele>367.11</ele>
        <time>2022-09-18T07:29:00Z</time>
      </trkpt>
      <trkpt lat="46.01724" lon="10.93499">
        <ele>368.78</ele>
        <time>2022-09-18T07:29:01Z</time>
      </trkpt>
      <trkpt lat="46.01723" lon="10.93499">
        <ele>369.35</ele>
        <time>2022-09-18T07:29:02Z</time>
      </trkpt>
      <trkpt lat="46.01722" lon="10.935">
        <ele>370.44</ele>
        <time>2022-09-18T07:29:03Z</time>
      </trkpt>
      <trkpt lat="46.01721" lon="10.935">
        <ele>370.24</ele>
        <time>2022-09-18T07:29:04Z</time>
      </trkpt>
      <trkpt lat="46.0172" lon="10.93501">
        <ele>369.61</ele>
        <time>2022-09-18T07:29:05Z</time>
      </trkpt>
      <trkpt lat="46.01719" lon="10.93502">
        <ele>369.9</ele>
        <time>2022-09-18T07:29:06Z</time>
      </trkpt>
      <trkpt lat="46.01718" lon="10.93502">
        <ele>369.58</ele>
        <time>2022-09-18T07:29:07Z</time>
      </trkpt>
      <trkpt lat="46.01717" lon="10.93503">
        <ele>370.24</ele>
        <time>2022-09-18T07:29:08Z</time>
      </trkpt>
      <trkpt lat="46.01716" lon="10.93504">
        <ele>370.17</ele>
        <time>2022-09-18T07:29:09Z</time>
      </trkpt>
      <trkpt lat="46.01716" lon="10.93505">
        <ele>370.51</ele>
        <time>2022-09-18T07:29:10Z</time>
      </trkpt>
      <trkpt lat="46.01715" lon="10.93506">
        <ele>371.32</ele>
        <time>2022-09-18T07:29:11Z</time>
      </trkpt>
      <trkpt lat="46.01714" lon="10.93507">
        <ele>370.85</ele>
        <time>2022-09-18T07:29:12Z</time>
      </trkpt>
      <trkpt lat="46.01713" lon="10.93508">
        <ele>370.85</ele>
        <time>2022-09-18T07:29:13Z</time>
      </trkpt>
      <trkpt lat="46.01712" lon="10.93509">
        <ele>371.39</ele>
        <time>2022-09-18T07:29:14Z</time>
      </trkpt>
      <trkpt lat="46.01712" lon="10.9351">
        <ele>371.59</ele>
        <time>2022-09-18T07:29:15Z</time>
      </trkpt>
      <trkpt lat="46.01711" lon="10.93511">
        <ele>372.23</ele>
        <time>2022-09-18T07:29:16Z</time>
      </trkpt>
      <trkpt lat="46.0171" lon="10.93512">
        <ele>372.52</ele>
        <time>2022-09-18T07:29:17Z</time>
      </trkpt>
      <trkpt lat="46.01709" lon="10.93513">
        <ele>372.29</ele>
        <time>2022-09-18T07:29:18Z</time>
      </trkpt>
      <trkpt lat="46.01708" lon="10.93514">
        <ele>372.72</ele>
        <time>2022-09-18T07:29:19Z</time>
      </trkpt>
      <trkpt lat="46.01708" lon="10.93516">
        <ele>373.22</ele>
        <time>2022-09-18T07:29:20Z</time>
      </trkpt>
      <trkpt lat="46.01707" lon="10.93517">
        <ele>374.03</ele>
        <time>2022-09-18T07:29:21Z</time>
      </trkpt>
      <trkpt lat="46.01706" lon="10.93518">
        <ele>374.35</ele>
        <time>2022-09-18T07:29:22Z</time>
      </trkpt>
      <trkpt lat="46.01705" lon="10.9352">
        <ele>376.42</ele>
        <time>2022-09-18T07:29:23Z</time>
      </trkpt>
      <trkpt lat="46.01704" lon="10.93521">
        <ele>377.23</ele>
        <time>2022-09-18T07:29:24Z</time>
      </trkpt>
      <trkpt lat="46.01703" lon="10.93523">
        <ele>377.15</ele>
        <time>2022-09-18T07:29:25Z</time>
      </trkpt>
      <trkpt lat="46.01703" lon="10.93524">
        <ele>376.42</ele>
        <time>2022-09-18T07:29:26Z</time>
      </trkpt>
      <trkpt lat="46.01702" lon="10.93526">
        <ele>375.34</ele>
        <time>2022-09-18T07:29:27Z</time>
      </trkpt>
      <trkpt lat="46.01701" lon="10.93527">
        <ele>375.62</ele>
        <time>2022-09-18T07:29:28Z</time>
      </trkpt>
      <trkpt lat="46.017" lon="10.93528">
        <ele>376.08</ele>
        <time>2022-09-18T07:29:29Z</time>
      </trkpt>
      <trkpt lat="46.017" lon="10.93529">
        <ele>376.05</ele>
        <time>2022-09-18T07:29:30Z</time>
      </trkpt>
      <trkpt lat="46.01699" lon="10.9353">
        <ele>376.28</ele>
        <time>2022-09-18T07:29:31Z</time>
      </trkpt>
      <trkpt lat="46.01698" lon="10.93531">
        <ele>376.65</ele>
        <time>2022-09-18T07:29:32Z</time>
      </trkpt>
      <trkpt lat="46.01697" lon="10.93532">
        <ele>376.56</ele>
        <time>2022-09-18T07:29:33Z</time>
      </trkpt>
      <trkpt lat="46.01696" lon="10.93533">
        <ele>376.53</ele>
        <time>2022-09-18T07:29:34Z</time>
      </trkpt>
      <trkpt lat="46.01695" lon="10.93534">
        <ele>376.74</ele>
        <time>2022-09-18T07:29:35Z</time>
      </trkpt>
      <trkpt lat="46.01694" lon="10.93535">
        <ele>377.35</ele>
        <time>2022-09-18T07:29:36Z</time>
      </trkpt>
      <trkpt lat="46.01693" lon="10.93537">
        <ele>378.36</ele>
        <time>2022-09-18T07:29:37Z</time>
      </trkpt>
      <trkpt lat="46.01693" lon="10.93538">
        <ele>377.7</ele>
        <time>2022-09-18T07:29:38Z</time>
      </trkpt>
      <trkpt lat="46.01692" lon="10.93539">
        <ele>378.21</ele>
        <time>2022-09-18T07:29:39Z</time>
      </trkpt>
      <trkpt lat="46.01691" lon="10.9354">
        <ele>377.88</ele>
        <time>2022-09-18T07:29:40Z</time>
      </trkpt>
      <trkpt lat="46.0169" lon="10.93541">
        <ele>376.21</ele>
        <time>2022-09-18T07:29:41Z</time>
      </trkpt>
      <trkpt lat="46.01689" lon="10.93543">
        <ele>376</ele>
        <time>2022-09-18T07:29:42Z</time>
      </trkpt>
      <trkpt lat="46.01688" lon="10.93544">
        <ele>377.53</ele>
        <time>2022-09-18T07:29:43Z</time>
      </trkpt>
      <trkpt lat="46.01688" lon="10.93545">
        <ele>377.46</ele>
        <time>2022-09-18T07:29:44Z</time>
      </trkpt>
      <trkpt lat="46.01687" lon="10.93546">
        <ele>377.26</ele>
        <time>2022-09-18T07:29:45Z</time>
      </trkpt>
      <trkpt lat="46.01686" lon="10.93547">
        <ele>376.82</ele>
        <time>2022-09-18T07:29:46Z</time>
      </trkpt>
      <trkpt lat="46.01685" lon="10.93548">
        <ele>377.21</ele>
        <time>2022-09-18T07:29:47Z</time>
      </trkpt>
      <trkpt lat="46.01684" lon="10.93549">
        <ele>378.89</ele>
        <time>2022-09-18T07:29:48Z</time>
      </trkpt>
      <trkpt lat="46.01683" lon="10.9355">
        <ele>379.55</ele>
        <time>2022-09-18T07:29:49Z</time>
      </trkpt>
      <trkpt lat="46.01682" lon="10.93551">
        <ele>380.31</ele>
        <time>2022-09-18T07:29:50Z</time>
      </trkpt>
      <trkpt lat="46.01681" lon="10.93553">
        <ele>378.38</ele>
        <time>2022-09-18T07:29:51Z</time>
      </trkpt>
      <trkpt lat="46.0168" lon="10.93553">
        <ele>380.7</ele>
        <time>2022-09-18T07:29:52Z</time>
      </trkpt>
      <trkpt lat="46.01679" lon="10.93554">
        <ele>380.85</ele>
        <time>2022-09-18T07:29:53Z</time>
      </trkpt>
      <trkpt lat="46.01678" lon="10.93555">
        <ele>380.69</ele>
        <time>2022-09-18T07:29:54Z</time>
      </trkpt>
      <trkpt lat="46.01677" lon="10.93557">
        <ele>381.13</ele>
        <time>2022-09-18T07:29:55Z</time>
      </trkpt>
      <trkpt lat="46.01677" lon="10.93557">
        <ele>379.86</ele>
        <time>2022-09-18T07:29:56Z</time>
      </trkpt>
      <trkpt lat="46.01676" lon="10.93558">
        <ele>379.75</ele>
        <time>2022-09-18T07:29:57Z</time>
      </trkpt>
      <trkpt lat="46.01675" lon="10.93559">
        <ele>379.69</ele>
        <time>2022-09-18T07:29:58Z</time>
      </trkpt>
      <trkpt lat="46.01674" lon="10.9356">
        <ele>379.6</ele>
        <time>2022-09-18T07:29:59Z</time>
      </trkpt>
      <trkpt lat="46.01673" lon="10.93561">
        <ele>379.47</ele>
        <time>2022-09-18T07:30:00Z</time>
      </trkpt>
      <trkpt lat="46.01672" lon="10.93562">
        <ele>379.7</ele>
        <time>2022-09-18T07:30:01Z</time>
      </trkpt>
      <trkpt lat="46.01671" lon="10.93562">
        <ele>380.19</ele>
        <time>2022-09-18T07:30:02Z</time>
      </trkpt>
      <trkpt lat="46.0167" lon="10.93563">
        <ele>380.25</ele>
        <time>2022-09-18T07:30:03Z</time>
      </trkpt>
      <trkpt lat="46.01669" lon="10.93564">
        <ele>380.54</ele>
        <time>2022-09-18T07:30:04Z</time>
      </trkpt>
      <trkpt lat="46.01668" lon="10.93565">
        <ele>379.36</ele>
        <time>2022-09-18T07:30:05Z</time>
      </trkpt>
      <trkpt lat="46.01667" lon="10.93566">
        <ele>378.64</ele>
        <time>2022-09-18T07:30:06Z</time>
      </trkpt>
      <trkpt lat="46.01667" lon="10.93566">
        <ele>377.33</ele>
        <time>2022-09-18T07:30:07Z</time>
      </trkpt>
      <trkpt lat="46.01666" lon="10.93567">
        <ele>378.01</ele>
        <time>2022-09-18T07:30:08Z</time>
      </trkpt>
      <trkpt lat="46.01665" lon="10.93567">
        <ele>377.27</ele>
        <time>2022-09-18T07:30:09Z</time>
      </trkpt>
      <trkpt lat="46.01664" lon="10.93567">
        <ele>377.64</ele>
        <time>2022-09-18T07:30:10Z</time>
      </trkpt>
      <trkpt lat="46.01663" lon="10.93567">
        <ele>378.8</ele>
        <time>2022-09-18T07:30:11Z</time>
      </trkpt>
      <trkpt lat="46.01662" lon="10.93567">
        <ele>379.56</ele>
        <time>2022-09-18T07:30:12Z</time>
      </trkpt>
      <trkpt lat="46.01661" lon="10.93567">
        <ele>380.2</ele>
        <time>2022-09-18T07:30:13Z</time>
      </trkpt>
      <trkpt lat="46.0166" lon="10.93568">
        <ele>379.72</ele>
        <time>2022-09-18T07:30:14Z</time>
      </trkpt>
      <trkpt lat="46.01658" lon="10.93569">
        <ele>380.38</ele>
        <time>2022-09-18T07:30:15Z</time>
      </trkpt>
      <trkpt lat="46.01657" lon="10.93569">
        <ele>380.61</ele>
        <time>2022-09-18T07:30:17Z</time>
      </trkpt>
      <trkpt lat="46.01655" lon="10.93568">
        <ele>380.91</ele>
        <time>2022-09-18T07:30:18Z</time>
      </trkpt>
      <trkpt lat="46.01654" lon="10.93568">
        <ele>380.55</ele>
        <time>2022-09-18T07:30:19Z</time>
      </trkpt>
      <trkpt lat="46.01653" lon="10.93568">
        <ele>380.22</ele>
        <time>2022-09-18T07:30:20Z</time>
      </trkpt>
      <trkpt lat="46.01652" lon="10.93567">
        <ele>381.61</ele>
        <time>2022-09-18T07:30:21Z</time>
      </trkpt>
      <trkpt lat="46.01651" lon="10.93567">
        <ele>380.63</ele>
        <time>2022-09-18T07:30:22Z</time>
      </trkpt>
      <trkpt lat="46.0165" lon="10.93566">
        <ele>380.06</ele>
        <time>2022-09-18T07:30:23Z</time>
      </trkpt>
      <trkpt lat="46.01649" lon="10.93565">
        <ele>380.49</ele>
        <time>2022-09-18T07:30:24Z</time>
      </trkpt>
      <trkpt lat="46.01648" lon="10.93565">
        <ele>380.33</ele>
        <time>2022-09-18T07:30:25Z</time>
      </trkpt>
      <trkpt lat="46.01647" lon="10.93564">
        <ele>381.07</ele>
        <time>2022-09-18T07:30:26Z</time>
      </trkpt>
      <trkpt lat="46.01646" lon="10.93563">
        <ele>381.81</ele>
        <time>2022-09-18T07:30:27Z</time>
      </trkpt>
      <trkpt lat="46.01645" lon="10.93562">
        <ele>381.81</ele>
        <time>2022-09-18T07:30:28Z</time>
      </trkpt>
      <trkpt lat="46.01644" lon="10.93562">
        <ele>382.34</ele>
        <time>2022-09-18T07:30:29Z</time>
      </trkpt>
      <trkpt lat="46.01643" lon="10.93561">
        <ele>382.27</ele>
        <time>2022-09-18T07:30:30Z</time>
      </trkpt>
      <trkpt lat="46.01642" lon="10.9356">
        <ele>383.36</ele>
        <time>2022-09-18T07:30:31Z</time>
      </trkpt>
      <trkpt lat="46.01641" lon="10.93559">
        <ele>382.96</ele>
        <time>2022-09-18T07:30:32Z</time>
      </trkpt>
      <trkpt lat="46.0164" lon="10.93558">
        <ele>382.75</ele>
        <time>2022-09-18T07:30:34Z</time>
      </trkpt>
      <trkpt lat="46.0164" lon="10.93556">
        <ele>382.9</ele>
        <time>2022-09-18T07:30:35Z</time>
      </trkpt>
      <trkpt lat="46.01639" lon="10.93555">
        <ele>383.64</ele>
        <time>2022-09-18T07:30:36Z</time>
      </trkpt>
      <trkpt lat="46.01638" lon="10.93554">
        <ele>384.93</ele>
        <time>2022-09-18T07:30:37Z</time>
      </trkpt>
      <trkpt lat="46.01637" lon="10.93553">
        <ele>383.97</ele>
        <time>2022-09-18T07:30:38Z</time>
      </trkpt>
      <trkpt lat="46.01636" lon="10.93552">
        <ele>383.56</ele>
        <time>2022-09-18T07:30:39Z</time>
      </trkpt>
      <trkpt lat="46.01635" lon="10.93551">
        <ele>383.98</ele>
        <time>2022-09-18T07:30:40Z</time>
      </trkpt>
      <trkpt lat="46.01634" lon="10.9355">
        <ele>384.31</ele>
        <time>2022-09-18T07:30:41Z</time>
      </trkpt>
      <trkpt lat="46.01633" lon="10.93549">
        <ele>383.05</ele>
        <time>2022-09-18T07:30:43Z</time>
      </trkpt>
      <trkpt lat="46.01632" lon="10.93547">
        <ele>382.74</ele>
        <time>2022-09-18T07:30:44Z</time>
      </trkpt>
      <trkpt lat="46.01631" lon="10.93546">
        <ele>383.48</ele>
        <time>2022-09-18T07:30:45Z</time>
      </trkpt>
      <trkpt lat="46.0163" lon="10.93545">
        <ele>384.41</ele>
        <time>2022-09-18T07:30:46Z</time>
      </trkpt>
      <trkpt lat="46.01629" lon="10.93543">
        <ele>385.89</ele>
        <time>2022-09-18T07:30:47Z</time>
      </trkpt>
      <trkpt lat="46.01628" lon="10.93542">
        <ele>386.11</ele>
        <time>2022-09-18T07:30:48Z</time>
      </trkpt>
      <trkpt lat="46.01627" lon="10.93541">
        <ele>386.04</ele>
        <time>2022-09-18T07:30:49Z</time>
      </trkpt>
      <trkpt lat="46.01626" lon="10.9354">
        <ele>386.67</ele>
        <time>2022-09-18T07:30:50Z</time>
      </trkpt>
      <trkpt lat="46.01625" lon="10.93538">
        <ele>386.28</ele>
        <time>2022-09-18T07:30:51Z</time>
      </trkpt>
      <trkpt lat="46.01625" lon="10.93537">
        <ele>386.07</ele>
        <time>2022-09-18T07:30:52Z</time>
      </trkpt>
      <trkpt lat="46.01624" lon="10.93536">
        <ele>387.34</ele>
        <time>2022-09-18T07:30:54Z</time>
      </trkpt>
      <trkpt lat="46.01623" lon="10.93534">
        <ele>388.39</ele>
        <time>2022-09-18T07:30:55Z</time>
      </trkpt>
      <trkpt lat="46.01623" lon="10.93532">
        <ele>387.98</ele>
        <time>2022-09-18T07:30:56Z</time>
      </trkpt>
      <trkpt lat="46.01622" lon="10.9353">
        <ele>387.7</ele>
        <time>2022-09-18T07:30:57Z</time>
      </trkpt>
      <trkpt lat="46.01621" lon="10.93529">
        <ele>388.41</ele>
        <time>2022-09-18T07:30:58Z</time>
      </trkpt>
      <trkpt lat="46.01621" lon="10.93527">
        <ele>388.65</ele>
        <time>2022-09-18T07:30:59Z</time>
      </trkpt>
      <trkpt lat="46.0162" lon="10.93526">
        <ele>388.85</ele>
        <time>2022-09-18T07:31:00Z</time>
      </trkpt>
      <trkpt lat="46.01619" lon="10.93524">
        <ele>389.67</ele>
        <time>2022-09-18T07:31:01Z</time>
      </trkpt>
      <trkpt lat="46.01619" lon="10.93523">
        <ele>390.41</ele>
        <time>2022-09-18T07:31:02Z</time>
      </trkpt>
      <trkpt lat="46.01619" lon="10.93521">
        <ele>389.94</ele>
        <time>2022-09-18T07:31:03Z</time>
      </trkpt>
      <trkpt lat="46.01619" lon="10.93519">
        <ele>390.16</ele>
        <time>2022-09-18T07:31:05Z</time>
      </trkpt>
      <trkpt lat="46.01618" lon="10.93517">
        <ele>389.36</ele>
        <time>2022-09-18T07:31:06Z</time>
      </trkpt>
      <trkpt lat="46.01618" lon="10.93515">
        <ele>389.9</ele>
        <time>2022-09-18T07:31:07Z</time>
      </trkpt>
      <trkpt lat="46.01618" lon="10.93513">
        <ele>390.16</ele>
        <time>2022-09-18T07:31:08Z</time>
      </trkpt>
      <trkpt lat="46.01617" lon="10.93512">
        <ele>390.58</ele>
        <time>2022-09-18T07:31:09Z</time>
      </trkpt>
      <trkpt lat="46.01616" lon="10.9351">
        <ele>391.35</ele>
        <time>2022-09-18T07:31:10Z</time>
      </trkpt>
      <trkpt lat="46.01616" lon="10.93509">
        <ele>391.59</ele>
        <time>2022-09-18T07:31:11Z</time>
      </trkpt>
      <trkpt lat="46.01615" lon="10.93507">
        <ele>391.63</ele>
        <time>2022-09-18T07:31:12Z</time>
      </trkpt>
      <trkpt lat="46.01614" lon="10.93506">
        <ele>392.28</ele>
        <time>2022-09-18T07:31:13Z</time>
      </trkpt>
      <trkpt lat="46.01613" lon="10.93504">
        <ele>392.6</ele>
        <time>2022-09-18T07:31:14Z</time>
      </trkpt>
      <trkpt lat="46.01613" lon="10.93503">
        <ele>392.32</ele>
        <time>2022-09-18T07:31:15Z</time>
      </trkpt>
      <trkpt lat="46.01612" lon="10.93502">
        <ele>392.21</ele>
        <time>2022-09-18T07:31:16Z</time>
      </trkpt>
      <trkpt lat="46.01612" lon="10.93501">
        <ele>392.79</ele>
        <time>2022-09-18T07:31:17Z</time>
      </trkpt>
      <trkpt lat="46.01611" lon="10.93499">
        <ele>392.6</ele>
        <time>2022-09-18T07:31:18Z</time>
      </trkpt>
      <trkpt lat="46.0161" lon="10.93498">
        <ele>391.82</ele>
        <time>2022-09-18T07:31:19Z</time>
      </trkpt>
      <trkpt lat="46.0161" lon="10.93496">
        <ele>391.75</ele>
        <time>2022-09-18T07:31:20Z</time>
      </trkpt>
      <trkpt lat="46.01609" lon="10.93495">
        <ele>392.35</ele>
        <time>2022-09-18T07:31:21Z</time>
      </trkpt>
      <trkpt lat="46.01609" lon="10.93494">
        <ele>393.68</ele>
        <time>2022-09-18T07:31:22Z</time>
      </trkpt>
      <trkpt lat="46.01608" lon="10.93492">
        <ele>393.57</ele>
        <time>2022-09-18T07:31:23Z</time>
      </trkpt>
      <trkpt lat="46.01607" lon="10.93491">
        <ele>393.63</ele>
        <time>2022-09-18T07:31:24Z</time>
      </trkpt>
      <trkpt lat="46.01606" lon="10.9349">
        <ele>393.47</ele>
        <time>2022-09-18T07:31:25Z</time>
      </trkpt>
      <trkpt lat="46.01606" lon="10.93488">
        <ele>393.94</ele>
        <time>2022-09-18T07:31:26Z</time>
      </trkpt>
      <trkpt lat="46.01606" lon="10.93487">
        <ele>394.4</ele>
        <time>2022-09-18T07:31:27Z</time>
      </trkpt>
      <trkpt lat="46.01605" lon="10.93486">
        <ele>395.06</ele>
        <time>2022-09-18T07:31:28Z</time>
      </trkpt>
      <trkpt lat="46.01605" lon="10.93484">
        <ele>394.75</ele>
        <time>2022-09-18T07:31:29Z</time>
      </trkpt>
      <trkpt lat="46.01605" lon="10.93483">
        <ele>395.11</ele>
        <time>2022-09-18T07:31:30Z</time>
      </trkpt>
      <trkpt lat="46.01604" lon="10.93482">
        <ele>395.32</ele>
        <time>2022-09-18T07:31:31Z</time>
      </trkpt>
      <trkpt lat="46.01604" lon="10.9348">
        <ele>395.15</ele>
        <time>2022-09-18T07:31:32Z</time>
      </trkpt>
      <trkpt lat="46.01603" lon="10.93479">
        <ele>396.24</ele>
        <time>2022-09-18T07:31:33Z</time>
      </trkpt>
      <trkpt lat="46.01603" lon="10.93477">
        <ele>396.29</ele>
        <time>2022-09-18T07:31:34Z</time>
      </trkpt>
      <trkpt lat="46.01602" lon="10.93476">
        <ele>396.25</ele>
        <time>2022-09-18T07:31:35Z</time>
      </trkpt>
      <trkpt lat="46.01602" lon="10.93475">
        <ele>392.06</ele>
        <time>2022-09-18T07:31:36Z</time>
      </trkpt>
      <trkpt lat="46.01602" lon="10.93473">
        <ele>393.21</ele>
        <time>2022-09-18T07:31:37Z</time>
      </trkpt>
      <trkpt lat="46.01601" lon="10.93472">
        <ele>393.96</ele>
        <time>2022-09-18T07:31:38Z</time>
      </trkpt>
      <trkpt lat="46.01601" lon="10.9347">
        <ele>394.54</ele>
        <time>2022-09-18T07:31:39Z</time>
      </trkpt>
      <trkpt lat="46.016" lon="10.93469">
        <ele>394.29</ele>
        <time>2022-09-18T07:31:40Z</time>
      </trkpt>
      <trkpt lat="46.016" lon="10.93467">
        <ele>394.89</ele>
        <time>2022-09-18T07:31:41Z</time>
      </trkpt>
      <trkpt lat="46.01599" lon="10.93465">
        <ele>395.73</ele>
        <time>2022-09-18T07:31:42Z</time>
      </trkpt>
      <trkpt lat="46.01599" lon="10.93464">
        <ele>395.2</ele>
        <time>2022-09-18T07:31:43Z</time>
      </trkpt>
      <trkpt lat="46.01599" lon="10.93462">
        <ele>395.42</ele>
        <time>2022-09-18T07:31:44Z</time>
      </trkpt>
      <trkpt lat="46.01598" lon="10.9346">
        <ele>395.85</ele>
        <time>2022-09-18T07:31:45Z</time>
      </trkpt>
      <trkpt lat="46.01598" lon="10.93458">
        <ele>394.88</ele>
        <time>2022-09-18T07:31:46Z</time>
      </trkpt>
      <trkpt lat="46.01597" lon="10.93456">
        <ele>395.8</ele>
        <time>2022-09-18T07:31:47Z</time>
      </trkpt>
      <trkpt lat="46.01597" lon="10.93454">
        <ele>396.14</ele>
        <time>2022-09-18T07:31:48Z</time>
      </trkpt>
      <trkpt lat="46.01596" lon="10.93452">
        <ele>396.68</ele>
        <time>2022-09-18T07:31:49Z</time>
      </trkpt>
      <trkpt lat="46.01595" lon="10.93451">
        <ele>396.43</ele>
        <time>2022-09-18T07:31:50Z</time>
      </trkpt>
      <trkpt lat="46.01594" lon="10.9345">
        <ele>397</ele>
        <time>2022-09-18T07:31:51Z</time>
      </trkpt>
      <trkpt lat="46.01593" lon="10.9345">
        <ele>396.19</ele>
        <time>2022-09-18T07:31:52Z</time>
      </trkpt>
      <trkpt lat="46.01592" lon="10.9345">
        <ele>396.33</ele>
        <time>2022-09-18T07:31:53Z</time>
      </trkpt>
      <trkpt lat="46.01591" lon="10.9345">
        <ele>395.47</ele>
        <time>2022-09-18T07:31:54Z</time>
      </trkpt>
      <trkpt lat="46.0159" lon="10.93449">
        <ele>394.24</ele>
        <time>2022-09-18T07:31:56Z</time>
      </trkpt>
      <trkpt lat="46.0159" lon="10.93447">
        <ele>393.57</ele>
        <time>2022-09-18T07:32:21Z</time>
      </trkpt>
      <trkpt lat="46.01591" lon="10.93445">
        <ele>394.28</ele>
        <time>2022-09-18T07:32:22Z</time>
      </trkpt>
      <trkpt lat="46.01591" lon="10.93443">
        <ele>395.05</ele>
        <time>2022-09-18T07:32:23Z</time>
      </trkpt>
      <trkpt lat="46.01591" lon="10.93442">
        <ele>395.3</ele>
        <time>2022-09-18T07:32:24Z</time>
      </trkpt>
      <trkpt lat="46.01591" lon="10.9344">
        <ele>395.8</ele>
        <time>2022-09-18T07:32:25Z</time>
      </trkpt>
      <trkpt lat="46.01591" lon="10.93439">
        <ele>395.8</ele>
        <time>2022-09-18T07:32:26Z</time>
      </trkpt>
      <trkpt lat="46.01591" lon="10.93437">
        <ele>391.15</ele>
        <time>2022-09-18T07:32:27Z</time>
      </trkpt>
      <trkpt lat="46.0159" lon="10.93436">
        <ele>392.8</ele>
        <time>2022-09-18T07:32:28Z</time>
      </trkpt>
      <trkpt lat="46.0159" lon="10.93434">
        <ele>393.59</ele>
        <time>2022-09-18T07:32:29Z</time>
      </trkpt>
      <trkpt lat="46.01589" lon="10.93433">
        <ele>393.99</ele>
        <time>2022-09-18T07:32:30Z</time>
      </trkpt>
      <trkpt lat="46.01589" lon="10.93431">
        <ele>394.27</ele>
        <time>2022-09-18T07:32:32Z</time>
      </trkpt>
      <trkpt lat="46.01589" lon="10.93429">
        <ele>382.83</ele>
        <time>2022-09-18T07:32:39Z</time>
      </trkpt>
      <trkpt lat="46.01588" lon="10.93427">
        <ele>387.49</ele>
        <time>2022-09-18T07:32:41Z</time>
      </trkpt>
      <trkpt lat="46.01588" lon="10.93426">
        <ele>390.13</ele>
        <time>2022-09-18T07:32:44Z</time>
      </trkpt>
      <trkpt lat="46.01587" lon="10.93426">
        <ele>391.54</ele>
        <time>2022-09-18T07:32:49Z</time>
      </trkpt>
      <trkpt lat="46.01588" lon="10.93424">
        <ele>392.18</ele>
        <time>2022-09-18T07:33:10Z</time>
      </trkpt>
      <trkpt lat="46.01587" lon="10.93423">
        <ele>391.48</ele>
        <time>2022-09-18T07:33:11Z</time>
      </trkpt>
      <trkpt lat="46.01587" lon="10.93421">
        <ele>391.57</ele>
        <time>2022-09-18T07:33:12Z</time>
      </trkpt>
      <trkpt lat="46.01587" lon="10.9342">
        <ele>391.95</ele>
        <time>2022-09-18T07:33:13Z</time>
      </trkpt>
      <trkpt lat="46.01586" lon="10.93418">
        <ele>392.89</ele>
        <time>2022-09-18T07:33:14Z</time>
      </trkpt>
      <trkpt lat="46.01586" lon="10.93417">
        <ele>393.2</ele>
        <time>2022-09-18T07:33:15Z</time>
      </trkpt>
      <trkpt lat="46.01585" lon="10.93415">
        <ele>393.22</ele>
        <time>2022-09-18T07:33:17Z</time>
      </trkpt>
      <trkpt lat="46.01584" lon="10.93413">
        <ele>393.4</ele>
        <time>2022-09-18T07:33:19Z</time>
      </trkpt>
      <trkpt lat="46.01583" lon="10.93411">
        <ele>394.1</ele>
        <time>2022-09-18T07:33:21Z</time>
      </trkpt>
      <trkpt lat="46.01583" lon="10.93409">
        <ele>393.88</ele>
        <time>2022-09-18T07:33:23Z</time>
      </trkpt>
      <trkpt lat="46.01583" lon="10.93406">
        <ele>394.57</ele>
        <time>2022-09-18T07:33:25Z</time>
      </trkpt>
      <trkpt lat="46.01582" lon="10.93404">
        <ele>396.01</ele>
        <time>2022-09-18T07:33:27Z</time>
      </trkpt>
      <trkpt lat="46.01582" lon="10.93403">
        <ele>396.52</ele>
        <time>2022-09-18T07:33:28Z</time>
      </trkpt>
      <trkpt lat="46.01581" lon="10.934">
        <ele>396.16</ele>
        <time>2022-09-18T07:33:30Z</time>
      </trkpt>
      <trkpt lat="46.01581" lon="10.93399">
        <ele>395.41</ele>
        <time>2022-09-18T07:33:31Z</time>
      </trkpt>
      <trkpt lat="46.01581" lon="10.93397">
        <ele>395.7</ele>
        <time>2022-09-18T07:33:32Z</time>
      </trkpt>
      <trkpt lat="46.01581" lon="10.93396">
        <ele>396.36</ele>
        <time>2022-09-18T07:33:33Z</time>
      </trkpt>
      <trkpt lat="46.01581" lon="10.93394">
        <ele>396.09</ele>
        <time>2022-09-18T07:33:34Z</time>
      </trkpt>
      <trkpt lat="46.01581" lon="10.93393">
        <ele>396.32</ele>
        <time>2022-09-18T07:33:35Z</time>
      </trkpt>
      <trkpt lat="46.01581" lon="10.93391">
        <ele>396.26</ele>
        <time>2022-09-18T07:33:36Z</time>
      </trkpt>
      <trkpt lat="46.01582" lon="10.9339">
        <ele>395.96</ele>
        <time>2022-09-18T07:33:37Z</time>
      </trkpt>
      <trkpt lat="46.01581" lon="10.93388">
        <ele>396.03</ele>
        <time>2022-09-18T07:33:38Z</time>
      </trkpt>
      <trkpt lat="46.01581" lon="10.93386">
        <ele>395.28</ele>
        <time>2022-09-18T07:33:39Z</time>
      </trkpt>
      <trkpt lat="46.01581" lon="10.93385">
        <ele>395.43</ele>
        <time>2022-09-18T07:33:40Z</time>
      </trkpt>
      <trkpt lat="46.0158" lon="10.93384">
        <ele>395.88</ele>
        <time>2022-09-18T07:33:41Z</time>
      </trkpt>
      <trkpt lat="46.0158" lon="10.93382">
        <ele>395.98</ele>
        <time>2022-09-18T07:33:42Z</time>
      </trkpt>
      <trkpt lat="46.0158" lon="10.93381">
        <ele>396.4</ele>
        <time>2022-09-18T07:33:43Z</time>
      </trkpt>
      <trkpt lat="46.01579" lon="10.93379">
        <ele>395.86</ele>
        <time>2022-09-18T07:33:44Z</time>
      </trkpt>
      <trkpt lat="46.01579" lon="10.93378">
        <ele>396.93</ele>
        <time>2022-09-18T07:33:45Z</time>
      </trkpt>
      <trkpt lat="46.01579" lon="10.93376">
        <ele>396.94</ele>
        <time>2022-09-18T07:33:46Z</time>
      </trkpt>
      <trkpt lat="46.01579" lon="10.93375">
        <ele>397.39</ele>
        <time>2022-09-18T07:33:47Z</time>
      </trkpt>
      <trkpt lat="46.01579" lon="10.93373">
        <ele>397.68</ele>
        <time>2022-09-18T07:33:48Z</time>
      </trkpt>
      <trkpt lat="46.01579" lon="10.93371">
        <ele>398.71</ele>
        <time>2022-09-18T07:33:49Z</time>
      </trkpt>
      <trkpt lat="46.01579" lon="10.9337">
        <ele>397.89</ele>
        <time>2022-09-18T07:33:50Z</time>
      </trkpt>
      <trkpt lat="46.01579" lon="10.93368">
        <ele>398.22</ele>
        <time>2022-09-18T07:33:51Z</time>
      </trkpt>
      <trkpt lat="46.01579" lon="10.93367">
        <ele>398.55</ele>
        <time>2022-09-18T07:33:52Z</time>
      </trkpt>
      <trkpt lat="46.01579" lon="10.93365">
        <ele>399.13</ele>
        <time>2022-09-18T07:33:53Z</time>
      </trkpt>
      <trkpt lat="46.01579" lon="10.93363">
        <ele>399.29</ele>
        <time>2022-09-18T07:33:54Z</time>
      </trkpt>
      <trkpt lat="46.01579" lon="10.93361">
        <ele>398.64</ele>
        <time>2022-09-18T07:33:55Z</time>
      </trkpt>
      <trkpt lat="46.01579" lon="10.9336">
        <ele>399.52</ele>
        <time>2022-09-18T07:33:56Z</time>
      </trkpt>
      <trkpt lat="46.01579" lon="10.93358">
        <ele>399.88</ele>
        <time>2022-09-18T07:33:57Z</time>
      </trkpt>
      <trkpt lat="46.01579" lon="10.93356">
        <ele>400.96</ele>
        <time>2022-09-18T07:33:58Z</time>
      </trkpt>
      <trkpt lat="46.01578" lon="10.93355">
        <ele>401.12</ele>
        <time>2022-09-18T07:33:59Z</time>
      </trkpt>
      <trkpt lat="46.01578" lon="10.93353">
        <ele>402.42</ele>
        <time>2022-09-18T07:34:00Z</time>
      </trkpt>
      <trkpt lat="46.01578" lon="10.93352">
        <ele>402.78</ele>
        <time>2022-09-18T07:34:01Z</time>
      </trkpt>
      <trkpt lat="46.01578" lon="10.9335">
        <ele>402.65</ele>
        <time>2022-09-18T07:34:02Z</time>
      </trkpt>
      <trkpt lat="46.01578" lon="10.93348">
        <ele>403.69</ele>
        <time>2022-09-18T07:34:03Z</time>
      </trkpt>
      <trkpt lat="46.01578" lon="10.93346">
        <ele>403.69</ele>
        <time>2022-09-18T07:34:04Z</time>
      </trkpt>
      <trkpt lat="46.01577" lon="10.93344">
        <ele>403.85</ele>
        <time>2022-09-18T07:34:05Z</time>
      </trkpt>
      <trkpt lat="46.01577" lon="10.93341">
        <ele>403.75</ele>
        <time>2022-09-18T07:34:06Z</time>
      </trkpt>
      <trkpt lat="46.01576" lon="10.93337">
        <ele>403.43</ele>
        <time>2022-09-18T07:34:07Z</time>
      </trkpt>
      <trkpt lat="46.01574" lon="10.93334">
        <ele>404.04</ele>
        <time>2022-09-18T07:34:08Z</time>
      </trkpt>
      <trkpt lat="46.01575" lon="10.93332">
        <ele>404.61</ele>
        <time>2022-09-18T07:34:09Z</time>
      </trkpt>
      <trkpt lat="46.01574" lon="10.93331">
        <ele>405.41</ele>
        <time>2022-09-18T07:34:10Z</time>
      </trkpt>
      <trkpt lat="46.01574" lon="10.93329">
        <ele>404.98</ele>
        <time>2022-09-18T07:34:12Z</time>
      </trkpt>
      <trkpt lat="46.01574" lon="10.93327">
        <ele>405.8</ele>
        <time>2022-09-18T07:34:13Z</time>
      </trkpt>
      <trkpt lat="46.01574" lon="10.93326">
        <ele>405.55</ele>
        <time>2022-09-18T07:34:14Z</time>
      </trkpt>
      <trkpt lat="46.01575" lon="10.93324">
        <ele>406.3</ele>
        <time>2022-09-18T07:34:15Z</time>
      </trkpt>
      <trkpt lat="46.01575" lon="10.93322">
        <ele>406.38</ele>
        <time>2022-09-18T07:34:16Z</time>
      </trkpt>
      <trkpt lat="46.01575" lon="10.9332">
        <ele>406.33</ele>
        <time>2022-09-18T07:34:17Z</time>
      </trkpt>
      <trkpt lat="46.01575" lon="10.93319">
        <ele>406.04</ele>
        <time>2022-09-18T07:34:18Z</time>
      </trkpt>
      <trkpt lat="46.01575" lon="10.93317">
        <ele>406.64</ele>
        <time>2022-09-18T07:34:19Z</time>
      </trkpt>
      <trkpt lat="46.01575" lon="10.93315">
        <ele>407.03</ele>
        <time>2022-09-18T07:34:20Z</time>
      </trkpt>
      <trkpt lat="46.01575" lon="10.93313">
        <ele>407.81</ele>
        <time>2022-09-18T07:34:21Z</time>
      </trkpt>
      <trkpt lat="46.01575" lon="10.93312">
        <ele>408.5</ele>
        <time>2022-09-18T07:34:22Z</time>
      </trkpt>
      <trkpt lat="46.01575" lon="10.9331">
        <ele>407.79</ele>
        <time>2022-09-18T07:34:23Z</time>
      </trkpt>
      <trkpt lat="46.01575" lon="10.93308">
        <ele>408.37</ele>
        <time>2022-09-18T07:34:24Z</time>
      </trkpt>
      <trkpt lat="46.01575" lon="10.93307">
        <ele>408.98</ele>
        <time>2022-09-18T07:34:25Z</time>
      </trkpt>
      <trkpt lat="46.01575" lon="10.93306">
        <ele>408.29</ele>
        <time>2022-09-18T07:34:26Z</time>
      </trkpt>
      <trkpt lat="46.01575" lon="10.93303">
        <ele>408.03</ele>
        <time>2022-09-18T07:34:28Z</time>
      </trkpt>
      <trkpt lat="46.01575" lon="10.93301">
        <ele>408.42</ele>
        <time>2022-09-18T07:34:29Z</time>
      </trkpt>
      <trkpt lat="46.01575" lon="10.933">
        <ele>408.3</ele>
        <time>2022-09-18T07:34:30Z</time>
      </trkpt>
      <trkpt lat="46.01574" lon="10.93299">
        <ele>408.79</ele>
        <time>2022-09-18T07:34:31Z</time>
      </trkpt>
      <trkpt lat="46.01574" lon="10.93298">
        <ele>409.55</ele>
        <time>2022-09-18T07:34:32Z</time>
      </trkpt>
      <trkpt lat="46.01574" lon="10.93296">
        <ele>409.01</ele>
        <time>2022-09-18T07:34:33Z</time>
      </trkpt>
      <trkpt lat="46.01573" lon="10.93295">
        <ele>409.39</ele>
        <time>2022-09-18T07:34:34Z</time>
      </trkpt>
      <trkpt lat="46.01573" lon="10.93293">
        <ele>409.69</ele>
        <time>2022-09-18T07:34:35Z</time>
      </trkpt>
      <trkpt lat="46.01572" lon="10.93291">
        <ele>410.03</ele>
        <time>2022-09-18T07:34:37Z</time>
      </trkpt>
      <trkpt lat="46.01572" lon="10.9329">
        <ele>410.62</ele>
        <time>2022-09-18T07:34:38Z</time>
      </trkpt>
      <trkpt lat="46.01572" lon="10.93288">
        <ele>410.62</ele>
        <time>2022-09-18T07:34:39Z</time>
      </trkpt>
      <trkpt lat="46.01571" lon="10.93287">
        <ele>410.32</ele>
        <time>2022-09-18T07:34:40Z</time>
      </trkpt>
      <trkpt lat="46.01571" lon="10.93285">
        <ele>410.78</ele>
        <time>2022-09-18T07:34:41Z</time>
      </trkpt>
      <trkpt lat="46.01571" lon="10.93284">
        <ele>410.44</ele>
        <time>2022-09-18T07:34:42Z</time>
      </trkpt>
      <trkpt lat="46.0157" lon="10.93282">
        <ele>410.91</ele>
        <time>2022-09-18T07:34:43Z</time>
      </trkpt>
      <trkpt lat="46.0157" lon="10.93281">
        <ele>410.68</ele>
        <time>2022-09-18T07:34:44Z</time>
      </trkpt>
      <trkpt lat="46.01569" lon="10.93279">
        <ele>410.61</ele>
        <time>2022-09-18T07:34:45Z</time>
      </trkpt>
      <trkpt lat="46.01568" lon="10.93278">
        <ele>410.9</ele>
        <time>2022-09-18T07:34:46Z</time>
      </trkpt>
      <trkpt lat="46.01568" lon="10.93276">
        <ele>410.36</ele>
        <time>2022-09-18T07:34:47Z</time>
      </trkpt>
      <trkpt lat="46.01567" lon="10.93275">
        <ele>410.53</ele>
        <time>2022-09-18T07:34:48Z</time>
      </trkpt>
      <trkpt lat="46.01567" lon="10.93273">
        <ele>411.1</ele>
        <time>2022-09-18T07:34:49Z</time>
      </trkpt>
      <trkpt lat="46.01566" lon="10.93271">
        <ele>411.37</ele>
        <time>2022-09-18T07:34:50Z</time>
      </trkpt>
      <trkpt lat="46.01565" lon="10.9327">
        <ele>412.22</ele>
        <time>2022-09-18T07:34:51Z</time>
      </trkpt>
      <trkpt lat="46.01565" lon="10.93268">
        <ele>412.71</ele>
        <time>2022-09-18T07:34:52Z</time>
      </trkpt>
      <trkpt lat="46.01564" lon="10.93266">
        <ele>411.76</ele>
        <time>2022-09-18T07:34:53Z</time>
      </trkpt>
      <trkpt lat="46.01564" lon="10.93264">
        <ele>412.36</ele>
        <time>2022-09-18T07:34:54Z</time>
      </trkpt>
      <trkpt lat="46.01563" lon="10.93262">
        <ele>412.16</ele>
        <time>2022-09-18T07:34:55Z</time>
      </trkpt>
      <trkpt lat="46.01563" lon="10.9326">
        <ele>412.45</ele>
        <time>2022-09-18T07:34:56Z</time>
      </trkpt>
      <trkpt lat="46.01562" lon="10.93259">
        <ele>412.12</ele>
        <time>2022-09-18T07:34:57Z</time>
      </trkpt>
      <trkpt lat="46.01562" lon="10.93257">
        <ele>412.97</ele>
        <time>2022-09-18T07:34:58Z</time>
      </trkpt>
      <trkpt lat="46.01561" lon="10.93255">
        <ele>413.18</ele>
        <time>2022-09-18T07:34:59Z</time>
      </trkpt>
      <trkpt lat="46.01561" lon="10.93253">
        <ele>413.35</ele>
        <time>2022-09-18T07:35:00Z</time>
      </trkpt>
      <trkpt lat="46.0156" lon="10.93252">
        <ele>412.76</ele>
        <time>2022-09-18T07:35:01Z</time>
      </trkpt>
      <trkpt lat="46.0156" lon="10.9325">
        <ele>413.39</ele>
        <time>2022-09-18T07:35:02Z</time>
      </trkpt>
      <trkpt lat="46.01559" lon="10.93249">
        <ele>413.92</ele>
        <time>2022-09-18T07:35:03Z</time>
      </trkpt>
      <trkpt lat="46.01558" lon="10.93247">
        <ele>413.55</ele>
        <time>2022-09-18T07:35:04Z</time>
      </trkpt>
      <trkpt lat="46.01558" lon="10.93246">
        <ele>413.17</ele>
        <time>2022-09-18T07:35:05Z</time>
      </trkpt>
      <trkpt lat="46.01557" lon="10.93245">
        <ele>413.57</ele>
        <time>2022-09-18T07:35:06Z</time>
      </trkpt>
      <trkpt lat="46.01557" lon="10.93243">
        <ele>413.71</ele>
        <time>2022-09-18T07:35:07Z</time>
      </trkpt>
      <trkpt lat="46.01556" lon="10.93242">
        <ele>412.06</ele>
        <time>2022-09-18T07:35:08Z</time>
      </trkpt>
      <trkpt lat="46.01556" lon="10.93241">
        <ele>412.04</ele>
        <time>2022-09-18T07:35:09Z</time>
      </trkpt>
      <trkpt lat="46.01555" lon="10.9324">
        <ele>411.93</ele>
        <time>2022-09-18T07:35:10Z</time>
      </trkpt>
      <trkpt lat="46.01554" lon="10.93239">
        <ele>411.39</ele>
        <time>2022-09-18T07:35:11Z</time>
      </trkpt>
      <trkpt lat="46.01554" lon="10.93238">
        <ele>411.07</ele>
        <time>2022-09-18T07:35:12Z</time>
      </trkpt>
      <trkpt lat="46.01553" lon="10.93237">
        <ele>412.05</ele>
        <time>2022-09-18T07:35:13Z</time>
      </trkpt>
      <trkpt lat="46.01552" lon="10.93236">
        <ele>410.9</ele>
        <time>2022-09-18T07:35:14Z</time>
      </trkpt>
      <trkpt lat="46.01552" lon="10.93235">
        <ele>411.31</ele>
        <time>2022-09-18T07:35:15Z</time>
      </trkpt>
      <trkpt lat="46.01551" lon="10.93234">
        <ele>412.5</ele>
        <time>2022-09-18T07:35:16Z</time>
      </trkpt>
      <trkpt lat="46.01551" lon="10.93232">
        <ele>413.65</ele>
        <time>2022-09-18T07:35:17Z</time>
      </trkpt>
      <trkpt lat="46.0155" lon="10.93231">
        <ele>414.07</ele>
        <time>2022-09-18T07:35:18Z</time>
      </trkpt>
      <trkpt lat="46.0155" lon="10.9323">
        <ele>416.08</ele>
        <time>2022-09-18T07:35:19Z</time>
      </trkpt>
      <trkpt lat="46.01549" lon="10.93228">
        <ele>415.62</ele>
        <time>2022-09-18T07:35:20Z</time>
      </trkpt>
      <trkpt lat="46.01549" lon="10.93227">
        <ele>416.65</ele>
        <time>2022-09-18T07:35:21Z</time>
      </trkpt>
      <trkpt lat="46.01549" lon="10.93226">
        <ele>417.05</ele>
        <time>2022-09-18T07:35:22Z</time>
      </trkpt>
      <trkpt lat="46.01548" lon="10.93224">
        <ele>417.46</ele>
        <time>2022-09-18T07:35:24Z</time>
      </trkpt>
      <trkpt lat="46.01547" lon="10.93222">
        <ele>419.11</ele>
        <time>2022-09-18T07:35:26Z</time>
      </trkpt>
      <trkpt lat="46.01545" lon="10.9322">
        <ele>419.12</ele>
        <time>2022-09-18T07:35:28Z</time>
      </trkpt>
      <trkpt lat="46.01544" lon="10.93218">
        <ele>420.48</ele>
        <time>2022-09-18T07:35:30Z</time>
      </trkpt>
      <trkpt lat="46.01544" lon="10.93217">
        <ele>420.49</ele>
        <time>2022-09-18T07:35:31Z</time>
      </trkpt>
      <trkpt lat="46.01543" lon="10.93216">
        <ele>421.71</ele>
        <time>2022-09-18T07:35:32Z</time>
      </trkpt>
      <trkpt lat="46.01542" lon="10.93215">
        <ele>422.11</ele>
        <time>2022-09-18T07:35:33Z</time>
      </trkpt>
      <trkpt lat="46.01541" lon="10.93214">
        <ele>422.32</ele>
        <time>2022-09-18T07:35:34Z</time>
      </trkpt>
      <trkpt lat="46.0154" lon="10.93213">
        <ele>422.88</ele>
        <time>2022-09-18T07:35:35Z</time>
      </trkpt>
      <trkpt lat="46.0154" lon="10.93212">
        <ele>422.78</ele>
        <time>2022-09-18T07:35:36Z</time>
      </trkpt>
      <trkpt lat="46.01539" lon="10.9321">
        <ele>423.45</ele>
        <time>2022-09-18T07:35:37Z</time>
      </trkpt>
      <trkpt lat="46.01538" lon="10.93209">
        <ele>423.14</ele>
        <time>2022-09-18T07:35:38Z</time>
      </trkpt>
      <trkpt lat="46.01537" lon="10.93208">
        <ele>422.35</ele>
        <time>2022-09-18T07:35:39Z</time>
      </trkpt>
      <trkpt lat="46.01537" lon="10.93206">
        <ele>422.27</ele>
        <time>2022-09-18T07:35:40Z</time>
      </trkpt>
      <trkpt lat="46.01536" lon="10.93205">
        <ele>421.26</ele>
        <time>2022-09-18T07:35:41Z</time>
      </trkpt>
      <trkpt lat="46.01535" lon="10.93203">
        <ele>422</ele>
        <time>2022-09-18T07:35:42Z</time>
      </trkpt>
      <trkpt lat="46.01534" lon="10.93202">
        <ele>421.58</ele>
        <time>2022-09-18T07:35:43Z</time>
      </trkpt>
      <trkpt lat="46.01533" lon="10.93201">
        <ele>421.21</ele>
        <time>2022-09-18T07:35:44Z</time>
      </trkpt>
      <trkpt lat="46.01533" lon="10.93199">
        <ele>419.6</ele>
        <time>2022-09-18T07:35:45Z</time>
      </trkpt>
      <trkpt lat="46.01532" lon="10.93198">
        <ele>419.48</ele>
        <time>2022-09-18T07:35:46Z</time>
      </trkpt>
      <trkpt lat="46.01531" lon="10.93197">
        <ele>419.72</ele>
        <time>2022-09-18T07:35:47Z</time>
      </trkpt>
      <trkpt lat="46.0153" lon="10.93196">
        <ele>419.57</ele>
        <time>2022-09-18T07:35:48Z</time>
      </trkpt>
      <trkpt lat="46.01529" lon="10.93194">
        <ele>418.63</ele>
        <time>2022-09-18T07:35:49Z</time>
      </trkpt>
      <trkpt lat="46.01528" lon="10.93193">
        <ele>420.51</ele>
        <time>2022-09-18T07:35:50Z</time>
      </trkpt>
      <trkpt lat="46.01528" lon="10.93192">
        <ele>420.49</ele>
        <time>2022-09-18T07:35:51Z</time>
      </trkpt>
      <trkpt lat="46.01527" lon="10.93191">
        <ele>421</ele>
        <time>2022-09-18T07:35:52Z</time>
      </trkpt>
      <trkpt lat="46.01526" lon="10.9319">
        <ele>421.44</ele>
        <time>2022-09-18T07:35:53Z</time>
      </trkpt>
      <trkpt lat="46.01525" lon="10.93189">
        <ele>421.4</ele>
        <time>2022-09-18T07:35:54Z</time>
      </trkpt>
      <trkpt lat="46.01524" lon="10.93188">
        <ele>420.71</ele>
        <time>2022-09-18T07:35:55Z</time>
      </trkpt>
      <trkpt lat="46.01524" lon="10.93187">
        <ele>420.98</ele>
        <time>2022-09-18T07:35:56Z</time>
      </trkpt>
      <trkpt lat="46.01523" lon="10.93186">
        <ele>420.96</ele>
        <time>2022-09-18T07:35:57Z</time>
      </trkpt>
      <trkpt lat="46.01522" lon="10.93185">
        <ele>420.96</ele>
        <time>2022-09-18T07:35:58Z</time>
      </trkpt>
      <trkpt lat="46.01521" lon="10.93184">
        <ele>421.39</ele>
        <time>2022-09-18T07:35:59Z</time>
      </trkpt>
      <trkpt lat="46.0152" lon="10.93183">
        <ele>421.24</ele>
        <time>2022-09-18T07:36:00Z</time>
      </trkpt>
      <trkpt lat="46.0152" lon="10.93182">
        <ele>421.11</ele>
        <time>2022-09-18T07:36:01Z</time>
      </trkpt>
      <trkpt lat="46.01519" lon="10.93181">
        <ele>421.17</ele>
        <time>2022-09-18T07:36:02Z</time>
      </trkpt>
      <trkpt lat="46.01517" lon="10.93182">
        <ele>421.2</ele>
        <time>2022-09-18T07:36:03Z</time>
      </trkpt>
      <trkpt lat="46.01517" lon="10.93181">
        <ele>421.22</ele>
        <time>2022-09-18T07:36:04Z</time>
      </trkpt>
      <trkpt lat="46.01516" lon="10.9318">
        <ele>421.43</ele>
        <time>2022-09-18T07:36:05Z</time>
      </trkpt>
      <trkpt lat="46.01515" lon="10.93179">
        <ele>421.21</ele>
        <time>2022-09-18T07:36:06Z</time>
      </trkpt>
      <trkpt lat="46.01514" lon="10.93178">
        <ele>420.43</ele>
        <time>2022-09-18T07:36:07Z</time>
      </trkpt>
      <trkpt lat="46.01513" lon="10.93176">
        <ele>419.13</ele>
        <time>2022-09-18T07:36:08Z</time>
      </trkpt>
      <trkpt lat="46.01512" lon="10.93176">
        <ele>418.79</ele>
        <time>2022-09-18T07:36:09Z</time>
      </trkpt>
      <trkpt lat="46.01511" lon="10.93175">
        <ele>419.29</ele>
        <time>2022-09-18T07:36:10Z</time>
      </trkpt>
      <trkpt lat="46.01509" lon="10.93175">
        <ele>419.75</ele>
        <time>2022-09-18T07:36:11Z</time>
      </trkpt>
      <trkpt lat="46.01508" lon="10.93174">
        <ele>419.81</ele>
        <time>2022-09-18T07:36:12Z</time>
      </trkpt>
      <trkpt lat="46.01507" lon="10.93173">
        <ele>419.91</ele>
        <time>2022-09-18T07:36:13Z</time>
      </trkpt>
      <trkpt lat="46.01506" lon="10.93173">
        <ele>420.13</ele>
        <time>2022-09-18T07:36:14Z</time>
      </trkpt>
      <trkpt lat="46.01505" lon="10.93172">
        <ele>420.88</ele>
        <time>2022-09-18T07:36:15Z</time>
      </trkpt>
      <trkpt lat="46.01503" lon="10.93171">
        <ele>420.65</ele>
        <time>2022-09-18T07:36:16Z</time>
      </trkpt>
      <trkpt lat="46.01502" lon="10.93171">
        <ele>421.39</ele>
        <time>2022-09-18T07:36:17Z</time>
      </trkpt>
      <trkpt lat="46.01501" lon="10.9317">
        <ele>420.63</ele>
        <time>2022-09-18T07:36:18Z</time>
      </trkpt>
      <trkpt lat="46.015" lon="10.93169">
        <ele>420.04</ele>
        <time>2022-09-18T07:36:19Z</time>
      </trkpt>
      <trkpt lat="46.01499" lon="10.93168">
        <ele>420.36</ele>
        <time>2022-09-18T07:36:20Z</time>
      </trkpt>
      <trkpt lat="46.01497" lon="10.93168">
        <ele>419.45</ele>
        <time>2022-09-18T07:36:21Z</time>
      </trkpt>
      <trkpt lat="46.01496" lon="10.93167">
        <ele>420.16</ele>
        <time>2022-09-18T07:36:22Z</time>
      </trkpt>
      <trkpt lat="46.01495" lon="10.93167">
        <ele>420.45</ele>
        <time>2022-09-18T07:36:23Z</time>
      </trkpt>
      <trkpt lat="46.01494" lon="10.93166">
        <ele>420.76</ele>
        <time>2022-09-18T07:36:24Z</time>
      </trkpt>
      <trkpt lat="46.01493" lon="10.93165">
        <ele>419.99</ele>
        <time>2022-09-18T07:36:25Z</time>
      </trkpt>
      <trkpt lat="46.01492" lon="10.93165">
        <ele>419.8</ele>
        <time>2022-09-18T07:36:26Z</time>
      </trkpt>
      <trkpt lat="46.01491" lon="10.93164">
        <ele>420.01</ele>
        <time>2022-09-18T07:36:27Z</time>
      </trkpt>
      <trkpt lat="46.0149" lon="10.93163">
        <ele>420.16</ele>
        <time>2022-09-18T07:36:28Z</time>
      </trkpt>
      <trkpt lat="46.01489" lon="10.93162">
        <ele>420.27</ele>
        <time>2022-09-18T07:36:29Z</time>
      </trkpt>
      <trkpt lat="46.01487" lon="10.93161">
        <ele>420.07</ele>
        <time>2022-09-18T07:36:30Z</time>
      </trkpt>
      <trkpt lat="46.01486" lon="10.93162">
        <ele>420.36</ele>
        <time>2022-09-18T07:36:31Z</time>
      </trkpt>
      <trkpt lat="46.01485" lon="10.93162">
        <ele>420.64</ele>
        <time>2022-09-18T07:36:32Z</time>
      </trkpt>
      <trkpt lat="46.01484" lon="10.93161">
        <ele>421.45</ele>
        <time>2022-09-18T07:36:33Z</time>
      </trkpt>
      <trkpt lat="46.01482" lon="10.93161">
        <ele>421.4</ele>
        <time>2022-09-18T07:36:34Z</time>
      </trkpt>
      <trkpt lat="46.01481" lon="10.93161">
        <ele>421.68</ele>
        <time>2022-09-18T07:36:35Z</time>
      </trkpt>
      <trkpt lat="46.01479" lon="10.93161">
        <ele>421.52</ele>
        <time>2022-09-18T07:36:36Z</time>
      </trkpt>
      <trkpt lat="46.01478" lon="10.9316">
        <ele>421.9</ele>
        <time>2022-09-18T07:36:37Z</time>
      </trkpt>
      <trkpt lat="46.01477" lon="10.9316">
        <ele>421.87</ele>
        <time>2022-09-18T07:36:38Z</time>
      </trkpt>
      <trkpt lat="46.01476" lon="10.93159">
        <ele>419.96</ele>
        <time>2022-09-18T07:36:40Z</time>
      </trkpt>
      <trkpt lat="46.01474" lon="10.93158">
        <ele>421.15</ele>
        <time>2022-09-18T07:36:42Z</time>
      </trkpt>
      <trkpt lat="46.01474" lon="10.93157">
        <ele>422.17</ele>
        <time>2022-09-18T07:36:43Z</time>
      </trkpt>
      <trkpt lat="46.01473" lon="10.93157">
        <ele>422.39</ele>
        <time>2022-09-18T07:36:44Z</time>
      </trkpt>
      <trkpt lat="46.01471" lon="10.93157">
        <ele>422.9</ele>
        <time>2022-09-18T07:36:45Z</time>
      </trkpt>
      <trkpt lat="46.0147" lon="10.93156">
        <ele>423.13</ele>
        <time>2022-09-18T07:36:46Z</time>
      </trkpt>
      <trkpt lat="46.01469" lon="10.93155">
        <ele>423.7</ele>
        <time>2022-09-18T07:36:47Z</time>
      </trkpt>
      <trkpt lat="46.01468" lon="10.93155">
        <ele>424.1</ele>
        <time>2022-09-18T07:36:48Z</time>
      </trkpt>
      <trkpt lat="46.01467" lon="10.93155">
        <ele>424.34</ele>
        <time>2022-09-18T07:36:49Z</time>
      </trkpt>
      <trkpt lat="46.01466" lon="10.93155">
        <ele>425.02</ele>
        <time>2022-09-18T07:36:50Z</time>
      </trkpt>
      <trkpt lat="46.01465" lon="10.93154">
        <ele>426.27</ele>
        <time>2022-09-18T07:36:51Z</time>
      </trkpt>
      <trkpt lat="46.01464" lon="10.93153">
        <ele>426.78</ele>
        <time>2022-09-18T07:36:52Z</time>
      </trkpt>
      <trkpt lat="46.01463" lon="10.93152">
        <ele>426.24</ele>
        <time>2022-09-18T07:36:53Z</time>
      </trkpt>
      <trkpt lat="46.01462" lon="10.93151">
        <ele>426.46</ele>
        <time>2022-09-18T07:36:54Z</time>
      </trkpt>
      <trkpt lat="46.01461" lon="10.9315">
        <ele>426.85</ele>
        <time>2022-09-18T07:36:55Z</time>
      </trkpt>
      <trkpt lat="46.01459" lon="10.93149">
        <ele>428.14</ele>
        <time>2022-09-18T07:36:56Z</time>
      </trkpt>
      <trkpt lat="46.01458" lon="10.93149">
        <ele>429.39</ele>
        <time>2022-09-18T07:36:57Z</time>
      </trkpt>
      <trkpt lat="46.01458" lon="10.93148">
        <ele>429.85</ele>
        <time>2022-09-18T07:36:58Z</time>
      </trkpt>
      <trkpt lat="46.01457" lon="10.93148">
        <ele>430.07</ele>
        <time>2022-09-18T07:36:59Z</time>
      </trkpt>
      <trkpt lat="46.01456" lon="10.93147">
        <ele>430.85</ele>
        <time>2022-09-18T07:37:00Z</time>
      </trkpt>
      <trkpt lat="46.01455" lon="10.93149">
        <ele>430.76</ele>
        <time>2022-09-18T07:37:02Z</time>
      </trkpt>
      <trkpt lat="46.01454" lon="10.93149">
        <ele>430.8</ele>
        <time>2022-09-18T07:37:03Z</time>
      </trkpt>
      <trkpt lat="46.01453" lon="10.93149">
        <ele>430.46</ele>
        <time>2022-09-18T07:37:04Z</time>
      </trkpt>
      <trkpt lat="46.01452" lon="10.93148">
        <ele>430.18</ele>
        <time>2022-09-18T07:37:05Z</time>
      </trkpt>
      <trkpt lat="46.01451" lon="10.93146">
        <ele>430.9</ele>
        <time>2022-09-18T07:37:06Z</time>
      </trkpt>
      <trkpt lat="46.0145" lon="10.93145">
        <ele>431.22</ele>
        <time>2022-09-18T07:37:07Z</time>
      </trkpt>
      <trkpt lat="46.01448" lon="10.93143">
        <ele>430.97</ele>
        <time>2022-09-18T07:37:08Z</time>
      </trkpt>
      <trkpt lat="46.01447" lon="10.93142">
        <ele>429.95</ele>
        <time>2022-09-18T07:37:09Z</time>
      </trkpt>
      <trkpt lat="46.01446" lon="10.93141">
        <ele>430.14</ele>
        <time>2022-09-18T07:37:10Z</time>
      </trkpt>
      <trkpt lat="46.01445" lon="10.93139">
        <ele>431.27</ele>
        <time>2022-09-18T07:37:11Z</time>
      </trkpt>
      <trkpt lat="46.01444" lon="10.93138">
        <ele>430.72</ele>
        <time>2022-09-18T07:37:12Z</time>
      </trkpt>
      <trkpt lat="46.01443" lon="10.93137">
        <ele>430.5</ele>
        <time>2022-09-18T07:37:13Z</time>
      </trkpt>
      <trkpt lat="46.01442" lon="10.93135">
        <ele>431.7</ele>
        <time>2022-09-18T07:37:14Z</time>
      </trkpt>
      <trkpt lat="46.01441" lon="10.93134">
        <ele>414.34</ele>
        <time>2022-09-18T07:37:15Z</time>
      </trkpt>
      <trkpt lat="46.0144" lon="10.93133">
        <ele>418.63</ele>
        <time>2022-09-18T07:37:16Z</time>
      </trkpt>
      <trkpt lat="46.01439" lon="10.93132">
        <ele>421.3</ele>
        <time>2022-09-18T07:37:17Z</time>
      </trkpt>
      <trkpt lat="46.01439" lon="10.9313">
        <ele>423.6</ele>
        <time>2022-09-18T07:37:18Z</time>
      </trkpt>
      <trkpt lat="46.01438" lon="10.93129">
        <ele>425.06</ele>
        <time>2022-09-18T07:37:19Z</time>
      </trkpt>
      <trkpt lat="46.01437" lon="10.93128">
        <ele>426.85</ele>
        <time>2022-09-18T07:37:20Z</time>
      </trkpt>
      <trkpt lat="46.01436" lon="10.93127">
        <ele>426.49</ele>
        <time>2022-09-18T07:37:21Z</time>
      </trkpt>
      <trkpt lat="46.01435" lon="10.93125">
        <ele>425.78</ele>
        <time>2022-09-18T07:37:22Z</time>
      </trkpt>
      <trkpt lat="46.01435" lon="10.93124">
        <ele>425.5</ele>
        <time>2022-09-18T07:37:23Z</time>
      </trkpt>
      <trkpt lat="46.01433" lon="10.93123">
        <ele>425.78</ele>
        <time>2022-09-18T07:37:24Z</time>
      </trkpt>
      <trkpt lat="46.01432" lon="10.93122">
        <ele>427.09</ele>
        <time>2022-09-18T07:37:25Z</time>
      </trkpt>
      <trkpt lat="46.01431" lon="10.93121">
        <ele>427.54</ele>
        <time>2022-09-18T07:37:26Z</time>
      </trkpt>
      <trkpt lat="46.0143" lon="10.9312">
        <ele>427.72</ele>
        <time>2022-09-18T07:37:27Z</time>
      </trkpt>
      <trkpt lat="46.01429" lon="10.9312">
        <ele>428.98</ele>
        <time>2022-09-18T07:37:28Z</time>
      </trkpt>
      <trkpt lat="46.01428" lon="10.93119">
        <ele>429.07</ele>
        <time>2022-09-18T07:37:29Z</time>
      </trkpt>
      <trkpt lat="46.01427" lon="10.93118">
        <ele>429.58</ele>
        <time>2022-09-18T07:37:30Z</time>
      </trkpt>
      <trkpt lat="46.01425" lon="10.93117">
        <ele>430.42</ele>
        <time>2022-09-18T07:37:31Z</time>
      </trkpt>
      <trkpt lat="46.01424" lon="10.93117">
        <ele>431.16</ele>
        <time>2022-09-18T07:37:32Z</time>
      </trkpt>
      <trkpt lat="46.01423" lon="10.93116">
        <ele>416.99</ele>
        <time>2022-09-18T07:37:33Z</time>
      </trkpt>
      <trkpt lat="46.01423" lon="10.93115">
        <ele>421.41</ele>
        <time>2022-09-18T07:37:34Z</time>
      </trkpt>
      <trkpt lat="46.01422" lon="10.93114">
        <ele>424.84</ele>
        <time>2022-09-18T07:37:35Z</time>
      </trkpt>
      <trkpt lat="46.01421" lon="10.93113">
        <ele>424.64</ele>
        <time>2022-09-18T07:37:36Z</time>
      </trkpt>
      <trkpt lat="46.0142" lon="10.93112">
        <ele>426.77</ele>
        <time>2022-09-18T07:37:37Z</time>
      </trkpt>
      <trkpt lat="46.01419" lon="10.93112">
        <ele>427.88</ele>
        <time>2022-09-18T07:37:38Z</time>
      </trkpt>
      <trkpt lat="46.01418" lon="10.93111">
        <ele>427.68</ele>
        <time>2022-09-18T07:37:39Z</time>
      </trkpt>
      <trkpt lat="46.01416" lon="10.9311">
        <ele>427.77</ele>
        <time>2022-09-18T07:37:40Z</time>
      </trkpt>
      <trkpt lat="46.01415" lon="10.93109">
        <ele>428.35</ele>
        <time>2022-09-18T07:37:41Z</time>
      </trkpt>
      <trkpt lat="46.01414" lon="10.93109">
        <ele>428.67</ele>
        <time>2022-09-18T07:37:42Z</time>
      </trkpt>
      <trkpt lat="46.01413" lon="10.93108">
        <ele>428.32</ele>
        <time>2022-09-18T07:37:43Z</time>
      </trkpt>
      <trkpt lat="46.01412" lon="10.93107">
        <ele>427.64</ele>
        <time>2022-09-18T07:37:44Z</time>
      </trkpt>
      <trkpt lat="46.01411" lon="10.93107">
        <ele>428.53</ele>
        <time>2022-09-18T07:37:45Z</time>
      </trkpt>
      <trkpt lat="46.0141" lon="10.93106">
        <ele>429.23</ele>
        <time>2022-09-18T07:37:46Z</time>
      </trkpt>
      <trkpt lat="46.01409" lon="10.93106">
        <ele>429.57</ele>
        <time>2022-09-18T07:37:47Z</time>
      </trkpt>
      <trkpt lat="46.01408" lon="10.93106">
        <ele>429.48</ele>
        <time>2022-09-18T07:37:48Z</time>
      </trkpt>
      <trkpt lat="46.01407" lon="10.93105">
        <ele>429.4</ele>
        <time>2022-09-18T07:37:49Z</time>
      </trkpt>
      <trkpt lat="46.01406" lon="10.93105">
        <ele>428.86</ele>
        <time>2022-09-18T07:37:50Z</time>
      </trkpt>
      <trkpt lat="46.01404" lon="10.93105">
        <ele>429.03</ele>
        <time>2022-09-18T07:37:51Z</time>
      </trkpt>
      <trkpt lat="46.01403" lon="10.93105">
        <ele>429.45</ele>
        <time>2022-09-18T07:37:52Z</time>
      </trkpt>
      <trkpt lat="46.01402" lon="10.93105">
        <ele>429.1</ele>
        <time>2022-09-18T07:37:53Z</time>
      </trkpt>
      <trkpt lat="46.014" lon="10.93105">
        <ele>427.17</ele>
        <time>2022-09-18T07:37:54Z</time>
      </trkpt>
      <trkpt lat="46.01399" lon="10.93105">
        <ele>427.69</ele>
        <time>2022-09-18T07:37:55Z</time>
      </trkpt>
      <trkpt lat="46.01398" lon="10.93105">
        <ele>427.57</ele>
        <time>2022-09-18T07:37:56Z</time>
      </trkpt>
      <trkpt lat="46.01397" lon="10.93104">
        <ele>427.02</ele>
        <time>2022-09-18T07:37:57Z</time>
      </trkpt>
      <trkpt lat="46.01396" lon="10.93104">
        <ele>427.15</ele>
        <time>2022-09-18T07:37:58Z</time>
      </trkpt>
      <trkpt lat="46.01395" lon="10.93104">
        <ele>427.52</ele>
        <time>2022-09-18T07:37:59Z</time>
      </trkpt>
      <trkpt lat="46.01393" lon="10.93104">
        <ele>427.79</ele>
        <time>2022-09-18T07:38:00Z</time>
      </trkpt>
      <trkpt lat="46.01392" lon="10.93105">
        <ele>428.42</ele>
        <time>2022-09-18T07:38:01Z</time>
      </trkpt>
      <trkpt lat="46.01391" lon="10.93106">
        <ele>427.84</ele>
        <time>2022-09-18T07:38:02Z</time>
      </trkpt>
      <trkpt lat="46.0139" lon="10.93105">
        <ele>428.45</ele>
        <time>2022-09-18T07:38:03Z</time>
      </trkpt>
      <trkpt lat="46.01389" lon="10.93105">
        <ele>427.77</ele>
        <time>2022-09-18T07:38:04Z</time>
      </trkpt>
      <trkpt lat="46.01388" lon="10.93104">
        <ele>427.39</ele>
        <time>2022-09-18T07:38:05Z</time>
      </trkpt>
      <trkpt lat="46.01387" lon="10.93104">
        <ele>426.46</ele>
        <time>2022-09-18T07:38:06Z</time>
      </trkpt>
      <trkpt lat="46.01385" lon="10.93103">
        <ele>425.73</ele>
        <time>2022-09-18T07:38:08Z</time>
      </trkpt>
      <trkpt lat="46.01384" lon="10.93103">
        <ele>426.26</ele>
        <time>2022-09-18T07:38:09Z</time>
      </trkpt>
      <trkpt lat="46.01383" lon="10.93103">
        <ele>426.55</ele>
        <time>2022-09-18T07:38:10Z</time>
      </trkpt>
      <trkpt lat="46.01382" lon="10.93102">
        <ele>426.38</ele>
        <time>2022-09-18T07:38:11Z</time>
      </trkpt>
      <trkpt lat="46.01381" lon="10.931">
        <ele>426.21</ele>
        <time>2022-09-18T07:38:12Z</time>
      </trkpt>
      <trkpt lat="46.01381" lon="10.93098">
        <ele>426.46</ele>
        <time>2022-09-18T07:38:13Z</time>
      </trkpt>
      <trkpt lat="46.01381" lon="10.93096">
        <ele>426.43</ele>
        <time>2022-09-18T07:38:14Z</time>
      </trkpt>
      <trkpt lat="46.01382" lon="10.93094">
        <ele>425.89</ele>
        <time>2022-09-18T07:38:15Z</time>
      </trkpt>
      <trkpt lat="46.01382" lon="10.93092">
        <ele>426.04</ele>
        <time>2022-09-18T07:38:16Z</time>
      </trkpt>
      <trkpt lat="46.01383" lon="10.93091">
        <ele>426.36</ele>
        <time>2022-09-18T07:38:17Z</time>
      </trkpt>
      <trkpt lat="46.01384" lon="10.9309">
        <ele>425.74</ele>
        <time>2022-09-18T07:38:18Z</time>
      </trkpt>
      <trkpt lat="46.01386" lon="10.9309">
        <ele>425.47</ele>
        <time>2022-09-18T07:38:19Z</time>
      </trkpt>
      <trkpt lat="46.01387" lon="10.9309">
        <ele>427.11</ele>
        <time>2022-09-18T07:38:20Z</time>
      </trkpt>
      <trkpt lat="46.01388" lon="10.9309">
        <ele>427.06</ele>
        <time>2022-09-18T07:38:21Z</time>
      </trkpt>
      <trkpt lat="46.01389" lon="10.9309">
        <ele>427.35</ele>
        <time>2022-09-18T07:38:22Z</time>
      </trkpt>
      <trkpt lat="46.0139" lon="10.93089">
        <ele>427.53</ele>
        <time>2022-09-18T07:38:23Z</time>
      </trkpt>
      <trkpt lat="46.01391" lon="10.93089">
        <ele>428.37</ele>
        <time>2022-09-18T07:38:24Z</time>
      </trkpt>
      <trkpt lat="46.01392" lon="10.93089">
        <ele>427.76</ele>
        <time>2022-09-18T07:38:25Z</time>
      </trkpt>
      <trkpt lat="46.01393" lon="10.93089">
        <ele>427.5</ele>
        <time>2022-09-18T07:38:26Z</time>
      </trkpt>
      <trkpt lat="46.01394" lon="10.93089">
        <ele>427.82</ele>
        <time>2022-09-18T07:38:27Z</time>
      </trkpt>
      <trkpt lat="46.01396" lon="10.93089">
        <ele>428.18</ele>
        <time>2022-09-18T07:38:29Z</time>
      </trkpt>
      <trkpt lat="46.01397" lon="10.93089">
        <ele>428.12</ele>
        <time>2022-09-18T07:38:30Z</time>
      </trkpt>
      <trkpt lat="46.01398" lon="10.93089">
        <ele>428.21</ele>
        <time>2022-09-18T07:38:31Z</time>
      </trkpt>
      <trkpt lat="46.014" lon="10.93089">
        <ele>428.38</ele>
        <time>2022-09-18T07:38:32Z</time>
      </trkpt>
      <trkpt lat="46.01401" lon="10.93089">
        <ele>427.86</ele>
        <time>2022-09-18T07:38:33Z</time>
      </trkpt>
      <trkpt lat="46.01402" lon="10.93089">
        <ele>427.58</ele>
        <time>2022-09-18T07:38:34Z</time>
      </trkpt>
      <trkpt lat="46.01404" lon="10.93089">
        <ele>426.89</ele>
        <time>2022-09-18T07:38:36Z</time>
      </trkpt>
      <trkpt lat="46.01405" lon="10.93089">
        <ele>428.15</ele>
        <time>2022-09-18T07:38:37Z</time>
      </trkpt>
      <trkpt lat="46.01407" lon="10.93088">
        <ele>428.43</ele>
        <time>2022-09-18T07:38:38Z</time>
      </trkpt>
      <trkpt lat="46.01408" lon="10.93088">
        <ele>428.37</ele>
        <time>2022-09-18T07:38:39Z</time>
      </trkpt>
      <trkpt lat="46.01409" lon="10.93088">
        <ele>428.05</ele>
        <time>2022-09-18T07:38:40Z</time>
      </trkpt>
      <trkpt lat="46.0141" lon="10.93089">
        <ele>428.19</ele>
        <time>2022-09-18T07:38:41Z</time>
      </trkpt>
      <trkpt lat="46.01413" lon="10.93089">
        <ele>427.96</ele>
        <time>2022-09-18T07:38:43Z</time>
      </trkpt>
      <trkpt lat="46.01414" lon="10.93088">
        <ele>429.01</ele>
        <time>2022-09-18T07:38:44Z</time>
      </trkpt>
      <trkpt lat="46.01415" lon="10.93088">
        <ele>429.55</ele>
        <time>2022-09-18T07:38:45Z</time>
      </trkpt>
      <trkpt lat="46.01416" lon="10.93088">
        <ele>429.98</ele>
        <time>2022-09-18T07:38:46Z</time>
      </trkpt>
      <trkpt lat="46.01417" lon="10.93088">
        <ele>430.14</ele>
        <time>2022-09-18T07:38:47Z</time>
      </trkpt>
      <trkpt lat="46.01418" lon="10.93089">
        <ele>431.09</ele>
        <time>2022-09-18T07:38:48Z</time>
      </trkpt>
      <trkpt lat="46.01419" lon="10.93089">
        <ele>430.85</ele>
        <time>2022-09-18T07:38:49Z</time>
      </trkpt>
      <trkpt lat="46.01421" lon="10.9309">
        <ele>430.78</ele>
        <time>2022-09-18T07:38:50Z</time>
      </trkpt>
      <trkpt lat="46.01422" lon="10.9309">
        <ele>431.59</ele>
        <time>2022-09-18T07:38:51Z</time>
      </trkpt>
      <trkpt lat="46.01423" lon="10.9309">
        <ele>431.56</ele>
        <time>2022-09-18T07:38:52Z</time>
      </trkpt>
      <trkpt lat="46.01424" lon="10.93091">
        <ele>432.92</ele>
        <time>2022-09-18T07:38:53Z</time>
      </trkpt>
      <trkpt lat="46.01425" lon="10.93091">
        <ele>433.2</ele>
        <time>2022-09-18T07:38:54Z</time>
      </trkpt>
      <trkpt lat="46.01426" lon="10.93091">
        <ele>433.94</ele>
        <time>2022-09-18T07:38:55Z</time>
      </trkpt>
      <trkpt lat="46.01427" lon="10.93091">
        <ele>433.02</ele>
        <time>2022-09-18T07:38:56Z</time>
      </trkpt>
      <trkpt lat="46.01428" lon="10.93092">
        <ele>433.2</ele>
        <time>2022-09-18T07:38:57Z</time>
      </trkpt>
      <trkpt lat="46.01429" lon="10.93092">
        <ele>433.48</ele>
        <time>2022-09-18T07:38:58Z</time>
      </trkpt>
      <trkpt lat="46.0143" lon="10.93092">
        <ele>432.93</ele>
        <time>2022-09-18T07:38:59Z</time>
      </trkpt>
      <trkpt lat="46.01432" lon="10.93093">
        <ele>432.35</ele>
        <time>2022-09-18T07:39:01Z</time>
      </trkpt>
      <trkpt lat="46.01433" lon="10.93093">
        <ele>432.34</ele>
        <time>2022-09-18T07:39:02Z</time>
      </trkpt>
      <trkpt lat="46.01434" lon="10.93093">
        <ele>432.32</ele>
        <time>2022-09-18T07:39:03Z</time>
      </trkpt>
      <trkpt lat="46.01435" lon="10.93093">
        <ele>432.31</ele>
        <time>2022-09-18T07:39:04Z</time>
      </trkpt>
      <trkpt lat="46.01436" lon="10.93093">
        <ele>432.3</ele>
        <time>2022-09-18T07:39:05Z</time>
      </trkpt>
      <trkpt lat="46.01437" lon="10.93093">
        <ele>432.31</ele>
        <time>2022-09-18T07:39:06Z</time>
      </trkpt>
      <trkpt lat="46.01438" lon="10.93093">
        <ele>432.33</ele>
        <time>2022-09-18T07:39:07Z</time>
      </trkpt>
      <trkpt lat="46.01439" lon="10.93093">
        <ele>433.41</ele>
        <time>2022-09-18T07:39:08Z</time>
      </trkpt>
      <trkpt lat="46.0144" lon="10.93093">
        <ele>432.83</ele>
        <time>2022-09-18T07:39:09Z</time>
      </trkpt>
      <trkpt lat="46.01441" lon="10.93094">
        <ele>433.36</ele>
        <time>2022-09-18T07:39:10Z</time>
      </trkpt>
      <trkpt lat="46.01442" lon="10.93094">
        <ele>433.53</ele>
        <time>2022-09-18T07:39:11Z</time>
      </trkpt>
      <trkpt lat="46.01444" lon="10.93094">
        <ele>420.15</ele>
        <time>2022-09-18T07:39:13Z</time>
      </trkpt>
      <trkpt lat="46.01445" lon="10.93093">
        <ele>421.66</ele>
        <time>2022-09-18T07:39:14Z</time>
      </trkpt>
      <trkpt lat="46.01447" lon="10.93093">
        <ele>422.82</ele>
        <time>2022-09-18T07:39:15Z</time>
      </trkpt>
      <trkpt lat="46.01448" lon="10.93093">
        <ele>424.69</ele>
        <time>2022-09-18T07:39:16Z</time>
      </trkpt>
      <trkpt lat="46.01449" lon="10.93093">
        <ele>427.1</ele>
        <time>2022-09-18T07:39:17Z</time>
      </trkpt>
      <trkpt lat="46.0145" lon="10.93093">
        <ele>427.56</ele>
        <time>2022-09-18T07:39:18Z</time>
      </trkpt>
      <trkpt lat="46.01452" lon="10.93093">
        <ele>429.35</ele>
        <time>2022-09-18T07:39:19Z</time>
      </trkpt>
      <trkpt lat="46.01453" lon="10.93092">
        <ele>430.27</ele>
        <time>2022-09-18T07:39:20Z</time>
      </trkpt>
      <trkpt lat="46.01454" lon="10.93092">
        <ele>430.32</ele>
        <time>2022-09-18T07:39:21Z</time>
      </trkpt>
      <trkpt lat="46.01455" lon="10.93093">
        <ele>430.49</ele>
        <time>2022-09-18T07:39:22Z</time>
      </trkpt>
      <trkpt lat="46.01456" lon="10.93093">
        <ele>432.2</ele>
        <time>2022-09-18T07:39:23Z</time>
      </trkpt>
      <trkpt lat="46.01457" lon="10.93093">
        <ele>431.28</ele>
        <time>2022-09-18T07:39:24Z</time>
      </trkpt>
      <trkpt lat="46.01458" lon="10.93093">
        <ele>431.48</ele>
        <time>2022-09-18T07:39:25Z</time>
      </trkpt>
      <trkpt lat="46.01459" lon="10.93093">
        <ele>431.7</ele>
        <time>2022-09-18T07:39:26Z</time>
      </trkpt>
      <trkpt lat="46.0146" lon="10.93093">
        <ele>431.82</ele>
        <time>2022-09-18T07:39:27Z</time>
      </trkpt>
      <trkpt lat="46.01462" lon="10.93094">
        <ele>415</ele>
        <time>2022-09-18T07:39:28Z</time>
      </trkpt>
      <trkpt lat="46.01463" lon="10.93094">
        <ele>421.1</ele>
        <time>2022-09-18T07:39:29Z</time>
      </trkpt>
      <trkpt lat="46.01464" lon="10.93094">
        <ele>415.17</ele>
        <time>2022-09-18T07:39:30Z</time>
      </trkpt>
      <trkpt lat="46.01465" lon="10.93095">
        <ele>419.32</ele>
        <time>2022-09-18T07:39:31Z</time>
      </trkpt>
      <trkpt lat="46.01467" lon="10.93095">
        <ele>421.97</ele>
        <time>2022-09-18T07:39:32Z</time>
      </trkpt>
      <trkpt lat="46.01468" lon="10.93095">
        <ele>424.08</ele>
        <time>2022-09-18T07:39:33Z</time>
      </trkpt>
      <trkpt lat="46.0147" lon="10.93096">
        <ele>425.94</ele>
        <time>2022-09-18T07:39:34Z</time>
      </trkpt>
      <trkpt lat="46.01471" lon="10.93096">
        <ele>426.76</ele>
        <time>2022-09-18T07:39:35Z</time>
      </trkpt>
      <trkpt lat="46.01473" lon="10.93096">
        <ele>427.04</ele>
        <time>2022-09-18T07:39:36Z</time>
      </trkpt>
      <trkpt lat="46.01475" lon="10.93096">
        <ele>412.63</ele>
        <time>2022-09-18T07:39:37Z</time>
      </trkpt>
      <trkpt lat="46.01476" lon="10.93096">
        <ele>416.84</ele>
        <time>2022-09-18T07:39:38Z</time>
      </trkpt>
      <trkpt lat="46.01478" lon="10.93096">
        <ele>421.72</ele>
        <time>2022-09-18T07:39:39Z</time>
      </trkpt>
      <trkpt lat="46.01479" lon="10.93096">
        <ele>424.47</ele>
        <time>2022-09-18T07:39:40Z</time>
      </trkpt>
      <trkpt lat="46.01481" lon="10.93096">
        <ele>427.16</ele>
        <time>2022-09-18T07:39:41Z</time>
      </trkpt>
      <trkpt lat="46.01482" lon="10.93096">
        <ele>428.52</ele>
        <time>2022-09-18T07:39:42Z</time>
      </trkpt>
      <trkpt lat="46.01484" lon="10.93095">
        <ele>429.11</ele>
        <time>2022-09-18T07:39:43Z</time>
      </trkpt>
      <trkpt lat="46.01485" lon="10.93095">
        <ele>429.87</ele>
        <time>2022-09-18T07:39:44Z</time>
      </trkpt>
      <trkpt lat="46.01487" lon="10.93095">
        <ele>430.66</ele>
        <time>2022-09-18T07:39:45Z</time>
      </trkpt>
      <trkpt lat="46.01488" lon="10.93095">
        <ele>430.66</ele>
        <time>2022-09-18T07:39:46Z</time>
      </trkpt>
      <trkpt lat="46.01489" lon="10.93095">
        <ele>431.95</ele>
        <time>2022-09-18T07:39:47Z</time>
      </trkpt>
      <trkpt lat="46.01491" lon="10.93095">
        <ele>432.26</ele>
        <time>2022-09-18T07:39:48Z</time>
      </trkpt>
      <trkpt lat="46.01492" lon="10.93095">
        <ele>432.09</ele>
        <time>2022-09-18T07:39:49Z</time>
      </trkpt>
      <trkpt lat="46.01493" lon="10.93095">
        <ele>432.3</ele>
        <time>2022-09-18T07:39:50Z</time>
      </trkpt>
      <trkpt lat="46.01494" lon="10.93095">
        <ele>432.22</ele>
        <time>2022-09-18T07:39:51Z</time>
      </trkpt>
      <trkpt lat="46.01496" lon="10.93095">
        <ele>433.35</ele>
        <time>2022-09-18T07:39:52Z</time>
      </trkpt>
      <trkpt lat="46.01497" lon="10.93095">
        <ele>433.23</ele>
        <time>2022-09-18T07:39:53Z</time>
      </trkpt>
      <trkpt lat="46.01498" lon="10.93095">
        <ele>434.38</ele>
        <time>2022-09-18T07:39:54Z</time>
      </trkpt>
      <trkpt lat="46.01499" lon="10.93095">
        <ele>434.8</ele>
        <time>2022-09-18T07:39:55Z</time>
      </trkpt>
      <trkpt lat="46.01501" lon="10.93095">
        <ele>434.52</ele>
        <time>2022-09-18T07:39:56Z</time>
      </trkpt>
      <trkpt lat="46.015" lon="10.93095">
        <ele>435.42</ele>
        <time>2022-09-18T07:39:57Z</time>
      </trkpt>
      <trkpt lat="46.01501" lon="10.93095">
        <ele>435.46</ele>
        <time>2022-09-18T07:39:58Z</time>
      </trkpt>
      <trkpt lat="46.01502" lon="10.93095">
        <ele>436.18</ele>
        <time>2022-09-18T07:39:59Z</time>
      </trkpt>
      <trkpt lat="46.01503" lon="10.93095">
        <ele>436.99</ele>
        <time>2022-09-18T07:40:00Z</time>
      </trkpt>
      <trkpt lat="46.01504" lon="10.93095">
        <ele>437.27</ele>
        <time>2022-09-18T07:40:01Z</time>
      </trkpt>
      <trkpt lat="46.01506" lon="10.93096">
        <ele>436.84</ele>
        <time>2022-09-18T07:40:02Z</time>
      </trkpt>
      <trkpt lat="46.01507" lon="10.93096">
        <ele>437.34</ele>
        <time>2022-09-18T07:40:03Z</time>
      </trkpt>
      <trkpt lat="46.01508" lon="10.93097">
        <ele>437.52</ele>
        <time>2022-09-18T07:40:04Z</time>
      </trkpt>
      <trkpt lat="46.01509" lon="10.93098">
        <ele>437.4</ele>
        <time>2022-09-18T07:40:05Z</time>
      </trkpt>
      <trkpt lat="46.0151" lon="10.93098">
        <ele>437.1</ele>
        <time>2022-09-18T07:40:06Z</time>
      </trkpt>
      <trkpt lat="46.01511" lon="10.93098">
        <ele>437.06</ele>
        <time>2022-09-18T07:40:07Z</time>
      </trkpt>
      <trkpt lat="46.01512" lon="10.93098">
        <ele>437</ele>
        <time>2022-09-18T07:40:08Z</time>
      </trkpt>
      <trkpt lat="46.01513" lon="10.93098">
        <ele>437.03</ele>
        <time>2022-09-18T07:40:09Z</time>
      </trkpt>
      <trkpt lat="46.01514" lon="10.93098">
        <ele>436.99</ele>
        <time>2022-09-18T07:40:10Z</time>
      </trkpt>
      <trkpt lat="46.01515" lon="10.93099">
        <ele>437.36</ele>
        <time>2022-09-18T07:40:11Z</time>
      </trkpt>
      <trkpt lat="46.01516" lon="10.931">
        <ele>436.96</ele>
        <time>2022-09-18T07:40:12Z</time>
      </trkpt>
      <trkpt lat="46.01517" lon="10.931">
        <ele>436.48</ele>
        <time>2022-09-18T07:40:13Z</time>
      </trkpt>
      <trkpt lat="46.01519" lon="10.931">
        <ele>436.2</ele>
        <time>2022-09-18T07:40:14Z</time>
      </trkpt>
      <trkpt lat="46.0152" lon="10.931">
        <ele>436.02</ele>
        <time>2022-09-18T07:40:15Z</time>
      </trkpt>
      <trkpt lat="46.01521" lon="10.931">
        <ele>417.46</ele>
        <time>2022-09-18T07:40:16Z</time>
      </trkpt>
      <trkpt lat="46.01522" lon="10.931">
        <ele>424.37</ele>
        <time>2022-09-18T07:40:17Z</time>
      </trkpt>
      <trkpt lat="46.01523" lon="10.93101">
        <ele>427.87</ele>
        <time>2022-09-18T07:40:18Z</time>
      </trkpt>
      <trkpt lat="46.01524" lon="10.93101">
        <ele>430.58</ele>
        <time>2022-09-18T07:40:19Z</time>
      </trkpt>
      <trkpt lat="46.01525" lon="10.93101">
        <ele>432.23</ele>
        <time>2022-09-18T07:40:20Z</time>
      </trkpt>
      <trkpt lat="46.01527" lon="10.93101">
        <ele>432.86</ele>
        <time>2022-09-18T07:40:21Z</time>
      </trkpt>
      <trkpt lat="46.01528" lon="10.93101">
        <ele>433.17</ele>
        <time>2022-09-18T07:40:22Z</time>
      </trkpt>
      <trkpt lat="46.01529" lon="10.93102">
        <ele>433.55</ele>
        <time>2022-09-18T07:40:23Z</time>
      </trkpt>
      <trkpt lat="46.0153" lon="10.93102">
        <ele>433.89</ele>
        <time>2022-09-18T07:40:24Z</time>
      </trkpt>
      <trkpt lat="46.01531" lon="10.93102">
        <ele>433.78</ele>
        <time>2022-09-18T07:40:25Z</time>
      </trkpt>
      <trkpt lat="46.01532" lon="10.93102">
        <ele>433.88</ele>
        <time>2022-09-18T07:40:26Z</time>
      </trkpt>
      <trkpt lat="46.01533" lon="10.93101">
        <ele>433.33</ele>
        <time>2022-09-18T07:40:27Z</time>
      </trkpt>
      <trkpt lat="46.01534" lon="10.93101">
        <ele>434.69</ele>
        <time>2022-09-18T07:40:28Z</time>
      </trkpt>
      <trkpt lat="46.01535" lon="10.93101">
        <ele>435.56</ele>
        <time>2022-09-18T07:40:29Z</time>
      </trkpt>
      <trkpt lat="46.01536" lon="10.93101">
        <ele>436.01</ele>
        <time>2022-09-18T07:40:30Z</time>
      </trkpt>
      <trkpt lat="46.01538" lon="10.93101">
        <ele>435.74</ele>
        <time>2022-09-18T07:40:31Z</time>
      </trkpt>
      <trkpt lat="46.01539" lon="10.93101">
        <ele>436.16</ele>
        <time>2022-09-18T07:40:32Z</time>
      </trkpt>
      <trkpt lat="46.0154" lon="10.93101">
        <ele>436.59</ele>
        <time>2022-09-18T07:40:33Z</time>
      </trkpt>
      <trkpt lat="46.01541" lon="10.93101">
        <ele>436.65</ele>
        <time>2022-09-18T07:40:34Z</time>
      </trkpt>
      <trkpt lat="46.01543" lon="10.93101">
        <ele>436.65</ele>
        <time>2022-09-18T07:40:35Z</time>
      </trkpt>
      <trkpt lat="46.01544" lon="10.93101">
        <ele>437.24</ele>
        <time>2022-09-18T07:40:36Z</time>
      </trkpt>
      <trkpt lat="46.01545" lon="10.93102">
        <ele>437.81</ele>
        <time>2022-09-18T07:40:37Z</time>
      </trkpt>
      <trkpt lat="46.01546" lon="10.93102">
        <ele>437.98</ele>
        <time>2022-09-18T07:40:38Z</time>
      </trkpt>
      <trkpt lat="46.01547" lon="10.93102">
        <ele>438.3</ele>
        <time>2022-09-18T07:40:39Z</time>
      </trkpt>
      <trkpt lat="46.01548" lon="10.93102">
        <ele>438.95</ele>
        <time>2022-09-18T07:40:40Z</time>
      </trkpt>
      <trkpt lat="46.01549" lon="10.93103">
        <ele>439.22</ele>
        <time>2022-09-18T07:40:41Z</time>
      </trkpt>
      <trkpt lat="46.01551" lon="10.93103">
        <ele>439.58</ele>
        <time>2022-09-18T07:40:42Z</time>
      </trkpt>
      <trkpt lat="46.01552" lon="10.93103">
        <ele>439.44</ele>
        <time>2022-09-18T07:40:43Z</time>
      </trkpt>
      <trkpt lat="46.01553" lon="10.93103">
        <ele>421.44</ele>
        <time>2022-09-18T07:40:44Z</time>
      </trkpt>
      <trkpt lat="46.01555" lon="10.93102">
        <ele>426.84</ele>
        <time>2022-09-18T07:40:45Z</time>
      </trkpt>
      <trkpt lat="46.01556" lon="10.93102">
        <ele>429.79</ele>
        <time>2022-09-18T07:40:46Z</time>
      </trkpt>
      <trkpt lat="46.01558" lon="10.93103">
        <ele>432.67</ele>
        <time>2022-09-18T07:40:47Z</time>
      </trkpt>
      <trkpt lat="46.01559" lon="10.93102">
        <ele>434.93</ele>
        <time>2022-09-18T07:40:48Z</time>
      </trkpt>
      <trkpt lat="46.0156" lon="10.93102">
        <ele>435.88</ele>
        <time>2022-09-18T07:40:49Z</time>
      </trkpt>
      <trkpt lat="46.01561" lon="10.93102">
        <ele>437.44</ele>
        <time>2022-09-18T07:40:50Z</time>
      </trkpt>
      <trkpt lat="46.01562" lon="10.93101">
        <ele>438.58</ele>
        <time>2022-09-18T07:40:51Z</time>
      </trkpt>
      <trkpt lat="46.01563" lon="10.93101">
        <ele>440.68</ele>
        <time>2022-09-18T07:40:52Z</time>
      </trkpt>
      <trkpt lat="46.01564" lon="10.93101">
        <ele>441.13</ele>
        <time>2022-09-18T07:40:53Z</time>
      </trkpt>
      <trkpt lat="46.01565" lon="10.93101">
        <ele>440.29</ele>
        <time>2022-09-18T07:40:54Z</time>
      </trkpt>
      <trkpt lat="46.01566" lon="10.93101">
        <ele>439.55</ele>
        <time>2022-09-18T07:40:55Z</time>
      </trkpt>
      <trkpt lat="46.01567" lon="10.93101">
        <ele>439.5</ele>
        <time>2022-09-18T07:40:56Z</time>
      </trkpt>
      <trkpt lat="46.01568" lon="10.93101">
        <ele>439.44</ele>
        <time>2022-09-18T07:40:57Z</time>
      </trkpt>
      <trkpt lat="46.0157" lon="10.93101">
        <ele>439.89</ele>
        <time>2022-09-18T07:40:58Z</time>
      </trkpt>
      <trkpt lat="46.01571" lon="10.93101">
        <ele>439.94</ele>
        <time>2022-09-18T07:40:59Z</time>
      </trkpt>
      <trkpt lat="46.01572" lon="10.93101">
        <ele>440.77</ele>
        <time>2022-09-18T07:41:00Z</time>
      </trkpt>
      <trkpt lat="46.01573" lon="10.93101">
        <ele>441.89</ele>
        <time>2022-09-18T07:41:01Z</time>
      </trkpt>
      <trkpt lat="46.01574" lon="10.93102">
        <ele>442.11</ele>
        <time>2022-09-18T07:41:02Z</time>
      </trkpt>
      <trkpt lat="46.01576" lon="10.93102">
        <ele>441.87</ele>
        <time>2022-09-18T07:41:03Z</time>
      </trkpt>
      <trkpt lat="46.01577" lon="10.93102">
        <ele>429.58</ele>
        <time>2022-09-18T07:41:04Z</time>
      </trkpt>
      <trkpt lat="46.01578" lon="10.93102">
        <ele>432.38</ele>
        <time>2022-09-18T07:41:05Z</time>
      </trkpt>
      <trkpt lat="46.01579" lon="10.93102">
        <ele>435.37</ele>
        <time>2022-09-18T07:41:06Z</time>
      </trkpt>
      <trkpt lat="46.01581" lon="10.93102">
        <ele>437.13</ele>
        <time>2022-09-18T07:41:07Z</time>
      </trkpt>
      <trkpt lat="46.01582" lon="10.93102">
        <ele>437.75</ele>
        <time>2022-09-18T07:41:08Z</time>
      </trkpt>
      <trkpt lat="46.01583" lon="10.93102">
        <ele>438.92</ele>
        <time>2022-09-18T07:41:09Z</time>
      </trkpt>
      <trkpt lat="46.01585" lon="10.93102">
        <ele>439.17</ele>
        <time>2022-09-18T07:41:10Z</time>
      </trkpt>
      <trkpt lat="46.01586" lon="10.93102">
        <ele>440.09</ele>
        <time>2022-09-18T07:41:11Z</time>
      </trkpt>
      <trkpt lat="46.01587" lon="10.93102">
        <ele>440.68</ele>
        <time>2022-09-18T07:41:12Z</time>
      </trkpt>
      <trkpt lat="46.01588" lon="10.93102">
        <ele>441.13</ele>
        <time>2022-09-18T07:41:13Z</time>
      </trkpt>
      <trkpt lat="46.01589" lon="10.93102">
        <ele>441.6</ele>
        <time>2022-09-18T07:41:14Z</time>
      </trkpt>
      <trkpt lat="46.0159" lon="10.93102">
        <ele>441.67</ele>
        <time>2022-09-18T07:41:15Z</time>
      </trkpt>
      <trkpt lat="46.01591" lon="10.93103">
        <ele>441.88</ele>
        <time>2022-09-18T07:41:16Z</time>
      </trkpt>
      <trkpt lat="46.01592" lon="10.93103">
        <ele>441.5</ele>
        <time>2022-09-18T07:41:17Z</time>
      </trkpt>
      <trkpt lat="46.01594" lon="10.93103">
        <ele>441.28</ele>
        <time>2022-09-18T07:41:18Z</time>
      </trkpt>
      <trkpt lat="46.01594" lon="10.93104">
        <ele>441.5</ele>
        <time>2022-09-18T07:41:19Z</time>
      </trkpt>
      <trkpt lat="46.01595" lon="10.93104">
        <ele>441.64</ele>
        <time>2022-09-18T07:41:20Z</time>
      </trkpt>
      <trkpt lat="46.01596" lon="10.93105">
        <ele>442.51</ele>
        <time>2022-09-18T07:41:21Z</time>
      </trkpt>
      <trkpt lat="46.01597" lon="10.93105">
        <ele>443.19</ele>
        <time>2022-09-18T07:41:22Z</time>
      </trkpt>
      <trkpt lat="46.01598" lon="10.93106">
        <ele>443.99</ele>
        <time>2022-09-18T07:41:23Z</time>
      </trkpt>
      <trkpt lat="46.01599" lon="10.93106">
        <ele>444.81</ele>
        <time>2022-09-18T07:41:24Z</time>
      </trkpt>
      <trkpt lat="46.016" lon="10.93107">
        <ele>444.3</ele>
        <time>2022-09-18T07:41:25Z</time>
      </trkpt>
      <trkpt lat="46.01601" lon="10.93107">
        <ele>444.26</ele>
        <time>2022-09-18T07:41:26Z</time>
      </trkpt>
      <trkpt lat="46.01602" lon="10.93108">
        <ele>443.22</ele>
        <time>2022-09-18T07:41:27Z</time>
      </trkpt>
      <trkpt lat="46.01603" lon="10.9311">
        <ele>443.55</ele>
        <time>2022-09-18T07:41:28Z</time>
      </trkpt>
      <trkpt lat="46.01604" lon="10.93111">
        <ele>443.93</ele>
        <time>2022-09-18T07:41:29Z</time>
      </trkpt>
      <trkpt lat="46.01605" lon="10.93112">
        <ele>444.83</ele>
        <time>2022-09-18T07:41:30Z</time>
      </trkpt>
      <trkpt lat="46.01605" lon="10.93113">
        <ele>445.08</ele>
        <time>2022-09-18T07:41:31Z</time>
      </trkpt>
      <trkpt lat="46.01606" lon="10.93114">
        <ele>446.73</ele>
        <time>2022-09-18T07:41:32Z</time>
      </trkpt>
      <trkpt lat="46.01607" lon="10.93115">
        <ele>446.82</ele>
        <time>2022-09-18T07:41:33Z</time>
      </trkpt>
      <trkpt lat="46.01609" lon="10.93115">
        <ele>446.62</ele>
        <time>2022-09-18T07:41:34Z</time>
      </trkpt>
      <trkpt lat="46.0161" lon="10.93115">
        <ele>447.1</ele>
        <time>2022-09-18T07:41:35Z</time>
      </trkpt>
      <trkpt lat="46.01611" lon="10.93115">
        <ele>447.19</ele>
        <time>2022-09-18T07:41:36Z</time>
      </trkpt>
      <trkpt lat="46.01613" lon="10.93116">
        <ele>448.04</ele>
        <time>2022-09-18T07:41:37Z</time>
      </trkpt>
      <trkpt lat="46.01614" lon="10.93116">
        <ele>448.81</ele>
        <time>2022-09-18T07:41:38Z</time>
      </trkpt>
      <trkpt lat="46.01615" lon="10.93116">
        <ele>448.9</ele>
        <time>2022-09-18T07:41:39Z</time>
      </trkpt>
      <trkpt lat="46.01616" lon="10.93116">
        <ele>448.5</ele>
        <time>2022-09-18T07:41:41Z</time>
      </trkpt>
      <trkpt lat="46.01618" lon="10.93115">
        <ele>449.22</ele>
        <time>2022-09-18T07:41:43Z</time>
      </trkpt>
      <trkpt lat="46.01619" lon="10.93115">
        <ele>450</ele>
        <time>2022-09-18T07:41:44Z</time>
      </trkpt>
      <trkpt lat="46.01621" lon="10.93115">
        <ele>449.89</ele>
        <time>2022-09-18T07:41:45Z</time>
      </trkpt>
      <trkpt lat="46.01622" lon="10.93114">
        <ele>449.9</ele>
        <time>2022-09-18T07:41:46Z</time>
      </trkpt>
      <trkpt lat="46.01623" lon="10.93114">
        <ele>450.37</ele>
        <time>2022-09-18T07:41:47Z</time>
      </trkpt>
      <trkpt lat="46.01624" lon="10.93113">
        <ele>451.01</ele>
        <time>2022-09-18T07:41:48Z</time>
      </trkpt>
      <trkpt lat="46.01625" lon="10.93113">
        <ele>451.82</ele>
        <time>2022-09-18T07:41:49Z</time>
      </trkpt>
      <trkpt lat="46.01626" lon="10.93113">
        <ele>452.01</ele>
        <time>2022-09-18T07:41:50Z</time>
      </trkpt>
      <trkpt lat="46.01627" lon="10.93112">
        <ele>452.43</ele>
        <time>2022-09-18T07:41:51Z</time>
      </trkpt>
      <trkpt lat="46.01628" lon="10.93112">
        <ele>452.2</ele>
        <time>2022-09-18T07:41:52Z</time>
      </trkpt>
      <trkpt lat="46.01629" lon="10.93112">
        <ele>452.28</ele>
        <time>2022-09-18T07:41:53Z</time>
      </trkpt>
      <trkpt lat="46.0163" lon="10.93109">
        <ele>453.13</ele>
        <time>2022-09-18T07:41:54Z</time>
      </trkpt>
      <trkpt lat="46.01631" lon="10.93108">
        <ele>453.19</ele>
        <time>2022-09-18T07:41:55Z</time>
      </trkpt>
      <trkpt lat="46.01632" lon="10.93108">
        <ele>452.79</ele>
        <time>2022-09-18T07:41:56Z</time>
      </trkpt>
      <trkpt lat="46.01633" lon="10.93107">
        <ele>452.27</ele>
        <time>2022-09-18T07:41:57Z</time>
      </trkpt>
      <trkpt lat="46.01634" lon="10.93106">
        <ele>452.18</ele>
        <time>2022-09-18T07:41:58Z</time>
      </trkpt>
      <trkpt lat="46.01636" lon="10.93106">
        <ele>452.72</ele>
        <time>2022-09-18T07:41:59Z</time>
      </trkpt>
      <trkpt lat="46.01637" lon="10.93106">
        <ele>453.25</ele>
        <time>2022-09-18T07:42:00Z</time>
      </trkpt>
      <trkpt lat="46.01638" lon="10.93106">
        <ele>453.8</ele>
        <time>2022-09-18T07:42:01Z</time>
      </trkpt>
      <trkpt lat="46.0164" lon="10.93106">
        <ele>454.13</ele>
        <time>2022-09-18T07:42:02Z</time>
      </trkpt>
      <trkpt lat="46.01642" lon="10.93106">
        <ele>452.68</ele>
        <time>2022-09-18T07:42:03Z</time>
      </trkpt>
      <trkpt lat="46.01643" lon="10.93105">
        <ele>453.55</ele>
        <time>2022-09-18T07:42:04Z</time>
      </trkpt>
      <trkpt lat="46.01644" lon="10.93106">
        <ele>453.79</ele>
        <time>2022-09-18T07:42:05Z</time>
      </trkpt>
      <trkpt lat="46.01646" lon="10.93106">
        <ele>454.21</ele>
        <time>2022-09-18T07:42:06Z</time>
      </trkpt>
      <trkpt lat="46.01647" lon="10.93107">
        <ele>454.62</ele>
        <time>2022-09-18T07:42:07Z</time>
      </trkpt>
      <trkpt lat="46.01648" lon="10.93108">
        <ele>454.84</ele>
        <time>2022-09-18T07:42:08Z</time>
      </trkpt>
      <trkpt lat="46.0165" lon="10.93109">
        <ele>454.64</ele>
        <time>2022-09-18T07:42:09Z</time>
      </trkpt>
      <trkpt lat="46.01651" lon="10.9311">
        <ele>436.2</ele>
        <time>2022-09-18T07:42:10Z</time>
      </trkpt>
      <trkpt lat="46.01652" lon="10.93111">
        <ele>440.93</ele>
        <time>2022-09-18T07:42:11Z</time>
      </trkpt>
      <trkpt lat="46.01653" lon="10.93112">
        <ele>443.94</ele>
        <time>2022-09-18T07:42:12Z</time>
      </trkpt>
      <trkpt lat="46.01655" lon="10.93113">
        <ele>446.39</ele>
        <time>2022-09-18T07:42:13Z</time>
      </trkpt>
      <trkpt lat="46.01656" lon="10.93115">
        <ele>447.69</ele>
        <time>2022-09-18T07:42:14Z</time>
      </trkpt>
      <trkpt lat="46.01657" lon="10.93116">
        <ele>448.11</ele>
        <time>2022-09-18T07:42:15Z</time>
      </trkpt>
      <trkpt lat="46.01658" lon="10.93118">
        <ele>448.62</ele>
        <time>2022-09-18T07:42:16Z</time>
      </trkpt>
      <trkpt lat="46.01658" lon="10.93119">
        <ele>449.45</ele>
        <time>2022-09-18T07:42:17Z</time>
      </trkpt>
      <trkpt lat="46.01659" lon="10.93121">
        <ele>449.71</ele>
        <time>2022-09-18T07:42:18Z</time>
      </trkpt>
      <trkpt lat="46.0166" lon="10.93122">
        <ele>450.04</ele>
        <time>2022-09-18T07:42:19Z</time>
      </trkpt>
      <trkpt lat="46.0166" lon="10.93123">
        <ele>449.99</ele>
        <time>2022-09-18T07:42:20Z</time>
      </trkpt>
      <trkpt lat="46.01661" lon="10.93125">
        <ele>450</ele>
        <time>2022-09-18T07:42:21Z</time>
      </trkpt>
      <trkpt lat="46.01661" lon="10.93126">
        <ele>450.13</ele>
        <time>2022-09-18T07:42:22Z</time>
      </trkpt>
      <trkpt lat="46.01662" lon="10.93128">
        <ele>450.37</ele>
        <time>2022-09-18T07:42:23Z</time>
      </trkpt>
      <trkpt lat="46.01662" lon="10.93129">
        <ele>450.81</ele>
        <time>2022-09-18T07:42:24Z</time>
      </trkpt>
      <trkpt lat="46.01662" lon="10.93131">
        <ele>451.93</ele>
        <time>2022-09-18T07:42:25Z</time>
      </trkpt>
      <trkpt lat="46.01662" lon="10.93132">
        <ele>452.69</ele>
        <time>2022-09-18T07:42:26Z</time>
      </trkpt>
      <trkpt lat="46.01663" lon="10.93134">
        <ele>451.5</ele>
        <time>2022-09-18T07:42:28Z</time>
      </trkpt>
      <trkpt lat="46.01663" lon="10.93136">
        <ele>451.94</ele>
        <time>2022-09-18T07:42:30Z</time>
      </trkpt>
      <trkpt lat="46.01663" lon="10.93137">
        <ele>452.04</ele>
        <time>2022-09-18T07:42:31Z</time>
      </trkpt>
      <trkpt lat="46.01664" lon="10.93139">
        <ele>452.35</ele>
        <time>2022-09-18T07:42:32Z</time>
      </trkpt>
      <trkpt lat="46.01664" lon="10.93141">
        <ele>451.89</ele>
        <time>2022-09-18T07:42:33Z</time>
      </trkpt>
      <trkpt lat="46.01665" lon="10.93143">
        <ele>452.02</ele>
        <time>2022-09-18T07:42:34Z</time>
      </trkpt>
      <trkpt lat="46.01665" lon="10.93144">
        <ele>451.82</ele>
        <time>2022-09-18T07:42:35Z</time>
      </trkpt>
      <trkpt lat="46.01666" lon="10.93145">
        <ele>453.54</ele>
        <time>2022-09-18T07:42:36Z</time>
      </trkpt>
      <trkpt lat="46.01667" lon="10.93147">
        <ele>454.55</ele>
        <time>2022-09-18T07:42:37Z</time>
      </trkpt>
      <trkpt lat="46.01668" lon="10.93149">
        <ele>454.96</ele>
        <time>2022-09-18T07:42:38Z</time>
      </trkpt>
      <trkpt lat="46.01669" lon="10.93151">
        <ele>455.82</ele>
        <time>2022-09-18T07:42:39Z</time>
      </trkpt>
      <trkpt lat="46.0167" lon="10.93153">
        <ele>456.54</ele>
        <time>2022-09-18T07:42:40Z</time>
      </trkpt>
      <trkpt lat="46.0167" lon="10.93155">
        <ele>456.41</ele>
        <time>2022-09-18T07:42:41Z</time>
      </trkpt>
      <trkpt lat="46.01671" lon="10.93156">
        <ele>456.58</ele>
        <time>2022-09-18T07:42:42Z</time>
      </trkpt>
      <trkpt lat="46.01672" lon="10.93158">
        <ele>456.51</ele>
        <time>2022-09-18T07:42:43Z</time>
      </trkpt>
      <trkpt lat="46.01673" lon="10.93159">
        <ele>456.94</ele>
        <time>2022-09-18T07:42:44Z</time>
      </trkpt>
      <trkpt lat="46.01674" lon="10.93161">
        <ele>456.55</ele>
        <time>2022-09-18T07:42:45Z</time>
      </trkpt>
      <trkpt lat="46.01674" lon="10.93162">
        <ele>456.51</ele>
        <time>2022-09-18T07:42:46Z</time>
      </trkpt>
      <trkpt lat="46.01675" lon="10.93164">
        <ele>457.21</ele>
        <time>2022-09-18T07:42:47Z</time>
      </trkpt>
      <trkpt lat="46.01676" lon="10.93165">
        <ele>458.35</ele>
        <time>2022-09-18T07:42:48Z</time>
      </trkpt>
      <trkpt lat="46.01677" lon="10.93166">
        <ele>459.4</ele>
        <time>2022-09-18T07:42:49Z</time>
      </trkpt>
      <trkpt lat="46.01678" lon="10.93167">
        <ele>462.05</ele>
        <time>2022-09-18T07:42:50Z</time>
      </trkpt>
      <trkpt lat="46.01678" lon="10.93169">
        <ele>460.57</ele>
        <time>2022-09-18T07:42:51Z</time>
      </trkpt>
      <trkpt lat="46.01679" lon="10.9317">
        <ele>460.55</ele>
        <time>2022-09-18T07:42:52Z</time>
      </trkpt>
      <trkpt lat="46.0168" lon="10.93171">
        <ele>461.27</ele>
        <time>2022-09-18T07:42:53Z</time>
      </trkpt>
      <trkpt lat="46.01681" lon="10.93172">
        <ele>462.17</ele>
        <time>2022-09-18T07:42:54Z</time>
      </trkpt>
      <trkpt lat="46.01682" lon="10.93172">
        <ele>462.57</ele>
        <time>2022-09-18T07:42:55Z</time>
      </trkpt>
      <trkpt lat="46.01683" lon="10.93173">
        <ele>462.71</ele>
        <time>2022-09-18T07:42:56Z</time>
      </trkpt>
      <trkpt lat="46.01684" lon="10.93175">
        <ele>462.98</ele>
        <time>2022-09-18T07:42:57Z</time>
      </trkpt>
      <trkpt lat="46.01685" lon="10.93176">
        <ele>462.89</ele>
        <time>2022-09-18T07:42:58Z</time>
      </trkpt>
      <trkpt lat="46.01686" lon="10.93179">
        <ele>462.63</ele>
        <time>2022-09-18T07:43:00Z</time>
      </trkpt>
      <trkpt lat="46.01686" lon="10.93181">
        <ele>464.08</ele>
        <time>2022-09-18T07:43:01Z</time>
      </trkpt>
      <trkpt lat="46.01687" lon="10.93183">
        <ele>464.91</ele>
        <time>2022-09-18T07:43:02Z</time>
      </trkpt>
      <trkpt lat="46.01688" lon="10.93185">
        <ele>467.14</ele>
        <time>2022-09-18T07:43:03Z</time>
      </trkpt>
      <trkpt lat="46.01689" lon="10.93186">
        <ele>467.12</ele>
        <time>2022-09-18T07:43:04Z</time>
      </trkpt>
      <trkpt lat="46.0169" lon="10.93188">
        <ele>467.69</ele>
        <time>2022-09-18T07:43:05Z</time>
      </trkpt>
      <trkpt lat="46.01691" lon="10.9319">
        <ele>467.18</ele>
        <time>2022-09-18T07:43:06Z</time>
      </trkpt>
      <trkpt lat="46.01692" lon="10.93191">
        <ele>467.05</ele>
        <time>2022-09-18T07:43:07Z</time>
      </trkpt>
      <trkpt lat="46.01693" lon="10.93192">
        <ele>467.8</ele>
        <time>2022-09-18T07:43:08Z</time>
      </trkpt>
      <trkpt lat="46.01694" lon="10.93193">
        <ele>468.85</ele>
        <time>2022-09-18T07:43:09Z</time>
      </trkpt>
      <trkpt lat="46.01694" lon="10.93195">
        <ele>468.74</ele>
        <time>2022-09-18T07:43:10Z</time>
      </trkpt>
      <trkpt lat="46.01695" lon="10.93196">
        <ele>469.28</ele>
        <time>2022-09-18T07:43:11Z</time>
      </trkpt>
      <trkpt lat="46.01697" lon="10.93197">
        <ele>469.45</ele>
        <time>2022-09-18T07:43:12Z</time>
      </trkpt>
      <trkpt lat="46.01698" lon="10.93198">
        <ele>469.7</ele>
        <time>2022-09-18T07:43:13Z</time>
      </trkpt>
      <trkpt lat="46.01699" lon="10.93198">
        <ele>469.85</ele>
        <time>2022-09-18T07:43:14Z</time>
      </trkpt>
      <trkpt lat="46.017" lon="10.93199">
        <ele>469.62</ele>
        <time>2022-09-18T07:43:15Z</time>
      </trkpt>
      <trkpt lat="46.01701" lon="10.932">
        <ele>470.33</ele>
        <time>2022-09-18T07:43:16Z</time>
      </trkpt>
      <trkpt lat="46.01702" lon="10.93201">
        <ele>470.25</ele>
        <time>2022-09-18T07:43:17Z</time>
      </trkpt>
      <trkpt lat="46.01703" lon="10.93202">
        <ele>470.8</ele>
        <time>2022-09-18T07:43:18Z</time>
      </trkpt>
      <trkpt lat="46.01704" lon="10.93202">
        <ele>471.2</ele>
        <time>2022-09-18T07:43:19Z</time>
      </trkpt>
      <trkpt lat="46.01705" lon="10.93203">
        <ele>471.62</ele>
        <time>2022-09-18T07:43:20Z</time>
      </trkpt>
      <trkpt lat="46.01706" lon="10.93204">
        <ele>473.18</ele>
        <time>2022-09-18T07:43:21Z</time>
      </trkpt>
      <trkpt lat="46.01707" lon="10.93205">
        <ele>472.98</ele>
        <time>2022-09-18T07:43:22Z</time>
      </trkpt>
      <trkpt lat="46.01708" lon="10.93206">
        <ele>473.94</ele>
        <time>2022-09-18T07:43:23Z</time>
      </trkpt>
      <trkpt lat="46.01709" lon="10.93207">
        <ele>473.35</ele>
        <time>2022-09-18T07:43:24Z</time>
      </trkpt>
      <trkpt lat="46.0171" lon="10.93208">
        <ele>474.08</ele>
        <time>2022-09-18T07:43:25Z</time>
      </trkpt>
      <trkpt lat="46.01711" lon="10.93209">
        <ele>474.27</ele>
        <time>2022-09-18T07:43:26Z</time>
      </trkpt>
      <trkpt lat="46.01712" lon="10.9321">
        <ele>474.31</ele>
        <time>2022-09-18T07:43:27Z</time>
      </trkpt>
      <trkpt lat="46.01713" lon="10.93212">
        <ele>474.79</ele>
        <time>2022-09-18T07:43:28Z</time>
      </trkpt>
      <trkpt lat="46.01714" lon="10.93213">
        <ele>475.03</ele>
        <time>2022-09-18T07:43:29Z</time>
      </trkpt>
      <trkpt lat="46.01715" lon="10.93214">
        <ele>475.13</ele>
        <time>2022-09-18T07:43:30Z</time>
      </trkpt>
      <trkpt lat="46.01715" lon="10.93216">
        <ele>474.93</ele>
        <time>2022-09-18T07:43:31Z</time>
      </trkpt>
      <trkpt lat="46.01716" lon="10.93217">
        <ele>474.98</ele>
        <time>2022-09-18T07:43:32Z</time>
      </trkpt>
      <trkpt lat="46.01717" lon="10.93219">
        <ele>475.22</ele>
        <time>2022-09-18T07:43:33Z</time>
      </trkpt>
      <trkpt lat="46.01718" lon="10.9322">
        <ele>474.97</ele>
        <time>2022-09-18T07:43:34Z</time>
      </trkpt>
      <trkpt lat="46.01719" lon="10.93221">
        <ele>474.92</ele>
        <time>2022-09-18T07:43:35Z</time>
      </trkpt>
      <trkpt lat="46.0172" lon="10.93221">
        <ele>475.17</ele>
        <time>2022-09-18T07:43:36Z</time>
      </trkpt>
      <trkpt lat="46.01721" lon="10.93221">
        <ele>475.13</ele>
        <time>2022-09-18T07:43:37Z</time>
      </trkpt>
      <trkpt lat="46.01723" lon="10.93221">
        <ele>474.56</ele>
        <time>2022-09-18T07:43:38Z</time>
      </trkpt>
      <trkpt lat="46.01724" lon="10.93219">
        <ele>453.53</ele>
        <time>2022-09-18T07:43:39Z</time>
      </trkpt>
      <trkpt lat="46.01725" lon="10.93218">
        <ele>459.35</ele>
        <time>2022-09-18T07:43:40Z</time>
      </trkpt>
      <trkpt lat="46.01725" lon="10.93216">
        <ele>464.17</ele>
        <time>2022-09-18T07:43:41Z</time>
      </trkpt>
      <trkpt lat="46.01725" lon="10.93214">
        <ele>467.56</ele>
        <time>2022-09-18T07:43:42Z</time>
      </trkpt>
      <trkpt lat="46.01725" lon="10.93212">
        <ele>469.49</ele>
        <time>2022-09-18T07:43:43Z</time>
      </trkpt>
      <trkpt lat="46.01724" lon="10.9321">
        <ele>470.57</ele>
        <time>2022-09-18T07:43:44Z</time>
      </trkpt>
      <trkpt lat="46.01724" lon="10.93208">
        <ele>471.29</ele>
        <time>2022-09-18T07:43:45Z</time>
      </trkpt>
      <trkpt lat="46.01723" lon="10.93207">
        <ele>472.63</ele>
        <time>2022-09-18T07:43:46Z</time>
      </trkpt>
      <trkpt lat="46.01722" lon="10.93205">
        <ele>472.1</ele>
        <time>2022-09-18T07:43:47Z</time>
      </trkpt>
      <trkpt lat="46.01721" lon="10.93204">
        <ele>472.16</ele>
        <time>2022-09-18T07:43:48Z</time>
      </trkpt>
      <trkpt lat="46.0172" lon="10.93202">
        <ele>472.87</ele>
        <time>2022-09-18T07:43:49Z</time>
      </trkpt>
      <trkpt lat="46.01719" lon="10.93201">
        <ele>472.45</ele>
        <time>2022-09-18T07:43:50Z</time>
      </trkpt>
      <trkpt lat="46.01718" lon="10.932">
        <ele>472.77</ele>
        <time>2022-09-18T07:43:51Z</time>
      </trkpt>
      <trkpt lat="46.01717" lon="10.93198">
        <ele>472.97</ele>
        <time>2022-09-18T07:43:52Z</time>
      </trkpt>
      <trkpt lat="46.01717" lon="10.93197">
        <ele>473.65</ele>
        <time>2022-09-18T07:43:53Z</time>
      </trkpt>
      <trkpt lat="46.01715" lon="10.93196">
        <ele>473.45</ele>
        <time>2022-09-18T07:43:54Z</time>
      </trkpt>
      <trkpt lat="46.01714" lon="10.93195">
        <ele>474.07</ele>
        <time>2022-09-18T07:43:55Z</time>
      </trkpt>
      <trkpt lat="46.01713" lon="10.93193">
        <ele>474.84</ele>
        <time>2022-09-18T07:43:56Z</time>
      </trkpt>
      <trkpt lat="46.01712" lon="10.93192">
        <ele>475.76</ele>
        <time>2022-09-18T07:43:57Z</time>
      </trkpt>
      <trkpt lat="46.01711" lon="10.93191">
        <ele>476.76</ele>
        <time>2022-09-18T07:43:58Z</time>
      </trkpt>
      <trkpt lat="46.0171" lon="10.93189">
        <ele>478.5</ele>
        <time>2022-09-18T07:43:59Z</time>
      </trkpt>
      <trkpt lat="46.01709" lon="10.93188">
        <ele>478.71</ele>
        <time>2022-09-18T07:44:00Z</time>
      </trkpt>
      <trkpt lat="46.01708" lon="10.93186">
        <ele>479.65</ele>
        <time>2022-09-18T07:44:01Z</time>
      </trkpt>
      <trkpt lat="46.01707" lon="10.93184">
        <ele>480.66</ele>
        <time>2022-09-18T07:44:02Z</time>
      </trkpt>
      <trkpt lat="46.01706" lon="10.93183">
        <ele>481.23</ele>
        <time>2022-09-18T07:44:03Z</time>
      </trkpt>
      <trkpt lat="46.01705" lon="10.93181">
        <ele>481.75</ele>
        <time>2022-09-18T07:44:04Z</time>
      </trkpt>
      <trkpt lat="46.01704" lon="10.9318">
        <ele>482</ele>
        <time>2022-09-18T07:44:05Z</time>
      </trkpt>
      <trkpt lat="46.01703" lon="10.93178">
        <ele>481.7</ele>
        <time>2022-09-18T07:44:06Z</time>
      </trkpt>
      <trkpt lat="46.01703" lon="10.93177">
        <ele>483</ele>
        <time>2022-09-18T07:44:07Z</time>
      </trkpt>
      <trkpt lat="46.01702" lon="10.93175">
        <ele>482.94</ele>
        <time>2022-09-18T07:44:08Z</time>
      </trkpt>
      <trkpt lat="46.01702" lon="10.93174">
        <ele>482.92</ele>
        <time>2022-09-18T07:44:09Z</time>
      </trkpt>
      <trkpt lat="46.01701" lon="10.93173">
        <ele>483.41</ele>
        <time>2022-09-18T07:44:10Z</time>
      </trkpt>
      <trkpt lat="46.01701" lon="10.93172">
        <ele>482.49</ele>
        <time>2022-09-18T07:44:11Z</time>
      </trkpt>
      <trkpt lat="46.017" lon="10.9317">
        <ele>482.04</ele>
        <time>2022-09-18T07:44:12Z</time>
      </trkpt>
      <trkpt lat="46.017" lon="10.93169">
        <ele>480.76</ele>
        <time>2022-09-18T07:44:13Z</time>
      </trkpt>
      <trkpt lat="46.01699" lon="10.93168">
        <ele>480.77</ele>
        <time>2022-09-18T07:44:14Z</time>
      </trkpt>
      <trkpt lat="46.01699" lon="10.93166">
        <ele>481.24</ele>
        <time>2022-09-18T07:44:15Z</time>
      </trkpt>
      <trkpt lat="46.01698" lon="10.93165">
        <ele>481.19</ele>
        <time>2022-09-18T07:44:16Z</time>
      </trkpt>
      <trkpt lat="46.01698" lon="10.93163">
        <ele>481.68</ele>
        <time>2022-09-18T07:44:17Z</time>
      </trkpt>
      <trkpt lat="46.01698" lon="10.93162">
        <ele>481.83</ele>
        <time>2022-09-18T07:44:18Z</time>
      </trkpt>
      <trkpt lat="46.01697" lon="10.9316">
        <ele>454.14</ele>
        <time>2022-09-18T07:44:19Z</time>
      </trkpt>
      <trkpt lat="46.01697" lon="10.93158">
        <ele>462.63</ele>
        <time>2022-09-18T07:44:20Z</time>
      </trkpt>
      <trkpt lat="46.01697" lon="10.93157">
        <ele>469.4</ele>
        <time>2022-09-18T07:44:21Z</time>
      </trkpt>
      <trkpt lat="46.01697" lon="10.93156">
        <ele>471.56</ele>
        <time>2022-09-18T07:44:22Z</time>
      </trkpt>
      <trkpt lat="46.01696" lon="10.93154">
        <ele>473.27</ele>
        <time>2022-09-18T07:44:23Z</time>
      </trkpt>
      <trkpt lat="46.01697" lon="10.93152">
        <ele>474.12</ele>
        <time>2022-09-18T07:44:25Z</time>
      </trkpt>
      <trkpt lat="46.01697" lon="10.9315">
        <ele>476.17</ele>
        <time>2022-09-18T07:44:26Z</time>
      </trkpt>
      <trkpt lat="46.01697" lon="10.93149">
        <ele>477.52</ele>
        <time>2022-09-18T07:44:27Z</time>
      </trkpt>
      <trkpt lat="46.01698" lon="10.93147">
        <ele>477.9</ele>
        <time>2022-09-18T07:44:28Z</time>
      </trkpt>
      <trkpt lat="46.01698" lon="10.93146">
        <ele>477.32</ele>
        <time>2022-09-18T07:44:29Z</time>
      </trkpt>
      <trkpt lat="46.01699" lon="10.93144">
        <ele>479.41</ele>
        <time>2022-09-18T07:44:30Z</time>
      </trkpt>
      <trkpt lat="46.01699" lon="10.93142">
        <ele>480.29</ele>
        <time>2022-09-18T07:44:31Z</time>
      </trkpt>
      <trkpt lat="46.017" lon="10.93141">
        <ele>479.53</ele>
        <time>2022-09-18T07:44:32Z</time>
      </trkpt>
      <trkpt lat="46.01701" lon="10.93139">
        <ele>479.48</ele>
        <time>2022-09-18T07:44:33Z</time>
      </trkpt>
      <trkpt lat="46.01702" lon="10.93138">
        <ele>480.31</ele>
        <time>2022-09-18T07:44:34Z</time>
      </trkpt>
      <trkpt lat="46.01702" lon="10.93137">
        <ele>481.21</ele>
        <time>2022-09-18T07:44:35Z</time>
      </trkpt>
      <trkpt lat="46.01703" lon="10.93137">
        <ele>481.19</ele>
        <time>2022-09-18T07:44:36Z</time>
      </trkpt>
      <trkpt lat="46.01705" lon="10.93136">
        <ele>483.32</ele>
        <time>2022-09-18T07:44:38Z</time>
      </trkpt>
      <trkpt lat="46.01705" lon="10.93135">
        <ele>484.57</ele>
        <time>2022-09-18T07:44:40Z</time>
      </trkpt>
      <trkpt lat="46.01705" lon="10.93133">
        <ele>485.01</ele>
        <time>2022-09-18T07:44:43Z</time>
      </trkpt>
      <trkpt lat="46.01704" lon="10.93135">
        <ele>486.59</ele>
        <time>2022-09-18T07:44:46Z</time>
      </trkpt>
      <trkpt lat="46.01703" lon="10.93136">
        <ele>487.24</ele>
        <time>2022-09-18T07:44:49Z</time>
      </trkpt>
      <trkpt lat="46.01704" lon="10.93136">
        <ele>488.6</ele>
        <time>2022-09-18T07:44:51Z</time>
      </trkpt>
      <trkpt lat="46.01706" lon="10.93135">
        <ele>489.16</ele>
        <time>2022-09-18T07:44:55Z</time>
      </trkpt>
      <trkpt lat="46.01706" lon="10.93134">
        <ele>489.01</ele>
        <time>2022-09-18T07:44:58Z</time>
      </trkpt>
      <trkpt lat="46.01706" lon="10.93133">
        <ele>491.37</ele>
        <time>2022-09-18T07:45:00Z</time>
      </trkpt>
      <trkpt lat="46.01705" lon="10.93131">
        <ele>492.91</ele>
        <time>2022-09-18T07:45:03Z</time>
      </trkpt>
      <trkpt lat="46.01706" lon="10.9313">
        <ele>494.32</ele>
        <time>2022-09-18T07:45:04Z</time>
      </trkpt>
      <trkpt lat="46.01707" lon="10.93129">
        <ele>493.85</ele>
        <time>2022-09-18T07:45:05Z</time>
      </trkpt>
      <trkpt lat="46.01708" lon="10.93129">
        <ele>494.78</ele>
        <time>2022-09-18T07:45:07Z</time>
      </trkpt>
      <trkpt lat="46.01709" lon="10.93127">
        <ele>494.3</ele>
        <time>2022-09-18T07:45:09Z</time>
      </trkpt>
      <trkpt lat="46.01708" lon="10.93125">
        <ele>494.03</ele>
        <time>2022-09-18T07:45:11Z</time>
      </trkpt>
      <trkpt lat="46.01709" lon="10.93124">
        <ele>492.62</ele>
        <time>2022-09-18T07:45:12Z</time>
      </trkpt>
      <trkpt lat="46.0171" lon="10.93123">
        <ele>492.14</ele>
        <time>2022-09-18T07:45:14Z</time>
      </trkpt>
      <trkpt lat="46.0171" lon="10.93121">
        <ele>493.26</ele>
        <time>2022-09-18T07:45:16Z</time>
      </trkpt>
      <trkpt lat="46.01711" lon="10.93119">
        <ele>493.58</ele>
        <time>2022-09-18T07:45:18Z</time>
      </trkpt>
      <trkpt lat="46.01712" lon="10.93119">
        <ele>493.76</ele>
        <time>2022-09-18T07:45:20Z</time>
      </trkpt>
      <trkpt lat="46.01713" lon="10.93117">
        <ele>493.34</ele>
        <time>2022-09-18T07:45:25Z</time>
      </trkpt>
      <trkpt lat="46.01714" lon="10.93116">
        <ele>493.94</ele>
        <time>2022-09-18T07:45:27Z</time>
      </trkpt>
      <trkpt lat="46.01714" lon="10.93114">
        <ele>494.5</ele>
        <time>2022-09-18T07:45:29Z</time>
      </trkpt>
      <trkpt lat="46.01713" lon="10.93113">
        <ele>496.33</ele>
        <time>2022-09-18T07:45:32Z</time>
      </trkpt>
      <trkpt lat="46.01713" lon="10.93111">
        <ele>496.36</ele>
        <time>2022-09-18T07:45:34Z</time>
      </trkpt>
      <trkpt lat="46.01713" lon="10.93109">
        <ele>497.3</ele>
        <time>2022-09-18T07:45:36Z</time>
      </trkpt>
      <trkpt lat="46.01713" lon="10.93108">
        <ele>496.86</ele>
        <time>2022-09-18T07:45:37Z</time>
      </trkpt>
      <trkpt lat="46.01712" lon="10.93106">
        <ele>497.47</ele>
        <time>2022-09-18T07:45:39Z</time>
      </trkpt>
      <trkpt lat="46.01711" lon="10.93105">
        <ele>498.2</ele>
        <time>2022-09-18T07:45:41Z</time>
      </trkpt>
      <trkpt lat="46.01711" lon="10.93103">
        <ele>497.13</ele>
        <time>2022-09-18T07:45:42Z</time>
      </trkpt>
      <trkpt lat="46.01711" lon="10.93101">
        <ele>497.63</ele>
        <time>2022-09-18T07:45:44Z</time>
      </trkpt>
      <trkpt lat="46.01712" lon="10.931">
        <ele>499.43</ele>
        <time>2022-09-18T07:45:48Z</time>
      </trkpt>
      <trkpt lat="46.01712" lon="10.93098">
        <ele>502.07</ele>
        <time>2022-09-18T07:45:51Z</time>
      </trkpt>
      <trkpt lat="46.01711" lon="10.93097">
        <ele>502.64</ele>
        <time>2022-09-18T07:45:52Z</time>
      </trkpt>
      <trkpt lat="46.01711" lon="10.93095">
        <ele>502.27</ele>
        <time>2022-09-18T07:45:53Z</time>
      </trkpt>
      <trkpt lat="46.0171" lon="10.93094">
        <ele>502.95</ele>
        <time>2022-09-18T07:45:55Z</time>
      </trkpt>
      <trkpt lat="46.01709" lon="10.93093">
        <ele>503.88</ele>
        <time>2022-09-18T07:45:57Z</time>
      </trkpt>
      <trkpt lat="46.01708" lon="10.93091">
        <ele>505.2</ele>
        <time>2022-09-18T07:45:59Z</time>
      </trkpt>
      <trkpt lat="46.01708" lon="10.9309">
        <ele>506.69</ele>
        <time>2022-09-18T07:46:02Z</time>
      </trkpt>
      <trkpt lat="46.01709" lon="10.93088">
        <ele>506.85</ele>
        <time>2022-09-18T07:46:04Z</time>
      </trkpt>
      <trkpt lat="46.01709" lon="10.93086">
        <ele>508</ele>
        <time>2022-09-18T07:46:06Z</time>
      </trkpt>
      <trkpt lat="46.01709" lon="10.93084">
        <ele>508.2</ele>
        <time>2022-09-18T07:46:07Z</time>
      </trkpt>
      <trkpt lat="46.0171" lon="10.93083">
        <ele>507.99</ele>
        <time>2022-09-18T07:46:08Z</time>
      </trkpt>
      <trkpt lat="46.0171" lon="10.93081">
        <ele>508.48</ele>
        <time>2022-09-18T07:46:09Z</time>
      </trkpt>
      <trkpt lat="46.01709" lon="10.93079">
        <ele>508.96</ele>
        <time>2022-09-18T07:46:10Z</time>
      </trkpt>
      <trkpt lat="46.01709" lon="10.93078">
        <ele>508.44</ele>
        <time>2022-09-18T07:46:11Z</time>
      </trkpt>
      <trkpt lat="46.01709" lon="10.93076">
        <ele>508.91</ele>
        <time>2022-09-18T07:46:13Z</time>
      </trkpt>
      <trkpt lat="46.01708" lon="10.93075">
        <ele>510.16</ele>
        <time>2022-09-18T07:46:15Z</time>
      </trkpt>
      <trkpt lat="46.01709" lon="10.93074">
        <ele>510.56</ele>
        <time>2022-09-18T07:46:18Z</time>
      </trkpt>
      <trkpt lat="46.0171" lon="10.93073">
        <ele>510.18</ele>
        <time>2022-09-18T07:46:20Z</time>
      </trkpt>
      <trkpt lat="46.01711" lon="10.93071">
        <ele>510.33</ele>
        <time>2022-09-18T07:46:22Z</time>
      </trkpt>
      <trkpt lat="46.01711" lon="10.9307">
        <ele>509.52</ele>
        <time>2022-09-18T07:46:24Z</time>
      </trkpt>
      <trkpt lat="46.01712" lon="10.93068">
        <ele>509.14</ele>
        <time>2022-09-18T07:46:26Z</time>
      </trkpt>
      <trkpt lat="46.01712" lon="10.93067">
        <ele>509.63</ele>
        <time>2022-09-18T07:46:28Z</time>
      </trkpt>
      <trkpt lat="46.01712" lon="10.93065">
        <ele>509.98</ele>
        <time>2022-09-18T07:46:29Z</time>
      </trkpt>
      <trkpt lat="46.01712" lon="10.93064">
        <ele>509.29</ele>
        <time>2022-09-18T07:46:30Z</time>
      </trkpt>
      <trkpt lat="46.01712" lon="10.93062">
        <ele>509.75</ele>
        <time>2022-09-18T07:46:31Z</time>
      </trkpt>
      <trkpt lat="46.01712" lon="10.9306">
        <ele>509.79</ele>
        <time>2022-09-18T07:46:33Z</time>
      </trkpt>
      <trkpt lat="46.01713" lon="10.93059">
        <ele>509.65</ele>
        <time>2022-09-18T07:46:35Z</time>
      </trkpt>
      <trkpt lat="46.01713" lon="10.93057">
        <ele>508.83</ele>
        <time>2022-09-18T07:46:38Z</time>
      </trkpt>
      <trkpt lat="46.01712" lon="10.93055">
        <ele>510.85</ele>
        <time>2022-09-18T07:46:41Z</time>
      </trkpt>
      <trkpt lat="46.01713" lon="10.93054">
        <ele>513.33</ele>
        <time>2022-09-18T07:46:44Z</time>
      </trkpt>
      <trkpt lat="46.01714" lon="10.93053">
        <ele>513.74</ele>
        <time>2022-09-18T07:46:46Z</time>
      </trkpt>
      <trkpt lat="46.01716" lon="10.93054">
        <ele>514.42</ele>
        <time>2022-09-18T07:46:48Z</time>
      </trkpt>
      <trkpt lat="46.01717" lon="10.93054">
        <ele>514.25</ele>
        <time>2022-09-18T07:46:51Z</time>
      </trkpt>
      <trkpt lat="46.01718" lon="10.93054">
        <ele>514.11</ele>
        <time>2022-09-18T07:46:54Z</time>
      </trkpt>
      <trkpt lat="46.01719" lon="10.93054">
        <ele>513.64</ele>
        <time>2022-09-18T07:46:55Z</time>
      </trkpt>
      <trkpt lat="46.0172" lon="10.93051">
        <ele>514.51</ele>
        <time>2022-09-18T07:46:57Z</time>
      </trkpt>
      <trkpt lat="46.0172" lon="10.9305">
        <ele>514.77</ele>
        <time>2022-09-18T07:46:59Z</time>
      </trkpt>
      <trkpt lat="46.01721" lon="10.93049">
        <ele>514.62</ele>
        <time>2022-09-18T07:47:04Z</time>
      </trkpt>
      <trkpt lat="46.01722" lon="10.93048">
        <ele>514.17</ele>
        <time>2022-09-18T07:47:05Z</time>
      </trkpt>
      <trkpt lat="46.01723" lon="10.93047">
        <ele>513.96</ele>
        <time>2022-09-18T07:47:06Z</time>
      </trkpt>
      <trkpt lat="46.01723" lon="10.93046">
        <ele>514.33</ele>
        <time>2022-09-18T07:47:07Z</time>
      </trkpt>
      <trkpt lat="46.01724" lon="10.93045">
        <ele>514.92</ele>
        <time>2022-09-18T07:47:08Z</time>
      </trkpt>
      <trkpt lat="46.01725" lon="10.93043">
        <ele>515.7</ele>
        <time>2022-09-18T07:47:10Z</time>
      </trkpt>
      <trkpt lat="46.01725" lon="10.93042">
        <ele>516.54</ele>
        <time>2022-09-18T07:47:15Z</time>
      </trkpt>
      <trkpt lat="46.01725" lon="10.93041">
        <ele>517.94</ele>
        <time>2022-09-18T07:47:17Z</time>
      </trkpt>
      <trkpt lat="46.01724" lon="10.93039">
        <ele>518.86</ele>
        <time>2022-09-18T07:47:19Z</time>
      </trkpt>
      <trkpt lat="46.01724" lon="10.93036">
        <ele>519.76</ele>
        <time>2022-09-18T07:47:21Z</time>
      </trkpt>
      <trkpt lat="46.01725" lon="10.93034">
        <ele>519.02</ele>
        <time>2022-09-18T07:47:23Z</time>
      </trkpt>
      <trkpt lat="46.01726" lon="10.93034">
        <ele>522.33</ele>
        <time>2022-09-18T07:47:31Z</time>
      </trkpt>
      <trkpt lat="46.01727" lon="10.93033">
        <ele>522.86</ele>
        <time>2022-09-18T07:47:32Z</time>
      </trkpt>
      <trkpt lat="46.01728" lon="10.93031">
        <ele>524.23</ele>
        <time>2022-09-18T07:47:34Z</time>
      </trkpt>
      <trkpt lat="46.01729" lon="10.9303">
        <ele>525.12</ele>
        <time>2022-09-18T07:47:35Z</time>
      </trkpt>
      <trkpt lat="46.01729" lon="10.93028">
        <ele>525.6</ele>
        <time>2022-09-18T07:47:36Z</time>
      </trkpt>
      <trkpt lat="46.01729" lon="10.93026">
        <ele>524.39</ele>
        <time>2022-09-18T07:47:38Z</time>
      </trkpt>
      <trkpt lat="46.01729" lon="10.93024">
        <ele>523.92</ele>
        <time>2022-09-18T07:47:39Z</time>
      </trkpt>
      <trkpt lat="46.01729" lon="10.93023">
        <ele>524.22</ele>
        <time>2022-09-18T07:47:40Z</time>
      </trkpt>
      <trkpt lat="46.01728" lon="10.93021">
        <ele>526.01</ele>
        <time>2022-09-18T07:47:42Z</time>
      </trkpt>
      <trkpt lat="46.01727" lon="10.9302">
        <ele>525.6</ele>
        <time>2022-09-18T07:47:44Z</time>
      </trkpt>
      <trkpt lat="46.01727" lon="10.93018">
        <ele>526.33</ele>
        <time>2022-09-18T07:47:47Z</time>
      </trkpt>
      <trkpt lat="46.01727" lon="10.93017">
        <ele>527.28</ele>
        <time>2022-09-18T07:47:49Z</time>
      </trkpt>
      <trkpt lat="46.01728" lon="10.93016">
        <ele>528.6</ele>
        <time>2022-09-18T07:47:51Z</time>
      </trkpt>
      <trkpt lat="46.01729" lon="10.93015">
        <ele>530.97</ele>
        <time>2022-09-18T07:47:57Z</time>
      </trkpt>
      <trkpt lat="46.0173" lon="10.93013">
        <ele>532.17</ele>
        <time>2022-09-18T07:47:59Z</time>
      </trkpt>
      <trkpt lat="46.01729" lon="10.93012">
        <ele>531.47</ele>
        <time>2022-09-18T07:48:01Z</time>
      </trkpt>
      <trkpt lat="46.01729" lon="10.93011">
        <ele>530.73</ele>
        <time>2022-09-18T07:48:03Z</time>
      </trkpt>
      <trkpt lat="46.01729" lon="10.93009">
        <ele>531.43</ele>
        <time>2022-09-18T07:48:05Z</time>
      </trkpt>
      <trkpt lat="46.01729" lon="10.93008">
        <ele>531.59</ele>
        <time>2022-09-18T07:48:13Z</time>
      </trkpt>
      <trkpt lat="46.01728" lon="10.93006">
        <ele>531.44</ele>
        <time>2022-09-18T07:48:15Z</time>
      </trkpt>
      <trkpt lat="46.01728" lon="10.93005">
        <ele>530.66</ele>
        <time>2022-09-18T07:48:16Z</time>
      </trkpt>
      <trkpt lat="46.01728" lon="10.93003">
        <ele>530.54</ele>
        <time>2022-09-18T07:48:18Z</time>
      </trkpt>
      <trkpt lat="46.01727" lon="10.93001">
        <ele>532.42</ele>
        <time>2022-09-18T07:48:20Z</time>
      </trkpt>
      <trkpt lat="46.01728" lon="10.92999">
        <ele>532.81</ele>
        <time>2022-09-18T07:48:23Z</time>
      </trkpt>
      <trkpt lat="46.01728" lon="10.92997">
        <ele>532.07</ele>
        <time>2022-09-18T07:48:26Z</time>
      </trkpt>
      <trkpt lat="46.01728" lon="10.92995">
        <ele>531.75</ele>
        <time>2022-09-18T07:48:28Z</time>
      </trkpt>
      <trkpt lat="46.01728" lon="10.92993">
        <ele>532.93</ele>
        <time>2022-09-18T07:48:30Z</time>
      </trkpt>
      <trkpt lat="46.01728" lon="10.92992">
        <ele>533.02</ele>
        <time>2022-09-18T07:48:32Z</time>
      </trkpt>
      <trkpt lat="46.01728" lon="10.9299">
        <ele>534.46</ele>
        <time>2022-09-18T07:48:34Z</time>
      </trkpt>
      <trkpt lat="46.01729" lon="10.92989">
        <ele>537.11</ele>
        <time>2022-09-18T07:48:36Z</time>
      </trkpt>
      <trkpt lat="46.0173" lon="10.92988">
        <ele>537.4</ele>
        <time>2022-09-18T07:48:38Z</time>
      </trkpt>
      <trkpt lat="46.01731" lon="10.92987">
        <ele>538.74</ele>
        <time>2022-09-18T07:48:40Z</time>
      </trkpt>
      <trkpt lat="46.01732" lon="10.92986">
        <ele>538.37</ele>
        <time>2022-09-18T07:48:42Z</time>
      </trkpt>
      <trkpt lat="46.01732" lon="10.92984">
        <ele>539.05</ele>
        <time>2022-09-18T07:48:44Z</time>
      </trkpt>
      <trkpt lat="46.01732" lon="10.92982">
        <ele>539.77</ele>
        <time>2022-09-18T07:48:47Z</time>
      </trkpt>
      <trkpt lat="46.01733" lon="10.92981">
        <ele>540.61</ele>
        <time>2022-09-18T07:48:49Z</time>
      </trkpt>
      <trkpt lat="46.01733" lon="10.92979">
        <ele>540.98</ele>
        <time>2022-09-18T07:48:51Z</time>
      </trkpt>
      <trkpt lat="46.01733" lon="10.92977">
        <ele>541.8</ele>
        <time>2022-09-18T07:48:53Z</time>
      </trkpt>
      <trkpt lat="46.01733" lon="10.92975">
        <ele>541.37</ele>
        <time>2022-09-18T07:48:55Z</time>
      </trkpt>
      <trkpt lat="46.01733" lon="10.92973">
        <ele>541.94</ele>
        <time>2022-09-18T07:48:57Z</time>
      </trkpt>
      <trkpt lat="46.01735" lon="10.92971">
        <ele>542.89</ele>
        <time>2022-09-18T07:48:59Z</time>
      </trkpt>
      <trkpt lat="46.01735" lon="10.9297">
        <ele>543.76</ele>
        <time>2022-09-18T07:49:01Z</time>
      </trkpt>
      <trkpt lat="46.01736" lon="10.92969">
        <ele>543.66</ele>
        <time>2022-09-18T07:49:04Z</time>
      </trkpt>
      <trkpt lat="46.01737" lon="10.92967">
        <ele>544.59</ele>
        <time>2022-09-18T07:49:06Z</time>
      </trkpt>
      <trkpt lat="46.01737" lon="10.92965">
        <ele>545.45</ele>
        <time>2022-09-18T07:49:08Z</time>
      </trkpt>
      <trkpt lat="46.01736" lon="10.92964">
        <ele>545.28</ele>
        <time>2022-09-18T07:49:10Z</time>
      </trkpt>
      <trkpt lat="46.01735" lon="10.92962">
        <ele>546.51</ele>
        <time>2022-09-18T07:49:12Z</time>
      </trkpt>
      <trkpt lat="46.01735" lon="10.92961">
        <ele>548.91</ele>
        <time>2022-09-18T07:49:14Z</time>
      </trkpt>
      <trkpt lat="46.01734" lon="10.92959">
        <ele>550.76</ele>
        <time>2022-09-18T07:49:16Z</time>
      </trkpt>
      <trkpt lat="46.01734" lon="10.92957">
        <ele>549.74</ele>
        <time>2022-09-18T07:49:18Z</time>
      </trkpt>
      <trkpt lat="46.01735" lon="10.92957">
        <ele>550.24</ele>
        <time>2022-09-18T07:49:20Z</time>
      </trkpt>
      <trkpt lat="46.01735" lon="10.92954">
        <ele>552.56</ele>
        <time>2022-09-18T07:49:22Z</time>
      </trkpt>
      <trkpt lat="46.01735" lon="10.92953">
        <ele>554.86</ele>
        <time>2022-09-18T07:49:24Z</time>
      </trkpt>
      <trkpt lat="46.01734" lon="10.92952">
        <ele>555</ele>
        <time>2022-09-18T07:49:26Z</time>
      </trkpt>
      <trkpt lat="46.01733" lon="10.92951">
        <ele>554.42</ele>
        <time>2022-09-18T07:49:28Z</time>
      </trkpt>
      <trkpt lat="46.01732" lon="10.9295">
        <ele>557.17</ele>
        <time>2022-09-18T07:49:31Z</time>
      </trkpt>
      <trkpt lat="46.01732" lon="10.92948">
        <ele>556.75</ele>
        <time>2022-09-18T07:49:33Z</time>
      </trkpt>
      <trkpt lat="46.01732" lon="10.92946">
        <ele>556.36</ele>
        <time>2022-09-18T07:49:35Z</time>
      </trkpt>
      <trkpt lat="46.01732" lon="10.92945">
        <ele>556.18</ele>
        <time>2022-09-18T07:49:36Z</time>
      </trkpt>
      <trkpt lat="46.01733" lon="10.92943">
        <ele>556.92</ele>
        <time>2022-09-18T07:49:38Z</time>
      </trkpt>
      <trkpt lat="46.01734" lon="10.92941">
        <ele>557.31</ele>
        <time>2022-09-18T07:49:40Z</time>
      </trkpt>
      <trkpt lat="46.01734" lon="10.92938">
        <ele>556.94</ele>
        <time>2022-09-18T07:49:42Z</time>
      </trkpt>
      <trkpt lat="46.01734" lon="10.92937">
        <ele>558.54</ele>
        <time>2022-09-18T07:49:44Z</time>
      </trkpt>
      <trkpt lat="46.01733" lon="10.92936">
        <ele>560.39</ele>
        <time>2022-09-18T07:49:48Z</time>
      </trkpt>
      <trkpt lat="46.01732" lon="10.92935">
        <ele>559.24</ele>
        <time>2022-09-18T07:49:49Z</time>
      </trkpt>
      <trkpt lat="46.01732" lon="10.92933">
        <ele>560.27</ele>
        <time>2022-09-18T07:49:51Z</time>
      </trkpt>
      <trkpt lat="46.01731" lon="10.92931">
        <ele>560.5</ele>
        <time>2022-09-18T07:49:53Z</time>
      </trkpt>
      <trkpt lat="46.01732" lon="10.9293">
        <ele>559.64</ele>
        <time>2022-09-18T07:49:55Z</time>
      </trkpt>
      <trkpt lat="46.01732" lon="10.92929">
        <ele>559.99</ele>
        <time>2022-09-18T07:49:57Z</time>
      </trkpt>
      <trkpt lat="46.01733" lon="10.92927">
        <ele>560.85</ele>
        <time>2022-09-18T07:50:00Z</time>
      </trkpt>
      <trkpt lat="46.01733" lon="10.92926">
        <ele>562.35</ele>
        <time>2022-09-18T07:50:03Z</time>
      </trkpt>
      <trkpt lat="46.01734" lon="10.92925">
        <ele>561.78</ele>
        <time>2022-09-18T07:50:05Z</time>
      </trkpt>
      <trkpt lat="46.01734" lon="10.92923">
        <ele>561.86</ele>
        <time>2022-09-18T07:50:08Z</time>
      </trkpt>
      <trkpt lat="46.01735" lon="10.92921">
        <ele>561.57</ele>
        <time>2022-09-18T07:50:10Z</time>
      </trkpt>
      <trkpt lat="46.01736" lon="10.9292">
        <ele>560.89</ele>
        <time>2022-09-18T07:50:11Z</time>
      </trkpt>
      <trkpt lat="46.01737" lon="10.92919">
        <ele>560.22</ele>
        <time>2022-09-18T07:50:12Z</time>
      </trkpt>
      <trkpt lat="46.01738" lon="10.92919">
        <ele>560.84</ele>
        <time>2022-09-18T07:50:13Z</time>
      </trkpt>
      <trkpt lat="46.01738" lon="10.92918">
        <ele>561.64</ele>
        <time>2022-09-18T07:50:14Z</time>
      </trkpt>
      <trkpt lat="46.01739" lon="10.92916">
        <ele>562.44</ele>
        <time>2022-09-18T07:50:16Z</time>
      </trkpt>
      <trkpt lat="46.01738" lon="10.92915">
        <ele>562.28</ele>
        <time>2022-09-18T07:50:17Z</time>
      </trkpt>
      <trkpt lat="46.01737" lon="10.92914">
        <ele>563.37</ele>
        <time>2022-09-18T07:50:19Z</time>
      </trkpt>
      <trkpt lat="46.01735" lon="10.92914">
        <ele>563.17</ele>
        <time>2022-09-18T07:50:21Z</time>
      </trkpt>
      <trkpt lat="46.01734" lon="10.92914">
        <ele>563.35</ele>
        <time>2022-09-18T07:50:22Z</time>
      </trkpt>
      <trkpt lat="46.01733" lon="10.92914">
        <ele>563.08</ele>
        <time>2022-09-18T07:50:24Z</time>
      </trkpt>
      <trkpt lat="46.01731" lon="10.92913">
        <ele>564.39</ele>
        <time>2022-09-18T07:50:26Z</time>
      </trkpt>
      <trkpt lat="46.0173" lon="10.92912">
        <ele>564.22</ele>
        <time>2022-09-18T07:50:29Z</time>
      </trkpt>
      <trkpt lat="46.01729" lon="10.92912">
        <ele>563.68</ele>
        <time>2022-09-18T07:50:31Z</time>
      </trkpt>
      <trkpt lat="46.01728" lon="10.92912">
        <ele>564.51</ele>
        <time>2022-09-18T07:50:33Z</time>
      </trkpt>
      <trkpt lat="46.01727" lon="10.92911">
        <ele>566.14</ele>
        <time>2022-09-18T07:50:35Z</time>
      </trkpt>
      <trkpt lat="46.01726" lon="10.92911">
        <ele>567.22</ele>
        <time>2022-09-18T07:50:37Z</time>
      </trkpt>
      <trkpt lat="46.01724" lon="10.92911">
        <ele>568.22</ele>
        <time>2022-09-18T07:50:39Z</time>
      </trkpt>
      <trkpt lat="46.01723" lon="10.9291">
        <ele>567.2</ele>
        <time>2022-09-18T07:50:40Z</time>
      </trkpt>
      <trkpt lat="46.01723" lon="10.92909">
        <ele>567.78</ele>
        <time>2022-09-18T07:50:42Z</time>
      </trkpt>
      <trkpt lat="46.01722" lon="10.92908">
        <ele>566.73</ele>
        <time>2022-09-18T07:50:44Z</time>
      </trkpt>
      <trkpt lat="46.01722" lon="10.92907">
        <ele>566.85</ele>
        <time>2022-09-18T07:50:46Z</time>
      </trkpt>
      <trkpt lat="46.01722" lon="10.92905">
        <ele>568.25</ele>
        <time>2022-09-18T07:50:50Z</time>
      </trkpt>
      <trkpt lat="46.01722" lon="10.92904">
        <ele>567.87</ele>
        <time>2022-09-18T07:50:52Z</time>
      </trkpt>
      <trkpt lat="46.01721" lon="10.92903">
        <ele>569.06</ele>
        <time>2022-09-18T07:50:54Z</time>
      </trkpt>
      <trkpt lat="46.0172" lon="10.92901">
        <ele>569.22</ele>
        <time>2022-09-18T07:50:56Z</time>
      </trkpt>
      <trkpt lat="46.0172" lon="10.92899">
        <ele>570.04</ele>
        <time>2022-09-18T07:50:58Z</time>
      </trkpt>
      <trkpt lat="46.0172" lon="10.92897">
        <ele>570.65</ele>
        <time>2022-09-18T07:51:00Z</time>
      </trkpt>
      <trkpt lat="46.0172" lon="10.92896">
        <ele>570.97</ele>
        <time>2022-09-18T07:51:02Z</time>
      </trkpt>
      <trkpt lat="46.0172" lon="10.92894">
        <ele>570.03</ele>
        <time>2022-09-18T07:51:04Z</time>
      </trkpt>
      <trkpt lat="46.01719" lon="10.92892">
        <ele>569.17</ele>
        <time>2022-09-18T07:51:05Z</time>
      </trkpt>
      <trkpt lat="46.01719" lon="10.92891">
        <ele>569.23</ele>
        <time>2022-09-18T07:51:06Z</time>
      </trkpt>
      <trkpt lat="46.01718" lon="10.92889">
        <ele>569.46</ele>
        <time>2022-09-18T07:51:08Z</time>
      </trkpt>
      <trkpt lat="46.01718" lon="10.92887">
        <ele>569.88</ele>
        <time>2022-09-18T07:51:09Z</time>
      </trkpt>
      <trkpt lat="46.01718" lon="10.92886">
        <ele>570.5</ele>
        <time>2022-09-18T07:51:10Z</time>
      </trkpt>
      <trkpt lat="46.01718" lon="10.92884">
        <ele>570.36</ele>
        <time>2022-09-18T07:51:11Z</time>
      </trkpt>
      <trkpt lat="46.01717" lon="10.92883">
        <ele>569.86</ele>
        <time>2022-09-18T07:51:12Z</time>
      </trkpt>
      <trkpt lat="46.01717" lon="10.92882">
        <ele>570.85</ele>
        <time>2022-09-18T07:51:13Z</time>
      </trkpt>
      <trkpt lat="46.01716" lon="10.9288">
        <ele>569.8</ele>
        <time>2022-09-18T07:51:15Z</time>
      </trkpt>
      <trkpt lat="46.01715" lon="10.92878">
        <ele>569.26</ele>
        <time>2022-09-18T07:51:16Z</time>
      </trkpt>
      <trkpt lat="46.01714" lon="10.92876">
        <ele>571.29</ele>
        <time>2022-09-18T07:51:18Z</time>
      </trkpt>
      <trkpt lat="46.01712" lon="10.92876">
        <ele>572.46</ele>
        <time>2022-09-18T07:51:20Z</time>
      </trkpt>
      <trkpt lat="46.01711" lon="10.92876">
        <ele>575.22</ele>
        <time>2022-09-18T07:51:22Z</time>
      </trkpt>
      <trkpt lat="46.0171" lon="10.92877">
        <ele>575.55</ele>
        <time>2022-09-18T07:51:23Z</time>
      </trkpt>
      <trkpt lat="46.01709" lon="10.92877">
        <ele>575.54</ele>
        <time>2022-09-18T07:51:24Z</time>
      </trkpt>
      <trkpt lat="46.01708" lon="10.92877">
        <ele>575.51</ele>
        <time>2022-09-18T07:51:25Z</time>
      </trkpt>
      <trkpt lat="46.01706" lon="10.92877">
        <ele>577.06</ele>
        <time>2022-09-18T07:51:27Z</time>
      </trkpt>
      <trkpt lat="46.01706" lon="10.92879">
        <ele>575.51</ele>
        <time>2022-09-18T07:51:28Z</time>
      </trkpt>
      <trkpt lat="46.01705" lon="10.9288">
        <ele>576.73</ele>
        <time>2022-09-18T07:51:30Z</time>
      </trkpt>
      <trkpt lat="46.01704" lon="10.92882">
        <ele>576.49</ele>
        <time>2022-09-18T07:51:32Z</time>
      </trkpt>
      <trkpt lat="46.01702" lon="10.92884">
        <ele>577.68</ele>
        <time>2022-09-18T07:51:34Z</time>
      </trkpt>
      <trkpt lat="46.01701" lon="10.92885">
        <ele>578.42</ele>
        <time>2022-09-18T07:51:36Z</time>
      </trkpt>
      <trkpt lat="46.017" lon="10.92886">
        <ele>578.5</ele>
        <time>2022-09-18T07:51:37Z</time>
      </trkpt>
      <trkpt lat="46.01699" lon="10.92887">
        <ele>580.93</ele>
        <time>2022-09-18T07:51:40Z</time>
      </trkpt>
      <trkpt lat="46.01698" lon="10.92885">
        <ele>580.71</ele>
        <time>2022-09-18T07:51:46Z</time>
      </trkpt>
      <trkpt lat="46.01697" lon="10.92884">
        <ele>581.53</ele>
        <time>2022-09-18T07:51:48Z</time>
      </trkpt>
      <trkpt lat="46.01697" lon="10.92881">
        <ele>580.71</ele>
        <time>2022-09-18T07:51:50Z</time>
      </trkpt>
      <trkpt lat="46.01697" lon="10.9288">
        <ele>582.05</ele>
        <time>2022-09-18T07:51:52Z</time>
      </trkpt>
      <trkpt lat="46.01696" lon="10.92878">
        <ele>582.5</ele>
        <time>2022-09-18T07:51:54Z</time>
      </trkpt>
      <trkpt lat="46.01695" lon="10.92877">
        <ele>583.7</ele>
        <time>2022-09-18T07:51:56Z</time>
      </trkpt>
      <trkpt lat="46.01694" lon="10.92875">
        <ele>583.52</ele>
        <time>2022-09-18T07:51:58Z</time>
      </trkpt>
      <trkpt lat="46.01694" lon="10.92874">
        <ele>583.93</ele>
        <time>2022-09-18T07:52:00Z</time>
      </trkpt>
      <trkpt lat="46.01693" lon="10.92872">
        <ele>583.45</ele>
        <time>2022-09-18T07:52:02Z</time>
      </trkpt>
      <trkpt lat="46.01692" lon="10.92872">
        <ele>585.27</ele>
        <time>2022-09-18T07:52:05Z</time>
      </trkpt>
      <trkpt lat="46.01691" lon="10.92873">
        <ele>586.46</ele>
        <time>2022-09-18T07:52:07Z</time>
      </trkpt>
      <trkpt lat="46.0169" lon="10.92873">
        <ele>588.04</ele>
        <time>2022-09-18T07:52:09Z</time>
      </trkpt>
      <trkpt lat="46.01689" lon="10.92873">
        <ele>588.79</ele>
        <time>2022-09-18T07:52:11Z</time>
      </trkpt>
      <trkpt lat="46.01687" lon="10.92874">
        <ele>587.68</ele>
        <time>2022-09-18T07:52:13Z</time>
      </trkpt>
      <trkpt lat="46.01686" lon="10.92874">
        <ele>586.98</ele>
        <time>2022-09-18T07:52:14Z</time>
      </trkpt>
      <trkpt lat="46.01685" lon="10.92873">
        <ele>587</ele>
        <time>2022-09-18T07:52:16Z</time>
      </trkpt>
      <trkpt lat="46.01683" lon="10.92873">
        <ele>586.18</ele>
        <time>2022-09-18T07:52:18Z</time>
      </trkpt>
      <trkpt lat="46.01682" lon="10.92873">
        <ele>586.63</ele>
        <time>2022-09-18T07:52:20Z</time>
      </trkpt>
      <trkpt lat="46.01681" lon="10.92873">
        <ele>586.21</ele>
        <time>2022-09-18T07:52:21Z</time>
      </trkpt>
      <trkpt lat="46.0168" lon="10.92873">
        <ele>587.05</ele>
        <time>2022-09-18T07:52:23Z</time>
      </trkpt>
      <trkpt lat="46.01679" lon="10.92872">
        <ele>588.04</ele>
        <time>2022-09-18T07:52:25Z</time>
      </trkpt>
      <trkpt lat="46.01677" lon="10.92872">
        <ele>588.11</ele>
        <time>2022-09-18T07:52:27Z</time>
      </trkpt>
      <trkpt lat="46.01676" lon="10.92872">
        <ele>588.8</ele>
        <time>2022-09-18T07:52:28Z</time>
      </trkpt>
      <trkpt lat="46.01675" lon="10.92873">
        <ele>589.63</ele>
        <time>2022-09-18T07:52:29Z</time>
      </trkpt>
      <trkpt lat="46.01674" lon="10.92873">
        <ele>588.21</ele>
        <time>2022-09-18T07:52:31Z</time>
      </trkpt>
      <trkpt lat="46.01672" lon="10.92872">
        <ele>588.3</ele>
        <time>2022-09-18T07:52:33Z</time>
      </trkpt>
      <trkpt lat="46.01671" lon="10.92872">
        <ele>588.01</ele>
        <time>2022-09-18T07:52:35Z</time>
      </trkpt>
      <trkpt lat="46.0167" lon="10.92871">
        <ele>587.55</ele>
        <time>2022-09-18T07:52:37Z</time>
      </trkpt>
      <trkpt lat="46.01668" lon="10.92871">
        <ele>589.22</ele>
        <time>2022-09-18T07:52:39Z</time>
      </trkpt>
      <trkpt lat="46.01667" lon="10.92871">
        <ele>588.42</ele>
        <time>2022-09-18T07:52:41Z</time>
      </trkpt>
      <trkpt lat="46.01666" lon="10.92871">
        <ele>587.96</ele>
        <time>2022-09-18T07:52:43Z</time>
      </trkpt>
      <trkpt lat="46.01665" lon="10.92871">
        <ele>589.01</ele>
        <time>2022-09-18T07:52:46Z</time>
      </trkpt>
      <trkpt lat="46.01664" lon="10.92871">
        <ele>590.98</ele>
        <time>2022-09-18T07:52:48Z</time>
      </trkpt>
      <trkpt lat="46.01663" lon="10.92872">
        <ele>592.23</ele>
        <time>2022-09-18T07:52:51Z</time>
      </trkpt>
      <trkpt lat="46.01661" lon="10.92871">
        <ele>592.39</ele>
        <time>2022-09-18T07:52:53Z</time>
      </trkpt>
      <trkpt lat="46.0166" lon="10.92871">
        <ele>592.76</ele>
        <time>2022-09-18T07:52:55Z</time>
      </trkpt>
      <trkpt lat="46.01659" lon="10.92871">
        <ele>592.75</ele>
        <time>2022-09-18T07:52:57Z</time>
      </trkpt>
      <trkpt lat="46.01658" lon="10.9287">
        <ele>592.8</ele>
        <time>2022-09-18T07:52:59Z</time>
      </trkpt>
      <trkpt lat="46.01658" lon="10.92868">
        <ele>592.88</ele>
        <time>2022-09-18T07:53:02Z</time>
      </trkpt>
      <trkpt lat="46.01657" lon="10.92866">
        <ele>593.9</ele>
        <time>2022-09-18T07:53:04Z</time>
      </trkpt>
      <trkpt lat="46.01657" lon="10.92865">
        <ele>595.09</ele>
        <time>2022-09-18T07:53:06Z</time>
      </trkpt>
      <trkpt lat="46.01658" lon="10.92863">
        <ele>596.69</ele>
        <time>2022-09-18T07:53:08Z</time>
      </trkpt>
      <trkpt lat="46.01658" lon="10.92862">
        <ele>596.63</ele>
        <time>2022-09-18T07:53:10Z</time>
      </trkpt>
      <trkpt lat="46.01659" lon="10.92861">
        <ele>595.82</ele>
        <time>2022-09-18T07:53:12Z</time>
      </trkpt>
      <trkpt lat="46.0166" lon="10.92858">
        <ele>597.16</ele>
        <time>2022-09-18T07:53:14Z</time>
      </trkpt>
      <trkpt lat="46.01659" lon="10.92857">
        <ele>598.38</ele>
        <time>2022-09-18T07:53:15Z</time>
      </trkpt>
      <trkpt lat="46.01658" lon="10.92856">
        <ele>598.1</ele>
        <time>2022-09-18T07:53:17Z</time>
      </trkpt>
      <trkpt lat="46.01658" lon="10.92854">
        <ele>596.71</ele>
        <time>2022-09-18T07:53:19Z</time>
      </trkpt>
      <trkpt lat="46.01658" lon="10.92852">
        <ele>597.31</ele>
        <time>2022-09-18T07:53:20Z</time>
      </trkpt>
      <trkpt lat="46.01658" lon="10.92851">
        <ele>597.53</ele>
        <time>2022-09-18T07:53:21Z</time>
      </trkpt>
      <trkpt lat="46.01658" lon="10.92849">
        <ele>596.83</ele>
        <time>2022-09-18T07:53:22Z</time>
      </trkpt>
      <trkpt lat="46.01659" lon="10.92848">
        <ele>596.19</ele>
        <time>2022-09-18T07:53:23Z</time>
      </trkpt>
      <trkpt lat="46.01659" lon="10.92846">
        <ele>595.96</ele>
        <time>2022-09-18T07:53:24Z</time>
      </trkpt>
      <trkpt lat="46.01659" lon="10.92844">
        <ele>597.34</ele>
        <time>2022-09-18T07:53:26Z</time>
      </trkpt>
      <trkpt lat="46.01659" lon="10.92842">
        <ele>597.39</ele>
        <time>2022-09-18T07:53:28Z</time>
      </trkpt>
      <trkpt lat="46.01659" lon="10.9284">
        <ele>598.91</ele>
        <time>2022-09-18T07:53:30Z</time>
      </trkpt>
      <trkpt lat="46.01659" lon="10.92838">
        <ele>599.79</ele>
        <time>2022-09-18T07:53:32Z</time>
      </trkpt>
      <trkpt lat="46.01658" lon="10.92837">
        <ele>599.78</ele>
        <time>2022-09-18T07:53:34Z</time>
      </trkpt>
      <trkpt lat="46.01657" lon="10.92835">
        <ele>600.16</ele>
        <time>2022-09-18T07:53:36Z</time>
      </trkpt>
      <trkpt lat="46.01656" lon="10.92834">
        <ele>599.36</ele>
        <time>2022-09-18T07:53:38Z</time>
      </trkpt>
      <trkpt lat="46.01655" lon="10.92833">
        <ele>600.48</ele>
        <time>2022-09-18T07:53:40Z</time>
      </trkpt>
      <trkpt lat="46.01654" lon="10.92832">
        <ele>600.17</ele>
        <time>2022-09-18T07:53:42Z</time>
      </trkpt>
      <trkpt lat="46.01653" lon="10.92831">
        <ele>599.02</ele>
        <time>2022-09-18T07:53:44Z</time>
      </trkpt>
      <trkpt lat="46.01653" lon="10.92829">
        <ele>601.08</ele>
        <time>2022-09-18T07:53:46Z</time>
      </trkpt>
      <trkpt lat="46.01653" lon="10.92827">
        <ele>602.19</ele>
        <time>2022-09-18T07:53:48Z</time>
      </trkpt>
      <trkpt lat="46.01652" lon="10.92825">
        <ele>603.14</ele>
        <time>2022-09-18T07:53:50Z</time>
      </trkpt>
      <trkpt lat="46.01652" lon="10.92823">
        <ele>605.01</ele>
        <time>2022-09-18T07:53:52Z</time>
      </trkpt>
      <trkpt lat="46.01651" lon="10.92822">
        <ele>605</ele>
        <time>2022-09-18T07:53:54Z</time>
      </trkpt>
      <trkpt lat="46.0165" lon="10.9282">
        <ele>605.53</ele>
        <time>2022-09-18T07:53:56Z</time>
      </trkpt>
      <trkpt lat="46.01649" lon="10.92819">
        <ele>605.82</ele>
        <time>2022-09-18T07:53:58Z</time>
      </trkpt>
      <trkpt lat="46.01648" lon="10.92818">
        <ele>608.64</ele>
        <time>2022-09-18T07:54:01Z</time>
      </trkpt>
      <trkpt lat="46.01648" lon="10.92817">
        <ele>609.94</ele>
        <time>2022-09-18T07:54:04Z</time>
      </trkpt>
      <trkpt lat="46.01646" lon="10.92817">
        <ele>609.7</ele>
        <time>2022-09-18T07:54:06Z</time>
      </trkpt>
      <trkpt lat="46.01645" lon="10.92816">
        <ele>609.75</ele>
        <time>2022-09-18T07:54:08Z</time>
      </trkpt>
      <trkpt lat="46.01643" lon="10.92815">
        <ele>610.87</ele>
        <time>2022-09-18T07:54:10Z</time>
      </trkpt>
      <trkpt lat="46.01642" lon="10.92815">
        <ele>612.52</ele>
        <time>2022-09-18T07:54:12Z</time>
      </trkpt>
      <trkpt lat="46.01641" lon="10.92814">
        <ele>612.43</ele>
        <time>2022-09-18T07:54:15Z</time>
      </trkpt>
      <trkpt lat="46.01641" lon="10.92813">
        <ele>612.83</ele>
        <time>2022-09-18T07:54:18Z</time>
      </trkpt>
      <trkpt lat="46.0164" lon="10.92811">
        <ele>611.94</ele>
        <time>2022-09-18T07:54:20Z</time>
      </trkpt>
      <trkpt lat="46.01638" lon="10.92811">
        <ele>612.14</ele>
        <time>2022-09-18T07:54:21Z</time>
      </trkpt>
      <trkpt lat="46.01637" lon="10.9281">
        <ele>611.31</ele>
        <time>2022-09-18T07:54:22Z</time>
      </trkpt>
      <trkpt lat="46.01636" lon="10.92809">
        <ele>610.84</ele>
        <time>2022-09-18T07:54:23Z</time>
      </trkpt>
      <trkpt lat="46.01635" lon="10.92808">
        <ele>610.06</ele>
        <time>2022-09-18T07:54:24Z</time>
      </trkpt>
      <trkpt lat="46.01635" lon="10.92807">
        <ele>610.59</ele>
        <time>2022-09-18T07:54:25Z</time>
      </trkpt>
      <trkpt lat="46.01634" lon="10.92807">
        <ele>611.66</ele>
        <time>2022-09-18T07:54:26Z</time>
      </trkpt>
      <trkpt lat="46.01633" lon="10.92807">
        <ele>612.19</ele>
        <time>2022-09-18T07:54:27Z</time>
      </trkpt>
      <trkpt lat="46.01632" lon="10.92806">
        <ele>612.21</ele>
        <time>2022-09-18T07:54:28Z</time>
      </trkpt>
      <trkpt lat="46.01631" lon="10.92805">
        <ele>613.82</ele>
        <time>2022-09-18T07:54:29Z</time>
      </trkpt>
      <trkpt lat="46.01629" lon="10.92804">
        <ele>615.7</ele>
        <time>2022-09-18T07:54:30Z</time>
      </trkpt>
      <trkpt lat="46.01628" lon="10.92803">
        <ele>617.94</ele>
        <time>2022-09-18T07:54:32Z</time>
      </trkpt>
      <trkpt lat="46.01628" lon="10.928">
        <ele>619.23</ele>
        <time>2022-09-18T07:54:34Z</time>
      </trkpt>
      <trkpt lat="46.01628" lon="10.92799">
        <ele>620.57</ele>
        <time>2022-09-18T07:54:35Z</time>
      </trkpt>
      <trkpt lat="46.01629" lon="10.92798">
        <ele>619.85</ele>
        <time>2022-09-18T07:54:36Z</time>
      </trkpt>
      <trkpt lat="46.01629" lon="10.92795">
        <ele>620.74</ele>
        <time>2022-09-18T07:54:38Z</time>
      </trkpt>
      <trkpt lat="46.01629" lon="10.92793">
        <ele>619.46</ele>
        <time>2022-09-18T07:54:40Z</time>
      </trkpt>
      <trkpt lat="46.01629" lon="10.92791">
        <ele>620.25</ele>
        <time>2022-09-18T07:54:42Z</time>
      </trkpt>
      <trkpt lat="46.0163" lon="10.92789">
        <ele>620.98</ele>
        <time>2022-09-18T07:54:44Z</time>
      </trkpt>
      <trkpt lat="46.01629" lon="10.92787">
        <ele>622.04</ele>
        <time>2022-09-18T07:54:46Z</time>
      </trkpt>
      <trkpt lat="46.01628" lon="10.92787">
        <ele>622.04</ele>
        <time>2022-09-18T07:54:47Z</time>
      </trkpt>
      <trkpt lat="46.01626" lon="10.92785">
        <ele>622.47</ele>
        <time>2022-09-18T07:54:48Z</time>
      </trkpt>
      <trkpt lat="46.01624" lon="10.92784">
        <ele>622</ele>
        <time>2022-09-18T07:54:49Z</time>
      </trkpt>
      <trkpt lat="46.01623" lon="10.92783">
        <ele>622.06</ele>
        <time>2022-09-18T07:54:50Z</time>
      </trkpt>
      <trkpt lat="46.01622" lon="10.92783">
        <ele>620.61</ele>
        <time>2022-09-18T07:54:52Z</time>
      </trkpt>
      <trkpt lat="46.01621" lon="10.92782">
        <ele>620.66</ele>
        <time>2022-09-18T07:54:54Z</time>
      </trkpt>
      <trkpt lat="46.0162" lon="10.92779">
        <ele>620.42</ele>
        <time>2022-09-18T07:54:56Z</time>
      </trkpt>
      <trkpt lat="46.0162" lon="10.92778">
        <ele>620.7</ele>
        <time>2022-09-18T07:54:57Z</time>
      </trkpt>
      <trkpt lat="46.0162" lon="10.92777">
        <ele>620.93</ele>
        <time>2022-09-18T07:54:59Z</time>
      </trkpt>
      <trkpt lat="46.0162" lon="10.92775">
        <ele>620.98</ele>
        <time>2022-09-18T07:55:00Z</time>
      </trkpt>
      <trkpt lat="46.01619" lon="10.92773">
        <ele>622.2</ele>
        <time>2022-09-18T07:55:02Z</time>
      </trkpt>
      <trkpt lat="46.01619" lon="10.92772">
        <ele>622.97</ele>
        <time>2022-09-18T07:55:03Z</time>
      </trkpt>
      <trkpt lat="46.01619" lon="10.9277">
        <ele>624.18</ele>
        <time>2022-09-18T07:55:04Z</time>
      </trkpt>
      <trkpt lat="46.01618" lon="10.92769">
        <ele>624.59</ele>
        <time>2022-09-18T07:55:05Z</time>
      </trkpt>
      <trkpt lat="46.01618" lon="10.92767">
        <ele>625.48</ele>
        <time>2022-09-18T07:55:06Z</time>
      </trkpt>
      <trkpt lat="46.01617" lon="10.92766">
        <ele>624.83</ele>
        <time>2022-09-18T07:55:07Z</time>
      </trkpt>
      <trkpt lat="46.01617" lon="10.92764">
        <ele>624.9</ele>
        <time>2022-09-18T07:55:09Z</time>
      </trkpt>
      <trkpt lat="46.01617" lon="10.92762">
        <ele>626.5</ele>
        <time>2022-09-18T07:55:11Z</time>
      </trkpt>
      <trkpt lat="46.01617" lon="10.92761">
        <ele>626.02</ele>
        <time>2022-09-18T07:55:13Z</time>
      </trkpt>
      <trkpt lat="46.01617" lon="10.9276">
        <ele>625.79</ele>
        <time>2022-09-18T07:55:16Z</time>
      </trkpt>
      <trkpt lat="46.01618" lon="10.92758">
        <ele>625.88</ele>
        <time>2022-09-18T07:55:18Z</time>
      </trkpt>
      <trkpt lat="46.01618" lon="10.92756">
        <ele>626.68</ele>
        <time>2022-09-18T07:55:20Z</time>
      </trkpt>
      <trkpt lat="46.01618" lon="10.92754">
        <ele>625.45</ele>
        <time>2022-09-18T07:55:22Z</time>
      </trkpt>
      <trkpt lat="46.01617" lon="10.92752">
        <ele>625.26</ele>
        <time>2022-09-18T07:55:24Z</time>
      </trkpt>
      <trkpt lat="46.01618" lon="10.9275">
        <ele>625.61</ele>
        <time>2022-09-18T07:55:26Z</time>
      </trkpt>
      <trkpt lat="46.01618" lon="10.92748">
        <ele>625.92</ele>
        <time>2022-09-18T07:55:27Z</time>
      </trkpt>
      <trkpt lat="46.01618" lon="10.92747">
        <ele>627.55</ele>
        <time>2022-09-18T07:55:28Z</time>
      </trkpt>
      <trkpt lat="46.01619" lon="10.92745">
        <ele>627.28</ele>
        <time>2022-09-18T07:55:30Z</time>
      </trkpt>
      <trkpt lat="46.01619" lon="10.92743">
        <ele>627.81</ele>
        <time>2022-09-18T07:55:31Z</time>
      </trkpt>
      <trkpt lat="46.01619" lon="10.92741">
        <ele>627.94</ele>
        <time>2022-09-18T07:55:32Z</time>
      </trkpt>
      <trkpt lat="46.01619" lon="10.92739">
        <ele>629.02</ele>
        <time>2022-09-18T07:55:33Z</time>
      </trkpt>
      <trkpt lat="46.01618" lon="10.92737">
        <ele>628.65</ele>
        <time>2022-09-18T07:55:35Z</time>
      </trkpt>
      <trkpt lat="46.01617" lon="10.92735">
        <ele>627.62</ele>
        <time>2022-09-18T07:55:37Z</time>
      </trkpt>
      <trkpt lat="46.01617" lon="10.92734">
        <ele>627.46</ele>
        <time>2022-09-18T07:55:38Z</time>
      </trkpt>
      <trkpt lat="46.01617" lon="10.92732">
        <ele>627.93</ele>
        <time>2022-09-18T07:55:39Z</time>
      </trkpt>
      <trkpt lat="46.01617" lon="10.92731">
        <ele>630.47</ele>
        <time>2022-09-18T07:55:41Z</time>
      </trkpt>
      <trkpt lat="46.01618" lon="10.92729">
        <ele>630.61</ele>
        <time>2022-09-18T07:55:43Z</time>
      </trkpt>
      <trkpt lat="46.01617" lon="10.92728">
        <ele>630.59</ele>
        <time>2022-09-18T07:55:44Z</time>
      </trkpt>
      <trkpt lat="46.01617" lon="10.92726">
        <ele>632.08</ele>
        <time>2022-09-18T07:55:47Z</time>
      </trkpt>
      <trkpt lat="46.01617" lon="10.92725">
        <ele>631.98</ele>
        <time>2022-09-18T07:55:50Z</time>
      </trkpt>
      <trkpt lat="46.01616" lon="10.92724">
        <ele>633.54</ele>
        <time>2022-09-18T07:55:52Z</time>
      </trkpt>
      <trkpt lat="46.01615" lon="10.92722">
        <ele>633.85</ele>
        <time>2022-09-18T07:55:54Z</time>
      </trkpt>
      <trkpt lat="46.01615" lon="10.9272">
        <ele>634.16</ele>
        <time>2022-09-18T07:55:56Z</time>
      </trkpt>
      <trkpt lat="46.01614" lon="10.92718">
        <ele>634.77</ele>
        <time>2022-09-18T07:55:58Z</time>
      </trkpt>
      <trkpt lat="46.01614" lon="10.92717">
        <ele>635.08</ele>
        <time>2022-09-18T07:56:00Z</time>
      </trkpt>
      <trkpt lat="46.01612" lon="10.92716">
        <ele>635.47</ele>
        <time>2022-09-18T07:56:02Z</time>
      </trkpt>
      <trkpt lat="46.01612" lon="10.92715">
        <ele>636.04</ele>
        <time>2022-09-18T07:56:03Z</time>
      </trkpt>
      <trkpt lat="46.01611" lon="10.92713">
        <ele>635.77</ele>
        <time>2022-09-18T07:56:05Z</time>
      </trkpt>
      <trkpt lat="46.01611" lon="10.92711">
        <ele>636.13</ele>
        <time>2022-09-18T07:56:06Z</time>
      </trkpt>
      <trkpt lat="46.01611" lon="10.92709">
        <ele>635.05</ele>
        <time>2022-09-18T07:56:08Z</time>
      </trkpt>
      <trkpt lat="46.01611" lon="10.92707">
        <ele>634.87</ele>
        <time>2022-09-18T07:56:10Z</time>
      </trkpt>
      <trkpt lat="46.01612" lon="10.92706">
        <ele>634.74</ele>
        <time>2022-09-18T07:56:12Z</time>
      </trkpt>
      <trkpt lat="46.01613" lon="10.92704">
        <ele>635.69</ele>
        <time>2022-09-18T07:56:14Z</time>
      </trkpt>
      <trkpt lat="46.01613" lon="10.92702">
        <ele>634.89</ele>
        <time>2022-09-18T07:56:16Z</time>
      </trkpt>
      <trkpt lat="46.01614" lon="10.92701">
        <ele>634.46</ele>
        <time>2022-09-18T07:56:18Z</time>
      </trkpt>
      <trkpt lat="46.01614" lon="10.92699">
        <ele>634</ele>
        <time>2022-09-18T07:56:20Z</time>
      </trkpt>
      <trkpt lat="46.01615" lon="10.92697">
        <ele>633.92</ele>
        <time>2022-09-18T07:56:21Z</time>
      </trkpt>
      <trkpt lat="46.01615" lon="10.92696">
        <ele>634.77</ele>
        <time>2022-09-18T07:56:22Z</time>
      </trkpt>
      <trkpt lat="46.01615" lon="10.92694">
        <ele>634.74</ele>
        <time>2022-09-18T07:56:24Z</time>
      </trkpt>
      <trkpt lat="46.01615" lon="10.92692">
        <ele>636.58</ele>
        <time>2022-09-18T07:56:26Z</time>
      </trkpt>
      <trkpt lat="46.01615" lon="10.92691">
        <ele>636.83</ele>
        <time>2022-09-18T07:56:28Z</time>
      </trkpt>
      <trkpt lat="46.01615" lon="10.9269">
        <ele>637.28</ele>
        <time>2022-09-18T07:56:30Z</time>
      </trkpt>
      <trkpt lat="46.01616" lon="10.92689">
        <ele>637.79</ele>
        <time>2022-09-18T07:56:32Z</time>
      </trkpt>
      <trkpt lat="46.01617" lon="10.92687">
        <ele>638.97</ele>
        <time>2022-09-18T07:56:35Z</time>
      </trkpt>
      <trkpt lat="46.01616" lon="10.92686">
        <ele>640.09</ele>
        <time>2022-09-18T07:56:37Z</time>
      </trkpt>
      <trkpt lat="46.01616" lon="10.92684">
        <ele>639.78</ele>
        <time>2022-09-18T07:56:39Z</time>
      </trkpt>
      <trkpt lat="46.01616" lon="10.92682">
        <ele>639.48</ele>
        <time>2022-09-18T07:56:41Z</time>
      </trkpt>
      <trkpt lat="46.01616" lon="10.9268">
        <ele>638.95</ele>
        <time>2022-09-18T07:56:43Z</time>
      </trkpt>
      <trkpt lat="46.01617" lon="10.92678">
        <ele>638.86</ele>
        <time>2022-09-18T07:56:45Z</time>
      </trkpt>
      <trkpt lat="46.01618" lon="10.92677">
        <ele>639.76</ele>
        <time>2022-09-18T07:56:47Z</time>
      </trkpt>
      <trkpt lat="46.01619" lon="10.92675">
        <ele>641.02</ele>
        <time>2022-09-18T07:56:49Z</time>
      </trkpt>
      <trkpt lat="46.01619" lon="10.92673">
        <ele>640.82</ele>
        <time>2022-09-18T07:56:51Z</time>
      </trkpt>
      <trkpt lat="46.01618" lon="10.92672">
        <ele>641.51</ele>
        <time>2022-09-18T07:56:53Z</time>
      </trkpt>
      <trkpt lat="46.01618" lon="10.9267">
        <ele>640.98</ele>
        <time>2022-09-18T07:56:56Z</time>
      </trkpt>
      <trkpt lat="46.01618" lon="10.92669">
        <ele>641.63</ele>
        <time>2022-09-18T07:56:57Z</time>
      </trkpt>
      <trkpt lat="46.01618" lon="10.92667">
        <ele>642.98</ele>
        <time>2022-09-18T07:56:58Z</time>
      </trkpt>
      <trkpt lat="46.01618" lon="10.92665">
        <ele>644.2</ele>
        <time>2022-09-18T07:56:59Z</time>
      </trkpt>
      <trkpt lat="46.01618" lon="10.92663">
        <ele>645.48</ele>
        <time>2022-09-18T07:57:00Z</time>
      </trkpt>
      <trkpt lat="46.01618" lon="10.92662">
        <ele>645.69</ele>
        <time>2022-09-18T07:57:01Z</time>
      </trkpt>
      <trkpt lat="46.01618" lon="10.92661">
        <ele>645.75</ele>
        <time>2022-09-18T07:57:02Z</time>
      </trkpt>
      <trkpt lat="46.01618" lon="10.92659">
        <ele>646.3</ele>
        <time>2022-09-18T07:57:04Z</time>
      </trkpt>
      <trkpt lat="46.01617" lon="10.92657">
        <ele>647.94</ele>
        <time>2022-09-18T07:57:06Z</time>
      </trkpt>
      <trkpt lat="46.01616" lon="10.92656">
        <ele>650.28</ele>
        <time>2022-09-18T07:57:08Z</time>
      </trkpt>
      <trkpt lat="46.01616" lon="10.92654">
        <ele>650.7</ele>
        <time>2022-09-18T07:57:09Z</time>
      </trkpt>
      <trkpt lat="46.01616" lon="10.92652">
        <ele>651.32</ele>
        <time>2022-09-18T07:57:11Z</time>
      </trkpt>
      <trkpt lat="46.01617" lon="10.92651">
        <ele>651.25</ele>
        <time>2022-09-18T07:57:13Z</time>
      </trkpt>
      <trkpt lat="46.01618" lon="10.92649">
        <ele>650.4</ele>
        <time>2022-09-18T07:57:15Z</time>
      </trkpt>
      <trkpt lat="46.01619" lon="10.92649">
        <ele>647.62</ele>
        <time>2022-09-18T07:57:17Z</time>
      </trkpt>
      <trkpt lat="46.0162" lon="10.92649">
        <ele>648.09</ele>
        <time>2022-09-18T07:57:18Z</time>
      </trkpt>
      <trkpt lat="46.01621" lon="10.92649">
        <ele>647.89</ele>
        <time>2022-09-18T07:57:19Z</time>
      </trkpt>
      <trkpt lat="46.01622" lon="10.92649">
        <ele>649.93</ele>
        <time>2022-09-18T07:57:21Z</time>
      </trkpt>
      <trkpt lat="46.01623" lon="10.92649">
        <ele>650.59</ele>
        <time>2022-09-18T07:57:23Z</time>
      </trkpt>
      <trkpt lat="46.01624" lon="10.92648">
        <ele>649.75</ele>
        <time>2022-09-18T07:57:25Z</time>
      </trkpt>
      <trkpt lat="46.01626" lon="10.92648">
        <ele>650.29</ele>
        <time>2022-09-18T07:57:27Z</time>
      </trkpt>
      <trkpt lat="46.01627" lon="10.92647">
        <ele>649.4</ele>
        <time>2022-09-18T07:57:28Z</time>
      </trkpt>
      <trkpt lat="46.01627" lon="10.92646">
        <ele>649.52</ele>
        <time>2022-09-18T07:57:29Z</time>
      </trkpt>
      <trkpt lat="46.01628" lon="10.92645">
        <ele>650.42</ele>
        <time>2022-09-18T07:57:30Z</time>
      </trkpt>
      <trkpt lat="46.01629" lon="10.92643">
        <ele>651.76</ele>
        <time>2022-09-18T07:57:32Z</time>
      </trkpt>
      <trkpt lat="46.01629" lon="10.92642">
        <ele>653.41</ele>
        <time>2022-09-18T07:57:35Z</time>
      </trkpt>
      <trkpt lat="46.0163" lon="10.92641">
        <ele>652.44</ele>
        <time>2022-09-18T07:57:37Z</time>
      </trkpt>
      <trkpt lat="46.01629" lon="10.9264">
        <ele>651.49</ele>
        <time>2022-09-18T07:57:39Z</time>
      </trkpt>
      <trkpt lat="46.0163" lon="10.92638">
        <ele>652.75</ele>
        <time>2022-09-18T07:57:42Z</time>
      </trkpt>
      <trkpt lat="46.01629" lon="10.92636">
        <ele>653.89</ele>
        <time>2022-09-18T07:57:45Z</time>
      </trkpt>
      <trkpt lat="46.01628" lon="10.92635">
        <ele>653.5</ele>
        <time>2022-09-18T07:57:47Z</time>
      </trkpt>
      <trkpt lat="46.01628" lon="10.92634">
        <ele>653.88</ele>
        <time>2022-09-18T07:57:49Z</time>
      </trkpt>
      <trkpt lat="46.01628" lon="10.92632">
        <ele>654.93</ele>
        <time>2022-09-18T07:57:51Z</time>
      </trkpt>
      <trkpt lat="46.01629" lon="10.92632">
        <ele>655.82</ele>
        <time>2022-09-18T07:57:53Z</time>
      </trkpt>
      <trkpt lat="46.0163" lon="10.92631">
        <ele>656.34</ele>
        <time>2022-09-18T07:57:54Z</time>
      </trkpt>
      <trkpt lat="46.01631" lon="10.92631">
        <ele>656.58</ele>
        <time>2022-09-18T07:57:55Z</time>
      </trkpt>
      <trkpt lat="46.01632" lon="10.9263">
        <ele>656.38</ele>
        <time>2022-09-18T07:57:56Z</time>
      </trkpt>
      <trkpt lat="46.01633" lon="10.92629">
        <ele>656.91</ele>
        <time>2022-09-18T07:57:57Z</time>
      </trkpt>
      <trkpt lat="46.01634" lon="10.92628">
        <ele>656.79</ele>
        <time>2022-09-18T07:57:58Z</time>
      </trkpt>
      <trkpt lat="46.01635" lon="10.92627">
        <ele>658.72</ele>
        <time>2022-09-18T07:58:00Z</time>
      </trkpt>
      <trkpt lat="46.01636" lon="10.92626">
        <ele>658.18</ele>
        <time>2022-09-18T07:58:02Z</time>
      </trkpt>
      <trkpt lat="46.01636" lon="10.92624">
        <ele>658.67</ele>
        <time>2022-09-18T07:58:07Z</time>
      </trkpt>
      <trkpt lat="46.01637" lon="10.92623">
        <ele>658.86</ele>
        <time>2022-09-18T07:58:09Z</time>
      </trkpt>
      <trkpt lat="46.01638" lon="10.92622">
        <ele>658.95</ele>
        <time>2022-09-18T07:58:11Z</time>
      </trkpt>
      <trkpt lat="46.01638" lon="10.9262">
        <ele>660.43</ele>
        <time>2022-09-18T07:58:13Z</time>
      </trkpt>
      <trkpt lat="46.01637" lon="10.92619">
        <ele>661.62</ele>
        <time>2022-09-18T07:58:15Z</time>
      </trkpt>
      <trkpt lat="46.01637" lon="10.92617">
        <ele>661.35</ele>
        <time>2022-09-18T07:58:16Z</time>
      </trkpt>
      <trkpt lat="46.01637" lon="10.92616">
        <ele>662.29</ele>
        <time>2022-09-18T07:58:18Z</time>
      </trkpt>
      <trkpt lat="46.01637" lon="10.92614">
        <ele>663.2</ele>
        <time>2022-09-18T07:58:19Z</time>
      </trkpt>
      <trkpt lat="46.01637" lon="10.92613">
        <ele>663.61</ele>
        <time>2022-09-18T07:58:20Z</time>
      </trkpt>
      <trkpt lat="46.01637" lon="10.92611">
        <ele>663.11</ele>
        <time>2022-09-18T07:58:22Z</time>
      </trkpt>
      <trkpt lat="46.01637" lon="10.92609">
        <ele>663.3</ele>
        <time>2022-09-18T07:58:24Z</time>
      </trkpt>
      <trkpt lat="46.01637" lon="10.92607">
        <ele>663.16</ele>
        <time>2022-09-18T07:58:26Z</time>
      </trkpt>
      <trkpt lat="46.01638" lon="10.92605">
        <ele>664.38</ele>
        <time>2022-09-18T07:58:28Z</time>
      </trkpt>
      <trkpt lat="46.01639" lon="10.92604">
        <ele>663.99</ele>
        <time>2022-09-18T07:58:30Z</time>
      </trkpt>
      <trkpt lat="46.01639" lon="10.92602">
        <ele>664.24</ele>
        <time>2022-09-18T07:58:31Z</time>
      </trkpt>
      <trkpt lat="46.0164" lon="10.92601">
        <ele>663.84</ele>
        <time>2022-09-18T07:58:32Z</time>
      </trkpt>
      <trkpt lat="46.01641" lon="10.926">
        <ele>664.11</ele>
        <time>2022-09-18T07:58:33Z</time>
      </trkpt>
      <trkpt lat="46.01642" lon="10.92599">
        <ele>663.75</ele>
        <time>2022-09-18T07:58:34Z</time>
      </trkpt>
      <trkpt lat="46.01642" lon="10.92598">
        <ele>663.88</ele>
        <time>2022-09-18T07:58:35Z</time>
      </trkpt>
      <trkpt lat="46.01644" lon="10.92596">
        <ele>664.46</ele>
        <time>2022-09-18T07:58:37Z</time>
      </trkpt>
      <trkpt lat="46.01644" lon="10.92595">
        <ele>665.14</ele>
        <time>2022-09-18T07:58:38Z</time>
      </trkpt>
      <trkpt lat="46.01643" lon="10.92594">
        <ele>663.54</ele>
        <time>2022-09-18T07:58:40Z</time>
      </trkpt>
      <trkpt lat="46.01644" lon="10.92591">
        <ele>664.36</ele>
        <time>2022-09-18T07:58:43Z</time>
      </trkpt>
      <trkpt lat="46.01645" lon="10.9259">
        <ele>664.6</ele>
        <time>2022-09-18T07:58:44Z</time>
      </trkpt>
      <trkpt lat="46.01645" lon="10.92589">
        <ele>664.85</ele>
        <time>2022-09-18T07:58:45Z</time>
      </trkpt>
      <trkpt lat="46.01646" lon="10.92587">
        <ele>666.73</ele>
        <time>2022-09-18T07:58:47Z</time>
      </trkpt>
      <trkpt lat="46.01646" lon="10.92586">
        <ele>665.87</ele>
        <time>2022-09-18T07:58:49Z</time>
      </trkpt>
      <trkpt lat="46.01647" lon="10.92584">
        <ele>667.74</ele>
        <time>2022-09-18T07:58:51Z</time>
      </trkpt>
      <trkpt lat="46.01648" lon="10.92583">
        <ele>668.89</ele>
        <time>2022-09-18T07:58:53Z</time>
      </trkpt>
      <trkpt lat="46.0165" lon="10.92582">
        <ele>670.4</ele>
        <time>2022-09-18T07:58:55Z</time>
      </trkpt>
      <trkpt lat="46.0165" lon="10.92581">
        <ele>672.7</ele>
        <time>2022-09-18T07:58:56Z</time>
      </trkpt>
      <trkpt lat="46.01651" lon="10.92579">
        <ele>672.27</ele>
        <time>2022-09-18T07:58:57Z</time>
      </trkpt>
      <trkpt lat="46.01651" lon="10.92577">
        <ele>672.91</ele>
        <time>2022-09-18T07:58:59Z</time>
      </trkpt>
      <trkpt lat="46.01653" lon="10.92575">
        <ele>673.01</ele>
        <time>2022-09-18T07:59:02Z</time>
      </trkpt>
      <trkpt lat="46.01653" lon="10.92574">
        <ele>673.08</ele>
        <time>2022-09-18T07:59:04Z</time>
      </trkpt>
      <trkpt lat="46.01652" lon="10.92576">
        <ele>676.75</ele>
        <time>2022-09-18T07:59:06Z</time>
      </trkpt>
      <trkpt lat="46.0165" lon="10.92576">
        <ele>675.53</ele>
        <time>2022-09-18T07:59:08Z</time>
      </trkpt>
      <trkpt lat="46.01649" lon="10.92576">
        <ele>675.68</ele>
        <time>2022-09-18T07:59:11Z</time>
      </trkpt>
      <trkpt lat="46.0165" lon="10.92576">
        <ele>676.57</ele>
        <time>2022-09-18T07:59:13Z</time>
      </trkpt>
      <trkpt lat="46.01651" lon="10.92575">
        <ele>676.88</ele>
        <time>2022-09-18T07:59:15Z</time>
      </trkpt>
      <trkpt lat="46.01652" lon="10.92574">
        <ele>677.87</ele>
        <time>2022-09-18T07:59:16Z</time>
      </trkpt>
      <trkpt lat="46.01652" lon="10.92572">
        <ele>677.52</ele>
        <time>2022-09-18T07:59:17Z</time>
      </trkpt>
      <trkpt lat="46.01653" lon="10.92569">
        <ele>677.89</ele>
        <time>2022-09-18T07:59:18Z</time>
      </trkpt>
      <trkpt lat="46.01653" lon="10.92567">
        <ele>677.92</ele>
        <time>2022-09-18T07:59:19Z</time>
      </trkpt>
      <trkpt lat="46.01654" lon="10.92565">
        <ele>677.91</ele>
        <time>2022-09-18T07:59:20Z</time>
      </trkpt>
      <trkpt lat="46.01654" lon="10.92563">
        <ele>677.91</ele>
        <time>2022-09-18T07:59:21Z</time>
      </trkpt>
      <trkpt lat="46.01654" lon="10.92562">
        <ele>677.91</ele>
        <time>2022-09-18T07:59:22Z</time>
      </trkpt>
      <trkpt lat="46.01654" lon="10.92561">
        <ele>677.89</ele>
        <time>2022-09-18T07:59:23Z</time>
      </trkpt>
      <trkpt lat="46.01654" lon="10.92558">
        <ele>677.94</ele>
        <time>2022-09-18T07:59:25Z</time>
      </trkpt>
      <trkpt lat="46.01653" lon="10.92556">
        <ele>678.45</ele>
        <time>2022-09-18T07:59:26Z</time>
      </trkpt>
      <trkpt lat="46.01654" lon="10.92553">
        <ele>679.99</ele>
        <time>2022-09-18T07:59:27Z</time>
      </trkpt>
      <trkpt lat="46.01653" lon="10.92551">
        <ele>678.66</ele>
        <time>2022-09-18T07:59:28Z</time>
      </trkpt>
      <trkpt lat="46.01653" lon="10.9255">
        <ele>677.69</ele>
        <time>2022-09-18T07:59:29Z</time>
      </trkpt>
      <trkpt lat="46.01652" lon="10.92548">
        <ele>678.81</ele>
        <time>2022-09-18T07:59:30Z</time>
      </trkpt>
      <trkpt lat="46.01652" lon="10.92547">
        <ele>679.41</ele>
        <time>2022-09-18T07:59:31Z</time>
      </trkpt>
      <trkpt lat="46.01653" lon="10.92545">
        <ele>680.12</ele>
        <time>2022-09-18T07:59:38Z</time>
      </trkpt>
      <trkpt lat="46.01654" lon="10.92543">
        <ele>680.18</ele>
        <time>2022-09-18T07:59:40Z</time>
      </trkpt>
      <trkpt lat="46.01653" lon="10.92545">
        <ele>680.34</ele>
        <time>2022-09-18T07:59:44Z</time>
      </trkpt>
      <trkpt lat="46.01651" lon="10.92548">
        <ele>680.41</ele>
        <time>2022-09-18T07:59:46Z</time>
      </trkpt>
      <trkpt lat="46.0165" lon="10.92549">
        <ele>680.44</ele>
        <time>2022-09-18T07:59:47Z</time>
      </trkpt>
      <trkpt lat="46.0165" lon="10.92551">
        <ele>680.45</ele>
        <time>2022-09-18T07:59:48Z</time>
      </trkpt>
      <trkpt lat="46.01649" lon="10.92554">
        <ele>680.45</ele>
        <time>2022-09-18T07:59:49Z</time>
      </trkpt>
      <trkpt lat="46.01651" lon="10.92553">
        <ele>683.24</ele>
        <time>2022-09-18T07:59:51Z</time>
      </trkpt>
      <trkpt lat="46.01652" lon="10.92552">
        <ele>683.95</ele>
        <time>2022-09-18T07:59:52Z</time>
      </trkpt>
      <trkpt lat="46.01654" lon="10.92551">
        <ele>684.37</ele>
        <time>2022-09-18T07:59:53Z</time>
      </trkpt>
      <trkpt lat="46.01655" lon="10.92549">
        <ele>684.84</ele>
        <time>2022-09-18T07:59:54Z</time>
      </trkpt>
      <trkpt lat="46.01656" lon="10.92547">
        <ele>684.18</ele>
        <time>2022-09-18T07:59:55Z</time>
      </trkpt>
      <trkpt lat="46.01657" lon="10.92545">
        <ele>682.24</ele>
        <time>2022-09-18T07:59:56Z</time>
      </trkpt>
      <trkpt lat="46.01658" lon="10.92544">
        <ele>681.98</ele>
        <time>2022-09-18T07:59:57Z</time>
      </trkpt>
      <trkpt lat="46.01659" lon="10.92544">
        <ele>684.8</ele>
        <time>2022-09-18T07:59:59Z</time>
      </trkpt>
      <trkpt lat="46.0166" lon="10.92543">
        <ele>686.19</ele>
        <time>2022-09-18T08:00:03Z</time>
      </trkpt>
      <trkpt lat="46.01661" lon="10.92542">
        <ele>685.89</ele>
        <time>2022-09-18T08:00:05Z</time>
      </trkpt>
      <trkpt lat="46.01662" lon="10.9254">
        <ele>685.22</ele>
        <time>2022-09-18T08:00:07Z</time>
      </trkpt>
      <trkpt lat="46.01663" lon="10.92539">
        <ele>687.54</ele>
        <time>2022-09-18T08:00:10Z</time>
      </trkpt>
      <trkpt lat="46.01664" lon="10.92538">
        <ele>687.88</ele>
        <time>2022-09-18T08:00:11Z</time>
      </trkpt>
      <trkpt lat="46.01665" lon="10.92537">
        <ele>686.73</ele>
        <time>2022-09-18T08:00:12Z</time>
      </trkpt>
      <trkpt lat="46.01665" lon="10.92535">
        <ele>687.85</ele>
        <time>2022-09-18T08:00:13Z</time>
      </trkpt>
      <trkpt lat="46.01667" lon="10.92533">
        <ele>687.89</ele>
        <time>2022-09-18T08:00:15Z</time>
      </trkpt>
      <trkpt lat="46.01668" lon="10.92531">
        <ele>687.9</ele>
        <time>2022-09-18T08:00:16Z</time>
      </trkpt>
      <trkpt lat="46.01668" lon="10.9253">
        <ele>687.91</ele>
        <time>2022-09-18T08:00:18Z</time>
      </trkpt>
      <trkpt lat="46.01667" lon="10.9253">
        <ele>687.91</ele>
        <time>2022-09-18T08:00:22Z</time>
      </trkpt>
      <trkpt lat="46.01666" lon="10.92531">
        <ele>687.9</ele>
        <time>2022-09-18T08:00:23Z</time>
      </trkpt>
      <trkpt lat="46.01666" lon="10.92532">
        <ele>687.96</ele>
        <time>2022-09-18T08:00:24Z</time>
      </trkpt>
      <trkpt lat="46.01665" lon="10.92534">
        <ele>687.98</ele>
        <time>2022-09-18T08:00:25Z</time>
      </trkpt>
      <trkpt lat="46.01664" lon="10.92535">
        <ele>688.08</ele>
        <time>2022-09-18T08:00:26Z</time>
      </trkpt>
      <trkpt lat="46.01664" lon="10.92536">
        <ele>688.15</ele>
        <time>2022-09-18T08:00:27Z</time>
      </trkpt>
      <trkpt lat="46.01663" lon="10.92538">
        <ele>688.24</ele>
        <time>2022-09-18T08:00:28Z</time>
      </trkpt>
      <trkpt lat="46.01663" lon="10.9254">
        <ele>688.33</ele>
        <time>2022-09-18T08:00:29Z</time>
      </trkpt>
      <trkpt lat="46.01662" lon="10.92541">
        <ele>688.41</ele>
        <time>2022-09-18T08:00:30Z</time>
      </trkpt>
      <trkpt lat="46.01662" lon="10.92543">
        <ele>688.58</ele>
        <time>2022-09-18T08:00:33Z</time>
      </trkpt>
      <trkpt lat="46.01662" lon="10.92544">
        <ele>688.71</ele>
        <time>2022-09-18T08:00:36Z</time>
      </trkpt>
      <trkpt lat="46.01662" lon="10.92546">
        <ele>688.63</ele>
        <time>2022-09-18T08:00:39Z</time>
      </trkpt>
      <trkpt lat="46.01662" lon="10.92547">
        <ele>688.52</ele>
        <time>2022-09-18T08:00:41Z</time>
      </trkpt>
      <trkpt lat="46.01662" lon="10.92549">
        <ele>688.23</ele>
        <time>2022-09-18T08:00:44Z</time>
      </trkpt>
      <trkpt lat="46.01664" lon="10.92547">
        <ele>688.37</ele>
        <time>2022-09-18T08:00:45Z</time>
      </trkpt>
      <trkpt lat="46.01674" lon="10.92522">
        <ele>688.57</ele>
        <time>2022-09-18T08:00:46Z</time>
      </trkpt>
      <trkpt lat="46.01675" lon="10.92523">
        <ele>690.78</ele>
        <time>2022-09-18T08:00:47Z</time>
      </trkpt>
      <trkpt lat="46.01675" lon="10.9252">
        <ele>693.94</ele>
        <time>2022-09-18T08:00:49Z</time>
      </trkpt>
      <trkpt lat="46.01675" lon="10.92518">
        <ele>698.69</ele>
        <time>2022-09-18T08:00:50Z</time>
      </trkpt>
      <trkpt lat="46.01674" lon="10.92516">
        <ele>697.3</ele>
        <time>2022-09-18T08:00:52Z</time>
      </trkpt>
      <trkpt lat="46.01674" lon="10.92512">
        <ele>698.69</ele>
        <time>2022-09-18T08:00:53Z</time>
      </trkpt>
      <trkpt lat="46.01674" lon="10.9251">
        <ele>696.95</ele>
        <time>2022-09-18T08:00:54Z</time>
      </trkpt>
      <trkpt lat="46.01675" lon="10.92508">
        <ele>699.26</ele>
        <time>2022-09-18T08:00:55Z</time>
      </trkpt>
      <trkpt lat="46.01675" lon="10.92506">
        <ele>697.99</ele>
        <time>2022-09-18T08:00:56Z</time>
      </trkpt>
      <trkpt lat="46.01678" lon="10.925">
        <ele>697.76</ele>
        <time>2022-09-18T08:00:58Z</time>
      </trkpt>
      <trkpt lat="46.01679" lon="10.92497">
        <ele>698.96</ele>
        <time>2022-09-18T08:00:59Z</time>
      </trkpt>
      <trkpt lat="46.0168" lon="10.92497">
        <ele>698.12</ele>
        <time>2022-09-18T08:01:00Z</time>
      </trkpt>
      <trkpt lat="46.01681" lon="10.92491">
        <ele>698.29</ele>
        <time>2022-09-18T08:01:01Z</time>
      </trkpt>
      <trkpt lat="46.01682" lon="10.92487">
        <ele>697.92</ele>
        <time>2022-09-18T08:01:02Z</time>
      </trkpt>
      <trkpt lat="46.01683" lon="10.92483">
        <ele>698.19</ele>
        <time>2022-09-18T08:01:03Z</time>
      </trkpt>
      <trkpt lat="46.01683" lon="10.92479">
        <ele>697.1</ele>
        <time>2022-09-18T08:01:04Z</time>
      </trkpt>
      <trkpt lat="46.01684" lon="10.92476">
        <ele>697.12</ele>
        <time>2022-09-18T08:01:05Z</time>
      </trkpt>
      <trkpt lat="46.01684" lon="10.92471">
        <ele>697.77</ele>
        <time>2022-09-18T08:01:06Z</time>
      </trkpt>
      <trkpt lat="46.01684" lon="10.92469">
        <ele>697.92</ele>
        <time>2022-09-18T08:01:07Z</time>
      </trkpt>
      <trkpt lat="46.01683" lon="10.92466">
        <ele>698.97</ele>
        <time>2022-09-18T08:01:08Z</time>
      </trkpt>
      <trkpt lat="46.01682" lon="10.92465">
        <ele>700.87</ele>
        <time>2022-09-18T08:01:09Z</time>
      </trkpt>
      <trkpt lat="46.01681" lon="10.92464">
        <ele>700.97</ele>
        <time>2022-09-18T08:01:10Z</time>
      </trkpt>
      <trkpt lat="46.01681" lon="10.92463">
        <ele>702.79</ele>
        <time>2022-09-18T08:01:15Z</time>
      </trkpt>
      <trkpt lat="46.01682" lon="10.92461">
        <ele>701.14</ele>
        <time>2022-09-18T08:01:18Z</time>
      </trkpt>
      <trkpt lat="46.01682" lon="10.9246">
        <ele>702.5</ele>
        <time>2022-09-18T08:01:20Z</time>
      </trkpt>
      <trkpt lat="46.01682" lon="10.92458">
        <ele>704.41</ele>
        <time>2022-09-18T08:01:22Z</time>
      </trkpt>
      <trkpt lat="46.01683" lon="10.92457">
        <ele>704.63</ele>
        <time>2022-09-18T08:01:24Z</time>
      </trkpt>
      <trkpt lat="46.01683" lon="10.92456">
        <ele>704.67</ele>
        <time>2022-09-18T08:01:25Z</time>
      </trkpt>
      <trkpt lat="46.01684" lon="10.92455">
        <ele>704.45</ele>
        <time>2022-09-18T08:01:26Z</time>
      </trkpt>
      <trkpt lat="46.01685" lon="10.92453">
        <ele>704</ele>
        <time>2022-09-18T08:01:28Z</time>
      </trkpt>
      <trkpt lat="46.01686" lon="10.92452">
        <ele>704.47</ele>
        <time>2022-09-18T08:01:31Z</time>
      </trkpt>
      <trkpt lat="46.01687" lon="10.92452">
        <ele>704.23</ele>
        <time>2022-09-18T08:01:33Z</time>
      </trkpt>
      <trkpt lat="46.01688" lon="10.92451">
        <ele>705.36</ele>
        <time>2022-09-18T08:01:35Z</time>
      </trkpt>
      <trkpt lat="46.01689" lon="10.9245">
        <ele>707.32</ele>
        <time>2022-09-18T08:01:37Z</time>
      </trkpt>
      <trkpt lat="46.0169" lon="10.92448">
        <ele>709.13</ele>
        <time>2022-09-18T08:01:39Z</time>
      </trkpt>
      <trkpt lat="46.0169" lon="10.92446">
        <ele>710.5</ele>
        <time>2022-09-18T08:01:40Z</time>
      </trkpt>
      <trkpt lat="46.0169" lon="10.92445">
        <ele>710.64</ele>
        <time>2022-09-18T08:01:42Z</time>
      </trkpt>
      <trkpt lat="46.01691" lon="10.92443">
        <ele>709.68</ele>
        <time>2022-09-18T08:01:44Z</time>
      </trkpt>
      <trkpt lat="46.01692" lon="10.92442">
        <ele>711.24</ele>
        <time>2022-09-18T08:01:46Z</time>
      </trkpt>
      <trkpt lat="46.01693" lon="10.92441">
        <ele>712.25</ele>
        <time>2022-09-18T08:01:49Z</time>
      </trkpt>
      <trkpt lat="46.01694" lon="10.9244">
        <ele>711.73</ele>
        <time>2022-09-18T08:01:50Z</time>
      </trkpt>
      <trkpt lat="46.01695" lon="10.92439">
        <ele>711.49</ele>
        <time>2022-09-18T08:01:51Z</time>
      </trkpt>
      <trkpt lat="46.01696" lon="10.92437">
        <ele>712.17</ele>
        <time>2022-09-18T08:01:52Z</time>
      </trkpt>
      <trkpt lat="46.01696" lon="10.92436">
        <ele>711.81</ele>
        <time>2022-09-18T08:01:53Z</time>
      </trkpt>
      <trkpt lat="46.01697" lon="10.92434">
        <ele>712.14</ele>
        <time>2022-09-18T08:01:54Z</time>
      </trkpt>
      <trkpt lat="46.01697" lon="10.92433">
        <ele>711.68</ele>
        <time>2022-09-18T08:01:55Z</time>
      </trkpt>
      <trkpt lat="46.01698" lon="10.92432">
        <ele>711.65</ele>
        <time>2022-09-18T08:01:56Z</time>
      </trkpt>
      <trkpt lat="46.01699" lon="10.92431">
        <ele>711.67</ele>
        <time>2022-09-18T08:01:57Z</time>
      </trkpt>
      <trkpt lat="46.017" lon="10.92429">
        <ele>714.72</ele>
        <time>2022-09-18T08:01:59Z</time>
      </trkpt>
      <trkpt lat="46.01701" lon="10.92428">
        <ele>713.79</ele>
        <time>2022-09-18T08:02:01Z</time>
      </trkpt>
      <trkpt lat="46.01701" lon="10.92426">
        <ele>712.78</ele>
        <time>2022-09-18T08:02:02Z</time>
      </trkpt>
      <trkpt lat="46.01701" lon="10.92425">
        <ele>713.36</ele>
        <time>2022-09-18T08:02:03Z</time>
      </trkpt>
      <trkpt lat="46.01701" lon="10.92423">
        <ele>713.33</ele>
        <time>2022-09-18T08:02:05Z</time>
      </trkpt>
      <trkpt lat="46.01702" lon="10.92422">
        <ele>716.57</ele>
        <time>2022-09-18T08:02:07Z</time>
      </trkpt>
      <trkpt lat="46.01702" lon="10.92421">
        <ele>717.84</ele>
        <time>2022-09-18T08:02:09Z</time>
      </trkpt>
      <trkpt lat="46.01703" lon="10.9242">
        <ele>719.77</ele>
        <time>2022-09-18T08:02:11Z</time>
      </trkpt>
      <trkpt lat="46.01704" lon="10.92418">
        <ele>718.46</ele>
        <time>2022-09-18T08:02:13Z</time>
      </trkpt>
      <trkpt lat="46.01703" lon="10.92417">
        <ele>715.95</ele>
        <time>2022-09-18T08:02:16Z</time>
      </trkpt>
      <trkpt lat="46.01702" lon="10.92415">
        <ele>715.98</ele>
        <time>2022-09-18T08:02:18Z</time>
      </trkpt>
      <trkpt lat="46.01703" lon="10.92414">
        <ele>715.8</ele>
        <time>2022-09-18T08:02:19Z</time>
      </trkpt>
      <trkpt lat="46.01704" lon="10.92414">
        <ele>715.34</ele>
        <time>2022-09-18T08:02:20Z</time>
      </trkpt>
      <trkpt lat="46.01705" lon="10.92414">
        <ele>717.05</ele>
        <time>2022-09-18T08:02:22Z</time>
      </trkpt>
      <trkpt lat="46.01705" lon="10.92415">
        <ele>714.12</ele>
        <time>2022-09-18T08:02:30Z</time>
      </trkpt>
      <trkpt lat="46.01704" lon="10.92414">
        <ele>714.9</ele>
        <time>2022-09-18T08:02:59Z</time>
      </trkpt>
      <trkpt lat="46.01703" lon="10.92412">
        <ele>714.49</ele>
        <time>2022-09-18T08:03:01Z</time>
      </trkpt>
      <trkpt lat="46.01703" lon="10.92411">
        <ele>713.61</ele>
        <time>2022-09-18T08:03:03Z</time>
      </trkpt>
      <trkpt lat="46.01703" lon="10.92409">
        <ele>713.28</ele>
        <time>2022-09-18T08:03:06Z</time>
      </trkpt>
      <trkpt lat="46.01703" lon="10.92408">
        <ele>713.1</ele>
        <time>2022-09-18T08:03:09Z</time>
      </trkpt>
      <trkpt lat="46.01703" lon="10.92405">
        <ele>714.04</ele>
        <time>2022-09-18T08:03:12Z</time>
      </trkpt>
      <trkpt lat="46.01704" lon="10.92404">
        <ele>714.31</ele>
        <time>2022-09-18T08:03:13Z</time>
      </trkpt>
      <trkpt lat="46.01705" lon="10.92403">
        <ele>715.26</ele>
        <time>2022-09-18T08:03:15Z</time>
      </trkpt>
      <trkpt lat="46.01706" lon="10.92403">
        <ele>716.6</ele>
        <time>2022-09-18T08:03:17Z</time>
      </trkpt>
      <trkpt lat="46.01706" lon="10.92401">
        <ele>720.01</ele>
        <time>2022-09-18T08:03:19Z</time>
      </trkpt>
      <trkpt lat="46.01707" lon="10.92399">
        <ele>721.19</ele>
        <time>2022-09-18T08:03:22Z</time>
      </trkpt>
      <trkpt lat="46.01708" lon="10.92398">
        <ele>722.3</ele>
        <time>2022-09-18T08:03:24Z</time>
      </trkpt>
      <trkpt lat="46.01709" lon="10.92397">
        <ele>722.86</ele>
        <time>2022-09-18T08:03:25Z</time>
      </trkpt>
      <trkpt lat="46.01709" lon="10.92395">
        <ele>723.17</ele>
        <time>2022-09-18T08:03:26Z</time>
      </trkpt>
      <trkpt lat="46.0171" lon="10.92393">
        <ele>722.14</ele>
        <time>2022-09-18T08:03:28Z</time>
      </trkpt>
      <trkpt lat="46.01711" lon="10.92392">
        <ele>722.6</ele>
        <time>2022-09-18T08:03:30Z</time>
      </trkpt>
      <trkpt lat="46.01712" lon="10.92391">
        <ele>724.19</ele>
        <time>2022-09-18T08:03:31Z</time>
      </trkpt>
      <trkpt lat="46.01712" lon="10.92389">
        <ele>724.25</ele>
        <time>2022-09-18T08:03:33Z</time>
      </trkpt>
      <trkpt lat="46.01713" lon="10.92388">
        <ele>726.98</ele>
        <time>2022-09-18T08:03:35Z</time>
      </trkpt>
      <trkpt lat="46.01713" lon="10.92385">
        <ele>727.62</ele>
        <time>2022-09-18T08:03:37Z</time>
      </trkpt>
      <trkpt lat="46.01714" lon="10.92383">
        <ele>729.75</ele>
        <time>2022-09-18T08:03:39Z</time>
      </trkpt>
      <trkpt lat="46.01715" lon="10.92382">
        <ele>731.81</ele>
        <time>2022-09-18T08:03:41Z</time>
      </trkpt>
      <trkpt lat="46.01716" lon="10.92382">
        <ele>734.21</ele>
        <time>2022-09-18T08:03:44Z</time>
      </trkpt>
      <trkpt lat="46.01715" lon="10.92382">
        <ele>734.52</ele>
        <time>2022-09-18T08:03:45Z</time>
      </trkpt>
      <trkpt lat="46.01714" lon="10.9238">
        <ele>734.12</ele>
        <time>2022-09-18T08:03:46Z</time>
      </trkpt>
      <trkpt lat="46.01713" lon="10.92379">
        <ele>733.69</ele>
        <time>2022-09-18T08:03:47Z</time>
      </trkpt>
      <trkpt lat="46.01713" lon="10.92378">
        <ele>733.87</ele>
        <time>2022-09-18T08:03:48Z</time>
      </trkpt>
      <trkpt lat="46.01712" lon="10.92376">
        <ele>734.81</ele>
        <time>2022-09-18T08:03:50Z</time>
      </trkpt>
      <trkpt lat="46.01712" lon="10.92374">
        <ele>736.2</ele>
        <time>2022-09-18T08:03:52Z</time>
      </trkpt>
      <trkpt lat="46.01712" lon="10.92373">
        <ele>736.25</ele>
        <time>2022-09-18T08:03:53Z</time>
      </trkpt>
      <trkpt lat="46.01712" lon="10.92371">
        <ele>736.4</ele>
        <time>2022-09-18T08:03:55Z</time>
      </trkpt>
      <trkpt lat="46.01712" lon="10.9237">
        <ele>736.22</ele>
        <time>2022-09-18T08:03:56Z</time>
      </trkpt>
      <trkpt lat="46.01713" lon="10.92368">
        <ele>736.41</ele>
        <time>2022-09-18T08:03:57Z</time>
      </trkpt>
      <trkpt lat="46.01712" lon="10.92367">
        <ele>736.99</ele>
        <time>2022-09-18T08:03:58Z</time>
      </trkpt>
      <trkpt lat="46.01712" lon="10.92366">
        <ele>737.97</ele>
        <time>2022-09-18T08:04:00Z</time>
      </trkpt>
      <trkpt lat="46.01712" lon="10.92364">
        <ele>739.29</ele>
        <time>2022-09-18T08:04:03Z</time>
      </trkpt>
      <trkpt lat="46.01711" lon="10.92363">
        <ele>740.55</ele>
        <time>2022-09-18T08:04:05Z</time>
      </trkpt>
      <trkpt lat="46.01711" lon="10.92362">
        <ele>742.51</ele>
        <time>2022-09-18T08:04:08Z</time>
      </trkpt>
      <trkpt lat="46.01711" lon="10.9236">
        <ele>743.69</ele>
        <time>2022-09-18T08:04:10Z</time>
      </trkpt>
      <trkpt lat="46.01711" lon="10.92358">
        <ele>744.5</ele>
        <time>2022-09-18T08:04:11Z</time>
      </trkpt>
      <trkpt lat="46.01712" lon="10.92357">
        <ele>743.06</ele>
        <time>2022-09-18T08:04:13Z</time>
      </trkpt>
      <trkpt lat="46.01713" lon="10.92356">
        <ele>743.27</ele>
        <time>2022-09-18T08:04:14Z</time>
      </trkpt>
      <trkpt lat="46.01714" lon="10.92355">
        <ele>744.37</ele>
        <time>2022-09-18T08:04:15Z</time>
      </trkpt>
      <trkpt lat="46.01715" lon="10.92354">
        <ele>744.63</ele>
        <time>2022-09-18T08:04:16Z</time>
      </trkpt>
      <trkpt lat="46.01716" lon="10.92353">
        <ele>743.04</ele>
        <time>2022-09-18T08:04:18Z</time>
      </trkpt>
      <trkpt lat="46.01717" lon="10.92352">
        <ele>743.69</ele>
        <time>2022-09-18T08:04:19Z</time>
      </trkpt>
      <trkpt lat="46.01717" lon="10.92351">
        <ele>744.59</ele>
        <time>2022-09-18T08:04:20Z</time>
      </trkpt>
      <trkpt lat="46.01718" lon="10.92351">
        <ele>745.52</ele>
        <time>2022-09-18T08:04:21Z</time>
      </trkpt>
      <trkpt lat="46.01719" lon="10.9235">
        <ele>743.86</ele>
        <time>2022-09-18T08:04:23Z</time>
      </trkpt>
      <trkpt lat="46.01719" lon="10.92348">
        <ele>744.55</ele>
        <time>2022-09-18T08:04:25Z</time>
      </trkpt>
      <trkpt lat="46.01721" lon="10.92347">
        <ele>743.53</ele>
        <time>2022-09-18T08:04:27Z</time>
      </trkpt>
      <trkpt lat="46.01722" lon="10.92346">
        <ele>743.99</ele>
        <time>2022-09-18T08:04:29Z</time>
      </trkpt>
      <trkpt lat="46.01723" lon="10.92345">
        <ele>744</ele>
        <time>2022-09-18T08:04:30Z</time>
      </trkpt>
      <trkpt lat="46.01724" lon="10.92345">
        <ele>744.14</ele>
        <time>2022-09-18T08:04:31Z</time>
      </trkpt>
      <trkpt lat="46.01725" lon="10.92344">
        <ele>744.8</ele>
        <time>2022-09-18T08:04:33Z</time>
      </trkpt>
      <trkpt lat="46.01726" lon="10.92342">
        <ele>744.85</ele>
        <time>2022-09-18T08:04:36Z</time>
      </trkpt>
      <trkpt lat="46.01727" lon="10.9234">
        <ele>743.78</ele>
        <time>2022-09-18T08:04:38Z</time>
      </trkpt>
      <trkpt lat="46.01728" lon="10.92338">
        <ele>744.16</ele>
        <time>2022-09-18T08:04:40Z</time>
      </trkpt>
      <trkpt lat="46.01728" lon="10.92336">
        <ele>743.64</ele>
        <time>2022-09-18T08:04:42Z</time>
      </trkpt>
      <trkpt lat="46.01728" lon="10.92335">
        <ele>743.94</ele>
        <time>2022-09-18T08:04:43Z</time>
      </trkpt>
      <trkpt lat="46.01729" lon="10.92334">
        <ele>743.27</ele>
        <time>2022-09-18T08:04:45Z</time>
      </trkpt>
      <trkpt lat="46.0173" lon="10.92333">
        <ele>744.05</ele>
        <time>2022-09-18T08:04:47Z</time>
      </trkpt>
      <trkpt lat="46.01731" lon="10.92334">
        <ele>744.67</ele>
        <time>2022-09-18T08:04:51Z</time>
      </trkpt>
      <trkpt lat="46.01732" lon="10.92334">
        <ele>745</ele>
        <time>2022-09-18T08:04:53Z</time>
      </trkpt>
      <trkpt lat="46.01732" lon="10.92331">
        <ele>744.39</ele>
        <time>2022-09-18T08:04:55Z</time>
      </trkpt>
      <trkpt lat="46.01732" lon="10.92329">
        <ele>744.81</ele>
        <time>2022-09-18T08:04:56Z</time>
      </trkpt>
      <trkpt lat="46.01731" lon="10.92328">
        <ele>745.8</ele>
        <time>2022-09-18T08:04:57Z</time>
      </trkpt>
      <trkpt lat="46.01731" lon="10.92325">
        <ele>744.77</ele>
        <time>2022-09-18T08:04:59Z</time>
      </trkpt>
      <trkpt lat="46.01731" lon="10.92322">
        <ele>745.62</ele>
        <time>2022-09-18T08:05:01Z</time>
      </trkpt>
      <trkpt lat="46.01732" lon="10.9232">
        <ele>745.58</ele>
        <time>2022-09-18T08:05:03Z</time>
      </trkpt>
      <trkpt lat="46.01733" lon="10.92318">
        <ele>746.77</ele>
        <time>2022-09-18T08:05:06Z</time>
      </trkpt>
      <trkpt lat="46.01733" lon="10.92317">
        <ele>748.53</ele>
        <time>2022-09-18T08:05:09Z</time>
      </trkpt>
      <trkpt lat="46.01734" lon="10.92315">
        <ele>748.73</ele>
        <time>2022-09-18T08:05:11Z</time>
      </trkpt>
      <trkpt lat="46.01734" lon="10.92314">
        <ele>748.08</ele>
        <time>2022-09-18T08:05:13Z</time>
      </trkpt>
      <trkpt lat="46.01734" lon="10.92312">
        <ele>749.37</ele>
        <time>2022-09-18T08:05:16Z</time>
      </trkpt>
      <trkpt lat="46.01734" lon="10.9231">
        <ele>749.46</ele>
        <time>2022-09-18T08:05:19Z</time>
      </trkpt>
      <trkpt lat="46.01735" lon="10.92309">
        <ele>749.85</ele>
        <time>2022-09-18T08:05:21Z</time>
      </trkpt>
      <trkpt lat="46.01735" lon="10.92308">
        <ele>750.31</ele>
        <time>2022-09-18T08:05:23Z</time>
      </trkpt>
      <trkpt lat="46.01735" lon="10.92306">
        <ele>750.98</ele>
        <time>2022-09-18T08:05:25Z</time>
      </trkpt>
      <trkpt lat="46.01734" lon="10.92305">
        <ele>751.65</ele>
        <time>2022-09-18T08:05:27Z</time>
      </trkpt>
      <trkpt lat="46.01735" lon="10.92304">
        <ele>751.96</ele>
        <time>2022-09-18T08:05:29Z</time>
      </trkpt>
      <trkpt lat="46.01735" lon="10.92302">
        <ele>752.69</ele>
        <time>2022-09-18T08:05:31Z</time>
      </trkpt>
      <trkpt lat="46.01736" lon="10.92301">
        <ele>753.46</ele>
        <time>2022-09-18T08:05:32Z</time>
      </trkpt>
      <trkpt lat="46.01737" lon="10.923">
        <ele>754.74</ele>
        <time>2022-09-18T08:05:33Z</time>
      </trkpt>
      <trkpt lat="46.01738" lon="10.923">
        <ele>754</ele>
        <time>2022-09-18T08:05:35Z</time>
      </trkpt>
      <trkpt lat="46.01738" lon="10.92299">
        <ele>754.54</ele>
        <time>2022-09-18T08:05:38Z</time>
      </trkpt>
      <trkpt lat="46.01738" lon="10.92297">
        <ele>756.99</ele>
        <time>2022-09-18T08:05:40Z</time>
      </trkpt>
      <trkpt lat="46.01738" lon="10.92295">
        <ele>757.86</ele>
        <time>2022-09-18T08:05:43Z</time>
      </trkpt>
      <trkpt lat="46.01738" lon="10.92294">
        <ele>758.63</ele>
        <time>2022-09-18T08:05:45Z</time>
      </trkpt>
      <trkpt lat="46.01738" lon="10.92292">
        <ele>759.68</ele>
        <time>2022-09-18T08:05:47Z</time>
      </trkpt>
      <trkpt lat="46.01739" lon="10.9229">
        <ele>759.75</ele>
        <time>2022-09-18T08:05:49Z</time>
      </trkpt>
      <trkpt lat="46.0174" lon="10.92289">
        <ele>761.88</ele>
        <time>2022-09-18T08:05:52Z</time>
      </trkpt>
      <trkpt lat="46.01741" lon="10.92288">
        <ele>761.67</ele>
        <time>2022-09-18T08:05:54Z</time>
      </trkpt>
      <trkpt lat="46.01742" lon="10.92287">
        <ele>761.66</ele>
        <time>2022-09-18T08:05:56Z</time>
      </trkpt>
      <trkpt lat="46.01742" lon="10.92285">
        <ele>760.49</ele>
        <time>2022-09-18T08:05:58Z</time>
      </trkpt>
      <trkpt lat="46.01742" lon="10.92283">
        <ele>761.5</ele>
        <time>2022-09-18T08:06:00Z</time>
      </trkpt>
      <trkpt lat="46.01742" lon="10.92282">
        <ele>762.22</ele>
        <time>2022-09-18T08:06:02Z</time>
      </trkpt>
      <trkpt lat="46.01742" lon="10.9228">
        <ele>763.66</ele>
        <time>2022-09-18T08:06:04Z</time>
      </trkpt>
      <trkpt lat="46.01741" lon="10.92278">
        <ele>763.2</ele>
        <time>2022-09-18T08:06:06Z</time>
      </trkpt>
      <trkpt lat="46.01741" lon="10.92277">
        <ele>766.2</ele>
        <time>2022-09-18T08:06:08Z</time>
      </trkpt>
      <trkpt lat="46.01742" lon="10.92276">
        <ele>764.83</ele>
        <time>2022-09-18T08:06:11Z</time>
      </trkpt>
      <trkpt lat="46.01741" lon="10.92274">
        <ele>763.74</ele>
        <time>2022-09-18T08:06:13Z</time>
      </trkpt>
      <trkpt lat="46.01741" lon="10.92273">
        <ele>764.84</ele>
        <time>2022-09-18T08:06:16Z</time>
      </trkpt>
      <trkpt lat="46.01741" lon="10.92271">
        <ele>763.62</ele>
        <time>2022-09-18T08:06:18Z</time>
      </trkpt>
      <trkpt lat="46.01741" lon="10.92269">
        <ele>684.21</ele>
        <time>2022-09-18T08:06:21Z</time>
      </trkpt>
      <trkpt lat="46.0174" lon="10.92268">
        <ele>712.23</ele>
        <time>2022-09-18T08:06:23Z</time>
      </trkpt>
      <trkpt lat="46.0174" lon="10.92266">
        <ele>735.5</ele>
        <time>2022-09-18T08:06:26Z</time>
      </trkpt>
      <trkpt lat="46.0174" lon="10.92265">
        <ele>744.76</ele>
        <time>2022-09-18T08:06:28Z</time>
      </trkpt>
      <trkpt lat="46.01741" lon="10.92263">
        <ele>753.96</ele>
        <time>2022-09-18T08:06:31Z</time>
      </trkpt>
      <trkpt lat="46.0174" lon="10.92261">
        <ele>753.95</ele>
        <time>2022-09-18T08:06:33Z</time>
      </trkpt>
      <trkpt lat="46.01741" lon="10.92259">
        <ele>753.83</ele>
        <time>2022-09-18T08:06:35Z</time>
      </trkpt>
      <trkpt lat="46.01741" lon="10.92257">
        <ele>758.11</ele>
        <time>2022-09-18T08:06:38Z</time>
      </trkpt>
      <trkpt lat="46.0174" lon="10.92255">
        <ele>759.44</ele>
        <time>2022-09-18T08:06:40Z</time>
      </trkpt>
      <trkpt lat="46.01739" lon="10.92254">
        <ele>760.56</ele>
        <time>2022-09-18T08:06:42Z</time>
      </trkpt>
      <trkpt lat="46.01739" lon="10.92252">
        <ele>761.62</ele>
        <time>2022-09-18T08:06:44Z</time>
      </trkpt>
      <trkpt lat="46.01739" lon="10.92251">
        <ele>764.19</ele>
        <time>2022-09-18T08:06:47Z</time>
      </trkpt>
      <trkpt lat="46.01737" lon="10.92251">
        <ele>763.81</ele>
        <time>2022-09-18T08:06:49Z</time>
      </trkpt>
      <trkpt lat="46.01735" lon="10.92251">
        <ele>764.17</ele>
        <time>2022-09-18T08:06:51Z</time>
      </trkpt>
      <trkpt lat="46.01734" lon="10.9225">
        <ele>765</ele>
        <time>2022-09-18T08:06:52Z</time>
      </trkpt>
      <trkpt lat="46.01733" lon="10.9225">
        <ele>765.1</ele>
        <time>2022-09-18T08:06:53Z</time>
      </trkpt>
      <trkpt lat="46.01733" lon="10.9225">
        <ele>764.8</ele>
        <time>2022-09-18T08:06:54Z</time>
      </trkpt>
      <trkpt lat="46.01731" lon="10.92248">
        <ele>763.95</ele>
        <time>2022-09-18T08:06:56Z</time>
      </trkpt>
      <trkpt lat="46.01731" lon="10.92247">
        <ele>764.09</ele>
        <time>2022-09-18T08:06:58Z</time>
      </trkpt>
      <trkpt lat="46.01729" lon="10.92247">
        <ele>764.7</ele>
        <time>2022-09-18T08:07:00Z</time>
      </trkpt>
      <trkpt lat="46.01728" lon="10.92245">
        <ele>764.65</ele>
        <time>2022-09-18T08:07:02Z</time>
      </trkpt>
      <trkpt lat="46.01728" lon="10.92242">
        <ele>765.69</ele>
        <time>2022-09-18T08:07:04Z</time>
      </trkpt>
      <trkpt lat="46.01728" lon="10.9224">
        <ele>766.77</ele>
        <time>2022-09-18T08:07:06Z</time>
      </trkpt>
      <trkpt lat="46.01728" lon="10.92239">
        <ele>767.62</ele>
        <time>2022-09-18T08:07:07Z</time>
      </trkpt>
      <trkpt lat="46.01727" lon="10.92237">
        <ele>769.1</ele>
        <time>2022-09-18T08:07:09Z</time>
      </trkpt>
      <trkpt lat="46.01727" lon="10.92235">
        <ele>768.9</ele>
        <time>2022-09-18T08:07:10Z</time>
      </trkpt>
      <trkpt lat="46.01726" lon="10.92234">
        <ele>769.27</ele>
        <time>2022-09-18T08:07:12Z</time>
      </trkpt>
      <trkpt lat="46.01725" lon="10.92233">
        <ele>769.49</ele>
        <time>2022-09-18T08:07:13Z</time>
      </trkpt>
      <trkpt lat="46.01724" lon="10.92231">
        <ele>769.32</ele>
        <time>2022-09-18T08:07:15Z</time>
      </trkpt>
      <trkpt lat="46.01723" lon="10.92232">
        <ele>769.29</ele>
        <time>2022-09-18T08:07:16Z</time>
      </trkpt>
      <trkpt lat="46.01722" lon="10.92231">
        <ele>771.83</ele>
        <time>2022-09-18T08:07:18Z</time>
      </trkpt>
      <trkpt lat="46.01721" lon="10.92232">
        <ele>774.23</ele>
        <time>2022-09-18T08:07:20Z</time>
      </trkpt>
      <trkpt lat="46.01719" lon="10.92231">
        <ele>774.39</ele>
        <time>2022-09-18T08:07:22Z</time>
      </trkpt>
      <trkpt lat="46.01719" lon="10.9223">
        <ele>774.87</ele>
        <time>2022-09-18T08:07:24Z</time>
      </trkpt>
      <trkpt lat="46.01717" lon="10.9223">
        <ele>774.96</ele>
        <time>2022-09-18T08:07:26Z</time>
      </trkpt>
      <trkpt lat="46.01716" lon="10.92229">
        <ele>775.26</ele>
        <time>2022-09-18T08:07:28Z</time>
      </trkpt>
      <trkpt lat="46.01714" lon="10.92227">
        <ele>775.6</ele>
        <time>2022-09-18T08:07:30Z</time>
      </trkpt>
      <trkpt lat="46.01714" lon="10.92226">
        <ele>774.27</ele>
        <time>2022-09-18T08:07:31Z</time>
      </trkpt>
      <trkpt lat="46.01713" lon="10.92224">
        <ele>775.84</ele>
        <time>2022-09-18T08:07:32Z</time>
      </trkpt>
      <trkpt lat="46.01713" lon="10.92223">
        <ele>777.4</ele>
        <time>2022-09-18T08:07:33Z</time>
      </trkpt>
      <trkpt lat="46.01712" lon="10.92221">
        <ele>776.86</ele>
        <time>2022-09-18T08:07:34Z</time>
      </trkpt>
      <trkpt lat="46.01712" lon="10.92219">
        <ele>775.89</ele>
        <time>2022-09-18T08:07:35Z</time>
      </trkpt>
      <trkpt lat="46.01712" lon="10.92218">
        <ele>776.5</ele>
        <time>2022-09-18T08:07:36Z</time>
      </trkpt>
      <trkpt lat="46.01711" lon="10.92216">
        <ele>776.97</ele>
        <time>2022-09-18T08:07:37Z</time>
      </trkpt>
      <trkpt lat="46.01711" lon="10.92215">
        <ele>777.58</ele>
        <time>2022-09-18T08:07:38Z</time>
      </trkpt>
      <trkpt lat="46.01711" lon="10.92213">
        <ele>779.59</ele>
        <time>2022-09-18T08:07:39Z</time>
      </trkpt>
      <trkpt lat="46.01711" lon="10.92212">
        <ele>780.86</ele>
        <time>2022-09-18T08:07:40Z</time>
      </trkpt>
      <trkpt lat="46.01712" lon="10.9221">
        <ele>781.78</ele>
        <time>2022-09-18T08:07:41Z</time>
      </trkpt>
      <trkpt lat="46.01712" lon="10.92208">
        <ele>782.36</ele>
        <time>2022-09-18T08:07:42Z</time>
      </trkpt>
      <trkpt lat="46.01712" lon="10.92207">
        <ele>784.33</ele>
        <time>2022-09-18T08:07:43Z</time>
      </trkpt>
      <trkpt lat="46.01712" lon="10.92205">
        <ele>784.27</ele>
        <time>2022-09-18T08:07:45Z</time>
      </trkpt>
      <trkpt lat="46.01712" lon="10.92203">
        <ele>782.71</ele>
        <time>2022-09-18T08:07:46Z</time>
      </trkpt>
      <trkpt lat="46.01713" lon="10.92202">
        <ele>782.96</ele>
        <time>2022-09-18T08:07:47Z</time>
      </trkpt>
      <trkpt lat="46.01713" lon="10.92201">
        <ele>782.61</ele>
        <time>2022-09-18T08:07:48Z</time>
      </trkpt>
      <trkpt lat="46.01712" lon="10.92199">
        <ele>783.24</ele>
        <time>2022-09-18T08:07:50Z</time>
      </trkpt>
      <trkpt lat="46.01711" lon="10.92198">
        <ele>782.75</ele>
        <time>2022-09-18T08:07:53Z</time>
      </trkpt>
      <trkpt lat="46.01712" lon="10.92197">
        <ele>782.3</ele>
        <time>2022-09-18T08:07:57Z</time>
      </trkpt>
      <trkpt lat="46.01712" lon="10.92195">
        <ele>783.58</ele>
        <time>2022-09-18T08:07:59Z</time>
      </trkpt>
      <trkpt lat="46.01712" lon="10.92194">
        <ele>783.33</ele>
        <time>2022-09-18T08:08:01Z</time>
      </trkpt>
      <trkpt lat="46.01711" lon="10.92191">
        <ele>783.91</ele>
        <time>2022-09-18T08:08:04Z</time>
      </trkpt>
      <trkpt lat="46.01713" lon="10.92189">
        <ele>784.17</ele>
        <time>2022-09-18T08:08:06Z</time>
      </trkpt>
      <trkpt lat="46.01713" lon="10.92188">
        <ele>783.48</ele>
        <time>2022-09-18T08:08:07Z</time>
      </trkpt>
      <trkpt lat="46.01713" lon="10.92187">
        <ele>783.48</ele>
        <time>2022-09-18T08:08:08Z</time>
      </trkpt>
      <trkpt lat="46.01713" lon="10.92185">
        <ele>783.48</ele>
        <time>2022-09-18T08:08:09Z</time>
      </trkpt>
      <trkpt lat="46.01713" lon="10.92184">
        <ele>783.5</ele>
        <time>2022-09-18T08:08:10Z</time>
      </trkpt>
      <trkpt lat="46.01714" lon="10.92182">
        <ele>783.46</ele>
        <time>2022-09-18T08:08:11Z</time>
      </trkpt>
      <trkpt lat="46.01715" lon="10.92182">
        <ele>782.46</ele>
        <time>2022-09-18T08:08:12Z</time>
      </trkpt>
      <trkpt lat="46.01717" lon="10.92182">
        <ele>783.76</ele>
        <time>2022-09-18T08:08:13Z</time>
      </trkpt>
      <trkpt lat="46.01718" lon="10.92181">
        <ele>785.21</ele>
        <time>2022-09-18T08:08:21Z</time>
      </trkpt>
      <trkpt lat="46.01718" lon="10.92179">
        <ele>785.15</ele>
        <time>2022-09-18T08:08:23Z</time>
      </trkpt>
      <trkpt lat="46.01718" lon="10.92177">
        <ele>786.51</ele>
        <time>2022-09-18T08:08:25Z</time>
      </trkpt>
      <trkpt lat="46.01718" lon="10.92175">
        <ele>787</ele>
        <time>2022-09-18T08:08:27Z</time>
      </trkpt>
      <trkpt lat="46.01718" lon="10.92173">
        <ele>788.64</ele>
        <time>2022-09-18T08:08:30Z</time>
      </trkpt>
      <trkpt lat="46.01718" lon="10.92172">
        <ele>789.73</ele>
        <time>2022-09-18T08:08:32Z</time>
      </trkpt>
      <trkpt lat="46.01718" lon="10.9217">
        <ele>789.5</ele>
        <time>2022-09-18T08:08:34Z</time>
      </trkpt>
      <trkpt lat="46.01718" lon="10.92168">
        <ele>789.42</ele>
        <time>2022-09-18T08:08:36Z</time>
      </trkpt>
      <trkpt lat="46.01718" lon="10.92166">
        <ele>789.26</ele>
        <time>2022-09-18T08:08:38Z</time>
      </trkpt>
      <trkpt lat="46.01718" lon="10.92165">
        <ele>789.25</ele>
        <time>2022-09-18T08:08:39Z</time>
      </trkpt>
      <trkpt lat="46.01718" lon="10.92163">
        <ele>789.75</ele>
        <time>2022-09-18T08:08:41Z</time>
      </trkpt>
      <trkpt lat="46.01718" lon="10.92161">
        <ele>790</ele>
        <time>2022-09-18T08:08:42Z</time>
      </trkpt>
      <trkpt lat="46.01717" lon="10.9216">
        <ele>789.25</ele>
        <time>2022-09-18T08:08:43Z</time>
      </trkpt>
      <trkpt lat="46.01717" lon="10.92159">
        <ele>788.15</ele>
        <time>2022-09-18T08:08:44Z</time>
      </trkpt>
      <trkpt lat="46.01715" lon="10.92157">
        <ele>788.12</ele>
        <time>2022-09-18T08:08:45Z</time>
      </trkpt>
      <trkpt lat="46.01715" lon="10.92156">
        <ele>788.63</ele>
        <time>2022-09-18T08:08:46Z</time>
      </trkpt>
      <trkpt lat="46.01714" lon="10.92154">
        <ele>787.86</ele>
        <time>2022-09-18T08:08:48Z</time>
      </trkpt>
      <trkpt lat="46.01713" lon="10.92153">
        <ele>787.84</ele>
        <time>2022-09-18T08:08:49Z</time>
      </trkpt>
      <trkpt lat="46.01713" lon="10.92152">
        <ele>787.04</ele>
        <time>2022-09-18T08:08:50Z</time>
      </trkpt>
      <trkpt lat="46.01712" lon="10.92151">
        <ele>786.27</ele>
        <time>2022-09-18T08:08:51Z</time>
      </trkpt>
      <trkpt lat="46.01711" lon="10.92151">
        <ele>786.61</ele>
        <time>2022-09-18T08:08:52Z</time>
      </trkpt>
      <trkpt lat="46.0171" lon="10.9215">
        <ele>786.81</ele>
        <time>2022-09-18T08:08:53Z</time>
      </trkpt>
      <trkpt lat="46.01709" lon="10.9215">
        <ele>787.97</ele>
        <time>2022-09-18T08:08:54Z</time>
      </trkpt>
      <trkpt lat="46.01708" lon="10.9215">
        <ele>789.76</ele>
        <time>2022-09-18T08:08:55Z</time>
      </trkpt>
      <trkpt lat="46.01707" lon="10.9215">
        <ele>790.28</ele>
        <time>2022-09-18T08:08:56Z</time>
      </trkpt>
      <trkpt lat="46.01705" lon="10.92149">
        <ele>787.8</ele>
        <time>2022-09-18T08:08:58Z</time>
      </trkpt>
      <trkpt lat="46.01704" lon="10.92149">
        <ele>787.36</ele>
        <time>2022-09-18T08:09:00Z</time>
      </trkpt>
      <trkpt lat="46.01703" lon="10.92148">
        <ele>787.64</ele>
        <time>2022-09-18T08:09:02Z</time>
      </trkpt>
      <trkpt lat="46.01702" lon="10.92147">
        <ele>787.61</ele>
        <time>2022-09-18T08:09:04Z</time>
      </trkpt>
      <trkpt lat="46.01701" lon="10.92146">
        <ele>790.17</ele>
        <time>2022-09-18T08:09:06Z</time>
      </trkpt>
      <trkpt lat="46.01701" lon="10.92144">
        <ele>788.73</ele>
        <time>2022-09-18T08:09:07Z</time>
      </trkpt>
      <trkpt lat="46.01701" lon="10.92143">
        <ele>789.43</ele>
        <time>2022-09-18T08:09:08Z</time>
      </trkpt>
      <trkpt lat="46.01701" lon="10.92141">
        <ele>792.74</ele>
        <time>2022-09-18T08:09:10Z</time>
      </trkpt>
      <trkpt lat="46.01702" lon="10.9214">
        <ele>792.56</ele>
        <time>2022-09-18T08:09:11Z</time>
      </trkpt>
      <trkpt lat="46.01704" lon="10.9214">
        <ele>795.7</ele>
        <time>2022-09-18T08:09:13Z</time>
      </trkpt>
      <trkpt lat="46.01705" lon="10.92139">
        <ele>796.02</ele>
        <time>2022-09-18T08:09:14Z</time>
      </trkpt>
      <trkpt lat="46.01706" lon="10.92137">
        <ele>796.91</ele>
        <time>2022-09-18T08:09:15Z</time>
      </trkpt>
      <trkpt lat="46.01707" lon="10.92136">
        <ele>796.14</ele>
        <time>2022-09-18T08:09:16Z</time>
      </trkpt>
      <trkpt lat="46.01708" lon="10.92134">
        <ele>796.09</ele>
        <time>2022-09-18T08:09:17Z</time>
      </trkpt>
      <trkpt lat="46.01708" lon="10.92133">
        <ele>796.47</ele>
        <time>2022-09-18T08:09:18Z</time>
      </trkpt>
      <trkpt lat="46.01709" lon="10.92132">
        <ele>796.87</ele>
        <time>2022-09-18T08:09:20Z</time>
      </trkpt>
      <trkpt lat="46.01709" lon="10.9213">
        <ele>796.95</ele>
        <time>2022-09-18T08:09:22Z</time>
      </trkpt>
      <trkpt lat="46.01709" lon="10.92128">
        <ele>794.93</ele>
        <time>2022-09-18T08:09:24Z</time>
      </trkpt>
      <trkpt lat="46.01709" lon="10.92127">
        <ele>796.11</ele>
        <time>2022-09-18T08:09:26Z</time>
      </trkpt>
      <trkpt lat="46.01709" lon="10.92125">
        <ele>795.2</ele>
        <time>2022-09-18T08:09:27Z</time>
      </trkpt>
      <trkpt lat="46.01709" lon="10.92123">
        <ele>795.19</ele>
        <time>2022-09-18T08:09:28Z</time>
      </trkpt>
      <trkpt lat="46.01708" lon="10.92121">
        <ele>795.2</ele>
        <time>2022-09-18T08:09:30Z</time>
      </trkpt>
      <trkpt lat="46.01709" lon="10.92119">
        <ele>796.73</ele>
        <time>2022-09-18T08:09:32Z</time>
      </trkpt>
      <trkpt lat="46.01709" lon="10.92117">
        <ele>794.6</ele>
        <time>2022-09-18T08:09:34Z</time>
      </trkpt>
      <trkpt lat="46.0171" lon="10.92115">
        <ele>794.67</ele>
        <time>2022-09-18T08:09:36Z</time>
      </trkpt>
      <trkpt lat="46.0171" lon="10.92113">
        <ele>796.32</ele>
        <time>2022-09-18T08:09:37Z</time>
      </trkpt>
      <trkpt lat="46.0171" lon="10.92112">
        <ele>796.13</ele>
        <time>2022-09-18T08:09:38Z</time>
      </trkpt>
      <trkpt lat="46.01711" lon="10.9211">
        <ele>798.39</ele>
        <time>2022-09-18T08:09:39Z</time>
      </trkpt>
      <trkpt lat="46.01711" lon="10.92108">
        <ele>799.97</ele>
        <time>2022-09-18T08:09:40Z</time>
      </trkpt>
      <trkpt lat="46.01711" lon="10.92107">
        <ele>800.17</ele>
        <time>2022-09-18T08:09:41Z</time>
      </trkpt>
      <trkpt lat="46.01711" lon="10.92105">
        <ele>800.29</ele>
        <time>2022-09-18T08:09:42Z</time>
      </trkpt>
      <trkpt lat="46.01711" lon="10.92103">
        <ele>800.84</ele>
        <time>2022-09-18T08:09:43Z</time>
      </trkpt>
      <trkpt lat="46.01711" lon="10.92101">
        <ele>800.96</ele>
        <time>2022-09-18T08:09:44Z</time>
      </trkpt>
      <trkpt lat="46.01711" lon="10.92099">
        <ele>800.92</ele>
        <time>2022-09-18T08:09:45Z</time>
      </trkpt>
      <trkpt lat="46.01711" lon="10.92098">
        <ele>800.48</ele>
        <time>2022-09-18T08:09:46Z</time>
      </trkpt>
      <trkpt lat="46.01712" lon="10.92096">
        <ele>800.33</ele>
        <time>2022-09-18T08:09:48Z</time>
      </trkpt>
      <trkpt lat="46.01712" lon="10.92094">
        <ele>800.73</ele>
        <time>2022-09-18T08:09:50Z</time>
      </trkpt>
      <trkpt lat="46.01712" lon="10.92093">
        <ele>800.75</ele>
        <time>2022-09-18T08:09:51Z</time>
      </trkpt>
      <trkpt lat="46.01711" lon="10.92091">
        <ele>802.06</ele>
        <time>2022-09-18T08:09:52Z</time>
      </trkpt>
      <trkpt lat="46.01711" lon="10.9209">
        <ele>801.55</ele>
        <time>2022-09-18T08:09:53Z</time>
      </trkpt>
      <trkpt lat="46.0171" lon="10.92089">
        <ele>801.85</ele>
        <time>2022-09-18T08:09:54Z</time>
      </trkpt>
      <trkpt lat="46.01709" lon="10.92087">
        <ele>802.33</ele>
        <time>2022-09-18T08:09:56Z</time>
      </trkpt>
      <trkpt lat="46.01709" lon="10.92086">
        <ele>802.4</ele>
        <time>2022-09-18T08:09:59Z</time>
      </trkpt>
      <trkpt lat="46.01708" lon="10.92084">
        <ele>802.93</ele>
        <time>2022-09-18T08:10:01Z</time>
      </trkpt>
      <trkpt lat="46.01708" lon="10.92083">
        <ele>803.91</ele>
        <time>2022-09-18T08:10:06Z</time>
      </trkpt>
      <trkpt lat="46.01708" lon="10.92082">
        <ele>804.02</ele>
        <time>2022-09-18T08:10:07Z</time>
      </trkpt>
      <trkpt lat="46.01709" lon="10.92081">
        <ele>803.56</ele>
        <time>2022-09-18T08:10:08Z</time>
      </trkpt>
      <trkpt lat="46.0171" lon="10.92079">
        <ele>803.32</ele>
        <time>2022-09-18T08:10:10Z</time>
      </trkpt>
      <trkpt lat="46.01711" lon="10.92076">
        <ele>803.36</ele>
        <time>2022-09-18T08:10:12Z</time>
      </trkpt>
      <trkpt lat="46.01711" lon="10.92074">
        <ele>803.41</ele>
        <time>2022-09-18T08:10:14Z</time>
      </trkpt>
      <trkpt lat="46.01711" lon="10.92073">
        <ele>804.79</ele>
        <time>2022-09-18T08:10:15Z</time>
      </trkpt>
      <trkpt lat="46.0171" lon="10.92072">
        <ele>806.35</ele>
        <time>2022-09-18T08:10:17Z</time>
      </trkpt>
      <trkpt lat="46.01708" lon="10.9207">
        <ele>807.18</ele>
        <time>2022-09-18T08:10:19Z</time>
      </trkpt>
      <trkpt lat="46.01708" lon="10.92069">
        <ele>808.41</ele>
        <time>2022-09-18T08:10:20Z</time>
      </trkpt>
      <trkpt lat="46.01708" lon="10.92067">
        <ele>809.65</ele>
        <time>2022-09-18T08:10:21Z</time>
      </trkpt>
      <trkpt lat="46.01709" lon="10.92065">
        <ele>808.36</ele>
        <time>2022-09-18T08:10:23Z</time>
      </trkpt>
      <trkpt lat="46.01709" lon="10.92063">
        <ele>809.39</ele>
        <time>2022-09-18T08:10:24Z</time>
      </trkpt>
      <trkpt lat="46.01709" lon="10.92061">
        <ele>808.94</ele>
        <time>2022-09-18T08:10:25Z</time>
      </trkpt>
      <trkpt lat="46.0171" lon="10.9206">
        <ele>810.43</ele>
        <time>2022-09-18T08:10:26Z</time>
      </trkpt>
      <trkpt lat="46.01711" lon="10.92058">
        <ele>812.08</ele>
        <time>2022-09-18T08:10:27Z</time>
      </trkpt>
      <trkpt lat="46.01711" lon="10.92057">
        <ele>811.44</ele>
        <time>2022-09-18T08:10:28Z</time>
      </trkpt>
      <trkpt lat="46.01712" lon="10.92056">
        <ele>811.34</ele>
        <time>2022-09-18T08:10:29Z</time>
      </trkpt>
      <trkpt lat="46.01713" lon="10.92055">
        <ele>812.65</ele>
        <time>2022-09-18T08:10:31Z</time>
      </trkpt>
      <trkpt lat="46.01713" lon="10.92054">
        <ele>814.37</ele>
        <time>2022-09-18T08:10:34Z</time>
      </trkpt>
      <trkpt lat="46.01714" lon="10.92052">
        <ele>815.2</ele>
        <time>2022-09-18T08:10:37Z</time>
      </trkpt>
      <trkpt lat="46.01715" lon="10.92052">
        <ele>816.25</ele>
        <time>2022-09-18T08:10:39Z</time>
      </trkpt>
      <trkpt lat="46.01716" lon="10.92051">
        <ele>817.53</ele>
        <time>2022-09-18T08:10:41Z</time>
      </trkpt>
      <trkpt lat="46.01717" lon="10.92049">
        <ele>818.23</ele>
        <time>2022-09-18T08:10:44Z</time>
      </trkpt>
      <trkpt lat="46.01717" lon="10.92048">
        <ele>815.92</ele>
        <time>2022-09-18T08:10:47Z</time>
      </trkpt>
      <trkpt lat="46.01718" lon="10.92046">
        <ele>816.54</ele>
        <time>2022-09-18T08:10:49Z</time>
      </trkpt>
      <trkpt lat="46.01719" lon="10.92045">
        <ele>817.98</ele>
        <time>2022-09-18T08:10:51Z</time>
      </trkpt>
      <trkpt lat="46.0172" lon="10.92044">
        <ele>818.11</ele>
        <time>2022-09-18T08:10:53Z</time>
      </trkpt>
      <trkpt lat="46.01721" lon="10.92043">
        <ele>818.14</ele>
        <time>2022-09-18T08:10:55Z</time>
      </trkpt>
      <trkpt lat="46.01722" lon="10.92041">
        <ele>818.09</ele>
        <time>2022-09-18T08:10:57Z</time>
      </trkpt>
      <trkpt lat="46.01722" lon="10.92039">
        <ele>819.62</ele>
        <time>2022-09-18T08:11:01Z</time>
      </trkpt>
      <trkpt lat="46.01723" lon="10.92039">
        <ele>819.9</ele>
        <time>2022-09-18T08:11:02Z</time>
      </trkpt>
      <trkpt lat="46.01725" lon="10.92039">
        <ele>822.16</ele>
        <time>2022-09-18T08:11:04Z</time>
      </trkpt>
      <trkpt lat="46.01726" lon="10.92039">
        <ele>824.36</ele>
        <time>2022-09-18T08:11:06Z</time>
      </trkpt>
      <trkpt lat="46.01727" lon="10.92038">
        <ele>825.68</ele>
        <time>2022-09-18T08:11:08Z</time>
      </trkpt>
      <trkpt lat="46.01728" lon="10.92037">
        <ele>825.75</ele>
        <time>2022-09-18T08:11:10Z</time>
      </trkpt>
      <trkpt lat="46.01728" lon="10.92036">
        <ele>829.91</ele>
        <time>2022-09-18T08:11:13Z</time>
      </trkpt>
      <trkpt lat="46.01729" lon="10.92035">
        <ele>830.37</ele>
        <time>2022-09-18T08:11:16Z</time>
      </trkpt>
      <trkpt lat="46.0173" lon="10.92034">
        <ele>831.19</ele>
        <time>2022-09-18T08:11:18Z</time>
      </trkpt>
      <trkpt lat="46.01732" lon="10.92034">
        <ele>835.18</ele>
        <time>2022-09-18T08:11:21Z</time>
      </trkpt>
      <trkpt lat="46.01732" lon="10.92033">
        <ele>831.24</ele>
        <time>2022-09-18T08:11:26Z</time>
      </trkpt>
      <trkpt lat="46.01733" lon="10.92032">
        <ele>831.66</ele>
        <time>2022-09-18T08:11:29Z</time>
      </trkpt>
      <trkpt lat="46.01735" lon="10.92031">
        <ele>830.77</ele>
        <time>2022-09-18T08:11:31Z</time>
      </trkpt>
      <trkpt lat="46.01736" lon="10.9203">
        <ele>830.37</ele>
        <time>2022-09-18T08:11:32Z</time>
      </trkpt>
      <trkpt lat="46.01737" lon="10.92029">
        <ele>829.23</ele>
        <time>2022-09-18T08:11:33Z</time>
      </trkpt>
      <trkpt lat="46.01739" lon="10.92026">
        <ele>829.76</ele>
        <time>2022-09-18T08:11:35Z</time>
      </trkpt>
      <trkpt lat="46.0174" lon="10.92025">
        <ele>830.03</ele>
        <time>2022-09-18T08:11:36Z</time>
      </trkpt>
      <trkpt lat="46.01741" lon="10.92025">
        <ele>830.43</ele>
        <time>2022-09-18T08:11:37Z</time>
      </trkpt>
      <trkpt lat="46.01742" lon="10.92024">
        <ele>830.52</ele>
        <time>2022-09-18T08:11:38Z</time>
      </trkpt>
      <trkpt lat="46.01743" lon="10.92023">
        <ele>830.23</ele>
        <time>2022-09-18T08:11:39Z</time>
      </trkpt>
      <trkpt lat="46.01744" lon="10.92022">
        <ele>830.77</ele>
        <time>2022-09-18T08:11:40Z</time>
      </trkpt>
      <trkpt lat="46.01745" lon="10.92021">
        <ele>830.56</ele>
        <time>2022-09-18T08:11:41Z</time>
      </trkpt>
      <trkpt lat="46.01746" lon="10.9202">
        <ele>830.81</ele>
        <time>2022-09-18T08:11:42Z</time>
      </trkpt>
      <trkpt lat="46.01747" lon="10.92018">
        <ele>830.79</ele>
        <time>2022-09-18T08:11:44Z</time>
      </trkpt>
      <trkpt lat="46.01748" lon="10.92016">
        <ele>830.91</ele>
        <time>2022-09-18T08:11:46Z</time>
      </trkpt>
      <trkpt lat="46.01748" lon="10.92014">
        <ele>830.96</ele>
        <time>2022-09-18T08:11:48Z</time>
      </trkpt>
      <trkpt lat="46.01749" lon="10.92012">
        <ele>831</ele>
        <time>2022-09-18T08:11:50Z</time>
      </trkpt>
      <trkpt lat="46.0175" lon="10.92011">
        <ele>831.06</ele>
        <time>2022-09-18T08:11:52Z</time>
      </trkpt>
      <trkpt lat="46.01751" lon="10.9201">
        <ele>831.1</ele>
        <time>2022-09-18T08:11:54Z</time>
      </trkpt>
      <trkpt lat="46.01752" lon="10.92009">
        <ele>835.15</ele>
        <time>2022-09-18T08:11:55Z</time>
      </trkpt>
      <trkpt lat="46.01753" lon="10.92007">
        <ele>837.18</ele>
        <time>2022-09-18T08:11:56Z</time>
      </trkpt>
      <trkpt lat="46.01753" lon="10.92005">
        <ele>837.91</ele>
        <time>2022-09-18T08:11:58Z</time>
      </trkpt>
      <trkpt lat="46.01753" lon="10.92003">
        <ele>836.02</ele>
        <time>2022-09-18T08:11:59Z</time>
      </trkpt>
      <trkpt lat="46.01753" lon="10.92001">
        <ele>836.6</ele>
        <time>2022-09-18T08:12:00Z</time>
      </trkpt>
      <trkpt lat="46.01752" lon="10.91999">
        <ele>639.27</ele>
        <time>2022-09-18T08:12:02Z</time>
      </trkpt>
      <trkpt lat="46.01752" lon="10.91998">
        <ele>725.62</ele>
        <time>2022-09-18T08:12:04Z</time>
      </trkpt>
      <trkpt lat="46.01752" lon="10.91996">
        <ele>776.32</ele>
        <time>2022-09-18T08:12:06Z</time>
      </trkpt>
      <trkpt lat="46.01751" lon="10.91997">
        <ele>792.88</ele>
        <time>2022-09-18T08:12:07Z</time>
      </trkpt>
      <trkpt lat="46.01751" lon="10.91995">
        <ele>809.53</ele>
        <time>2022-09-18T08:12:10Z</time>
      </trkpt>
      <trkpt lat="46.01751" lon="10.91994">
        <ele>816.78</ele>
        <time>2022-09-18T08:12:12Z</time>
      </trkpt>
      <trkpt lat="46.0175" lon="10.91992">
        <ele>824.39</ele>
        <time>2022-09-18T08:12:15Z</time>
      </trkpt>
      <trkpt lat="46.01749" lon="10.91991">
        <ele>827.71</ele>
        <time>2022-09-18T08:12:16Z</time>
      </trkpt>
      <trkpt lat="46.01749" lon="10.9199">
        <ele>830.4</ele>
        <time>2022-09-18T08:12:17Z</time>
      </trkpt>
      <trkpt lat="46.01748" lon="10.91989">
        <ele>832.97</ele>
        <time>2022-09-18T08:12:18Z</time>
      </trkpt>
      <trkpt lat="46.01748" lon="10.91987">
        <ele>833.97</ele>
        <time>2022-09-18T08:12:20Z</time>
      </trkpt>
      <trkpt lat="46.01748" lon="10.91985">
        <ele>835.36</ele>
        <time>2022-09-18T08:12:23Z</time>
      </trkpt>
      <trkpt lat="46.0175" lon="10.91986">
        <ele>833.45</ele>
        <time>2022-09-18T08:12:25Z</time>
      </trkpt>
      <trkpt lat="46.01751" lon="10.91986">
        <ele>835.46</ele>
        <time>2022-09-18T08:12:26Z</time>
      </trkpt>
      <trkpt lat="46.01752" lon="10.91985">
        <ele>836.25</ele>
        <time>2022-09-18T08:12:27Z</time>
      </trkpt>
      <trkpt lat="46.01753" lon="10.91985">
        <ele>836.07</ele>
        <time>2022-09-18T08:12:28Z</time>
      </trkpt>
      <trkpt lat="46.01754" lon="10.91986">
        <ele>837.17</ele>
        <time>2022-09-18T08:12:30Z</time>
      </trkpt>
      <trkpt lat="46.01755" lon="10.91986">
        <ele>836.99</ele>
        <time>2022-09-18T08:12:31Z</time>
      </trkpt>
      <trkpt lat="46.01756" lon="10.91987">
        <ele>837.84</ele>
        <time>2022-09-18T08:12:32Z</time>
      </trkpt>
      <trkpt lat="46.01757" lon="10.91988">
        <ele>838.46</ele>
        <time>2022-09-18T08:12:33Z</time>
      </trkpt>
      <trkpt lat="46.01758" lon="10.91989">
        <ele>839.38</ele>
        <time>2022-09-18T08:12:34Z</time>
      </trkpt>
      <trkpt lat="46.01759" lon="10.9199">
        <ele>839.73</ele>
        <time>2022-09-18T08:12:35Z</time>
      </trkpt>
      <trkpt lat="46.0176" lon="10.91991">
        <ele>840.02</ele>
        <time>2022-09-18T08:12:36Z</time>
      </trkpt>
      <trkpt lat="46.01761" lon="10.91991">
        <ele>838.94</ele>
        <time>2022-09-18T08:12:37Z</time>
      </trkpt>
      <trkpt lat="46.01763" lon="10.91992">
        <ele>838.03</ele>
        <time>2022-09-18T08:12:38Z</time>
      </trkpt>
      <trkpt lat="46.01764" lon="10.91993">
        <ele>838.17</ele>
        <time>2022-09-18T08:12:39Z</time>
      </trkpt>
      <trkpt lat="46.01765" lon="10.91993">
        <ele>838.67</ele>
        <time>2022-09-18T08:12:40Z</time>
      </trkpt>
      <trkpt lat="46.01766" lon="10.91993">
        <ele>838.82</ele>
        <time>2022-09-18T08:12:41Z</time>
      </trkpt>
      <trkpt lat="46.01767" lon="10.91994">
        <ele>839.14</ele>
        <time>2022-09-18T08:12:42Z</time>
      </trkpt>
      <trkpt lat="46.01768" lon="10.91995">
        <ele>839.23</ele>
        <time>2022-09-18T08:12:43Z</time>
      </trkpt>
      <trkpt lat="46.0177" lon="10.91995">
        <ele>839.48</ele>
        <time>2022-09-18T08:12:44Z</time>
      </trkpt>
      <trkpt lat="46.01771" lon="10.91996">
        <ele>839.72</ele>
        <time>2022-09-18T08:12:46Z</time>
      </trkpt>
      <trkpt lat="46.01772" lon="10.91996">
        <ele>840.11</ele>
        <time>2022-09-18T08:12:47Z</time>
      </trkpt>
      <trkpt lat="46.01773" lon="10.91997">
        <ele>840.93</ele>
        <time>2022-09-18T08:12:48Z</time>
      </trkpt>
      <trkpt lat="46.01774" lon="10.91998">
        <ele>841.31</ele>
        <time>2022-09-18T08:12:49Z</time>
      </trkpt>
      <trkpt lat="46.01775" lon="10.91999">
        <ele>839.74</ele>
        <time>2022-09-18T08:12:50Z</time>
      </trkpt>
      <trkpt lat="46.01776" lon="10.92">
        <ele>839.99</ele>
        <time>2022-09-18T08:12:51Z</time>
      </trkpt>
      <trkpt lat="46.01777" lon="10.92001">
        <ele>841.08</ele>
        <time>2022-09-18T08:12:52Z</time>
      </trkpt>
      <trkpt lat="46.01778" lon="10.92002">
        <ele>841.6</ele>
        <time>2022-09-18T08:12:53Z</time>
      </trkpt>
      <trkpt lat="46.01779" lon="10.92003">
        <ele>841.4</ele>
        <time>2022-09-18T08:12:54Z</time>
      </trkpt>
      <trkpt lat="46.01781" lon="10.92004">
        <ele>842.15</ele>
        <time>2022-09-18T08:12:55Z</time>
      </trkpt>
      <trkpt lat="46.01782" lon="10.92005">
        <ele>842.4</ele>
        <time>2022-09-18T08:12:56Z</time>
      </trkpt>
      <trkpt lat="46.01783" lon="10.92005">
        <ele>842.15</ele>
        <time>2022-09-18T08:12:57Z</time>
      </trkpt>
      <trkpt lat="46.01784" lon="10.92006">
        <ele>841.43</ele>
        <time>2022-09-18T08:12:58Z</time>
      </trkpt>
      <trkpt lat="46.01785" lon="10.92007">
        <ele>841.71</ele>
        <time>2022-09-18T08:12:59Z</time>
      </trkpt>
      <trkpt lat="46.01786" lon="10.92008">
        <ele>841.95</ele>
        <time>2022-09-18T08:13:00Z</time>
      </trkpt>
      <trkpt lat="46.01787" lon="10.92008">
        <ele>841.9</ele>
        <time>2022-09-18T08:13:01Z</time>
      </trkpt>
      <trkpt lat="46.01788" lon="10.92009">
        <ele>841.99</ele>
        <time>2022-09-18T08:13:02Z</time>
      </trkpt>
      <trkpt lat="46.01789" lon="10.9201">
        <ele>841.21</ele>
        <time>2022-09-18T08:13:03Z</time>
      </trkpt>
      <trkpt lat="46.01791" lon="10.92011">
        <ele>841.59</ele>
        <time>2022-09-18T08:13:04Z</time>
      </trkpt>
      <trkpt lat="46.01792" lon="10.92012">
        <ele>842.3</ele>
        <time>2022-09-18T08:13:05Z</time>
      </trkpt>
      <trkpt lat="46.01793" lon="10.92013">
        <ele>843.8</ele>
        <time>2022-09-18T08:13:06Z</time>
      </trkpt>
      <trkpt lat="46.01794" lon="10.92014">
        <ele>842.73</ele>
        <time>2022-09-18T08:13:07Z</time>
      </trkpt>
      <trkpt lat="46.01796" lon="10.92015">
        <ele>843.28</ele>
        <time>2022-09-18T08:13:08Z</time>
      </trkpt>
      <trkpt lat="46.01797" lon="10.92016">
        <ele>843.48</ele>
        <time>2022-09-18T08:13:09Z</time>
      </trkpt>
      <trkpt lat="46.01797" lon="10.92018">
        <ele>843.36</ele>
        <time>2022-09-18T08:13:10Z</time>
      </trkpt>
      <trkpt lat="46.01798" lon="10.92018">
        <ele>843.12</ele>
        <time>2022-09-18T08:13:11Z</time>
      </trkpt>
      <trkpt lat="46.018" lon="10.92019">
        <ele>842.68</ele>
        <time>2022-09-18T08:13:13Z</time>
      </trkpt>
      <trkpt lat="46.018" lon="10.92018">
        <ele>842.8</ele>
        <time>2022-09-18T08:13:15Z</time>
      </trkpt>
      <trkpt lat="46.01799" lon="10.92015">
        <ele>843.93</ele>
        <time>2022-09-18T08:13:17Z</time>
      </trkpt>
      <trkpt lat="46.01798" lon="10.92014">
        <ele>843.03</ele>
        <time>2022-09-18T08:13:18Z</time>
      </trkpt>
      <trkpt lat="46.01798" lon="10.92013">
        <ele>843.46</ele>
        <time>2022-09-18T08:13:19Z</time>
      </trkpt>
      <trkpt lat="46.01797" lon="10.92011">
        <ele>843.97</ele>
        <time>2022-09-18T08:13:20Z</time>
      </trkpt>
      <trkpt lat="46.01797" lon="10.92009">
        <ele>843.69</ele>
        <time>2022-09-18T08:13:22Z</time>
      </trkpt>
      <trkpt lat="46.01796" lon="10.92007">
        <ele>844.89</ele>
        <time>2022-09-18T08:13:24Z</time>
      </trkpt>
      <trkpt lat="46.01795" lon="10.92006">
        <ele>844.81</ele>
        <time>2022-09-18T08:13:26Z</time>
      </trkpt>
      <trkpt lat="46.01795" lon="10.92004">
        <ele>845.02</ele>
        <time>2022-09-18T08:13:28Z</time>
      </trkpt>
      <trkpt lat="46.01794" lon="10.92002">
        <ele>844.87</ele>
        <time>2022-09-18T08:13:30Z</time>
      </trkpt>
      <trkpt lat="46.01794" lon="10.92">
        <ele>846.13</ele>
        <time>2022-09-18T08:13:32Z</time>
      </trkpt>
      <trkpt lat="46.01793" lon="10.91998">
        <ele>846.37</ele>
        <time>2022-09-18T08:13:34Z</time>
      </trkpt>
      <trkpt lat="46.01792" lon="10.91997">
        <ele>846.93</ele>
        <time>2022-09-18T08:13:35Z</time>
      </trkpt>
      <trkpt lat="46.01791" lon="10.91996">
        <ele>847.88</ele>
        <time>2022-09-18T08:13:36Z</time>
      </trkpt>
      <trkpt lat="46.01791" lon="10.91994">
        <ele>848.25</ele>
        <time>2022-09-18T08:13:37Z</time>
      </trkpt>
      <trkpt lat="46.01791" lon="10.91993">
        <ele>848.21</ele>
        <time>2022-09-18T08:13:38Z</time>
      </trkpt>
      <trkpt lat="46.0179" lon="10.91991">
        <ele>847.26</ele>
        <time>2022-09-18T08:13:40Z</time>
      </trkpt>
      <trkpt lat="46.0179" lon="10.9199">
        <ele>847.98</ele>
        <time>2022-09-18T08:13:41Z</time>
      </trkpt>
      <trkpt lat="46.0179" lon="10.91988">
        <ele>848.38</ele>
        <time>2022-09-18T08:13:42Z</time>
      </trkpt>
      <trkpt lat="46.0179" lon="10.91987">
        <ele>849.09</ele>
        <time>2022-09-18T08:13:43Z</time>
      </trkpt>
      <trkpt lat="46.01789" lon="10.91986">
        <ele>849.14</ele>
        <time>2022-09-18T08:13:44Z</time>
      </trkpt>
      <trkpt lat="46.01788" lon="10.91985">
        <ele>849.25</ele>
        <time>2022-09-18T08:13:45Z</time>
      </trkpt>
      <trkpt lat="46.01787" lon="10.91983">
        <ele>745.55</ele>
        <time>2022-09-18T08:13:47Z</time>
      </trkpt>
      <trkpt lat="46.01787" lon="10.91982">
        <ele>774.76</ele>
        <time>2022-09-18T08:13:48Z</time>
      </trkpt>
      <trkpt lat="46.01786" lon="10.9198">
        <ele>806.79</ele>
        <time>2022-09-18T08:13:50Z</time>
      </trkpt>
      <trkpt lat="46.01785" lon="10.91979">
        <ele>811.07</ele>
        <time>2022-09-18T08:13:51Z</time>
      </trkpt>
      <trkpt lat="46.01785" lon="10.91977">
        <ele>818.89</ele>
        <time>2022-09-18T08:13:52Z</time>
      </trkpt>
      <trkpt lat="46.01784" lon="10.91976">
        <ele>823.69</ele>
        <time>2022-09-18T08:13:53Z</time>
      </trkpt>
      <trkpt lat="46.01784" lon="10.91974">
        <ele>824.96</ele>
        <time>2022-09-18T08:13:54Z</time>
      </trkpt>
      <trkpt lat="46.01783" lon="10.91973">
        <ele>828.65</ele>
        <time>2022-09-18T08:13:55Z</time>
      </trkpt>
      <trkpt lat="46.01783" lon="10.91971">
        <ele>832.98</ele>
        <time>2022-09-18T08:13:56Z</time>
      </trkpt>
      <trkpt lat="46.01782" lon="10.9197">
        <ele>838.79</ele>
        <time>2022-09-18T08:13:57Z</time>
      </trkpt>
      <trkpt lat="46.01781" lon="10.91969">
        <ele>840.33</ele>
        <time>2022-09-18T08:13:58Z</time>
      </trkpt>
      <trkpt lat="46.0178" lon="10.91967">
        <ele>842.49</ele>
        <time>2022-09-18T08:13:59Z</time>
      </trkpt>
      <trkpt lat="46.01779" lon="10.91966">
        <ele>844.57</ele>
        <time>2022-09-18T08:14:00Z</time>
      </trkpt>
      <trkpt lat="46.01778" lon="10.91964">
        <ele>846.42</ele>
        <time>2022-09-18T08:14:01Z</time>
      </trkpt>
      <trkpt lat="46.01778" lon="10.91963">
        <ele>846.68</ele>
        <time>2022-09-18T08:14:02Z</time>
      </trkpt>
      <trkpt lat="46.01777" lon="10.91961">
        <ele>846.52</ele>
        <time>2022-09-18T08:14:03Z</time>
      </trkpt>
      <trkpt lat="46.01776" lon="10.91959">
        <ele>848.11</ele>
        <time>2022-09-18T08:14:05Z</time>
      </trkpt>
      <trkpt lat="46.01776" lon="10.91957">
        <ele>848.67</ele>
        <time>2022-09-18T08:14:06Z</time>
      </trkpt>
      <trkpt lat="46.01776" lon="10.91955">
        <ele>849.49</ele>
        <time>2022-09-18T08:14:07Z</time>
      </trkpt>
      <trkpt lat="46.01776" lon="10.91954">
        <ele>850.03</ele>
        <time>2022-09-18T08:14:08Z</time>
      </trkpt>
      <trkpt lat="46.01775" lon="10.91953">
        <ele>848.71</ele>
        <time>2022-09-18T08:14:09Z</time>
      </trkpt>
      <trkpt lat="46.01774" lon="10.91952">
        <ele>848.39</ele>
        <time>2022-09-18T08:14:10Z</time>
      </trkpt>
      <trkpt lat="46.01773" lon="10.91951">
        <ele>848.3</ele>
        <time>2022-09-18T08:14:11Z</time>
      </trkpt>
      <trkpt lat="46.01773" lon="10.91949">
        <ele>850.37</ele>
        <time>2022-09-18T08:14:13Z</time>
      </trkpt>
      <trkpt lat="46.01773" lon="10.91947">
        <ele>850.16</ele>
        <time>2022-09-18T08:14:14Z</time>
      </trkpt>
      <trkpt lat="46.01772" lon="10.91945">
        <ele>849.83</ele>
        <time>2022-09-18T08:14:15Z</time>
      </trkpt>
      <trkpt lat="46.01771" lon="10.91944">
        <ele>851.25</ele>
        <time>2022-09-18T08:14:16Z</time>
      </trkpt>
      <trkpt lat="46.01771" lon="10.91943">
        <ele>851.66</ele>
        <time>2022-09-18T08:14:17Z</time>
      </trkpt>
      <trkpt lat="46.01769" lon="10.91942">
        <ele>851.37</ele>
        <time>2022-09-18T08:14:18Z</time>
      </trkpt>
      <trkpt lat="46.01768" lon="10.91941">
        <ele>852.24</ele>
        <time>2022-09-18T08:14:19Z</time>
      </trkpt>
      <trkpt lat="46.01767" lon="10.9194">
        <ele>852.38</ele>
        <time>2022-09-18T08:14:20Z</time>
      </trkpt>
      <trkpt lat="46.01766" lon="10.91939">
        <ele>852.69</ele>
        <time>2022-09-18T08:14:21Z</time>
      </trkpt>
      <trkpt lat="46.01765" lon="10.91939">
        <ele>853.19</ele>
        <time>2022-09-18T08:14:22Z</time>
      </trkpt>
      <trkpt lat="46.01764" lon="10.91938">
        <ele>853.72</ele>
        <time>2022-09-18T08:14:23Z</time>
      </trkpt>
      <trkpt lat="46.01764" lon="10.91937">
        <ele>852.39</ele>
        <time>2022-09-18T08:14:24Z</time>
      </trkpt>
      <trkpt lat="46.01763" lon="10.91936">
        <ele>853.64</ele>
        <time>2022-09-18T08:14:25Z</time>
      </trkpt>
      <trkpt lat="46.01762" lon="10.91935">
        <ele>853.32</ele>
        <time>2022-09-18T08:14:26Z</time>
      </trkpt>
      <trkpt lat="46.01761" lon="10.91934">
        <ele>853.87</ele>
        <time>2022-09-18T08:14:27Z</time>
      </trkpt>
      <trkpt lat="46.0176" lon="10.91932">
        <ele>853.52</ele>
        <time>2022-09-18T08:14:28Z</time>
      </trkpt>
      <trkpt lat="46.0176" lon="10.91931">
        <ele>854.23</ele>
        <time>2022-09-18T08:14:29Z</time>
      </trkpt>
      <trkpt lat="46.01759" lon="10.9193">
        <ele>854.35</ele>
        <time>2022-09-18T08:14:30Z</time>
      </trkpt>
      <trkpt lat="46.01759" lon="10.91929">
        <ele>854.32</ele>
        <time>2022-09-18T08:14:31Z</time>
      </trkpt>
      <trkpt lat="46.01758" lon="10.91927">
        <ele>855.1</ele>
        <time>2022-09-18T08:14:32Z</time>
      </trkpt>
      <trkpt lat="46.01758" lon="10.91925">
        <ele>856.48</ele>
        <time>2022-09-18T08:14:34Z</time>
      </trkpt>
      <trkpt lat="46.01758" lon="10.91923">
        <ele>856.33</ele>
        <time>2022-09-18T08:14:35Z</time>
      </trkpt>
      <trkpt lat="46.01757" lon="10.91923">
        <ele>856.64</ele>
        <time>2022-09-18T08:14:36Z</time>
      </trkpt>
      <trkpt lat="46.01756" lon="10.91922">
        <ele>856.89</ele>
        <time>2022-09-18T08:14:38Z</time>
      </trkpt>
      <trkpt lat="46.01756" lon="10.91921">
        <ele>856.85</ele>
        <time>2022-09-18T08:14:39Z</time>
      </trkpt>
      <trkpt lat="46.01755" lon="10.91919">
        <ele>856.13</ele>
        <time>2022-09-18T08:14:40Z</time>
      </trkpt>
      <trkpt lat="46.01755" lon="10.91917">
        <ele>857.16</ele>
        <time>2022-09-18T08:14:41Z</time>
      </trkpt>
      <trkpt lat="46.01755" lon="10.91916">
        <ele>856.1</ele>
        <time>2022-09-18T08:14:42Z</time>
      </trkpt>
      <trkpt lat="46.01754" lon="10.91915">
        <ele>856.52</ele>
        <time>2022-09-18T08:14:43Z</time>
      </trkpt>
      <trkpt lat="46.01754" lon="10.91912">
        <ele>856.3</ele>
        <time>2022-09-18T08:14:45Z</time>
      </trkpt>
      <trkpt lat="46.01754" lon="10.9191">
        <ele>856.33</ele>
        <time>2022-09-18T08:14:47Z</time>
      </trkpt>
      <trkpt lat="46.01753" lon="10.91909">
        <ele>856.54</ele>
        <time>2022-09-18T08:14:49Z</time>
      </trkpt>
      <trkpt lat="46.01752" lon="10.91907">
        <ele>857.95</ele>
        <time>2022-09-18T08:14:51Z</time>
      </trkpt>
      <trkpt lat="46.01752" lon="10.91905">
        <ele>858.05</ele>
        <time>2022-09-18T08:14:52Z</time>
      </trkpt>
      <trkpt lat="46.01752" lon="10.91903">
        <ele>857.18</ele>
        <time>2022-09-18T08:14:53Z</time>
      </trkpt>
      <trkpt lat="46.01751" lon="10.91901">
        <ele>858.08</ele>
        <time>2022-09-18T08:14:54Z</time>
      </trkpt>
      <trkpt lat="46.01751" lon="10.91899">
        <ele>858.5</ele>
        <time>2022-09-18T08:14:55Z</time>
      </trkpt>
      <trkpt lat="46.01751" lon="10.91897">
        <ele>858.65</ele>
        <time>2022-09-18T08:14:56Z</time>
      </trkpt>
      <trkpt lat="46.0175" lon="10.91895">
        <ele>859.27</ele>
        <time>2022-09-18T08:14:57Z</time>
      </trkpt>
      <trkpt lat="46.0175" lon="10.91894">
        <ele>860.42</ele>
        <time>2022-09-18T08:14:58Z</time>
      </trkpt>
      <trkpt lat="46.01749" lon="10.91893">
        <ele>859.86</ele>
        <time>2022-09-18T08:14:59Z</time>
      </trkpt>
      <trkpt lat="46.01748" lon="10.91891">
        <ele>860.87</ele>
        <time>2022-09-18T08:15:01Z</time>
      </trkpt>
      <trkpt lat="46.01748" lon="10.9189">
        <ele>861.14</ele>
        <time>2022-09-18T08:15:02Z</time>
      </trkpt>
      <trkpt lat="46.01747" lon="10.91888">
        <ele>861.46</ele>
        <time>2022-09-18T08:15:03Z</time>
      </trkpt>
      <trkpt lat="46.01747" lon="10.91887">
        <ele>862.1</ele>
        <time>2022-09-18T08:15:04Z</time>
      </trkpt>
      <trkpt lat="46.01746" lon="10.91885">
        <ele>862.43</ele>
        <time>2022-09-18T08:15:05Z</time>
      </trkpt>
      <trkpt lat="46.01745" lon="10.91884">
        <ele>862.54</ele>
        <time>2022-09-18T08:15:06Z</time>
      </trkpt>
      <trkpt lat="46.01744" lon="10.91882">
        <ele>862.33</ele>
        <time>2022-09-18T08:15:07Z</time>
      </trkpt>
      <trkpt lat="46.01744" lon="10.91881">
        <ele>863.04</ele>
        <time>2022-09-18T08:15:08Z</time>
      </trkpt>
      <trkpt lat="46.01743" lon="10.9188">
        <ele>863.2</ele>
        <time>2022-09-18T08:15:09Z</time>
      </trkpt>
      <trkpt lat="46.01742" lon="10.91879">
        <ele>862.86</ele>
        <time>2022-09-18T08:15:10Z</time>
      </trkpt>
      <trkpt lat="46.01742" lon="10.91877">
        <ele>863.01</ele>
        <time>2022-09-18T08:15:11Z</time>
      </trkpt>
      <trkpt lat="46.01741" lon="10.91875">
        <ele>863.85</ele>
        <time>2022-09-18T08:15:12Z</time>
      </trkpt>
      <trkpt lat="46.01741" lon="10.91873">
        <ele>863.78</ele>
        <time>2022-09-18T08:15:13Z</time>
      </trkpt>
      <trkpt lat="46.0174" lon="10.91872">
        <ele>863.62</ele>
        <time>2022-09-18T08:15:14Z</time>
      </trkpt>
      <trkpt lat="46.01739" lon="10.9187">
        <ele>863.84</ele>
        <time>2022-09-18T08:15:15Z</time>
      </trkpt>
      <trkpt lat="46.01738" lon="10.91869">
        <ele>863.57</ele>
        <time>2022-09-18T08:15:16Z</time>
      </trkpt>
      <trkpt lat="46.01737" lon="10.91868">
        <ele>864.42</ele>
        <time>2022-09-18T08:15:17Z</time>
      </trkpt>
      <trkpt lat="46.01736" lon="10.91867">
        <ele>864.6</ele>
        <time>2022-09-18T08:15:18Z</time>
      </trkpt>
      <trkpt lat="46.01735" lon="10.91866">
        <ele>865.27</ele>
        <time>2022-09-18T08:15:19Z</time>
      </trkpt>
      <trkpt lat="46.01734" lon="10.91866">
        <ele>865.08</ele>
        <time>2022-09-18T08:15:20Z</time>
      </trkpt>
      <trkpt lat="46.01733" lon="10.91864">
        <ele>865.08</ele>
        <time>2022-09-18T08:15:21Z</time>
      </trkpt>
      <trkpt lat="46.01732" lon="10.91863">
        <ele>865.22</ele>
        <time>2022-09-18T08:15:22Z</time>
      </trkpt>
      <trkpt lat="46.01731" lon="10.91862">
        <ele>865.23</ele>
        <time>2022-09-18T08:15:23Z</time>
      </trkpt>
      <trkpt lat="46.0173" lon="10.91861">
        <ele>866.41</ele>
        <time>2022-09-18T08:15:24Z</time>
      </trkpt>
      <trkpt lat="46.01729" lon="10.9186">
        <ele>866.63</ele>
        <time>2022-09-18T08:15:25Z</time>
      </trkpt>
      <trkpt lat="46.01728" lon="10.91859">
        <ele>868.13</ele>
        <time>2022-09-18T08:15:26Z</time>
      </trkpt>
      <trkpt lat="46.01727" lon="10.91859">
        <ele>868.38</ele>
        <time>2022-09-18T08:15:27Z</time>
      </trkpt>
      <trkpt lat="46.01726" lon="10.91859">
        <ele>866.92</ele>
        <time>2022-09-18T08:15:28Z</time>
      </trkpt>
      <trkpt lat="46.01724" lon="10.91858">
        <ele>867.66</ele>
        <time>2022-09-18T08:15:30Z</time>
      </trkpt>
      <trkpt lat="46.01723" lon="10.91857">
        <ele>866.75</ele>
        <time>2022-09-18T08:15:32Z</time>
      </trkpt>
      <trkpt lat="46.01721" lon="10.91856">
        <ele>867.08</ele>
        <time>2022-09-18T08:15:34Z</time>
      </trkpt>
      <trkpt lat="46.01721" lon="10.91855">
        <ele>867.77</ele>
        <time>2022-09-18T08:15:35Z</time>
      </trkpt>
      <trkpt lat="46.0172" lon="10.91854">
        <ele>866.94</ele>
        <time>2022-09-18T08:15:36Z</time>
      </trkpt>
      <trkpt lat="46.01719" lon="10.91854">
        <ele>866.4</ele>
        <time>2022-09-18T08:15:37Z</time>
      </trkpt>
      <trkpt lat="46.01718" lon="10.91853">
        <ele>866.84</ele>
        <time>2022-09-18T08:15:38Z</time>
      </trkpt>
      <trkpt lat="46.01717" lon="10.91853">
        <ele>866.11</ele>
        <time>2022-09-18T08:15:39Z</time>
      </trkpt>
      <trkpt lat="46.01716" lon="10.91852">
        <ele>866.21</ele>
        <time>2022-09-18T08:15:40Z</time>
      </trkpt>
      <trkpt lat="46.01714" lon="10.91851">
        <ele>866.1</ele>
        <time>2022-09-18T08:15:41Z</time>
      </trkpt>
      <trkpt lat="46.01713" lon="10.9185">
        <ele>866.21</ele>
        <time>2022-09-18T08:15:42Z</time>
      </trkpt>
      <trkpt lat="46.01712" lon="10.91849">
        <ele>867.24</ele>
        <time>2022-09-18T08:15:43Z</time>
      </trkpt>
      <trkpt lat="46.01711" lon="10.91848">
        <ele>867.2</ele>
        <time>2022-09-18T08:15:44Z</time>
      </trkpt>
      <trkpt lat="46.01709" lon="10.91847">
        <ele>867.41</ele>
        <time>2022-09-18T08:15:45Z</time>
      </trkpt>
      <trkpt lat="46.01708" lon="10.91846">
        <ele>867.72</ele>
        <time>2022-09-18T08:15:46Z</time>
      </trkpt>
      <trkpt lat="46.01707" lon="10.91845">
        <ele>868.2</ele>
        <time>2022-09-18T08:15:47Z</time>
      </trkpt>
      <trkpt lat="46.01706" lon="10.91844">
        <ele>868.15</ele>
        <time>2022-09-18T08:15:48Z</time>
      </trkpt>
      <trkpt lat="46.01704" lon="10.91843">
        <ele>868.26</ele>
        <time>2022-09-18T08:15:49Z</time>
      </trkpt>
      <trkpt lat="46.01703" lon="10.91842">
        <ele>868.25</ele>
        <time>2022-09-18T08:15:50Z</time>
      </trkpt>
      <trkpt lat="46.01702" lon="10.91841">
        <ele>868.28</ele>
        <time>2022-09-18T08:15:51Z</time>
      </trkpt>
      <trkpt lat="46.01701" lon="10.9184">
        <ele>868.33</ele>
        <time>2022-09-18T08:15:52Z</time>
      </trkpt>
      <trkpt lat="46.01699" lon="10.91838">
        <ele>868.66</ele>
        <time>2022-09-18T08:15:53Z</time>
      </trkpt>
      <trkpt lat="46.01698" lon="10.91837">
        <ele>866.79</ele>
        <time>2022-09-18T08:15:54Z</time>
      </trkpt>
      <trkpt lat="46.01697" lon="10.91836">
        <ele>866.45</ele>
        <time>2022-09-18T08:15:55Z</time>
      </trkpt>
      <trkpt lat="46.01696" lon="10.91834">
        <ele>866.14</ele>
        <time>2022-09-18T08:15:56Z</time>
      </trkpt>
      <trkpt lat="46.01696" lon="10.91833">
        <ele>866.54</ele>
        <time>2022-09-18T08:15:57Z</time>
      </trkpt>
      <trkpt lat="46.01695" lon="10.91831">
        <ele>866.45</ele>
        <time>2022-09-18T08:15:58Z</time>
      </trkpt>
      <trkpt lat="46.01694" lon="10.9183">
        <ele>866.54</ele>
        <time>2022-09-18T08:15:59Z</time>
      </trkpt>
      <trkpt lat="46.01695" lon="10.91832">
        <ele>866.04</ele>
        <time>2022-09-18T08:16:00Z</time>
      </trkpt>
      <trkpt lat="46.01695" lon="10.91831">
        <ele>865.97</ele>
        <time>2022-09-18T08:16:01Z</time>
      </trkpt>
      <trkpt lat="46.01694" lon="10.91828">
        <ele>866.14</ele>
        <time>2022-09-18T08:16:03Z</time>
      </trkpt>
      <trkpt lat="46.01695" lon="10.91827">
        <ele>700.4</ele>
        <time>2022-09-18T08:16:04Z</time>
      </trkpt>
      <trkpt lat="46.01696" lon="10.91826">
        <ele>746.62</ele>
        <time>2022-09-18T08:16:05Z</time>
      </trkpt>
      <trkpt lat="46.01697" lon="10.91826">
        <ele>774.51</ele>
        <time>2022-09-18T08:16:06Z</time>
      </trkpt>
      <trkpt lat="46.01698" lon="10.91827">
        <ele>801.49</ele>
        <time>2022-09-18T08:16:07Z</time>
      </trkpt>
      <trkpt lat="46.01699" lon="10.91827">
        <ele>819.17</ele>
        <time>2022-09-18T08:16:08Z</time>
      </trkpt>
      <trkpt lat="46.01701" lon="10.91829">
        <ele>834.54</ele>
        <time>2022-09-18T08:16:10Z</time>
      </trkpt>
      <trkpt lat="46.01701" lon="10.9183">
        <ele>838.87</ele>
        <time>2022-09-18T08:16:11Z</time>
      </trkpt>
      <trkpt lat="46.01702" lon="10.91831">
        <ele>842.14</ele>
        <time>2022-09-18T08:16:12Z</time>
      </trkpt>
      <trkpt lat="46.01703" lon="10.91832">
        <ele>845.12</ele>
        <time>2022-09-18T08:16:13Z</time>
      </trkpt>
      <trkpt lat="46.01704" lon="10.91832">
        <ele>848.05</ele>
        <time>2022-09-18T08:16:14Z</time>
      </trkpt>
      <trkpt lat="46.01705" lon="10.91831">
        <ele>850.84</ele>
        <time>2022-09-18T08:16:15Z</time>
      </trkpt>
      <trkpt lat="46.01706" lon="10.9183">
        <ele>852.08</ele>
        <time>2022-09-18T08:16:16Z</time>
      </trkpt>
      <trkpt lat="46.01707" lon="10.91829">
        <ele>854.5</ele>
        <time>2022-09-18T08:16:17Z</time>
      </trkpt>
      <trkpt lat="46.01708" lon="10.91828">
        <ele>854.85</ele>
        <time>2022-09-18T08:16:18Z</time>
      </trkpt>
      <trkpt lat="46.01709" lon="10.91827">
        <ele>855.42</ele>
        <time>2022-09-18T08:16:19Z</time>
      </trkpt>
      <trkpt lat="46.0171" lon="10.91826">
        <ele>857.9</ele>
        <time>2022-09-18T08:16:21Z</time>
      </trkpt>
      <trkpt lat="46.01711" lon="10.91825">
        <ele>858.4</ele>
        <time>2022-09-18T08:16:22Z</time>
      </trkpt>
      <trkpt lat="46.01713" lon="10.91824">
        <ele>859.34</ele>
        <time>2022-09-18T08:16:23Z</time>
      </trkpt>
      <trkpt lat="46.01714" lon="10.91824">
        <ele>860.05</ele>
        <time>2022-09-18T08:16:24Z</time>
      </trkpt>
      <trkpt lat="46.01715" lon="10.91823">
        <ele>860.48</ele>
        <time>2022-09-18T08:16:25Z</time>
      </trkpt>
      <trkpt lat="46.01716" lon="10.91823">
        <ele>859.65</ele>
        <time>2022-09-18T08:16:26Z</time>
      </trkpt>
      <trkpt lat="46.01716" lon="10.91823">
        <ele>860.04</ele>
        <time>2022-09-18T08:16:27Z</time>
      </trkpt>
      <trkpt lat="46.01718" lon="10.91822">
        <ele>860</ele>
        <time>2022-09-18T08:16:29Z</time>
      </trkpt>
      <trkpt lat="46.0172" lon="10.91822">
        <ele>860</ele>
        <time>2022-09-18T08:16:31Z</time>
      </trkpt>
      <trkpt lat="46.01721" lon="10.91822">
        <ele>859.46</ele>
        <time>2022-09-18T08:16:33Z</time>
      </trkpt>
      <trkpt lat="46.01723" lon="10.91822">
        <ele>859.26</ele>
        <time>2022-09-18T08:16:35Z</time>
      </trkpt>
      <trkpt lat="46.01725" lon="10.91822">
        <ele>860.05</ele>
        <time>2022-09-18T08:16:37Z</time>
      </trkpt>
      <trkpt lat="46.01726" lon="10.91824">
        <ele>859.5</ele>
        <time>2022-09-18T08:16:39Z</time>
      </trkpt>
      <trkpt lat="46.01727" lon="10.91824">
        <ele>860.31</ele>
        <time>2022-09-18T08:16:40Z</time>
      </trkpt>
      <trkpt lat="46.01728" lon="10.91823">
        <ele>863.83</ele>
        <time>2022-09-18T08:16:42Z</time>
      </trkpt>
      <trkpt lat="46.01729" lon="10.91823">
        <ele>865.97</ele>
        <time>2022-09-18T08:16:43Z</time>
      </trkpt>
      <trkpt lat="46.01731" lon="10.91823">
        <ele>866.14</ele>
        <time>2022-09-18T08:16:45Z</time>
      </trkpt>
      <trkpt lat="46.01732" lon="10.91823">
        <ele>864.18</ele>
        <time>2022-09-18T08:16:47Z</time>
      </trkpt>
      <trkpt lat="46.01733" lon="10.91822">
        <ele>864.64</ele>
        <time>2022-09-18T08:16:49Z</time>
      </trkpt>
      <trkpt lat="46.01735" lon="10.91822">
        <ele>864.31</ele>
        <time>2022-09-18T08:16:51Z</time>
      </trkpt>
      <trkpt lat="46.01736" lon="10.91822">
        <ele>864.38</ele>
        <time>2022-09-18T08:16:53Z</time>
      </trkpt>
      <trkpt lat="46.01737" lon="10.91822">
        <ele>864.67</ele>
        <time>2022-09-18T08:16:55Z</time>
      </trkpt>
      <trkpt lat="46.01738" lon="10.91821">
        <ele>868.4</ele>
        <time>2022-09-18T08:16:57Z</time>
      </trkpt>
      <trkpt lat="46.01739" lon="10.9182">
        <ele>870.41</ele>
        <time>2022-09-18T08:16:59Z</time>
      </trkpt>
      <trkpt lat="46.01739" lon="10.91817">
        <ele>870.27</ele>
        <time>2022-09-18T08:17:01Z</time>
      </trkpt>
      <trkpt lat="46.0174" lon="10.91815">
        <ele>870.08</ele>
        <time>2022-09-18T08:17:03Z</time>
      </trkpt>
      <trkpt lat="46.0174" lon="10.91813">
        <ele>870.05</ele>
        <time>2022-09-18T08:17:05Z</time>
      </trkpt>
      <trkpt lat="46.01741" lon="10.91811">
        <ele>870.49</ele>
        <time>2022-09-18T08:17:07Z</time>
      </trkpt>
      <trkpt lat="46.01743" lon="10.91809">
        <ele>870.48</ele>
        <time>2022-09-18T08:17:09Z</time>
      </trkpt>
      <trkpt lat="46.01744" lon="10.91808">
        <ele>870.77</ele>
        <time>2022-09-18T08:17:11Z</time>
      </trkpt>
      <trkpt lat="46.01746" lon="10.91808">
        <ele>870.91</ele>
        <time>2022-09-18T08:17:13Z</time>
      </trkpt>
      <trkpt lat="46.01747" lon="10.91809">
        <ele>870.74</ele>
        <time>2022-09-18T08:17:15Z</time>
      </trkpt>
      <trkpt lat="46.01748" lon="10.91811">
        <ele>875.07</ele>
        <time>2022-09-18T08:17:16Z</time>
      </trkpt>
      <trkpt lat="46.01748" lon="10.91813">
        <ele>876.34</ele>
        <time>2022-09-18T08:17:17Z</time>
      </trkpt>
      <trkpt lat="46.01749" lon="10.91814">
        <ele>877.22</ele>
        <time>2022-09-18T08:17:19Z</time>
      </trkpt>
      <trkpt lat="46.01749" lon="10.91812">
        <ele>878.63</ele>
        <time>2022-09-18T08:17:25Z</time>
      </trkpt>
      <trkpt lat="46.01751" lon="10.91811">
        <ele>878.5</ele>
        <time>2022-09-18T08:17:27Z</time>
      </trkpt>
      <trkpt lat="46.01752" lon="10.9181">
        <ele>880.7</ele>
        <time>2022-09-18T08:17:29Z</time>
      </trkpt>
      <trkpt lat="46.01753" lon="10.91811">
        <ele>880.6</ele>
        <time>2022-09-18T08:17:30Z</time>
      </trkpt>
      <trkpt lat="46.01754" lon="10.91811">
        <ele>878.12</ele>
        <time>2022-09-18T08:17:32Z</time>
      </trkpt>
      <trkpt lat="46.01755" lon="10.91811">
        <ele>880.26</ele>
        <time>2022-09-18T08:17:34Z</time>
      </trkpt>
      <trkpt lat="46.01756" lon="10.91811">
        <ele>879.81</ele>
        <time>2022-09-18T08:17:36Z</time>
      </trkpt>
      <trkpt lat="46.01757" lon="10.91811">
        <ele>879.68</ele>
        <time>2022-09-18T08:17:38Z</time>
      </trkpt>
      <trkpt lat="46.01759" lon="10.9181">
        <ele>879.58</ele>
        <time>2022-09-18T08:17:40Z</time>
      </trkpt>
      <trkpt lat="46.0176" lon="10.9181">
        <ele>879.46</ele>
        <time>2022-09-18T08:17:41Z</time>
      </trkpt>
      <trkpt lat="46.01761" lon="10.9181">
        <ele>879.55</ele>
        <time>2022-09-18T08:17:42Z</time>
      </trkpt>
      <trkpt lat="46.01762" lon="10.91809">
        <ele>879.57</ele>
        <time>2022-09-18T08:17:43Z</time>
      </trkpt>
      <trkpt lat="46.01763" lon="10.91808">
        <ele>879.67</ele>
        <time>2022-09-18T08:17:44Z</time>
      </trkpt>
      <trkpt lat="46.01764" lon="10.91807">
        <ele>879.73</ele>
        <time>2022-09-18T08:17:45Z</time>
      </trkpt>
      <trkpt lat="46.01765" lon="10.91806">
        <ele>879.77</ele>
        <time>2022-09-18T08:17:46Z</time>
      </trkpt>
      <trkpt lat="46.01767" lon="10.91805">
        <ele>879.81</ele>
        <time>2022-09-18T08:17:48Z</time>
      </trkpt>
      <trkpt lat="46.01768" lon="10.91804">
        <ele>879.89</ele>
        <time>2022-09-18T08:17:50Z</time>
      </trkpt>
      <trkpt lat="46.0177" lon="10.91804">
        <ele>879.86</ele>
        <time>2022-09-18T08:17:52Z</time>
      </trkpt>
      <trkpt lat="46.01772" lon="10.91803">
        <ele>879.96</ele>
        <time>2022-09-18T08:17:54Z</time>
      </trkpt>
      <trkpt lat="46.01774" lon="10.91803">
        <ele>879.99</ele>
        <time>2022-09-18T08:17:56Z</time>
      </trkpt>
      <trkpt lat="46.01775" lon="10.91802">
        <ele>880.06</ele>
        <time>2022-09-18T08:17:58Z</time>
      </trkpt>
      <trkpt lat="46.01777" lon="10.91802">
        <ele>879.9</ele>
        <time>2022-09-18T08:18:00Z</time>
      </trkpt>
      <trkpt lat="46.01778" lon="10.91802">
        <ele>879.88</ele>
        <time>2022-09-18T08:18:02Z</time>
      </trkpt>
      <trkpt lat="46.0178" lon="10.91802">
        <ele>879.86</ele>
        <time>2022-09-18T08:18:04Z</time>
      </trkpt>
      <trkpt lat="46.01781" lon="10.91802">
        <ele>879.93</ele>
        <time>2022-09-18T08:18:05Z</time>
      </trkpt>
      <trkpt lat="46.01783" lon="10.91801">
        <ele>879.86</ele>
        <time>2022-09-18T08:18:07Z</time>
      </trkpt>
      <trkpt lat="46.01784" lon="10.91799">
        <ele>879.84</ele>
        <time>2022-09-18T08:18:09Z</time>
      </trkpt>
      <trkpt lat="46.01786" lon="10.91799">
        <ele>880.01</ele>
        <time>2022-09-18T08:18:11Z</time>
      </trkpt>
      <trkpt lat="46.01786" lon="10.91803">
        <ele>880.87</ele>
        <time>2022-09-18T08:18:13Z</time>
      </trkpt>
      <trkpt lat="46.01785" lon="10.91806">
        <ele>881.35</ele>
        <time>2022-09-18T08:18:14Z</time>
      </trkpt>
      <trkpt lat="46.01785" lon="10.91809">
        <ele>881.97</ele>
        <time>2022-09-18T08:18:15Z</time>
      </trkpt>
      <trkpt lat="46.01785" lon="10.91811">
        <ele>880.1</ele>
        <time>2022-09-18T08:18:16Z</time>
      </trkpt>
      <trkpt lat="46.01785" lon="10.91812">
        <ele>879.47</ele>
        <time>2022-09-18T08:18:19Z</time>
      </trkpt>
      <trkpt lat="46.01785" lon="10.91813">
        <ele>884.77</ele>
        <time>2022-09-18T08:18:21Z</time>
      </trkpt>
      <trkpt lat="46.01787" lon="10.91815">
        <ele>887.73</ele>
        <time>2022-09-18T08:18:23Z</time>
      </trkpt>
      <trkpt lat="46.01788" lon="10.91817">
        <ele>985.49</ele>
        <time>2022-09-18T08:18:25Z</time>
      </trkpt>
      <trkpt lat="46.01789" lon="10.91818">
        <ele>954.23</ele>
        <time>2022-09-18T08:18:27Z</time>
      </trkpt>
      <trkpt lat="46.0179" lon="10.91819">
        <ele>934.91</ele>
        <time>2022-09-18T08:18:29Z</time>
      </trkpt>
      <trkpt lat="46.01791" lon="10.9182">
        <ele>926.08</ele>
        <time>2022-09-18T08:18:30Z</time>
      </trkpt>
      <trkpt lat="46.01793" lon="10.9182">
        <ele>917.55</ele>
        <time>2022-09-18T08:18:32Z</time>
      </trkpt>
      <trkpt lat="46.01794" lon="10.9182">
        <ele>915.5</ele>
        <time>2022-09-18T08:18:33Z</time>
      </trkpt>
      <trkpt lat="46.01795" lon="10.9182">
        <ele>913.58</ele>
        <time>2022-09-18T08:18:34Z</time>
      </trkpt>
      <trkpt lat="46.01796" lon="10.9182">
        <ele>912.01</ele>
        <time>2022-09-18T08:18:35Z</time>
      </trkpt>
      <trkpt lat="46.01797" lon="10.9182">
        <ele>911.7</ele>
        <time>2022-09-18T08:18:36Z</time>
      </trkpt>
      <trkpt lat="46.01798" lon="10.9182">
        <ele>910.83</ele>
        <time>2022-09-18T08:18:37Z</time>
      </trkpt>
      <trkpt lat="46.01799" lon="10.9182">
        <ele>909.19</ele>
        <time>2022-09-18T08:18:38Z</time>
      </trkpt>
      <trkpt lat="46.018" lon="10.91819">
        <ele>907.21</ele>
        <time>2022-09-18T08:18:39Z</time>
      </trkpt>
      <trkpt lat="46.01801" lon="10.91818">
        <ele>904.06</ele>
        <time>2022-09-18T08:18:41Z</time>
      </trkpt>
      <trkpt lat="46.01803" lon="10.91817">
        <ele>901.32</ele>
        <time>2022-09-18T08:18:43Z</time>
      </trkpt>
      <trkpt lat="46.01804" lon="10.91817">
        <ele>902.19</ele>
        <time>2022-09-18T08:18:45Z</time>
      </trkpt>
      <trkpt lat="46.01805" lon="10.91816">
        <ele>900.14</ele>
        <time>2022-09-18T08:18:47Z</time>
      </trkpt>
      <trkpt lat="46.01806" lon="10.91815">
        <ele>899.22</ele>
        <time>2022-09-18T08:18:49Z</time>
      </trkpt>
      <trkpt lat="46.01807" lon="10.91815">
        <ele>898.08</ele>
        <time>2022-09-18T08:18:51Z</time>
      </trkpt>
      <trkpt lat="46.01808" lon="10.91813">
        <ele>897.8</ele>
        <time>2022-09-18T08:18:53Z</time>
      </trkpt>
      <trkpt lat="46.01809" lon="10.91812">
        <ele>897.62</ele>
        <time>2022-09-18T08:18:55Z</time>
      </trkpt>
      <trkpt lat="46.0181" lon="10.9181">
        <ele>897.23</ele>
        <time>2022-09-18T08:18:57Z</time>
      </trkpt>
      <trkpt lat="46.01811" lon="10.91809">
        <ele>897.12</ele>
        <time>2022-09-18T08:18:59Z</time>
      </trkpt>
      <trkpt lat="46.01812" lon="10.91807">
        <ele>896.98</ele>
        <time>2022-09-18T08:19:01Z</time>
      </trkpt>
      <trkpt lat="46.01827" lon="10.91774">
        <ele>935.73</ele>
        <time>2022-09-18T08:19:45Z</time>
      </trkpt>
      <trkpt lat="46.01828" lon="10.91772">
        <ele>927.59</ele>
        <time>2022-09-18T08:19:47Z</time>
      </trkpt>
      <trkpt lat="46.01831" lon="10.9177">
        <ele>916.74</ele>
        <time>2022-09-18T08:19:52Z</time>
      </trkpt>
      <trkpt lat="46.01832" lon="10.91769">
        <ele>912.87</ele>
        <time>2022-09-18T08:19:54Z</time>
      </trkpt>
      <trkpt lat="46.01832" lon="10.91767">
        <ele>910.31</ele>
        <time>2022-09-18T08:19:56Z</time>
      </trkpt>
      <trkpt lat="46.01833" lon="10.91766">
        <ele>908.78</ele>
        <time>2022-09-18T08:19:58Z</time>
      </trkpt>
      <trkpt lat="46.01834" lon="10.91765">
        <ele>1047.2</ele>
        <time>2022-09-18T08:20:00Z</time>
      </trkpt>
      <trkpt lat="46.01847" lon="10.91773">
        <ele>973</ele>
        <time>2022-09-18T08:20:24Z</time>
      </trkpt>
      <trkpt lat="46.01849" lon="10.91773">
        <ele>844.39</ele>
        <time>2022-09-18T08:20:26Z</time>
      </trkpt>
      <trkpt lat="46.0185" lon="10.91773">
        <ele>857.95</ele>
        <time>2022-09-18T08:20:30Z</time>
      </trkpt>
      <trkpt lat="46.01849" lon="10.91773">
        <ele>863.93</ele>
        <time>2022-09-18T08:20:32Z</time>
      </trkpt>
      <trkpt lat="46.01847" lon="10.91773">
        <ele>871.67</ele>
        <time>2022-09-18T08:20:34Z</time>
      </trkpt>
      <trkpt lat="46.01846" lon="10.91773">
        <ele>875.57</ele>
        <time>2022-09-18T08:20:36Z</time>
      </trkpt>
      <trkpt lat="46.01845" lon="10.91774">
        <ele>1038.43</ele>
        <time>2022-09-18T08:20:38Z</time>
      </trkpt>
      <trkpt lat="46.01844" lon="10.91773">
        <ele>1004.28</ele>
        <time>2022-09-18T08:20:40Z</time>
      </trkpt>
      <trkpt lat="46.01844" lon="10.91775">
        <ele>968.3</ele>
        <time>2022-09-18T08:20:42Z</time>
      </trkpt>
      <trkpt lat="46.01844" lon="10.91776">
        <ele>957.3</ele>
        <time>2022-09-18T08:20:43Z</time>
      </trkpt>
      <trkpt lat="46.01845" lon="10.91777">
        <ele>947.34</ele>
        <time>2022-09-18T08:20:44Z</time>
      </trkpt>
      <trkpt lat="46.01845" lon="10.91779">
        <ele>940.42</ele>
        <time>2022-09-18T08:20:45Z</time>
      </trkpt>
      <trkpt lat="46.01846" lon="10.91782">
        <ele>938.31</ele>
        <time>2022-09-18T08:20:46Z</time>
      </trkpt>
      <trkpt lat="46.01847" lon="10.91784">
        <ele>934.64</ele>
        <time>2022-09-18T08:20:47Z</time>
      </trkpt>
      <trkpt lat="46.01849" lon="10.91784">
        <ele>925.47</ele>
        <time>2022-09-18T08:20:49Z</time>
      </trkpt>
      <trkpt lat="46.0185" lon="10.91784">
        <ele>922.4</ele>
        <time>2022-09-18T08:20:51Z</time>
      </trkpt>
      <trkpt lat="46.01849" lon="10.91785">
        <ele>919.82</ele>
        <time>2022-09-18T08:20:54Z</time>
      </trkpt>
      <trkpt lat="46.01849" lon="10.91787">
        <ele>919.76</ele>
        <time>2022-09-18T08:20:57Z</time>
      </trkpt>
      <trkpt lat="46.01849" lon="10.9179">
        <ele>919.34</ele>
        <time>2022-09-18T08:20:58Z</time>
      </trkpt>
      <trkpt lat="46.01851" lon="10.9179">
        <ele>919.17</ele>
        <time>2022-09-18T08:21:00Z</time>
      </trkpt>
      <trkpt lat="46.01851" lon="10.91791">
        <ele>919</ele>
        <time>2022-09-18T08:21:01Z</time>
      </trkpt>
      <trkpt lat="46.01852" lon="10.9179">
        <ele>918.7</ele>
        <time>2022-09-18T08:21:02Z</time>
      </trkpt>
      <trkpt lat="46.01854" lon="10.9179">
        <ele>918.14</ele>
        <time>2022-09-18T08:21:03Z</time>
      </trkpt>
      <trkpt lat="46.01855" lon="10.91789">
        <ele>917.18</ele>
        <time>2022-09-18T08:21:04Z</time>
      </trkpt>
      <trkpt lat="46.01856" lon="10.9179">
        <ele>917.86</ele>
        <time>2022-09-18T08:21:05Z</time>
      </trkpt>
      <trkpt lat="46.01857" lon="10.91792">
        <ele>917.85</ele>
        <time>2022-09-18T08:21:06Z</time>
      </trkpt>
      <trkpt lat="46.01857" lon="10.91793">
        <ele>918.51</ele>
        <time>2022-09-18T08:21:07Z</time>
      </trkpt>
      <trkpt lat="46.01858" lon="10.91795">
        <ele>918.39</ele>
        <time>2022-09-18T08:21:08Z</time>
      </trkpt>
      <trkpt lat="46.01858" lon="10.91797">
        <ele>919.72</ele>
        <time>2022-09-18T08:21:09Z</time>
      </trkpt>
      <trkpt lat="46.01859" lon="10.91798">
        <ele>919.59</ele>
        <time>2022-09-18T08:21:10Z</time>
      </trkpt>
      <trkpt lat="46.0186" lon="10.91799">
        <ele>919.52</ele>
        <time>2022-09-18T08:21:11Z</time>
      </trkpt>
      <trkpt lat="46.01861" lon="10.918">
        <ele>919.45</ele>
        <time>2022-09-18T08:21:12Z</time>
      </trkpt>
      <trkpt lat="46.01862" lon="10.918">
        <ele>919.53</ele>
        <time>2022-09-18T08:21:13Z</time>
      </trkpt>
      <trkpt lat="46.01863" lon="10.91801">
        <ele>919.74</ele>
        <time>2022-09-18T08:21:15Z</time>
      </trkpt>
      <trkpt lat="46.01864" lon="10.91802">
        <ele>919.69</ele>
        <time>2022-09-18T08:21:16Z</time>
      </trkpt>
      <trkpt lat="46.01865" lon="10.91804">
        <ele>919.41</ele>
        <time>2022-09-18T08:21:18Z</time>
      </trkpt>
      <trkpt lat="46.01866" lon="10.91806">
        <ele>919.58</ele>
        <time>2022-09-18T08:21:20Z</time>
      </trkpt>
      <trkpt lat="46.01868" lon="10.91807">
        <ele>919.49</ele>
        <time>2022-09-18T08:21:22Z</time>
      </trkpt>
      <trkpt lat="46.01869" lon="10.91808">
        <ele>919.45</ele>
        <time>2022-09-18T08:21:24Z</time>
      </trkpt>
      <trkpt lat="46.01871" lon="10.91808">
        <ele>919.33</ele>
        <time>2022-09-18T08:21:26Z</time>
      </trkpt>
      <trkpt lat="46.01872" lon="10.91808">
        <ele>919.26</ele>
        <time>2022-09-18T08:21:28Z</time>
      </trkpt>
      <trkpt lat="46.01873" lon="10.91807">
        <ele>922.12</ele>
        <time>2022-09-18T08:21:31Z</time>
      </trkpt>
      <trkpt lat="46.01873" lon="10.91805">
        <ele>922.73</ele>
        <time>2022-09-18T08:21:32Z</time>
      </trkpt>
      <trkpt lat="46.01873" lon="10.91804">
        <ele>925.2</ele>
        <time>2022-09-18T08:21:33Z</time>
      </trkpt>
      <trkpt lat="46.01873" lon="10.91802">
        <ele>1016.55</ele>
        <time>2022-09-18T08:21:34Z</time>
      </trkpt>
      <trkpt lat="46.01873" lon="10.91801">
        <ele>1000.21</ele>
        <time>2022-09-18T08:21:35Z</time>
      </trkpt>
      <trkpt lat="46.01873" lon="10.91799">
        <ele>982.86</ele>
        <time>2022-09-18T08:21:37Z</time>
      </trkpt>
      <trkpt lat="46.01874" lon="10.91799">
        <ele>963.64</ele>
        <time>2022-09-18T08:21:39Z</time>
      </trkpt>
      <trkpt lat="46.01875" lon="10.91799">
        <ele>954.01</ele>
        <time>2022-09-18T08:21:41Z</time>
      </trkpt>
      <trkpt lat="46.01875" lon="10.91797">
        <ele>954.26</ele>
        <time>2022-09-18T08:21:42Z</time>
      </trkpt>
      <trkpt lat="46.01876" lon="10.91797">
        <ele>948.67</ele>
        <time>2022-09-18T08:21:45Z</time>
      </trkpt>
      <trkpt lat="46.01876" lon="10.91795">
        <ele>944.99</ele>
        <time>2022-09-18T08:21:48Z</time>
      </trkpt>
      <trkpt lat="46.01877" lon="10.91794">
        <ele>942.87</ele>
        <time>2022-09-18T08:21:51Z</time>
      </trkpt>
      <trkpt lat="46.01878" lon="10.91795">
        <ele>941.02</ele>
        <time>2022-09-18T08:21:55Z</time>
      </trkpt>
      <trkpt lat="46.01879" lon="10.91795">
        <ele>940.09</ele>
        <time>2022-09-18T08:21:56Z</time>
      </trkpt>
      <trkpt lat="46.0188" lon="10.91795">
        <ele>940.99</ele>
        <time>2022-09-18T08:21:57Z</time>
      </trkpt>
      <trkpt lat="46.01881" lon="10.91796">
        <ele>939.4</ele>
        <time>2022-09-18T08:21:58Z</time>
      </trkpt>
      <trkpt lat="46.01882" lon="10.91797">
        <ele>939.56</ele>
        <time>2022-09-18T08:21:59Z</time>
      </trkpt>
      <trkpt lat="46.01883" lon="10.91798">
        <ele>939</ele>
        <time>2022-09-18T08:22:01Z</time>
      </trkpt>
      <trkpt lat="46.01885" lon="10.91799">
        <ele>938.88</ele>
        <time>2022-09-18T08:22:03Z</time>
      </trkpt>
      <trkpt lat="46.01886" lon="10.91799">
        <ele>938.3</ele>
        <time>2022-09-18T08:22:05Z</time>
      </trkpt>
      <trkpt lat="46.01888" lon="10.91799">
        <ele>938.74</ele>
        <time>2022-09-18T08:22:07Z</time>
      </trkpt>
      <trkpt lat="46.01889" lon="10.91799">
        <ele>938.79</ele>
        <time>2022-09-18T08:22:09Z</time>
      </trkpt>
      <trkpt lat="46.0189" lon="10.918">
        <ele>938.53</ele>
        <time>2022-09-18T08:22:11Z</time>
      </trkpt>
      <trkpt lat="46.01892" lon="10.918">
        <ele>938.64</ele>
        <time>2022-09-18T08:22:13Z</time>
      </trkpt>
      <trkpt lat="46.01893" lon="10.918">
        <ele>938.07</ele>
        <time>2022-09-18T08:22:15Z</time>
      </trkpt>
      <trkpt lat="46.01895" lon="10.918">
        <ele>938.31</ele>
        <time>2022-09-18T08:22:17Z</time>
      </trkpt>
      <trkpt lat="46.01896" lon="10.918">
        <ele>937.84</ele>
        <time>2022-09-18T08:22:19Z</time>
      </trkpt>
      <trkpt lat="46.01897" lon="10.91801">
        <ele>941.32</ele>
        <time>2022-09-18T08:22:21Z</time>
      </trkpt>
      <trkpt lat="46.01899" lon="10.91803">
        <ele>941.5</ele>
        <time>2022-09-18T08:22:23Z</time>
      </trkpt>
      <trkpt lat="46.019" lon="10.91803">
        <ele>942.61</ele>
        <time>2022-09-18T08:22:25Z</time>
      </trkpt>
      <trkpt lat="46.01899" lon="10.91805">
        <ele>943.19</ele>
        <time>2022-09-18T08:22:26Z</time>
      </trkpt>
      <trkpt lat="46.01897" lon="10.91804">
        <ele>942.33</ele>
        <time>2022-09-18T08:22:28Z</time>
      </trkpt>
      <trkpt lat="46.01896" lon="10.91803">
        <ele>942.1</ele>
        <time>2022-09-18T08:22:30Z</time>
      </trkpt>
      <trkpt lat="46.01895" lon="10.91803">
        <ele>942.27</ele>
        <time>2022-09-18T08:22:32Z</time>
      </trkpt>
      <trkpt lat="46.01893" lon="10.91802">
        <ele>942.23</ele>
        <time>2022-09-18T08:22:34Z</time>
      </trkpt>
      <trkpt lat="46.01892" lon="10.91802">
        <ele>942.33</ele>
        <time>2022-09-18T08:22:36Z</time>
      </trkpt>
      <trkpt lat="46.01891" lon="10.91802">
        <ele>942.39</ele>
        <time>2022-09-18T08:22:38Z</time>
      </trkpt>
      <trkpt lat="46.0189" lon="10.91802">
        <ele>942.32</ele>
        <time>2022-09-18T08:22:40Z</time>
      </trkpt>
      <trkpt lat="46.01889" lon="10.91802">
        <ele>942.44</ele>
        <time>2022-09-18T08:22:42Z</time>
      </trkpt>
      <trkpt lat="46.01892" lon="10.91803">
        <ele>948.35</ele>
        <time>2022-09-18T08:22:44Z</time>
      </trkpt>
      <trkpt lat="46.01895" lon="10.91805">
        <ele>944.69</ele>
        <time>2022-09-18T08:22:45Z</time>
      </trkpt>
      <trkpt lat="46.01897" lon="10.91807">
        <ele>944.83</ele>
        <time>2022-09-18T08:22:46Z</time>
      </trkpt>
      <trkpt lat="46.01899" lon="10.91808">
        <ele>946.28</ele>
        <time>2022-09-18T08:22:47Z</time>
      </trkpt>
      <trkpt lat="46.01899" lon="10.91809">
        <ele>947.59</ele>
        <time>2022-09-18T08:22:48Z</time>
      </trkpt>
      <trkpt lat="46.01901" lon="10.9181">
        <ele>948.03</ele>
        <time>2022-09-18T08:22:50Z</time>
      </trkpt>
      <trkpt lat="46.01902" lon="10.9181">
        <ele>944.86</ele>
        <time>2022-09-18T08:22:53Z</time>
      </trkpt>
      <trkpt lat="46.01904" lon="10.91811">
        <ele>945.95</ele>
        <time>2022-09-18T08:22:55Z</time>
      </trkpt>
      <trkpt lat="46.01905" lon="10.91812">
        <ele>945.63</ele>
        <time>2022-09-18T08:22:56Z</time>
      </trkpt>
      <trkpt lat="46.01906" lon="10.91812">
        <ele>945.98</ele>
        <time>2022-09-18T08:22:57Z</time>
      </trkpt>
      <trkpt lat="46.01907" lon="10.91813">
        <ele>946.06</ele>
        <time>2022-09-18T08:22:58Z</time>
      </trkpt>
      <trkpt lat="46.01908" lon="10.91813">
        <ele>945.94</ele>
        <time>2022-09-18T08:22:59Z</time>
      </trkpt>
      <trkpt lat="46.01909" lon="10.91814">
        <ele>946.38</ele>
        <time>2022-09-18T08:23:00Z</time>
      </trkpt>
      <trkpt lat="46.01912" lon="10.91815">
        <ele>945.93</ele>
        <time>2022-09-18T08:23:02Z</time>
      </trkpt>
      <trkpt lat="46.01913" lon="10.91816">
        <ele>945.9</ele>
        <time>2022-09-18T08:23:03Z</time>
      </trkpt>
      <trkpt lat="46.01914" lon="10.91816">
        <ele>945.97</ele>
        <time>2022-09-18T08:23:05Z</time>
      </trkpt>
      <trkpt lat="46.01915" lon="10.91817">
        <ele>946.24</ele>
        <time>2022-09-18T08:23:09Z</time>
      </trkpt>
      <trkpt lat="46.01916" lon="10.91818">
        <ele>947.85</ele>
        <time>2022-09-18T08:23:11Z</time>
      </trkpt>
      <trkpt lat="46.01916" lon="10.91819">
        <ele>950.1</ele>
        <time>2022-09-18T08:23:15Z</time>
      </trkpt>
      <trkpt lat="46.01915" lon="10.91819">
        <ele>950</ele>
        <time>2022-09-18T08:23:18Z</time>
      </trkpt>
      <trkpt lat="46.01913" lon="10.9182">
        <ele>949.98</ele>
        <time>2022-09-18T08:23:21Z</time>
      </trkpt>
      <trkpt lat="46.01913" lon="10.91821">
        <ele>949.99</ele>
        <time>2022-09-18T08:23:23Z</time>
      </trkpt>
      <trkpt lat="46.01912" lon="10.91821">
        <ele>949.97</ele>
        <time>2022-09-18T08:23:25Z</time>
      </trkpt>
      <trkpt lat="46.01911" lon="10.9182">
        <ele>949.95</ele>
        <time>2022-09-18T08:23:28Z</time>
      </trkpt>
      <trkpt lat="46.0191" lon="10.9182">
        <ele>949.79</ele>
        <time>2022-09-18T08:23:31Z</time>
      </trkpt>
      <trkpt lat="46.01909" lon="10.91819">
        <ele>950.33</ele>
        <time>2022-09-18T08:23:36Z</time>
      </trkpt>
      <trkpt lat="46.01911" lon="10.91819">
        <ele>946.94</ele>
        <time>2022-09-18T08:23:38Z</time>
      </trkpt>
      <trkpt lat="46.01914" lon="10.91821">
        <ele>947.75</ele>
        <time>2022-09-18T08:23:39Z</time>
      </trkpt>
      <trkpt lat="46.01917" lon="10.91821">
        <ele>947.19</ele>
        <time>2022-09-18T08:23:40Z</time>
      </trkpt>
      <trkpt lat="46.01918" lon="10.9182">
        <ele>947.13</ele>
        <time>2022-09-18T08:23:41Z</time>
      </trkpt>
      <trkpt lat="46.0192" lon="10.9182">
        <ele>946.79</ele>
        <time>2022-09-18T08:23:42Z</time>
      </trkpt>
      <trkpt lat="46.01921" lon="10.9182">
        <ele>952.8</ele>
        <time>2022-09-18T08:23:43Z</time>
      </trkpt>
      <trkpt lat="46.01925" lon="10.91819">
        <ele>953.72</ele>
        <time>2022-09-18T08:23:44Z</time>
      </trkpt>
      <trkpt lat="46.01927" lon="10.91819">
        <ele>953.52</ele>
        <time>2022-09-18T08:23:45Z</time>
      </trkpt>
      <trkpt lat="46.01929" lon="10.91819">
        <ele>953.61</ele>
        <time>2022-09-18T08:23:46Z</time>
      </trkpt>
      <trkpt lat="46.01931" lon="10.9182">
        <ele>953.13</ele>
        <time>2022-09-18T08:23:47Z</time>
      </trkpt>
      <trkpt lat="46.01933" lon="10.91821">
        <ele>951.55</ele>
        <time>2022-09-18T08:23:48Z</time>
      </trkpt>
      <trkpt lat="46.01935" lon="10.91821">
        <ele>952.41</ele>
        <time>2022-09-18T08:23:49Z</time>
      </trkpt>
      <trkpt lat="46.01938" lon="10.91821">
        <ele>952.17</ele>
        <time>2022-09-18T08:23:50Z</time>
      </trkpt>
      <trkpt lat="46.01941" lon="10.91821">
        <ele>951.32</ele>
        <time>2022-09-18T08:23:51Z</time>
      </trkpt>
      <trkpt lat="46.01943" lon="10.91821">
        <ele>951.99</ele>
        <time>2022-09-18T08:23:52Z</time>
      </trkpt>
      <trkpt lat="46.01945" lon="10.91821">
        <ele>952.57</ele>
        <time>2022-09-18T08:23:53Z</time>
      </trkpt>
      <trkpt lat="46.01947" lon="10.91822">
        <ele>953.2</ele>
        <time>2022-09-18T08:23:54Z</time>
      </trkpt>
      <trkpt lat="46.01948" lon="10.91823">
        <ele>953.38</ele>
        <time>2022-09-18T08:23:55Z</time>
      </trkpt>
      <trkpt lat="46.0195" lon="10.91824">
        <ele>953.77</ele>
        <time>2022-09-18T08:23:56Z</time>
      </trkpt>
      <trkpt lat="46.01951" lon="10.91825">
        <ele>952.18</ele>
        <time>2022-09-18T08:23:57Z</time>
      </trkpt>
      <trkpt lat="46.01952" lon="10.91826">
        <ele>952.43</ele>
        <time>2022-09-18T08:23:58Z</time>
      </trkpt>
      <trkpt lat="46.01953" lon="10.91826">
        <ele>952.13</ele>
        <time>2022-09-18T08:23:59Z</time>
      </trkpt>
      <trkpt lat="46.01955" lon="10.91827">
        <ele>953.54</ele>
        <time>2022-09-18T08:24:00Z</time>
      </trkpt>
      <trkpt lat="46.01957" lon="10.91828">
        <ele>953.92</ele>
        <time>2022-09-18T08:24:01Z</time>
      </trkpt>
      <trkpt lat="46.01959" lon="10.91829">
        <ele>955.16</ele>
        <time>2022-09-18T08:24:02Z</time>
      </trkpt>
      <trkpt lat="46.01963" lon="10.9183">
        <ele>956.5</ele>
        <time>2022-09-18T08:24:03Z</time>
      </trkpt>
      <trkpt lat="46.01965" lon="10.9183">
        <ele>956.52</ele>
        <time>2022-09-18T08:24:04Z</time>
      </trkpt>
      <trkpt lat="46.01968" lon="10.9183">
        <ele>957.02</ele>
        <time>2022-09-18T08:24:05Z</time>
      </trkpt>
      <trkpt lat="46.0197" lon="10.9183">
        <ele>956.66</ele>
        <time>2022-09-18T08:24:06Z</time>
      </trkpt>
      <trkpt lat="46.01972" lon="10.91832">
        <ele>956.5</ele>
        <time>2022-09-18T08:24:07Z</time>
      </trkpt>
      <trkpt lat="46.01972" lon="10.91833">
        <ele>959.29</ele>
        <time>2022-09-18T08:24:10Z</time>
      </trkpt>
      <trkpt lat="46.01972" lon="10.91834">
        <ele>961.45</ele>
        <time>2022-09-18T08:24:12Z</time>
      </trkpt>
      <trkpt lat="46.01971" lon="10.91836">
        <ele>963.71</ele>
        <time>2022-09-18T08:24:13Z</time>
      </trkpt>
      <trkpt lat="46.0197" lon="10.91838">
        <ele>966.16</ele>
        <time>2022-09-18T08:24:16Z</time>
      </trkpt>
      <trkpt lat="46.01971" lon="10.9184">
        <ele>965.4</ele>
        <time>2022-09-18T08:24:18Z</time>
      </trkpt>
      <trkpt lat="46.01971" lon="10.91841">
        <ele>965.02</ele>
        <time>2022-09-18T08:24:20Z</time>
      </trkpt>
      <trkpt lat="46.01972" lon="10.91843">
        <ele>966.13</ele>
        <time>2022-09-18T08:24:22Z</time>
      </trkpt>
      <trkpt lat="46.01972" lon="10.91845">
        <ele>966.4</ele>
        <time>2022-09-18T08:24:23Z</time>
      </trkpt>
      <trkpt lat="46.01973" lon="10.91847">
        <ele>967.15</ele>
        <time>2022-09-18T08:24:25Z</time>
      </trkpt>
      <trkpt lat="46.01972" lon="10.91848">
        <ele>971.03</ele>
        <time>2022-09-18T08:24:27Z</time>
      </trkpt>
      <trkpt lat="46.01972" lon="10.9185">
        <ele>969.48</ele>
        <time>2022-09-18T08:24:29Z</time>
      </trkpt>
      <trkpt lat="46.01973" lon="10.91851">
        <ele>970.36</ele>
        <time>2022-09-18T08:24:31Z</time>
      </trkpt>
      <trkpt lat="46.01972" lon="10.91853">
        <ele>969.64</ele>
        <time>2022-09-18T08:24:33Z</time>
      </trkpt>
      <trkpt lat="46.01973" lon="10.91855">
        <ele>967.27</ele>
        <time>2022-09-18T08:24:35Z</time>
      </trkpt>
      <trkpt lat="46.01973" lon="10.91856">
        <ele>967.85</ele>
        <time>2022-09-18T08:24:37Z</time>
      </trkpt>
      <trkpt lat="46.01974" lon="10.91858">
        <ele>966.41</ele>
        <time>2022-09-18T08:24:39Z</time>
      </trkpt>
      <trkpt lat="46.01975" lon="10.91859">
        <ele>966.59</ele>
        <time>2022-09-18T08:24:41Z</time>
      </trkpt>
      <trkpt lat="46.01976" lon="10.9186">
        <ele>967.04</ele>
        <time>2022-09-18T08:24:42Z</time>
      </trkpt>
      <trkpt lat="46.01977" lon="10.9186">
        <ele>966.81</ele>
        <time>2022-09-18T08:24:43Z</time>
      </trkpt>
      <trkpt lat="46.01978" lon="10.9186">
        <ele>966.23</ele>
        <time>2022-09-18T08:24:44Z</time>
      </trkpt>
      <trkpt lat="46.0198" lon="10.9186">
        <ele>966.85</ele>
        <time>2022-09-18T08:24:45Z</time>
      </trkpt>
      <trkpt lat="46.01981" lon="10.9186">
        <ele>968.23</ele>
        <time>2022-09-18T08:24:46Z</time>
      </trkpt>
      <trkpt lat="46.01982" lon="10.9186">
        <ele>969.09</ele>
        <time>2022-09-18T08:24:47Z</time>
      </trkpt>
      <trkpt lat="46.01983" lon="10.91859">
        <ele>970.82</ele>
        <time>2022-09-18T08:24:48Z</time>
      </trkpt>
      <trkpt lat="46.01984" lon="10.91859">
        <ele>971.44</ele>
        <time>2022-09-18T08:24:50Z</time>
      </trkpt>
      <trkpt lat="46.01986" lon="10.91859">
        <ele>971.91</ele>
        <time>2022-09-18T08:24:52Z</time>
      </trkpt>
      <trkpt lat="46.01987" lon="10.91858">
        <ele>971.3</ele>
        <time>2022-09-18T08:24:54Z</time>
      </trkpt>
      <trkpt lat="46.01988" lon="10.91858">
        <ele>972.34</ele>
        <time>2022-09-18T08:24:56Z</time>
      </trkpt>
      <trkpt lat="46.0199" lon="10.91858">
        <ele>971.93</ele>
        <time>2022-09-18T08:24:58Z</time>
      </trkpt>
      <trkpt lat="46.01991" lon="10.91858">
        <ele>1009.77</ele>
        <time>2022-09-18T08:25:00Z</time>
      </trkpt>
      <trkpt lat="46.01992" lon="10.9186">
        <ele>994.8</ele>
        <time>2022-09-18T08:25:02Z</time>
      </trkpt>
      <trkpt lat="46.01993" lon="10.91861">
        <ele>984.75</ele>
        <time>2022-09-18T08:25:04Z</time>
      </trkpt>
      <trkpt lat="46.01994" lon="10.91862">
        <ele>984.83</ele>
        <time>2022-09-18T08:25:05Z</time>
      </trkpt>
      <trkpt lat="46.01994" lon="10.91865">
        <ele>982.86</ele>
        <time>2022-09-18T08:25:07Z</time>
      </trkpt>
      <trkpt lat="46.01994" lon="10.91866">
        <ele>983.15</ele>
        <time>2022-09-18T08:25:09Z</time>
      </trkpt>
      <trkpt lat="46.01995" lon="10.91867">
        <ele>980.41</ele>
        <time>2022-09-18T08:25:12Z</time>
      </trkpt>
      <trkpt lat="46.01996" lon="10.91867">
        <ele>982.17</ele>
        <time>2022-09-18T08:25:15Z</time>
      </trkpt>
      <trkpt lat="46.01997" lon="10.91867">
        <ele>982.14</ele>
        <time>2022-09-18T08:25:17Z</time>
      </trkpt>
      <trkpt lat="46.01999" lon="10.91868">
        <ele>982.32</ele>
        <time>2022-09-18T08:25:19Z</time>
      </trkpt>
      <trkpt lat="46.02" lon="10.91868">
        <ele>982.89</ele>
        <time>2022-09-18T08:25:20Z</time>
      </trkpt>
      <trkpt lat="46.02001" lon="10.91869">
        <ele>982.44</ele>
        <time>2022-09-18T08:25:21Z</time>
      </trkpt>
      <trkpt lat="46.02002" lon="10.91869">
        <ele>982.39</ele>
        <time>2022-09-18T08:25:22Z</time>
      </trkpt>
      <trkpt lat="46.02003" lon="10.9187">
        <ele>981.71</ele>
        <time>2022-09-18T08:25:23Z</time>
      </trkpt>
      <trkpt lat="46.02003" lon="10.9187">
        <ele>981.36</ele>
        <time>2022-09-18T08:25:24Z</time>
      </trkpt>
      <trkpt lat="46.02004" lon="10.9187">
        <ele>982.97</ele>
        <time>2022-09-18T08:25:25Z</time>
      </trkpt>
      <trkpt lat="46.02005" lon="10.91871">
        <ele>981.9</ele>
        <time>2022-09-18T08:25:26Z</time>
      </trkpt>
      <trkpt lat="46.02006" lon="10.91872">
        <ele>983.07</ele>
        <time>2022-09-18T08:25:27Z</time>
      </trkpt>
      <trkpt lat="46.02007" lon="10.91873">
        <ele>984.08</ele>
        <time>2022-09-18T08:25:28Z</time>
      </trkpt>
      <trkpt lat="46.02008" lon="10.91874">
        <ele>984.12</ele>
        <time>2022-09-18T08:25:30Z</time>
      </trkpt>
      <trkpt lat="46.02008" lon="10.91875">
        <ele>983.75</ele>
        <time>2022-09-18T08:25:32Z</time>
      </trkpt>
      <trkpt lat="46.02009" lon="10.91876">
        <ele>982.75</ele>
        <time>2022-09-18T08:25:34Z</time>
      </trkpt>
      <trkpt lat="46.02011" lon="10.91877">
        <ele>984.45</ele>
        <time>2022-09-18T08:25:36Z</time>
      </trkpt>
      <trkpt lat="46.02012" lon="10.91878">
        <ele>984.29</ele>
        <time>2022-09-18T08:25:38Z</time>
      </trkpt>
      <trkpt lat="46.02014" lon="10.91879">
        <ele>982.3</ele>
        <time>2022-09-18T08:25:40Z</time>
      </trkpt>
      <trkpt lat="46.02014" lon="10.91881">
        <ele>983.31</ele>
        <time>2022-09-18T08:25:41Z</time>
      </trkpt>
      <trkpt lat="46.02015" lon="10.91882">
        <ele>984.11</ele>
        <time>2022-09-18T08:25:43Z</time>
      </trkpt>
      <trkpt lat="46.02015" lon="10.91879">
        <ele>987.37</ele>
        <time>2022-09-18T08:25:48Z</time>
      </trkpt>
      <trkpt lat="46.02015" lon="10.91877">
        <ele>986.86</ele>
        <time>2022-09-18T08:25:49Z</time>
      </trkpt>
      <trkpt lat="46.02014" lon="10.91875">
        <ele>988.29</ele>
        <time>2022-09-18T08:25:50Z</time>
      </trkpt>
      <trkpt lat="46.02013" lon="10.91874">
        <ele>987.78</ele>
        <time>2022-09-18T08:25:51Z</time>
      </trkpt>
      <trkpt lat="46.02011" lon="10.91874">
        <ele>986.85</ele>
        <time>2022-09-18T08:25:52Z</time>
      </trkpt>
      <trkpt lat="46.0201" lon="10.91873">
        <ele>987.61</ele>
        <time>2022-09-18T08:25:53Z</time>
      </trkpt>
      <trkpt lat="46.02011" lon="10.91874">
        <ele>984.81</ele>
        <time>2022-09-18T08:25:57Z</time>
      </trkpt>
      <trkpt lat="46.02012" lon="10.91875">
        <ele>984.52</ele>
        <time>2022-09-18T08:25:58Z</time>
      </trkpt>
      <trkpt lat="46.02013" lon="10.91876">
        <ele>985.22</ele>
        <time>2022-09-18T08:25:59Z</time>
      </trkpt>
      <trkpt lat="46.02014" lon="10.91877">
        <ele>984.85</ele>
        <time>2022-09-18T08:26:00Z</time>
      </trkpt>
      <trkpt lat="46.02015" lon="10.91878">
        <ele>985.43</ele>
        <time>2022-09-18T08:26:01Z</time>
      </trkpt>
      <trkpt lat="46.02016" lon="10.91878">
        <ele>984.74</ele>
        <time>2022-09-18T08:26:02Z</time>
      </trkpt>
      <trkpt lat="46.02018" lon="10.9188">
        <ele>984.45</ele>
        <time>2022-09-18T08:26:04Z</time>
      </trkpt>
      <trkpt lat="46.02019" lon="10.9188">
        <ele>985.22</ele>
        <time>2022-09-18T08:26:05Z</time>
      </trkpt>
      <trkpt lat="46.0202" lon="10.9188">
        <ele>986.1</ele>
        <time>2022-09-18T08:26:06Z</time>
      </trkpt>
      <trkpt lat="46.02021" lon="10.9188">
        <ele>986.31</ele>
        <time>2022-09-18T08:26:07Z</time>
      </trkpt>
      <trkpt lat="46.02022" lon="10.91881">
        <ele>986.32</ele>
        <time>2022-09-18T08:26:08Z</time>
      </trkpt>
      <trkpt lat="46.02024" lon="10.91881">
        <ele>986.24</ele>
        <time>2022-09-18T08:26:09Z</time>
      </trkpt>
      <trkpt lat="46.02025" lon="10.91881">
        <ele>986.27</ele>
        <time>2022-09-18T08:26:10Z</time>
      </trkpt>
      <trkpt lat="46.02026" lon="10.91881">
        <ele>986.24</ele>
        <time>2022-09-18T08:26:11Z</time>
      </trkpt>
      <trkpt lat="46.02027" lon="10.91881">
        <ele>986.27</ele>
        <time>2022-09-18T08:26:12Z</time>
      </trkpt>
      <trkpt lat="46.02028" lon="10.91882">
        <ele>986.24</ele>
        <time>2022-09-18T08:26:13Z</time>
      </trkpt>
      <trkpt lat="46.02029" lon="10.91882">
        <ele>986.28</ele>
        <time>2022-09-18T08:26:14Z</time>
      </trkpt>
      <trkpt lat="46.0203" lon="10.91882">
        <ele>986.27</ele>
        <time>2022-09-18T08:26:15Z</time>
      </trkpt>
      <trkpt lat="46.02032" lon="10.91883">
        <ele>986.27</ele>
        <time>2022-09-18T08:26:17Z</time>
      </trkpt>
      <trkpt lat="46.02033" lon="10.91884">
        <ele>986.93</ele>
        <time>2022-09-18T08:26:18Z</time>
      </trkpt>
      <trkpt lat="46.02034" lon="10.91885">
        <ele>986.13</ele>
        <time>2022-09-18T08:26:19Z</time>
      </trkpt>
      <trkpt lat="46.02035" lon="10.91886">
        <ele>986.13</ele>
        <time>2022-09-18T08:26:20Z</time>
      </trkpt>
      <trkpt lat="46.02036" lon="10.91887">
        <ele>984.3</ele>
        <time>2022-09-18T08:26:21Z</time>
      </trkpt>
      <trkpt lat="46.02037" lon="10.91887">
        <ele>985.1</ele>
        <time>2022-09-18T08:26:22Z</time>
      </trkpt>
      <trkpt lat="46.02039" lon="10.91888">
        <ele>985.34</ele>
        <time>2022-09-18T08:26:23Z</time>
      </trkpt>
      <trkpt lat="46.0204" lon="10.91888">
        <ele>985.49</ele>
        <time>2022-09-18T08:26:24Z</time>
      </trkpt>
      <trkpt lat="46.02041" lon="10.91889">
        <ele>986.13</ele>
        <time>2022-09-18T08:26:26Z</time>
      </trkpt>
      <trkpt lat="46.02042" lon="10.91889">
        <ele>987.59</ele>
        <time>2022-09-18T08:26:27Z</time>
      </trkpt>
      <trkpt lat="46.02043" lon="10.9189">
        <ele>987.64</ele>
        <time>2022-09-18T08:26:29Z</time>
      </trkpt>
      <trkpt lat="46.02043" lon="10.91891">
        <ele>989.45</ele>
        <time>2022-09-18T08:26:32Z</time>
      </trkpt>
      <trkpt lat="46.02042" lon="10.9189">
        <ele>991.65</ele>
        <time>2022-09-18T08:26:35Z</time>
      </trkpt>
      <trkpt lat="46.02043" lon="10.91889">
        <ele>991.34</ele>
        <time>2022-09-18T08:26:37Z</time>
      </trkpt>
      <trkpt lat="46.02044" lon="10.91889">
        <ele>991.81</ele>
        <time>2022-09-18T08:26:39Z</time>
      </trkpt>
      <trkpt lat="46.02045" lon="10.9189">
        <ele>993.22</ele>
        <time>2022-09-18T08:26:42Z</time>
      </trkpt>
      <trkpt lat="46.02045" lon="10.91892">
        <ele>991.38</ele>
        <time>2022-09-18T08:26:45Z</time>
      </trkpt>
      <trkpt lat="46.02046" lon="10.91893">
        <ele>992.61</ele>
        <time>2022-09-18T08:26:48Z</time>
      </trkpt>
      <trkpt lat="46.02046" lon="10.91894">
        <ele>994.16</ele>
        <time>2022-09-18T08:26:51Z</time>
      </trkpt>
      <trkpt lat="46.02047" lon="10.91895">
        <ele>996.16</ele>
        <time>2022-09-18T08:26:54Z</time>
      </trkpt>
      <trkpt lat="46.02048" lon="10.91896">
        <ele>994.27</ele>
        <time>2022-09-18T08:26:57Z</time>
      </trkpt>
      <trkpt lat="46.02049" lon="10.91898">
        <ele>995.27</ele>
        <time>2022-09-18T08:26:59Z</time>
      </trkpt>
      <trkpt lat="46.0205" lon="10.91899">
        <ele>995.65</ele>
        <time>2022-09-18T08:27:00Z</time>
      </trkpt>
      <trkpt lat="46.02051" lon="10.919">
        <ele>994.08</ele>
        <time>2022-09-18T08:27:01Z</time>
      </trkpt>
      <trkpt lat="46.02052" lon="10.91901">
        <ele>994.31</ele>
        <time>2022-09-18T08:27:02Z</time>
      </trkpt>
      <trkpt lat="46.02058" lon="10.91906">
        <ele>994.26</ele>
        <time>2022-09-18T08:27:03Z</time>
      </trkpt>
      <trkpt lat="46.02059" lon="10.91906">
        <ele>995.39</ele>
        <time>2022-09-18T08:27:05Z</time>
      </trkpt>
      <trkpt lat="46.0206" lon="10.91907">
        <ele>995.39</ele>
        <time>2022-09-18T08:27:06Z</time>
      </trkpt>
      <trkpt lat="46.02062" lon="10.91908">
        <ele>995.4</ele>
        <time>2022-09-18T08:27:08Z</time>
      </trkpt>
      <trkpt lat="46.02063" lon="10.9191">
        <ele>995.38</ele>
        <time>2022-09-18T08:27:10Z</time>
      </trkpt>
      <trkpt lat="46.02063" lon="10.91912">
        <ele>995.33</ele>
        <time>2022-09-18T08:27:12Z</time>
      </trkpt>
      <trkpt lat="46.02064" lon="10.91913">
        <ele>995.44</ele>
        <time>2022-09-18T08:27:14Z</time>
      </trkpt>
      <trkpt lat="46.02065" lon="10.91915">
        <ele>995.48</ele>
        <time>2022-09-18T08:27:16Z</time>
      </trkpt>
      <trkpt lat="46.02066" lon="10.91915">
        <ele>995.47</ele>
        <time>2022-09-18T08:27:18Z</time>
      </trkpt>
      <trkpt lat="46.02067" lon="10.91915">
        <ele>995.48</ele>
        <time>2022-09-18T08:27:19Z</time>
      </trkpt>
      <trkpt lat="46.02068" lon="10.91915">
        <ele>995.51</ele>
        <time>2022-09-18T08:27:20Z</time>
      </trkpt>
      <trkpt lat="46.02069" lon="10.91914">
        <ele>995.54</ele>
        <time>2022-09-18T08:27:21Z</time>
      </trkpt>
      <trkpt lat="46.0207" lon="10.91914">
        <ele>995.59</ele>
        <time>2022-09-18T08:27:22Z</time>
      </trkpt>
      <trkpt lat="46.02071" lon="10.91914">
        <ele>995.61</ele>
        <time>2022-09-18T08:27:23Z</time>
      </trkpt>
      <trkpt lat="46.02072" lon="10.91915">
        <ele>995.6</ele>
        <time>2022-09-18T08:27:24Z</time>
      </trkpt>
      <trkpt lat="46.02073" lon="10.91915">
        <ele>995.67</ele>
        <time>2022-09-18T08:27:25Z</time>
      </trkpt>
      <trkpt lat="46.02075" lon="10.91916">
        <ele>995.67</ele>
        <time>2022-09-18T08:27:27Z</time>
      </trkpt>
      <trkpt lat="46.02076" lon="10.91918">
        <ele>995.77</ele>
        <time>2022-09-18T08:27:29Z</time>
      </trkpt>
      <trkpt lat="46.02078" lon="10.91919">
        <ele>995.81</ele>
        <time>2022-09-18T08:27:31Z</time>
      </trkpt>
      <trkpt lat="46.02078" lon="10.91919">
        <ele>995.81</ele>
        <time>2022-09-18T08:27:32Z</time>
      </trkpt>
      <trkpt lat="46.02079" lon="10.91919">
        <ele>995.85</ele>
        <time>2022-09-18T08:27:33Z</time>
      </trkpt>
      <trkpt lat="46.0208" lon="10.9192">
        <ele>995.87</ele>
        <time>2022-09-18T08:27:34Z</time>
      </trkpt>
      <trkpt lat="46.02081" lon="10.9192">
        <ele>995.98</ele>
        <time>2022-09-18T08:27:35Z</time>
      </trkpt>
      <trkpt lat="46.02082" lon="10.91921">
        <ele>995.98</ele>
        <time>2022-09-18T08:27:36Z</time>
      </trkpt>
      <trkpt lat="46.02083" lon="10.91921">
        <ele>996</ele>
        <time>2022-09-18T08:27:37Z</time>
      </trkpt>
      <trkpt lat="46.02084" lon="10.91922">
        <ele>996.02</ele>
        <time>2022-09-18T08:27:38Z</time>
      </trkpt>
      <trkpt lat="46.02085" lon="10.91922">
        <ele>996.03</ele>
        <time>2022-09-18T08:27:40Z</time>
      </trkpt>
      <trkpt lat="46.02086" lon="10.91923">
        <ele>995.98</ele>
        <time>2022-09-18T08:27:41Z</time>
      </trkpt>
      <trkpt lat="46.02087" lon="10.91923">
        <ele>996</ele>
        <time>2022-09-18T08:27:42Z</time>
      </trkpt>
      <trkpt lat="46.02089" lon="10.91924">
        <ele>1057.04</ele>
        <time>2022-09-18T08:27:44Z</time>
      </trkpt>
      <trkpt lat="46.02086" lon="10.91923">
        <ele>1046.26</ele>
        <time>2022-09-18T08:27:45Z</time>
      </trkpt>
      <trkpt lat="46.02085" lon="10.91922">
        <ele>1037.18</ele>
        <time>2022-09-18T08:27:46Z</time>
      </trkpt>
      <trkpt lat="46.02084" lon="10.91921">
        <ele>1027.25</ele>
        <time>2022-09-18T08:27:48Z</time>
      </trkpt>
      <trkpt lat="46.02083" lon="10.91919">
        <ele>1016.7</ele>
        <time>2022-09-18T08:27:50Z</time>
      </trkpt>
      <trkpt lat="46.02083" lon="10.91918">
        <ele>1016.85</ele>
        <time>2022-09-18T08:27:52Z</time>
      </trkpt>
      <trkpt lat="46.02083" lon="10.91916">
        <ele>1014.64</ele>
        <time>2022-09-18T08:27:55Z</time>
      </trkpt>
      <trkpt lat="46.02084" lon="10.91916">
        <ele>1011.77</ele>
        <time>2022-09-18T08:27:57Z</time>
      </trkpt>
      <trkpt lat="46.02085" lon="10.91915">
        <ele>1008.33</ele>
        <time>2022-09-18T08:27:59Z</time>
      </trkpt>
      <trkpt lat="46.02087" lon="10.91915">
        <ele>1011.68</ele>
        <time>2022-09-18T08:28:01Z</time>
      </trkpt>
      <trkpt lat="46.02088" lon="10.91915">
        <ele>1012.25</ele>
        <time>2022-09-18T08:28:02Z</time>
      </trkpt>
      <trkpt lat="46.02089" lon="10.91915">
        <ele>1012.34</ele>
        <time>2022-09-18T08:28:03Z</time>
      </trkpt>
      <trkpt lat="46.0209" lon="10.91916">
        <ele>1010.84</ele>
        <time>2022-09-18T08:28:04Z</time>
      </trkpt>
      <trkpt lat="46.02091" lon="10.91917">
        <ele>1013.83</ele>
        <time>2022-09-18T08:28:06Z</time>
      </trkpt>
      <trkpt lat="46.02092" lon="10.91917">
        <ele>1011.52</ele>
        <time>2022-09-18T08:28:08Z</time>
      </trkpt>
      <trkpt lat="46.02093" lon="10.91917">
        <ele>1010.57</ele>
        <time>2022-09-18T08:28:10Z</time>
      </trkpt>
      <trkpt lat="46.02094" lon="10.91917">
        <ele>1009.95</ele>
        <time>2022-09-18T08:28:12Z</time>
      </trkpt>
      <trkpt lat="46.02096" lon="10.91916">
        <ele>1010.79</ele>
        <time>2022-09-18T08:28:14Z</time>
      </trkpt>
      <trkpt lat="46.02097" lon="10.91916">
        <ele>1010.67</ele>
        <time>2022-09-18T08:28:15Z</time>
      </trkpt>
      <trkpt lat="46.02098" lon="10.91916">
        <ele>1012.02</ele>
        <time>2022-09-18T08:28:19Z</time>
      </trkpt>
      <trkpt lat="46.02099" lon="10.91916">
        <ele>1011.46</ele>
        <time>2022-09-18T08:28:22Z</time>
      </trkpt>
      <trkpt lat="46.021" lon="10.91917">
        <ele>1011.69</ele>
        <time>2022-09-18T08:28:24Z</time>
      </trkpt>
      <trkpt lat="46.021" lon="10.91918">
        <ele>1013.44</ele>
        <time>2022-09-18T08:28:27Z</time>
      </trkpt>
      <trkpt lat="46.02101" lon="10.91919">
        <ele>1012.1</ele>
        <time>2022-09-18T08:28:28Z</time>
      </trkpt>
      <trkpt lat="46.02102" lon="10.91919">
        <ele>1012.29</ele>
        <time>2022-09-18T08:28:29Z</time>
      </trkpt>
      <trkpt lat="46.02103" lon="10.91919">
        <ele>1012.59</ele>
        <time>2022-09-18T08:28:32Z</time>
      </trkpt>
      <trkpt lat="46.02104" lon="10.91919">
        <ele>1012.09</ele>
        <time>2022-09-18T08:28:34Z</time>
      </trkpt>
      <trkpt lat="46.02105" lon="10.9192">
        <ele>1011.76</ele>
        <time>2022-09-18T08:28:35Z</time>
      </trkpt>
      <trkpt lat="46.02106" lon="10.91921">
        <ele>1011.62</ele>
        <time>2022-09-18T08:28:36Z</time>
      </trkpt>
      <trkpt lat="46.02106" lon="10.91923">
        <ele>1012.59</ele>
        <time>2022-09-18T08:28:38Z</time>
      </trkpt>
      <trkpt lat="46.02106" lon="10.91925">
        <ele>1013.73</ele>
        <time>2022-09-18T08:28:40Z</time>
      </trkpt>
      <trkpt lat="46.02106" lon="10.91926">
        <ele>1014.44</ele>
        <time>2022-09-18T08:28:41Z</time>
      </trkpt>
      <trkpt lat="46.02107" lon="10.91927">
        <ele>1013.91</ele>
        <time>2022-09-18T08:28:42Z</time>
      </trkpt>
      <trkpt lat="46.02108" lon="10.91927">
        <ele>1052.87</ele>
        <time>2022-09-18T08:28:44Z</time>
      </trkpt>
      <trkpt lat="46.02109" lon="10.91926">
        <ele>1043.11</ele>
        <time>2022-09-18T08:28:45Z</time>
      </trkpt>
      <trkpt lat="46.0211" lon="10.91925">
        <ele>1037.1</ele>
        <time>2022-09-18T08:28:46Z</time>
      </trkpt>
      <trkpt lat="46.0211" lon="10.91923">
        <ele>1033.73</ele>
        <time>2022-09-18T08:28:47Z</time>
      </trkpt>
      <trkpt lat="46.02111" lon="10.91922">
        <ele>1031.4</ele>
        <time>2022-09-18T08:28:48Z</time>
      </trkpt>
      <trkpt lat="46.02112" lon="10.91922">
        <ele>1029.06</ele>
        <time>2022-09-18T08:28:49Z</time>
      </trkpt>
      <trkpt lat="46.02113" lon="10.91923">
        <ele>1026.16</ele>
        <time>2022-09-18T08:28:50Z</time>
      </trkpt>
      <trkpt lat="46.02114" lon="10.91925">
        <ele>1024.07</ele>
        <time>2022-09-18T08:28:51Z</time>
      </trkpt>
      <trkpt lat="46.02115" lon="10.91927">
        <ele>1025.29</ele>
        <time>2022-09-18T08:28:52Z</time>
      </trkpt>
      <trkpt lat="46.02116" lon="10.91928">
        <ele>1025.16</ele>
        <time>2022-09-18T08:28:53Z</time>
      </trkpt>
      <trkpt lat="46.02117" lon="10.91929">
        <ele>1024.31</ele>
        <time>2022-09-18T08:28:54Z</time>
      </trkpt>
      <trkpt lat="46.02117" lon="10.9193">
        <ele>1023.3</ele>
        <time>2022-09-18T08:28:55Z</time>
      </trkpt>
      <trkpt lat="46.02119" lon="10.91931">
        <ele>1022.76</ele>
        <time>2022-09-18T08:28:56Z</time>
      </trkpt>
      <trkpt lat="46.0212" lon="10.91933">
        <ele>1022.92</ele>
        <time>2022-09-18T08:28:57Z</time>
      </trkpt>
      <trkpt lat="46.02121" lon="10.91934">
        <ele>1022.85</ele>
        <time>2022-09-18T08:28:58Z</time>
      </trkpt>
      <trkpt lat="46.02121" lon="10.91935">
        <ele>1020</ele>
        <time>2022-09-18T08:29:00Z</time>
      </trkpt>
      <trkpt lat="46.02122" lon="10.91936">
        <ele>1022.1</ele>
        <time>2022-09-18T08:29:02Z</time>
      </trkpt>
      <trkpt lat="46.02123" lon="10.91937">
        <ele>1023.38</ele>
        <time>2022-09-18T08:29:05Z</time>
      </trkpt>
      <trkpt lat="46.02118" lon="10.91934">
        <ele>1028.97</ele>
        <time>2022-09-18T08:29:11Z</time>
      </trkpt>
      <trkpt lat="46.02118" lon="10.91932">
        <ele>1058.86</ele>
        <time>2022-09-18T08:29:14Z</time>
      </trkpt>
      <trkpt lat="46.02117" lon="10.9193">
        <ele>1048.24</ele>
        <time>2022-09-18T08:29:16Z</time>
      </trkpt>
      <trkpt lat="46.02116" lon="10.91929">
        <ele>1045.91</ele>
        <time>2022-09-18T08:29:17Z</time>
      </trkpt>
      <trkpt lat="46.02115" lon="10.91927">
        <ele>1043.38</ele>
        <time>2022-09-18T08:29:18Z</time>
      </trkpt>
      <trkpt lat="46.02115" lon="10.91926">
        <ele>1038.1</ele>
        <time>2022-09-18T08:29:20Z</time>
      </trkpt>
      <trkpt lat="46.02115" lon="10.91924">
        <ele>1038.01</ele>
        <time>2022-09-18T08:29:22Z</time>
      </trkpt>
      <trkpt lat="46.02115" lon="10.91922">
        <ele>1035.73</ele>
        <time>2022-09-18T08:29:24Z</time>
      </trkpt>
      <trkpt lat="46.02115" lon="10.91921">
        <ele>1033.31</ele>
        <time>2022-09-18T08:29:25Z</time>
      </trkpt>
      <trkpt lat="46.02114" lon="10.91919">
        <ele>1031.32</ele>
        <time>2022-09-18T08:29:26Z</time>
      </trkpt>
      <trkpt lat="46.02114" lon="10.91918">
        <ele>1032.53</ele>
        <time>2022-09-18T08:29:27Z</time>
      </trkpt>
      <trkpt lat="46.02113" lon="10.91917">
        <ele>1030.64</ele>
        <time>2022-09-18T08:29:28Z</time>
      </trkpt>
      <trkpt lat="46.02113" lon="10.91915">
        <ele>1033.02</ele>
        <time>2022-09-18T08:29:31Z</time>
      </trkpt>
      <trkpt lat="46.02114" lon="10.91913">
        <ele>1034.2</ele>
        <time>2022-09-18T08:29:32Z</time>
      </trkpt>
      <trkpt lat="46.02114" lon="10.91913">
        <ele>1034.03</ele>
        <time>2022-09-18T08:29:33Z</time>
      </trkpt>
      <trkpt lat="46.02115" lon="10.91912">
        <ele>1034.01</ele>
        <time>2022-09-18T08:29:34Z</time>
      </trkpt>
      <trkpt lat="46.02115" lon="10.9191">
        <ele>1033.83</ele>
        <time>2022-09-18T08:29:36Z</time>
      </trkpt>
      <trkpt lat="46.02116" lon="10.91907">
        <ele>1033.79</ele>
        <time>2022-09-18T08:29:38Z</time>
      </trkpt>
      <trkpt lat="46.02116" lon="10.91906">
        <ele>1033.47</ele>
        <time>2022-09-18T08:29:40Z</time>
      </trkpt>
      <trkpt lat="46.02116" lon="10.91904">
        <ele>1033.44</ele>
        <time>2022-09-18T08:29:42Z</time>
      </trkpt>
      <trkpt lat="46.02115" lon="10.919">
        <ele>1032.27</ele>
        <time>2022-09-18T08:29:44Z</time>
      </trkpt>
      <trkpt lat="46.02113" lon="10.91899">
        <ele>1030.3</ele>
        <time>2022-09-18T08:29:45Z</time>
      </trkpt>
      <trkpt lat="46.02112" lon="10.91898">
        <ele>1031.86</ele>
        <time>2022-09-18T08:29:46Z</time>
      </trkpt>
      <trkpt lat="46.02112" lon="10.91897">
        <ele>1032.97</ele>
        <time>2022-09-18T08:29:47Z</time>
      </trkpt>
      <trkpt lat="46.02111" lon="10.91896">
        <ele>1036.59</ele>
        <time>2022-09-18T08:29:48Z</time>
      </trkpt>
      <trkpt lat="46.0211" lon="10.91895">
        <ele>1035.13</ele>
        <time>2022-09-18T08:29:49Z</time>
      </trkpt>
      <trkpt lat="46.02109" lon="10.91894">
        <ele>1040.29</ele>
        <time>2022-09-18T08:29:51Z</time>
      </trkpt>
      <trkpt lat="46.02109" lon="10.91892">
        <ele>1041.14</ele>
        <time>2022-09-18T08:29:53Z</time>
      </trkpt>
      <trkpt lat="46.02109" lon="10.9189">
        <ele>1039.98</ele>
        <time>2022-09-18T08:29:56Z</time>
      </trkpt>
      <trkpt lat="46.02108" lon="10.91889">
        <ele>1044.09</ele>
        <time>2022-09-18T08:29:58Z</time>
      </trkpt>
      <trkpt lat="46.02108" lon="10.91887">
        <ele>1044.42</ele>
        <time>2022-09-18T08:30:01Z</time>
      </trkpt>
      <trkpt lat="46.02108" lon="10.91886">
        <ele>1046.67</ele>
        <time>2022-09-18T08:30:06Z</time>
      </trkpt>
      <trkpt lat="46.02108" lon="10.91884">
        <ele>1046.53</ele>
        <time>2022-09-18T08:30:09Z</time>
      </trkpt>
      <trkpt lat="46.02108" lon="10.91883">
        <ele>1045.77</ele>
        <time>2022-09-18T08:30:11Z</time>
      </trkpt>
      <trkpt lat="46.02109" lon="10.91881">
        <ele>1049.08</ele>
        <time>2022-09-18T08:30:13Z</time>
      </trkpt>
      <trkpt lat="46.02109" lon="10.91878">
        <ele>1046.36</ele>
        <time>2022-09-18T08:30:15Z</time>
      </trkpt>
      <trkpt lat="46.02108" lon="10.91876">
        <ele>1048.12</ele>
        <time>2022-09-18T08:30:17Z</time>
      </trkpt>
      <trkpt lat="46.02108" lon="10.91874">
        <ele>1046.57</ele>
        <time>2022-09-18T08:30:19Z</time>
      </trkpt>
      <trkpt lat="46.02108" lon="10.91873">
        <ele>1046.46</ele>
        <time>2022-09-18T08:30:21Z</time>
      </trkpt>
      <trkpt lat="46.02108" lon="10.91871">
        <ele>1046.54</ele>
        <time>2022-09-18T08:30:23Z</time>
      </trkpt>
      <trkpt lat="46.02107" lon="10.91869">
        <ele>1046.58</ele>
        <time>2022-09-18T08:30:25Z</time>
      </trkpt>
      <trkpt lat="46.02106" lon="10.91868">
        <ele>1046.7</ele>
        <time>2022-09-18T08:30:27Z</time>
      </trkpt>
      <trkpt lat="46.02105" lon="10.91867">
        <ele>1053.17</ele>
        <time>2022-09-18T08:30:30Z</time>
      </trkpt>
      <trkpt lat="46.02105" lon="10.91865">
        <ele>1051.68</ele>
        <time>2022-09-18T08:30:32Z</time>
      </trkpt>
      <trkpt lat="46.02105" lon="10.91865">
        <ele>1050.25</ele>
        <time>2022-09-18T08:30:34Z</time>
      </trkpt>
      <trkpt lat="46.02106" lon="10.91863">
        <ele>1047.87</ele>
        <time>2022-09-18T08:30:36Z</time>
      </trkpt>
      <trkpt lat="46.02107" lon="10.91862">
        <ele>1047.22</ele>
        <time>2022-09-18T08:30:37Z</time>
      </trkpt>
      <trkpt lat="46.02107" lon="10.91861">
        <ele>1050.59</ele>
        <time>2022-09-18T08:30:39Z</time>
      </trkpt>
      <trkpt lat="46.02107" lon="10.91859">
        <ele>1050.37</ele>
        <time>2022-09-18T08:30:41Z</time>
      </trkpt>
      <trkpt lat="46.02106" lon="10.91857">
        <ele>1051.83</ele>
        <time>2022-09-18T08:30:43Z</time>
      </trkpt>
      <trkpt lat="46.02105" lon="10.91857">
        <ele>1051.76</ele>
        <time>2022-09-18T08:30:45Z</time>
      </trkpt>
      <trkpt lat="46.02105" lon="10.91855">
        <ele>1053.34</ele>
        <time>2022-09-18T08:30:48Z</time>
      </trkpt>
      <trkpt lat="46.02104" lon="10.91854">
        <ele>1052.61</ele>
        <time>2022-09-18T08:30:49Z</time>
      </trkpt>
      <trkpt lat="46.02104" lon="10.91852">
        <ele>1052.41</ele>
        <time>2022-09-18T08:30:50Z</time>
      </trkpt>
      <trkpt lat="46.02103" lon="10.9185">
        <ele>1053</ele>
        <time>2022-09-18T08:30:51Z</time>
      </trkpt>
      <trkpt lat="46.02103" lon="10.91848">
        <ele>1052.12</ele>
        <time>2022-09-18T08:30:52Z</time>
      </trkpt>
      <trkpt lat="46.02104" lon="10.91846">
        <ele>1050.38</ele>
        <time>2022-09-18T08:30:54Z</time>
      </trkpt>
      <trkpt lat="46.02104" lon="10.91845">
        <ele>1047.53</ele>
        <time>2022-09-18T08:30:57Z</time>
      </trkpt>
      <trkpt lat="46.02104" lon="10.91843">
        <ele>1048.95</ele>
        <time>2022-09-18T08:30:59Z</time>
      </trkpt>
      <trkpt lat="46.02103" lon="10.91841">
        <ele>1047.4</ele>
        <time>2022-09-18T08:31:01Z</time>
      </trkpt>
      <trkpt lat="46.02103" lon="10.91839">
        <ele>1046.43</ele>
        <time>2022-09-18T08:31:02Z</time>
      </trkpt>
      <trkpt lat="46.02102" lon="10.91838">
        <ele>1047.43</ele>
        <time>2022-09-18T08:31:03Z</time>
      </trkpt>
      <trkpt lat="46.02101" lon="10.91836">
        <ele>1049.64</ele>
        <time>2022-09-18T08:31:04Z</time>
      </trkpt>
      <trkpt lat="46.02101" lon="10.91835">
        <ele>1048.83</ele>
        <time>2022-09-18T08:31:05Z</time>
      </trkpt>
      <trkpt lat="46.021" lon="10.91834">
        <ele>1048.68</ele>
        <time>2022-09-18T08:31:06Z</time>
      </trkpt>
      <trkpt lat="46.02099" lon="10.91833">
        <ele>1048.21</ele>
        <time>2022-09-18T08:31:07Z</time>
      </trkpt>
      <trkpt lat="46.02099" lon="10.91832">
        <ele>1047.75</ele>
        <time>2022-09-18T08:31:08Z</time>
      </trkpt>
      <trkpt lat="46.02098" lon="10.91831">
        <ele>1047.86</ele>
        <time>2022-09-18T08:31:10Z</time>
      </trkpt>
      <trkpt lat="46.02097" lon="10.91829">
        <ele>1046.27</ele>
        <time>2022-09-18T08:31:13Z</time>
      </trkpt>
      <trkpt lat="46.02096" lon="10.91829">
        <ele>1046.29</ele>
        <time>2022-09-18T08:31:15Z</time>
      </trkpt>
      <trkpt lat="46.02095" lon="10.91828">
        <ele>1047.83</ele>
        <time>2022-09-18T08:31:20Z</time>
      </trkpt>
      <trkpt lat="46.02094" lon="10.91827">
        <ele>1048.81</ele>
        <time>2022-09-18T08:31:22Z</time>
      </trkpt>
      <trkpt lat="46.02094" lon="10.91825">
        <ele>1048.68</ele>
        <time>2022-09-18T08:31:26Z</time>
      </trkpt>
      <trkpt lat="46.02094" lon="10.91823">
        <ele>1047.13</ele>
        <time>2022-09-18T08:31:28Z</time>
      </trkpt>
      <trkpt lat="46.02095" lon="10.91821">
        <ele>1046.48</ele>
        <time>2022-09-18T08:31:30Z</time>
      </trkpt>
      <trkpt lat="46.02096" lon="10.9182">
        <ele>1045.85</ele>
        <time>2022-09-18T08:31:32Z</time>
      </trkpt>
      <trkpt lat="46.02097" lon="10.91818">
        <ele>1046.51</ele>
        <time>2022-09-18T08:31:34Z</time>
      </trkpt>
      <trkpt lat="46.02096" lon="10.91816">
        <ele>1047.18</ele>
        <time>2022-09-18T08:31:36Z</time>
      </trkpt>
      <trkpt lat="46.02095" lon="10.91815">
        <ele>1047.56</ele>
        <time>2022-09-18T08:31:38Z</time>
      </trkpt>
      <trkpt lat="46.02094" lon="10.91814">
        <ele>1046.94</ele>
        <time>2022-09-18T08:31:39Z</time>
      </trkpt>
      <trkpt lat="46.02093" lon="10.91812">
        <ele>1046.59</ele>
        <time>2022-09-18T08:31:41Z</time>
      </trkpt>
      <trkpt lat="46.02092" lon="10.91811">
        <ele>1047.06</ele>
        <time>2022-09-18T08:31:42Z</time>
      </trkpt>
      <trkpt lat="46.02092" lon="10.9181">
        <ele>1047.87</ele>
        <time>2022-09-18T08:31:43Z</time>
      </trkpt>
      <trkpt lat="46.02091" lon="10.91808">
        <ele>1048.32</ele>
        <time>2022-09-18T08:31:45Z</time>
      </trkpt>
      <trkpt lat="46.02091" lon="10.91805">
        <ele>1050.56</ele>
        <time>2022-09-18T08:31:47Z</time>
      </trkpt>
      <trkpt lat="46.02091" lon="10.91804">
        <ele>1052</ele>
        <time>2022-09-18T08:31:49Z</time>
      </trkpt>
      <trkpt lat="46.0209" lon="10.91802">
        <ele>1052.84</ele>
        <time>2022-09-18T08:31:51Z</time>
      </trkpt>
      <trkpt lat="46.0209" lon="10.91801">
        <ele>1054.52</ele>
        <time>2022-09-18T08:31:54Z</time>
      </trkpt>
      <trkpt lat="46.0209" lon="10.91799">
        <ele>1054.04</ele>
        <time>2022-09-18T08:31:57Z</time>
      </trkpt>
      <trkpt lat="46.0209" lon="10.91798">
        <ele>1055.75</ele>
        <time>2022-09-18T08:32:00Z</time>
      </trkpt>
      <trkpt lat="46.02089" lon="10.91797">
        <ele>1056.21</ele>
        <time>2022-09-18T08:32:02Z</time>
      </trkpt>
      <trkpt lat="46.02089" lon="10.91794">
        <ele>1055.11</ele>
        <time>2022-09-18T08:32:05Z</time>
      </trkpt>
      <trkpt lat="46.02089" lon="10.91793">
        <ele>1056.04</ele>
        <time>2022-09-18T08:32:06Z</time>
      </trkpt>
      <trkpt lat="46.02089" lon="10.91791">
        <ele>1056.8</ele>
        <time>2022-09-18T08:32:07Z</time>
      </trkpt>
      <trkpt lat="46.02089" lon="10.9179">
        <ele>1057.84</ele>
        <time>2022-09-18T08:32:09Z</time>
      </trkpt>
      <trkpt lat="46.02088" lon="10.91788">
        <ele>1057.01</ele>
        <time>2022-09-18T08:32:11Z</time>
      </trkpt>
      <trkpt lat="46.02087" lon="10.91787">
        <ele>1057.37</ele>
        <time>2022-09-18T08:32:13Z</time>
      </trkpt>
      <trkpt lat="46.02087" lon="10.91784">
        <ele>1057.98</ele>
        <time>2022-09-18T08:32:15Z</time>
      </trkpt>
      <trkpt lat="46.02087" lon="10.91782">
        <ele>1058.3</ele>
        <time>2022-09-18T08:32:16Z</time>
      </trkpt>
      <trkpt lat="46.02086" lon="10.91781">
        <ele>1057.31</ele>
        <time>2022-09-18T08:32:17Z</time>
      </trkpt>
      <trkpt lat="46.02086" lon="10.91779">
        <ele>1058.35</ele>
        <time>2022-09-18T08:32:18Z</time>
      </trkpt>
      <trkpt lat="46.02086" lon="10.91778">
        <ele>1057.52</ele>
        <time>2022-09-18T08:32:19Z</time>
      </trkpt>
      <trkpt lat="46.02086" lon="10.91776">
        <ele>1057.12</ele>
        <time>2022-09-18T08:32:20Z</time>
      </trkpt>
      <trkpt lat="46.02086" lon="10.91775">
        <ele>1057.21</ele>
        <time>2022-09-18T08:32:21Z</time>
      </trkpt>
      <trkpt lat="46.02086" lon="10.91774">
        <ele>1056.61</ele>
        <time>2022-09-18T08:32:22Z</time>
      </trkpt>
      <trkpt lat="46.02086" lon="10.91772">
        <ele>1057.69</ele>
        <time>2022-09-18T08:32:23Z</time>
      </trkpt>
      <trkpt lat="46.02086" lon="10.91771">
        <ele>1056.68</ele>
        <time>2022-09-18T08:32:24Z</time>
      </trkpt>
      <trkpt lat="46.02086" lon="10.91769">
        <ele>1056.68</ele>
        <time>2022-09-18T08:32:25Z</time>
      </trkpt>
      <trkpt lat="46.02087" lon="10.91768">
        <ele>1057.6</ele>
        <time>2022-09-18T08:32:26Z</time>
      </trkpt>
      <trkpt lat="46.02088" lon="10.91769">
        <ele>1058.47</ele>
        <time>2022-09-18T08:32:27Z</time>
      </trkpt>
      <trkpt lat="46.02087" lon="10.91767">
        <ele>1060.02</ele>
        <time>2022-09-18T08:32:29Z</time>
      </trkpt>
      <trkpt lat="46.02085" lon="10.91766">
        <ele>1060.64</ele>
        <time>2022-09-18T08:32:31Z</time>
      </trkpt>
      <trkpt lat="46.02084" lon="10.91766">
        <ele>1062.58</ele>
        <time>2022-09-18T08:32:32Z</time>
      </trkpt>
      <trkpt lat="46.02082" lon="10.91766">
        <ele>1061.77</ele>
        <time>2022-09-18T08:32:33Z</time>
      </trkpt>
      <trkpt lat="46.02081" lon="10.91767">
        <ele>1062.76</ele>
        <time>2022-09-18T08:32:34Z</time>
      </trkpt>
      <trkpt lat="46.0208" lon="10.91767">
        <ele>1063.81</ele>
        <time>2022-09-18T08:32:35Z</time>
      </trkpt>
      <trkpt lat="46.02079" lon="10.91766">
        <ele>1063.78</ele>
        <time>2022-09-18T08:32:37Z</time>
      </trkpt>
      <trkpt lat="46.02079" lon="10.91765">
        <ele>1063.63</ele>
        <time>2022-09-18T08:32:39Z</time>
      </trkpt>
      <trkpt lat="46.02079" lon="10.91762">
        <ele>1065.47</ele>
        <time>2022-09-18T08:32:44Z</time>
      </trkpt>
      <trkpt lat="46.02078" lon="10.9176">
        <ele>1064.58</ele>
        <time>2022-09-18T08:32:46Z</time>
      </trkpt>
      <trkpt lat="46.02077" lon="10.91758">
        <ele>1066.2</ele>
        <time>2022-09-18T08:32:48Z</time>
      </trkpt>
      <trkpt lat="46.02076" lon="10.91757">
        <ele>1066.49</ele>
        <time>2022-09-18T08:32:49Z</time>
      </trkpt>
      <trkpt lat="46.02075" lon="10.91756">
        <ele>1068.68</ele>
        <time>2022-09-18T08:32:50Z</time>
      </trkpt>
      <trkpt lat="46.02074" lon="10.91755">
        <ele>1067.9</ele>
        <time>2022-09-18T08:32:51Z</time>
      </trkpt>
      <trkpt lat="46.02074" lon="10.91753">
        <ele>1069.23</ele>
        <time>2022-09-18T08:32:52Z</time>
      </trkpt>
      <trkpt lat="46.02073" lon="10.91751">
        <ele>1069.81</ele>
        <time>2022-09-18T08:32:53Z</time>
      </trkpt>
      <trkpt lat="46.02072" lon="10.91749">
        <ele>1069.37</ele>
        <time>2022-09-18T08:32:54Z</time>
      </trkpt>
      <trkpt lat="46.02072" lon="10.91747">
        <ele>1069.98</ele>
        <time>2022-09-18T08:32:55Z</time>
      </trkpt>
      <trkpt lat="46.02072" lon="10.91745">
        <ele>1069.97</ele>
        <time>2022-09-18T08:32:56Z</time>
      </trkpt>
      <trkpt lat="46.02073" lon="10.91742">
        <ele>1069.93</ele>
        <time>2022-09-18T08:32:57Z</time>
      </trkpt>
      <trkpt lat="46.02073" lon="10.9174">
        <ele>1068.32</ele>
        <time>2022-09-18T08:32:58Z</time>
      </trkpt>
      <trkpt lat="46.02074" lon="10.91739">
        <ele>1067.81</ele>
        <time>2022-09-18T08:32:59Z</time>
      </trkpt>
      <trkpt lat="46.02075" lon="10.91739">
        <ele>1066.83</ele>
        <time>2022-09-18T08:33:01Z</time>
      </trkpt>
      <trkpt lat="46.02076" lon="10.91738">
        <ele>1066.12</ele>
        <time>2022-09-18T08:33:03Z</time>
      </trkpt>
      <trkpt lat="46.02077" lon="10.91737">
        <ele>1066.24</ele>
        <time>2022-09-18T08:33:04Z</time>
      </trkpt>
      <trkpt lat="46.02078" lon="10.91736">
        <ele>1067.07</ele>
        <time>2022-09-18T08:33:06Z</time>
      </trkpt>
      <trkpt lat="46.02079" lon="10.91735">
        <ele>1067.87</ele>
        <time>2022-09-18T08:33:08Z</time>
      </trkpt>
      <trkpt lat="46.02079" lon="10.91733">
        <ele>1067.54</ele>
        <time>2022-09-18T08:33:10Z</time>
      </trkpt>
      <trkpt lat="46.02079" lon="10.91732">
        <ele>1069.88</ele>
        <time>2022-09-18T08:33:13Z</time>
      </trkpt>
      <trkpt lat="46.02078" lon="10.9173">
        <ele>1069.25</ele>
        <time>2022-09-18T08:33:15Z</time>
      </trkpt>
      <trkpt lat="46.02078" lon="10.91728">
        <ele>1069.24</ele>
        <time>2022-09-18T08:33:16Z</time>
      </trkpt>
      <trkpt lat="46.02077" lon="10.91726">
        <ele>1069.22</ele>
        <time>2022-09-18T08:33:17Z</time>
      </trkpt>
      <trkpt lat="46.02077" lon="10.91725">
        <ele>1069.2</ele>
        <time>2022-09-18T08:33:18Z</time>
      </trkpt>
      <trkpt lat="46.02077" lon="10.91723">
        <ele>1069.11</ele>
        <time>2022-09-18T08:33:20Z</time>
      </trkpt>
      <trkpt lat="46.02078" lon="10.91722">
        <ele>1072.66</ele>
        <time>2022-09-18T08:33:23Z</time>
      </trkpt>
      <trkpt lat="46.02079" lon="10.91722">
        <ele>1071.54</ele>
        <time>2022-09-18T08:33:24Z</time>
      </trkpt>
      <trkpt lat="46.02082" lon="10.91722">
        <ele>1069.98</ele>
        <time>2022-09-18T08:33:26Z</time>
      </trkpt>
      <trkpt lat="46.02082" lon="10.91723">
        <ele>1069.75</ele>
        <time>2022-09-18T08:33:27Z</time>
      </trkpt>
      <trkpt lat="46.02083" lon="10.91724">
        <ele>1070.83</ele>
        <time>2022-09-18T08:33:28Z</time>
      </trkpt>
      <trkpt lat="46.02084" lon="10.91726">
        <ele>1070.36</ele>
        <time>2022-09-18T08:33:29Z</time>
      </trkpt>
      <trkpt lat="46.02084" lon="10.91728">
        <ele>1070.56</ele>
        <time>2022-09-18T08:33:30Z</time>
      </trkpt>
      <trkpt lat="46.02084" lon="10.91729">
        <ele>1070.37</ele>
        <time>2022-09-18T08:33:31Z</time>
      </trkpt>
      <trkpt lat="46.02085" lon="10.9173">
        <ele>1070.34</ele>
        <time>2022-09-18T08:33:32Z</time>
      </trkpt>
      <trkpt lat="46.02085" lon="10.91731">
        <ele>1070.3</ele>
        <time>2022-09-18T08:33:33Z</time>
      </trkpt>
      <trkpt lat="46.02086" lon="10.91733">
        <ele>1070.3</ele>
        <time>2022-09-18T08:33:34Z</time>
      </trkpt>
      <trkpt lat="46.02086" lon="10.91734">
        <ele>1070.25</ele>
        <time>2022-09-18T08:33:35Z</time>
      </trkpt>
      <trkpt lat="46.02087" lon="10.91736">
        <ele>1070.21</ele>
        <time>2022-09-18T08:33:36Z</time>
      </trkpt>
      <trkpt lat="46.02089" lon="10.91736">
        <ele>1068.49</ele>
        <time>2022-09-18T08:33:37Z</time>
      </trkpt>
      <trkpt lat="46.02092" lon="10.91737">
        <ele>1069.12</ele>
        <time>2022-09-18T08:33:38Z</time>
      </trkpt>
      <trkpt lat="46.02093" lon="10.91737">
        <ele>1069.92</ele>
        <time>2022-09-18T08:33:39Z</time>
      </trkpt>
      <trkpt lat="46.02094" lon="10.91736">
        <ele>1068.93</ele>
        <time>2022-09-18T08:33:40Z</time>
      </trkpt>
      <trkpt lat="46.02095" lon="10.91736">
        <ele>1067.92</ele>
        <time>2022-09-18T08:33:41Z</time>
      </trkpt>
      <trkpt lat="46.02096" lon="10.91735">
        <ele>1068.76</ele>
        <time>2022-09-18T08:33:42Z</time>
      </trkpt>
      <trkpt lat="46.02097" lon="10.91734">
        <ele>1068.51</ele>
        <time>2022-09-18T08:33:44Z</time>
      </trkpt>
      <trkpt lat="46.02099" lon="10.91734">
        <ele>1068.28</ele>
        <time>2022-09-18T08:33:46Z</time>
      </trkpt>
      <trkpt lat="46.021" lon="10.91736">
        <ele>1064.95</ele>
        <time>2022-09-18T08:33:48Z</time>
      </trkpt>
      <trkpt lat="46.021" lon="10.91739">
        <ele>1066.53</ele>
        <time>2022-09-18T08:33:49Z</time>
      </trkpt>
      <trkpt lat="46.02101" lon="10.91739">
        <ele>1066.99</ele>
        <time>2022-09-18T08:33:51Z</time>
      </trkpt>
      <trkpt lat="46.02102" lon="10.91739">
        <ele>1067.42</ele>
        <time>2022-09-18T08:33:53Z</time>
      </trkpt>
      <trkpt lat="46.02103" lon="10.91739">
        <ele>1064.77</ele>
        <time>2022-09-18T08:33:55Z</time>
      </trkpt>
      <trkpt lat="46.02105" lon="10.91739">
        <ele>1064.57</ele>
        <time>2022-09-18T08:33:58Z</time>
      </trkpt>
      <trkpt lat="46.02106" lon="10.91738">
        <ele>1064.76</ele>
        <time>2022-09-18T08:34:01Z</time>
      </trkpt>
      <trkpt lat="46.02107" lon="10.91739">
        <ele>1066.15</ele>
        <time>2022-09-18T08:34:03Z</time>
      </trkpt>
      <trkpt lat="46.02107" lon="10.9174">
        <ele>1066.9</ele>
        <time>2022-09-18T08:34:04Z</time>
      </trkpt>
      <trkpt lat="46.02108" lon="10.91742">
        <ele>1067.21</ele>
        <time>2022-09-18T08:34:09Z</time>
      </trkpt>
      <trkpt lat="46.02109" lon="10.91743">
        <ele>1067.18</ele>
        <time>2022-09-18T08:34:10Z</time>
      </trkpt>
      <trkpt lat="46.02109" lon="10.91744">
        <ele>1067.18</ele>
        <time>2022-09-18T08:34:11Z</time>
      </trkpt>
      <trkpt lat="46.0211" lon="10.91745">
        <ele>1067.44</ele>
        <time>2022-09-18T08:34:12Z</time>
      </trkpt>
      <trkpt lat="46.02111" lon="10.91746">
        <ele>1067.43</ele>
        <time>2022-09-18T08:34:13Z</time>
      </trkpt>
      <trkpt lat="46.02112" lon="10.91747">
        <ele>1067.59</ele>
        <time>2022-09-18T08:34:15Z</time>
      </trkpt>
      <trkpt lat="46.02112" lon="10.91748">
        <ele>1067.59</ele>
        <time>2022-09-18T08:34:16Z</time>
      </trkpt>
      <trkpt lat="46.02113" lon="10.9175">
        <ele>1067.4</ele>
        <time>2022-09-18T08:34:18Z</time>
      </trkpt>
      <trkpt lat="46.02115" lon="10.91751">
        <ele>1067.22</ele>
        <time>2022-09-18T08:34:20Z</time>
      </trkpt>
      <trkpt lat="46.02116" lon="10.91753">
        <ele>1076.84</ele>
        <time>2022-09-18T08:34:22Z</time>
      </trkpt>
      <trkpt lat="46.02117" lon="10.91753">
        <ele>1075.21</ele>
        <time>2022-09-18T08:34:23Z</time>
      </trkpt>
      <trkpt lat="46.02118" lon="10.91753">
        <ele>1073.83</ele>
        <time>2022-09-18T08:34:25Z</time>
      </trkpt>
      <trkpt lat="46.02119" lon="10.91754">
        <ele>1075.43</ele>
        <time>2022-09-18T08:34:28Z</time>
      </trkpt>
      <trkpt lat="46.0212" lon="10.91754">
        <ele>1076.18</ele>
        <time>2022-09-18T08:34:37Z</time>
      </trkpt>
      <trkpt lat="46.02122" lon="10.91754">
        <ele>1076.96</ele>
        <time>2022-09-18T08:34:39Z</time>
      </trkpt>
      <trkpt lat="46.02124" lon="10.91754">
        <ele>1076.85</ele>
        <time>2022-09-18T08:34:41Z</time>
      </trkpt>
      <trkpt lat="46.02125" lon="10.91754">
        <ele>1075.09</ele>
        <time>2022-09-18T08:34:42Z</time>
      </trkpt>
      <trkpt lat="46.02126" lon="10.91754">
        <ele>1077.21</ele>
        <time>2022-09-18T08:34:44Z</time>
      </trkpt>
      <trkpt lat="46.02127" lon="10.91753">
        <ele>1077.29</ele>
        <time>2022-09-18T08:34:48Z</time>
      </trkpt>
      <trkpt lat="46.02126" lon="10.91752">
        <ele>1080.03</ele>
        <time>2022-09-18T08:34:50Z</time>
      </trkpt>
      <trkpt lat="46.02125" lon="10.9175">
        <ele>1081.31</ele>
        <time>2022-09-18T08:34:52Z</time>
      </trkpt>
      <trkpt lat="46.02124" lon="10.91748">
        <ele>1082.6</ele>
        <time>2022-09-18T08:34:54Z</time>
      </trkpt>
      <trkpt lat="46.02123" lon="10.91746">
        <ele>1084.88</ele>
        <time>2022-09-18T08:34:56Z</time>
      </trkpt>
      <trkpt lat="46.02122" lon="10.91744">
        <ele>1085.22</ele>
        <time>2022-09-18T08:34:58Z</time>
      </trkpt>
      <trkpt lat="46.02122" lon="10.91743">
        <ele>1085.65</ele>
        <time>2022-09-18T08:35:00Z</time>
      </trkpt>
      <trkpt lat="46.02121" lon="10.91741">
        <ele>1085.07</ele>
        <time>2022-09-18T08:35:02Z</time>
      </trkpt>
      <trkpt lat="46.0212" lon="10.9174">
        <ele>1085.14</ele>
        <time>2022-09-18T08:35:04Z</time>
      </trkpt>
      <trkpt lat="46.02119" lon="10.91738">
        <ele>1085.97</ele>
        <time>2022-09-18T08:35:05Z</time>
      </trkpt>
      <trkpt lat="46.02118" lon="10.91736">
        <ele>1088.35</ele>
        <time>2022-09-18T08:35:07Z</time>
      </trkpt>
      <trkpt lat="46.02118" lon="10.91735">
        <ele>1089.45</ele>
        <time>2022-09-18T08:35:09Z</time>
      </trkpt>
      <trkpt lat="46.02117" lon="10.91735">
        <ele>1089.76</ele>
        <time>2022-09-18T08:35:12Z</time>
      </trkpt>
      <trkpt lat="46.02116" lon="10.91736">
        <ele>1093.37</ele>
        <time>2022-09-18T08:35:17Z</time>
      </trkpt>
      <trkpt lat="46.02115" lon="10.91736">
        <ele>1095.69</ele>
        <time>2022-09-18T08:35:22Z</time>
      </trkpt>
      <trkpt lat="46.02114" lon="10.91736">
        <ele>1096.77</ele>
        <time>2022-09-18T08:35:27Z</time>
      </trkpt>
      <trkpt lat="46.02113" lon="10.91736">
        <ele>1097.4</ele>
        <time>2022-09-18T08:35:29Z</time>
      </trkpt>
      <trkpt lat="46.02111" lon="10.91735">
        <ele>1098.07</ele>
        <time>2022-09-18T08:35:31Z</time>
      </trkpt>
      <trkpt lat="46.0211" lon="10.91734">
        <ele>1097.07</ele>
        <time>2022-09-18T08:35:33Z</time>
      </trkpt>
      <trkpt lat="46.02108" lon="10.91732">
        <ele>1098.79</ele>
        <time>2022-09-18T08:35:35Z</time>
      </trkpt>
      <trkpt lat="46.02108" lon="10.91729">
        <ele>1099.25</ele>
        <time>2022-09-18T08:35:36Z</time>
      </trkpt>
      <trkpt lat="46.02108" lon="10.91727">
        <ele>1099.19</ele>
        <time>2022-09-18T08:35:37Z</time>
      </trkpt>
      <trkpt lat="46.02107" lon="10.91723">
        <ele>1099.38</ele>
        <time>2022-09-18T08:35:39Z</time>
      </trkpt>
      <trkpt lat="46.02107" lon="10.91722">
        <ele>1100.66</ele>
        <time>2022-09-18T08:35:40Z</time>
      </trkpt>
      <trkpt lat="46.02106" lon="10.9172">
        <ele>1100.74</ele>
        <time>2022-09-18T08:35:42Z</time>
      </trkpt>
      <trkpt lat="46.02107" lon="10.91718">
        <ele>1101.24</ele>
        <time>2022-09-18T08:35:45Z</time>
      </trkpt>
      <trkpt lat="46.02108" lon="10.91717">
        <ele>1102.88</ele>
        <time>2022-09-18T08:35:46Z</time>
      </trkpt>
      <trkpt lat="46.02109" lon="10.91716">
        <ele>1103.78</ele>
        <time>2022-09-18T08:35:47Z</time>
      </trkpt>
      <trkpt lat="46.02109" lon="10.91715">
        <ele>1103.16</ele>
        <time>2022-09-18T08:35:48Z</time>
      </trkpt>
      <trkpt lat="46.02109" lon="10.91713">
        <ele>1104.65</ele>
        <time>2022-09-18T08:35:49Z</time>
      </trkpt>
      <trkpt lat="46.02109" lon="10.91711">
        <ele>1103.93</ele>
        <time>2022-09-18T08:35:50Z</time>
      </trkpt>
      <trkpt lat="46.02109" lon="10.9171">
        <ele>1102.44</ele>
        <time>2022-09-18T08:35:51Z</time>
      </trkpt>
      <trkpt lat="46.02109" lon="10.91707">
        <ele>1103.94</ele>
        <time>2022-09-18T08:35:53Z</time>
      </trkpt>
      <trkpt lat="46.02109" lon="10.91706">
        <ele>1104.33</ele>
        <time>2022-09-18T08:35:54Z</time>
      </trkpt>
      <trkpt lat="46.02109" lon="10.91704">
        <ele>1104.84</ele>
        <time>2022-09-18T08:35:55Z</time>
      </trkpt>
      <trkpt lat="46.02109" lon="10.91703">
        <ele>1104.88</ele>
        <time>2022-09-18T08:35:56Z</time>
      </trkpt>
      <trkpt lat="46.02109" lon="10.917">
        <ele>1102.5</ele>
        <time>2022-09-18T08:35:58Z</time>
      </trkpt>
      <trkpt lat="46.02109" lon="10.91698">
        <ele>1102.06</ele>
        <time>2022-09-18T08:36:00Z</time>
      </trkpt>
      <trkpt lat="46.02109" lon="10.91696">
        <ele>1103.2</ele>
        <time>2022-09-18T08:36:02Z</time>
      </trkpt>
      <trkpt lat="46.02109" lon="10.91694">
        <ele>1102.38</ele>
        <time>2022-09-18T08:36:04Z</time>
      </trkpt>
      <trkpt lat="46.0211" lon="10.91692">
        <ele>1105.13</ele>
        <time>2022-09-18T08:36:06Z</time>
      </trkpt>
      <trkpt lat="46.02109" lon="10.91691">
        <ele>1107.77</ele>
        <time>2022-09-18T08:36:08Z</time>
      </trkpt>
      <trkpt lat="46.02109" lon="10.91689">
        <ele>1108.33</ele>
        <time>2022-09-18T08:36:10Z</time>
      </trkpt>
      <trkpt lat="46.02108" lon="10.91687">
        <ele>1109.36</ele>
        <time>2022-09-18T08:36:12Z</time>
      </trkpt>
      <trkpt lat="46.02107" lon="10.91686">
        <ele>1109.91</ele>
        <time>2022-09-18T08:36:14Z</time>
      </trkpt>
      <trkpt lat="46.02106" lon="10.91685">
        <ele>1109.92</ele>
        <time>2022-09-18T08:36:16Z</time>
      </trkpt>
      <trkpt lat="46.02105" lon="10.91684">
        <ele>1110.54</ele>
        <time>2022-09-18T08:36:18Z</time>
      </trkpt>
      <trkpt lat="46.02104" lon="10.91686">
        <ele>1111.01</ele>
        <time>2022-09-18T08:36:19Z</time>
      </trkpt>
      <trkpt lat="46.02103" lon="10.91686">
        <ele>1111.32</ele>
        <time>2022-09-18T08:36:22Z</time>
      </trkpt>
      <trkpt lat="46.02103" lon="10.91684">
        <ele>1113.91</ele>
        <time>2022-09-18T08:36:25Z</time>
      </trkpt>
      <trkpt lat="46.02104" lon="10.91684">
        <ele>1114.52</ele>
        <time>2022-09-18T08:36:27Z</time>
      </trkpt>
      <trkpt lat="46.02104" lon="10.91685">
        <ele>1114.38</ele>
        <time>2022-09-18T08:36:28Z</time>
      </trkpt>
      <trkpt lat="46.02104" lon="10.91687">
        <ele>1114.45</ele>
        <time>2022-09-18T08:36:30Z</time>
      </trkpt>
      <trkpt lat="46.02105" lon="10.91689">
        <ele>1114.44</ele>
        <time>2022-09-18T08:36:32Z</time>
      </trkpt>
      <trkpt lat="46.02105" lon="10.9169">
        <ele>1114.3</ele>
        <time>2022-09-18T08:36:34Z</time>
      </trkpt>
      <trkpt lat="46.02107" lon="10.91691">
        <ele>1114.8</ele>
        <time>2022-09-18T08:36:36Z</time>
      </trkpt>
      <trkpt lat="46.02108" lon="10.91691">
        <ele>1115.81</ele>
        <time>2022-09-18T08:36:37Z</time>
      </trkpt>
      <trkpt lat="46.02109" lon="10.91692">
        <ele>1114.43</ele>
        <time>2022-09-18T08:36:38Z</time>
      </trkpt>
      <trkpt lat="46.0211" lon="10.91692">
        <ele>1115.59</ele>
        <time>2022-09-18T08:36:39Z</time>
      </trkpt>
      <trkpt lat="46.02111" lon="10.91692">
        <ele>1115.04</ele>
        <time>2022-09-18T08:36:40Z</time>
      </trkpt>
      <trkpt lat="46.02112" lon="10.91693">
        <ele>1117.22</ele>
        <time>2022-09-18T08:36:41Z</time>
      </trkpt>
      <trkpt lat="46.02114" lon="10.91694">
        <ele>1115.21</ele>
        <time>2022-09-18T08:36:43Z</time>
      </trkpt>
      <trkpt lat="46.02115" lon="10.91694">
        <ele>1115.22</ele>
        <time>2022-09-18T08:36:44Z</time>
      </trkpt>
      <trkpt lat="46.02116" lon="10.91695">
        <ele>1115.16</ele>
        <time>2022-09-18T08:36:45Z</time>
      </trkpt>
      <trkpt lat="46.02116" lon="10.91696">
        <ele>1115.18</ele>
        <time>2022-09-18T08:36:46Z</time>
      </trkpt>
      <trkpt lat="46.02117" lon="10.91696">
        <ele>1115.22</ele>
        <time>2022-09-18T08:36:47Z</time>
      </trkpt>
      <trkpt lat="46.02118" lon="10.91697">
        <ele>1114.84</ele>
        <time>2022-09-18T08:36:48Z</time>
      </trkpt>
      <trkpt lat="46.02119" lon="10.91697">
        <ele>1115.17</ele>
        <time>2022-09-18T08:36:49Z</time>
      </trkpt>
      <trkpt lat="46.0212" lon="10.91697">
        <ele>1117.93</ele>
        <time>2022-09-18T08:36:50Z</time>
      </trkpt>
      <trkpt lat="46.02121" lon="10.91698">
        <ele>1117.4</ele>
        <time>2022-09-18T08:36:51Z</time>
      </trkpt>
      <trkpt lat="46.02122" lon="10.91699">
        <ele>1116.46</ele>
        <time>2022-09-18T08:36:53Z</time>
      </trkpt>
      <trkpt lat="46.02123" lon="10.917">
        <ele>1116.53</ele>
        <time>2022-09-18T08:36:54Z</time>
      </trkpt>
      <trkpt lat="46.02124" lon="10.917">
        <ele>1115.71</ele>
        <time>2022-09-18T08:36:55Z</time>
      </trkpt>
      <trkpt lat="46.02125" lon="10.91701">
        <ele>1116.47</ele>
        <time>2022-09-18T08:36:56Z</time>
      </trkpt>
      <trkpt lat="46.02126" lon="10.91702">
        <ele>1117.21</ele>
        <time>2022-09-18T08:36:57Z</time>
      </trkpt>
      <trkpt lat="46.02127" lon="10.91702">
        <ele>1119.54</ele>
        <time>2022-09-18T08:36:58Z</time>
      </trkpt>
      <trkpt lat="46.02128" lon="10.91704">
        <ele>1117.32</ele>
        <time>2022-09-18T08:37:00Z</time>
      </trkpt>
      <trkpt lat="46.02129" lon="10.91706">
        <ele>1117.29</ele>
        <time>2022-09-18T08:37:02Z</time>
      </trkpt>
      <trkpt lat="46.0213" lon="10.91707">
        <ele>1117.18</ele>
        <time>2022-09-18T08:37:04Z</time>
      </trkpt>
      <trkpt lat="46.02131" lon="10.91708">
        <ele>1117.31</ele>
        <time>2022-09-18T08:37:07Z</time>
      </trkpt>
      <trkpt lat="46.0213" lon="10.91707">
        <ele>1124.66</ele>
        <time>2022-09-18T08:37:11Z</time>
      </trkpt>
      <trkpt lat="46.02131" lon="10.91707">
        <ele>1126.79</ele>
        <time>2022-09-18T08:37:14Z</time>
      </trkpt>
      <trkpt lat="46.02133" lon="10.91708">
        <ele>1127.54</ele>
        <time>2022-09-18T08:37:16Z</time>
      </trkpt>
      <trkpt lat="46.02134" lon="10.91709">
        <ele>1127.32</ele>
        <time>2022-09-18T08:37:18Z</time>
      </trkpt>
      <trkpt lat="46.02135" lon="10.91709">
        <ele>1126.57</ele>
        <time>2022-09-18T08:37:20Z</time>
      </trkpt>
      <trkpt lat="46.02136" lon="10.9171">
        <ele>1125.58</ele>
        <time>2022-09-18T08:37:21Z</time>
      </trkpt>
      <trkpt lat="46.02137" lon="10.91711">
        <ele>1123.74</ele>
        <time>2022-09-18T08:37:23Z</time>
      </trkpt>
      <trkpt lat="46.02139" lon="10.91711">
        <ele>1123.71</ele>
        <time>2022-09-18T08:37:25Z</time>
      </trkpt>
      <trkpt lat="46.0214" lon="10.91712">
        <ele>1122.67</ele>
        <time>2022-09-18T08:37:27Z</time>
      </trkpt>
      <trkpt lat="46.02141" lon="10.91712">
        <ele>1122.08</ele>
        <time>2022-09-18T08:37:28Z</time>
      </trkpt>
      <trkpt lat="46.02142" lon="10.91711">
        <ele>1121.52</ele>
        <time>2022-09-18T08:37:29Z</time>
      </trkpt>
      <trkpt lat="46.02143" lon="10.91711">
        <ele>1120.94</ele>
        <time>2022-09-18T08:37:31Z</time>
      </trkpt>
      <trkpt lat="46.02144" lon="10.91712">
        <ele>1120.66</ele>
        <time>2022-09-18T08:37:34Z</time>
      </trkpt>
      <trkpt lat="46.02144" lon="10.91711">
        <ele>1123.62</ele>
        <time>2022-09-18T08:37:40Z</time>
      </trkpt>
      <trkpt lat="46.02145" lon="10.91709">
        <ele>1122.87</ele>
        <time>2022-09-18T08:37:42Z</time>
      </trkpt>
      <trkpt lat="46.02144" lon="10.91708">
        <ele>1124.98</ele>
        <time>2022-09-18T08:37:45Z</time>
      </trkpt>
      <trkpt lat="46.02143" lon="10.91707">
        <ele>1127.46</ele>
        <time>2022-09-18T08:37:48Z</time>
      </trkpt>
      <trkpt lat="46.02142" lon="10.91706">
        <ele>1129.31</ele>
        <time>2022-09-18T08:37:50Z</time>
      </trkpt>
      <trkpt lat="46.02142" lon="10.91705">
        <ele>1134.53</ele>
        <time>2022-09-18T08:37:53Z</time>
      </trkpt>
      <trkpt lat="46.02141" lon="10.91703">
        <ele>1135.47</ele>
        <time>2022-09-18T08:37:55Z</time>
      </trkpt>
      <trkpt lat="46.0214" lon="10.91702">
        <ele>1135.12</ele>
        <time>2022-09-18T08:37:57Z</time>
      </trkpt>
      <trkpt lat="46.0214" lon="10.91699">
        <ele>1134.95</ele>
        <time>2022-09-18T08:37:59Z</time>
      </trkpt>
      <trkpt lat="46.02139" lon="10.91698">
        <ele>1135.35</ele>
        <time>2022-09-18T08:38:00Z</time>
      </trkpt>
      <trkpt lat="46.02139" lon="10.91697">
        <ele>1135.28</ele>
        <time>2022-09-18T08:38:02Z</time>
      </trkpt>
      <trkpt lat="46.0214" lon="10.91696">
        <ele>1135.46</ele>
        <time>2022-09-18T08:38:09Z</time>
      </trkpt>
      <trkpt lat="46.0214" lon="10.91695">
        <ele>1137.05</ele>
        <time>2022-09-18T08:38:13Z</time>
      </trkpt>
      <trkpt lat="46.0214" lon="10.91693">
        <ele>1137.4</ele>
        <time>2022-09-18T08:38:14Z</time>
      </trkpt>
      <trkpt lat="46.0214" lon="10.91692">
        <ele>1137.08</ele>
        <time>2022-09-18T08:38:15Z</time>
      </trkpt>
      <trkpt lat="46.02139" lon="10.9169">
        <ele>1137.62</ele>
        <time>2022-09-18T08:38:16Z</time>
      </trkpt>
      <trkpt lat="46.02139" lon="10.91688">
        <ele>1138.1</ele>
        <time>2022-09-18T08:38:17Z</time>
      </trkpt>
      <trkpt lat="46.02138" lon="10.91686">
        <ele>1137.87</ele>
        <time>2022-09-18T08:38:19Z</time>
      </trkpt>
      <trkpt lat="46.02138" lon="10.91683">
        <ele>1137.74</ele>
        <time>2022-09-18T08:38:21Z</time>
      </trkpt>
      <trkpt lat="46.02137" lon="10.91682">
        <ele>1139.46</ele>
        <time>2022-09-18T08:38:23Z</time>
      </trkpt>
      <trkpt lat="46.02137" lon="10.9168">
        <ele>1139.78</ele>
        <time>2022-09-18T08:38:24Z</time>
      </trkpt>
      <trkpt lat="46.02137" lon="10.91679">
        <ele>1139.81</ele>
        <time>2022-09-18T08:38:25Z</time>
      </trkpt>
      <trkpt lat="46.02138" lon="10.91677">
        <ele>1139.5</ele>
        <time>2022-09-18T08:38:26Z</time>
      </trkpt>
      <trkpt lat="46.02137" lon="10.91674">
        <ele>1140.61</ele>
        <time>2022-09-18T08:38:27Z</time>
      </trkpt>
      <trkpt lat="46.02137" lon="10.91672">
        <ele>1140.58</ele>
        <time>2022-09-18T08:38:28Z</time>
      </trkpt>
      <trkpt lat="46.02136" lon="10.91671">
        <ele>1140.53</ele>
        <time>2022-09-18T08:38:29Z</time>
      </trkpt>
      <trkpt lat="46.02135" lon="10.91669">
        <ele>1138.49</ele>
        <time>2022-09-18T08:38:30Z</time>
      </trkpt>
      <trkpt lat="46.02134" lon="10.91668">
        <ele>1137.28</ele>
        <time>2022-09-18T08:38:31Z</time>
      </trkpt>
      <trkpt lat="46.02134" lon="10.91665">
        <ele>1137.81</ele>
        <time>2022-09-18T08:38:32Z</time>
      </trkpt>
      <trkpt lat="46.02133" lon="10.91663">
        <ele>1138.43</ele>
        <time>2022-09-18T08:38:33Z</time>
      </trkpt>
      <trkpt lat="46.02133" lon="10.91661">
        <ele>1140.16</ele>
        <time>2022-09-18T08:38:34Z</time>
      </trkpt>
      <trkpt lat="46.02132" lon="10.91658">
        <ele>1143.34</ele>
        <time>2022-09-18T08:38:36Z</time>
      </trkpt>
      <trkpt lat="46.02133" lon="10.91656">
        <ele>1143.21</ele>
        <time>2022-09-18T08:38:37Z</time>
      </trkpt>
      <trkpt lat="46.02133" lon="10.91655">
        <ele>1143.31</ele>
        <time>2022-09-18T08:38:38Z</time>
      </trkpt>
      <trkpt lat="46.02133" lon="10.91653">
        <ele>1143.04</ele>
        <time>2022-09-18T08:38:39Z</time>
      </trkpt>
      <trkpt lat="46.02133" lon="10.91651">
        <ele>1144.07</ele>
        <time>2022-09-18T08:38:40Z</time>
      </trkpt>
      <trkpt lat="46.02133" lon="10.9165">
        <ele>1145.67</ele>
        <time>2022-09-18T08:38:41Z</time>
      </trkpt>
      <trkpt lat="46.02133" lon="10.91648">
        <ele>1144.97</ele>
        <time>2022-09-18T08:38:42Z</time>
      </trkpt>
      <trkpt lat="46.02134" lon="10.91646">
        <ele>1144.77</ele>
        <time>2022-09-18T08:38:43Z</time>
      </trkpt>
      <trkpt lat="46.02136" lon="10.91646">
        <ele>1144.98</ele>
        <time>2022-09-18T08:38:44Z</time>
      </trkpt>
      <trkpt lat="46.02136" lon="10.91648">
        <ele>1144.72</ele>
        <time>2022-09-18T08:38:45Z</time>
      </trkpt>
      <trkpt lat="46.02137" lon="10.91649">
        <ele>1144.69</ele>
        <time>2022-09-18T08:38:46Z</time>
      </trkpt>
      <trkpt lat="46.02138" lon="10.91651">
        <ele>1144.67</ele>
        <time>2022-09-18T08:38:47Z</time>
      </trkpt>
      <trkpt lat="46.02139" lon="10.91652">
        <ele>1144.65</ele>
        <time>2022-09-18T08:38:48Z</time>
      </trkpt>
      <trkpt lat="46.02139" lon="10.91653">
        <ele>1144.66</ele>
        <time>2022-09-18T08:38:49Z</time>
      </trkpt>
      <trkpt lat="46.0214" lon="10.91654">
        <ele>1144.59</ele>
        <time>2022-09-18T08:38:50Z</time>
      </trkpt>
      <trkpt lat="46.02141" lon="10.91655">
        <ele>1144.58</ele>
        <time>2022-09-18T08:38:51Z</time>
      </trkpt>
      <trkpt lat="46.02142" lon="10.91656">
        <ele>1144.59</ele>
        <time>2022-09-18T08:38:52Z</time>
      </trkpt>
      <trkpt lat="46.02143" lon="10.91658">
        <ele>1145</ele>
        <time>2022-09-18T08:38:53Z</time>
      </trkpt>
      <trkpt lat="46.02144" lon="10.9166">
        <ele>1147.56</ele>
        <time>2022-09-18T08:38:54Z</time>
      </trkpt>
      <trkpt lat="46.02145" lon="10.91663">
        <ele>1148.01</ele>
        <time>2022-09-18T08:38:55Z</time>
      </trkpt>
      <trkpt lat="46.02145" lon="10.91665">
        <ele>1148.06</ele>
        <time>2022-09-18T08:38:56Z</time>
      </trkpt>
      <trkpt lat="46.02146" lon="10.91668">
        <ele>1148.62</ele>
        <time>2022-09-18T08:38:57Z</time>
      </trkpt>
      <trkpt lat="46.02147" lon="10.91669">
        <ele>1149.42</ele>
        <time>2022-09-18T08:38:58Z</time>
      </trkpt>
      <trkpt lat="46.02147" lon="10.91673">
        <ele>1148.85</ele>
        <time>2022-09-18T08:39:00Z</time>
      </trkpt>
      <trkpt lat="46.02148" lon="10.91675">
        <ele>1148.61</ele>
        <time>2022-09-18T08:39:01Z</time>
      </trkpt>
      <trkpt lat="46.02148" lon="10.91677">
        <ele>1148.61</ele>
        <time>2022-09-18T08:39:02Z</time>
      </trkpt>
      <trkpt lat="46.02149" lon="10.91679">
        <ele>1148.37</ele>
        <time>2022-09-18T08:39:03Z</time>
      </trkpt>
      <trkpt lat="46.0215" lon="10.91681">
        <ele>1147.84</ele>
        <time>2022-09-18T08:39:04Z</time>
      </trkpt>
      <trkpt lat="46.0215" lon="10.91683">
        <ele>1148.3</ele>
        <time>2022-09-18T08:39:05Z</time>
      </trkpt>
      <trkpt lat="46.02151" lon="10.91684">
        <ele>1148.25</ele>
        <time>2022-09-18T08:39:06Z</time>
      </trkpt>
      <trkpt lat="46.02152" lon="10.91686">
        <ele>1148.96</ele>
        <time>2022-09-18T08:39:07Z</time>
      </trkpt>
      <trkpt lat="46.02154" lon="10.91687">
        <ele>1149.74</ele>
        <time>2022-09-18T08:39:08Z</time>
      </trkpt>
      <trkpt lat="46.02155" lon="10.91687">
        <ele>1149.03</ele>
        <time>2022-09-18T08:39:09Z</time>
      </trkpt>
      <trkpt lat="46.02156" lon="10.91687">
        <ele>1148.62</ele>
        <time>2022-09-18T08:39:10Z</time>
      </trkpt>
      <trkpt lat="46.02157" lon="10.91689">
        <ele>1149.11</ele>
        <time>2022-09-18T08:39:11Z</time>
      </trkpt>
      <trkpt lat="46.02157" lon="10.91689">
        <ele>1148.29</ele>
        <time>2022-09-18T08:39:12Z</time>
      </trkpt>
      <trkpt lat="46.02158" lon="10.9169">
        <ele>1149.24</ele>
        <time>2022-09-18T08:39:13Z</time>
      </trkpt>
      <trkpt lat="46.02159" lon="10.91684">
        <ele>1150.79</ele>
        <time>2022-09-18T08:39:14Z</time>
      </trkpt>
      <trkpt lat="46.0216" lon="10.91685">
        <ele>1151.77</ele>
        <time>2022-09-18T08:39:17Z</time>
      </trkpt>
      <trkpt lat="46.02161" lon="10.91686">
        <ele>1151.67</ele>
        <time>2022-09-18T08:39:19Z</time>
      </trkpt>
      <trkpt lat="46.02162" lon="10.91685">
        <ele>1151.63</ele>
        <time>2022-09-18T08:39:21Z</time>
      </trkpt>
      <trkpt lat="46.02163" lon="10.91684">
        <ele>1151.57</ele>
        <time>2022-09-18T08:39:23Z</time>
      </trkpt>
      <trkpt lat="46.02165" lon="10.91684">
        <ele>1152.45</ele>
        <time>2022-09-18T08:39:25Z</time>
      </trkpt>
      <trkpt lat="46.02166" lon="10.91685">
        <ele>1148.94</ele>
        <time>2022-09-18T08:39:26Z</time>
      </trkpt>
      <trkpt lat="46.02166" lon="10.91686">
        <ele>1150.53</ele>
        <time>2022-09-18T08:39:27Z</time>
      </trkpt>
      <trkpt lat="46.02167" lon="10.91687">
        <ele>1151.82</ele>
        <time>2022-09-18T08:39:31Z</time>
      </trkpt>
      <trkpt lat="46.02168" lon="10.91686">
        <ele>1151.26</ele>
        <time>2022-09-18T08:39:35Z</time>
      </trkpt>
      <trkpt lat="46.02169" lon="10.91685">
        <ele>1155.73</ele>
        <time>2022-09-18T08:39:40Z</time>
      </trkpt>
      <trkpt lat="46.0217" lon="10.91684">
        <ele>1156.17</ele>
        <time>2022-09-18T08:39:43Z</time>
      </trkpt>
      <trkpt lat="46.02171" lon="10.91683">
        <ele>1156.15</ele>
        <time>2022-09-18T08:39:45Z</time>
      </trkpt>
      <trkpt lat="46.02171" lon="10.91681">
        <ele>1156.32</ele>
        <time>2022-09-18T08:39:47Z</time>
      </trkpt>
      <trkpt lat="46.02171" lon="10.91679">
        <ele>1156.32</ele>
        <time>2022-09-18T08:39:48Z</time>
      </trkpt>
      <trkpt lat="46.0217" lon="10.91678">
        <ele>1156.35</ele>
        <time>2022-09-18T08:39:49Z</time>
      </trkpt>
      <trkpt lat="46.0217" lon="10.91676">
        <ele>1156.29</ele>
        <time>2022-09-18T08:39:50Z</time>
      </trkpt>
      <trkpt lat="46.0217" lon="10.91675">
        <ele>1156.28</ele>
        <time>2022-09-18T08:39:51Z</time>
      </trkpt>
      <trkpt lat="46.0217" lon="10.91673">
        <ele>1156.34</ele>
        <time>2022-09-18T08:39:52Z</time>
      </trkpt>
      <trkpt lat="46.0217" lon="10.91671">
        <ele>1160.71</ele>
        <time>2022-09-18T08:39:53Z</time>
      </trkpt>
      <trkpt lat="46.02169" lon="10.9167">
        <ele>1161.09</ele>
        <time>2022-09-18T08:39:54Z</time>
      </trkpt>
      <trkpt lat="46.02168" lon="10.91669">
        <ele>1162.98</ele>
        <time>2022-09-18T08:39:56Z</time>
      </trkpt>
      <trkpt lat="46.02168" lon="10.91668">
        <ele>1163.74</ele>
        <time>2022-09-18T08:39:58Z</time>
      </trkpt>
      <trkpt lat="46.02168" lon="10.91666">
        <ele>1164.6</ele>
        <time>2022-09-18T08:40:00Z</time>
      </trkpt>
      <trkpt lat="46.02166" lon="10.91665">
        <ele>1167.7</ele>
        <time>2022-09-18T08:40:01Z</time>
      </trkpt>
      <trkpt lat="46.02165" lon="10.91664">
        <ele>1168.35</ele>
        <time>2022-09-18T08:40:02Z</time>
      </trkpt>
      <trkpt lat="46.02163" lon="10.91663">
        <ele>1168.62</ele>
        <time>2022-09-18T08:40:03Z</time>
      </trkpt>
      <trkpt lat="46.02162" lon="10.91662">
        <ele>1168.01</ele>
        <time>2022-09-18T08:40:04Z</time>
      </trkpt>
      <trkpt lat="46.02161" lon="10.9166">
        <ele>1168.25</ele>
        <time>2022-09-18T08:40:05Z</time>
      </trkpt>
      <trkpt lat="46.02161" lon="10.91659">
        <ele>1167.1</ele>
        <time>2022-09-18T08:40:06Z</time>
      </trkpt>
      <trkpt lat="46.02161" lon="10.91657">
        <ele>1168.97</ele>
        <time>2022-09-18T08:40:08Z</time>
      </trkpt>
      <trkpt lat="46.02159" lon="10.91655">
        <ele>1170.94</ele>
        <time>2022-09-18T08:40:10Z</time>
      </trkpt>
      <trkpt lat="46.02158" lon="10.91653">
        <ele>1168.4</ele>
        <time>2022-09-18T08:40:12Z</time>
      </trkpt>
      <trkpt lat="46.02157" lon="10.91653">
        <ele>1168.49</ele>
        <time>2022-09-18T08:40:13Z</time>
      </trkpt>
      <trkpt lat="46.02157" lon="10.9165">
        <ele>1170.62</ele>
        <time>2022-09-18T08:40:15Z</time>
      </trkpt>
      <trkpt lat="46.02157" lon="10.91648">
        <ele>1170.59</ele>
        <time>2022-09-18T08:40:16Z</time>
      </trkpt>
      <trkpt lat="46.02158" lon="10.91647">
        <ele>1171.32</ele>
        <time>2022-09-18T08:40:17Z</time>
      </trkpt>
      <trkpt lat="46.02158" lon="10.91645">
        <ele>1172.81</ele>
        <time>2022-09-18T08:40:19Z</time>
      </trkpt>
      <trkpt lat="46.02158" lon="10.91643">
        <ele>1173.79</ele>
        <time>2022-09-18T08:40:21Z</time>
      </trkpt>
      <trkpt lat="46.02157" lon="10.91643">
        <ele>1175.97</ele>
        <time>2022-09-18T08:40:27Z</time>
      </trkpt>
      <trkpt lat="46.02156" lon="10.91643">
        <ele>1176.95</ele>
        <time>2022-09-18T08:40:29Z</time>
      </trkpt>
      <trkpt lat="46.02156" lon="10.91642">
        <ele>1176.07</ele>
        <time>2022-09-18T08:40:32Z</time>
      </trkpt>
      <trkpt lat="46.02158" lon="10.91641">
        <ele>1177.81</ele>
        <time>2022-09-18T08:40:34Z</time>
      </trkpt>
      <trkpt lat="46.02158" lon="10.91639">
        <ele>1176.85</ele>
        <time>2022-09-18T08:40:39Z</time>
      </trkpt>
      <trkpt lat="46.02158" lon="10.91638">
        <ele>1176.71</ele>
        <time>2022-09-18T08:40:44Z</time>
      </trkpt>
      <trkpt lat="46.02158" lon="10.91636">
        <ele>1176.42</ele>
        <time>2022-09-18T08:40:47Z</time>
      </trkpt>
      <trkpt lat="46.02159" lon="10.91634">
        <ele>1177.39</ele>
        <time>2022-09-18T08:40:53Z</time>
      </trkpt>
      <trkpt lat="46.02159" lon="10.91633">
        <ele>1177.26</ele>
        <time>2022-09-18T08:40:54Z</time>
      </trkpt>
      <trkpt lat="46.0216" lon="10.91633">
        <ele>1178.71</ele>
        <time>2022-09-18T08:40:57Z</time>
      </trkpt>
      <trkpt lat="46.0216" lon="10.91631">
        <ele>1178.05</ele>
        <time>2022-09-18T08:40:59Z</time>
      </trkpt>
      <trkpt lat="46.02159" lon="10.91629">
        <ele>1177.78</ele>
        <time>2022-09-18T08:41:00Z</time>
      </trkpt>
      <trkpt lat="46.02159" lon="10.91628">
        <ele>1177.68</ele>
        <time>2022-09-18T08:41:01Z</time>
      </trkpt>
      <trkpt lat="46.02158" lon="10.91626">
        <ele>1176.15</ele>
        <time>2022-09-18T08:41:03Z</time>
      </trkpt>
      <trkpt lat="46.02158" lon="10.91624">
        <ele>1175.1</ele>
        <time>2022-09-18T08:41:06Z</time>
      </trkpt>
      <trkpt lat="46.02159" lon="10.91623">
        <ele>1174.39</ele>
        <time>2022-09-18T08:41:09Z</time>
      </trkpt>
      <trkpt lat="46.02159" lon="10.91622">
        <ele>1175.11</ele>
        <time>2022-09-18T08:41:21Z</time>
      </trkpt>
      <trkpt lat="46.0216" lon="10.91622">
        <ele>1174</ele>
        <time>2022-09-18T08:42:17Z</time>
      </trkpt>
      <trkpt lat="46.02161" lon="10.91623">
        <ele>1172.96</ele>
        <time>2022-09-18T08:42:59Z</time>
      </trkpt>
      <trkpt lat="46.02162" lon="10.91621">
        <ele>1171.02</ele>
        <time>2022-09-18T08:43:20Z</time>
      </trkpt>
      <trkpt lat="46.02161" lon="10.91622">
        <ele>1171.79</ele>
        <time>2022-09-18T08:43:29Z</time>
      </trkpt>
      <trkpt lat="46.02162" lon="10.9162">
        <ele>1171.55</ele>
        <time>2022-09-18T08:43:30Z</time>
      </trkpt>
      <trkpt lat="46.0216" lon="10.9162">
        <ele>1172.14</ele>
        <time>2022-09-18T08:43:32Z</time>
      </trkpt>
      <trkpt lat="46.0216" lon="10.91618">
        <ele>1170.26</ele>
        <time>2022-09-18T08:43:35Z</time>
      </trkpt>
      <trkpt lat="46.02159" lon="10.91617">
        <ele>1169.38</ele>
        <time>2022-09-18T08:43:37Z</time>
      </trkpt>
      <trkpt lat="46.0216" lon="10.91618">
        <ele>1168.53</ele>
        <time>2022-09-18T08:43:42Z</time>
      </trkpt>
      <trkpt lat="46.02161" lon="10.91618">
        <ele>1167.29</ele>
        <time>2022-09-18T08:43:45Z</time>
      </trkpt>
      <trkpt lat="46.02163" lon="10.91619">
        <ele>1168.73</ele>
        <time>2022-09-18T08:43:56Z</time>
      </trkpt>
      <trkpt lat="46.02163" lon="10.9162">
        <ele>1168.82</ele>
        <time>2022-09-18T08:43:57Z</time>
      </trkpt>
      <trkpt lat="46.02163" lon="10.91623">
        <ele>1171</ele>
        <time>2022-09-18T08:44:00Z</time>
      </trkpt>
      <trkpt lat="46.02162" lon="10.91625">
        <ele>1171.47</ele>
        <time>2022-09-18T08:44:04Z</time>
      </trkpt>
      <trkpt lat="46.02161" lon="10.91623">
        <ele>1170.84</ele>
        <time>2022-09-18T08:44:08Z</time>
      </trkpt>
      <trkpt lat="46.0216" lon="10.91621">
        <ele>1172.89</ele>
        <time>2022-09-18T08:44:10Z</time>
      </trkpt>
      <trkpt lat="46.02158" lon="10.9162">
        <ele>1174.3</ele>
        <time>2022-09-18T08:44:12Z</time>
      </trkpt>
      <trkpt lat="46.02157" lon="10.91621">
        <ele>1174.99</ele>
        <time>2022-09-18T08:44:14Z</time>
      </trkpt>
      <trkpt lat="46.02156" lon="10.9162">
        <ele>1176.5</ele>
        <time>2022-09-18T08:44:23Z</time>
      </trkpt>
      <trkpt lat="46.02155" lon="10.91618">
        <ele>1178.32</ele>
        <time>2022-09-18T08:44:25Z</time>
      </trkpt>
      <trkpt lat="46.02155" lon="10.91617">
        <ele>1178.13</ele>
        <time>2022-09-18T08:44:27Z</time>
      </trkpt>
      <trkpt lat="46.02155" lon="10.91616">
        <ele>1177.33</ele>
        <time>2022-09-18T08:44:28Z</time>
      </trkpt>
      <trkpt lat="46.02155" lon="10.91614">
        <ele>1178.53</ele>
        <time>2022-09-18T08:44:33Z</time>
      </trkpt>
      <trkpt lat="46.02154" lon="10.91615">
        <ele>1177.82</ele>
        <time>2022-09-18T08:44:35Z</time>
      </trkpt>
      <trkpt lat="46.02152" lon="10.91615">
        <ele>1178.69</ele>
        <time>2022-09-18T08:44:37Z</time>
      </trkpt>
      <trkpt lat="46.02151" lon="10.91615">
        <ele>1178.91</ele>
        <time>2022-09-18T08:44:39Z</time>
      </trkpt>
      <trkpt lat="46.02151" lon="10.91613">
        <ele>1176.95</ele>
        <time>2022-09-18T08:44:41Z</time>
      </trkpt>
      <trkpt lat="46.02151" lon="10.91611">
        <ele>1176.89</ele>
        <time>2022-09-18T08:44:44Z</time>
      </trkpt>
      <trkpt lat="46.02152" lon="10.91609">
        <ele>1176.59</ele>
        <time>2022-09-18T08:44:46Z</time>
      </trkpt>
      <trkpt lat="46.02151" lon="10.91609">
        <ele>1178.63</ele>
        <time>2022-09-18T08:44:49Z</time>
      </trkpt>
      <trkpt lat="46.0215" lon="10.9161">
        <ele>1148.56</ele>
        <time>2022-09-18T08:44:54Z</time>
      </trkpt>
      <trkpt lat="46.0215" lon="10.91612">
        <ele>1162.53</ele>
        <time>2022-09-18T08:44:56Z</time>
      </trkpt>
      <trkpt lat="46.0215" lon="10.91614">
        <ele>1166.65</ele>
        <time>2022-09-18T08:44:57Z</time>
      </trkpt>
      <trkpt lat="46.02149" lon="10.91616">
        <ele>1170.47</ele>
        <time>2022-09-18T08:44:59Z</time>
      </trkpt>
      <trkpt lat="46.02148" lon="10.91614">
        <ele>1174.15</ele>
        <time>2022-09-18T08:45:03Z</time>
      </trkpt>
      <trkpt lat="46.02148" lon="10.91613">
        <ele>1065.38</ele>
        <time>2022-09-18T08:45:05Z</time>
      </trkpt>
      <trkpt lat="46.02149" lon="10.91612">
        <ele>1118.32</ele>
        <time>2022-09-18T08:45:09Z</time>
      </trkpt>
      <trkpt lat="46.02149" lon="10.91613">
        <ele>1140.8</ele>
        <time>2022-09-18T08:45:11Z</time>
      </trkpt>
      <trkpt lat="46.02147" lon="10.91612">
        <ele>1161.29</ele>
        <time>2022-09-18T08:45:14Z</time>
      </trkpt>
      <trkpt lat="46.02147" lon="10.9161">
        <ele>1148</ele>
        <time>2022-09-18T08:45:17Z</time>
      </trkpt>
      <trkpt lat="46.02148" lon="10.91608">
        <ele>1164.33</ele>
        <time>2022-09-18T08:45:20Z</time>
      </trkpt>
      <trkpt lat="46.02148" lon="10.91606">
        <ele>1168.51</ele>
        <time>2022-09-18T08:45:22Z</time>
      </trkpt>
      <trkpt lat="46.02148" lon="10.91604">
        <ele>1171.66</ele>
        <time>2022-09-18T08:45:24Z</time>
      </trkpt>
      <trkpt lat="46.02147" lon="10.91603">
        <ele>1173.34</ele>
        <time>2022-09-18T08:45:26Z</time>
      </trkpt>
      <trkpt lat="46.02147" lon="10.91601">
        <ele>1175.21</ele>
        <time>2022-09-18T08:45:29Z</time>
      </trkpt>
      <trkpt lat="46.02148" lon="10.91601">
        <ele>1175.15</ele>
        <time>2022-09-18T08:45:31Z</time>
      </trkpt>
      <trkpt lat="46.02149" lon="10.91599">
        <ele>1177.88</ele>
        <time>2022-09-18T08:45:34Z</time>
      </trkpt>
      <trkpt lat="46.02148" lon="10.916">
        <ele>1181.08</ele>
        <time>2022-09-18T08:45:37Z</time>
      </trkpt>
      <trkpt lat="46.02146" lon="10.916">
        <ele>1181.95</ele>
        <time>2022-09-18T08:45:39Z</time>
      </trkpt>
      <trkpt lat="46.02146" lon="10.91598">
        <ele>1070</ele>
        <time>2022-09-18T08:45:45Z</time>
      </trkpt>
      <trkpt lat="46.02144" lon="10.91598">
        <ele>1116.85</ele>
        <time>2022-09-18T08:45:47Z</time>
      </trkpt>
      <trkpt lat="46.02143" lon="10.91599">
        <ele>1134.34</ele>
        <time>2022-09-18T08:45:48Z</time>
      </trkpt>
      <trkpt lat="46.02142" lon="10.916">
        <ele>1153.43</ele>
        <time>2022-09-18T08:45:50Z</time>
      </trkpt>
      <trkpt lat="46.02141" lon="10.91599">
        <ele>1181.35</ele>
        <time>2022-09-18T08:45:58Z</time>
      </trkpt>
      <trkpt lat="46.0214" lon="10.916">
        <ele>1182.88</ele>
        <time>2022-09-18T08:46:00Z</time>
      </trkpt>
      <trkpt lat="46.02139" lon="10.916">
        <ele>1183.07</ele>
        <time>2022-09-18T08:46:02Z</time>
      </trkpt>
      <trkpt lat="46.02138" lon="10.916">
        <ele>1184.8</ele>
        <time>2022-09-18T08:46:04Z</time>
      </trkpt>
      <trkpt lat="46.02138" lon="10.91602">
        <ele>1188.46</ele>
        <time>2022-09-18T08:46:06Z</time>
      </trkpt>
      <trkpt lat="46.02137" lon="10.91603">
        <ele>1190.68</ele>
        <time>2022-09-18T08:46:09Z</time>
      </trkpt>
      <trkpt lat="46.02136" lon="10.91601">
        <ele>1192.73</ele>
        <time>2022-09-18T08:46:11Z</time>
      </trkpt>
      <trkpt lat="46.02135" lon="10.916">
        <ele>1194.2</ele>
        <time>2022-09-18T08:46:13Z</time>
      </trkpt>
      <trkpt lat="46.02134" lon="10.916">
        <ele>1194.64</ele>
        <time>2022-09-18T08:46:15Z</time>
      </trkpt>
      <trkpt lat="46.02133" lon="10.916">
        <ele>1194.05</ele>
        <time>2022-09-18T08:46:17Z</time>
      </trkpt>
      <trkpt lat="46.02132" lon="10.91601">
        <ele>1194.8</ele>
        <time>2022-09-18T08:46:18Z</time>
      </trkpt>
      <trkpt lat="46.02134" lon="10.91601">
        <ele>1196.05</ele>
        <time>2022-09-18T08:46:22Z</time>
      </trkpt>
      <trkpt lat="46.02134" lon="10.91599">
        <ele>1198.19</ele>
        <time>2022-09-18T08:46:27Z</time>
      </trkpt>
      <trkpt lat="46.02133" lon="10.91598">
        <ele>1200.43</ele>
        <time>2022-09-18T08:46:30Z</time>
      </trkpt>
      <trkpt lat="46.02134" lon="10.91597">
        <ele>1200.89</ele>
        <time>2022-09-18T08:46:34Z</time>
      </trkpt>
      <trkpt lat="46.02135" lon="10.91596">
        <ele>1202.74</ele>
        <time>2022-09-18T08:46:41Z</time>
      </trkpt>
      <trkpt lat="46.02136" lon="10.91595">
        <ele>1202.49</ele>
        <time>2022-09-18T08:46:44Z</time>
      </trkpt>
      <trkpt lat="46.02136" lon="10.91594">
        <ele>1205.15</ele>
        <time>2022-09-18T08:46:50Z</time>
      </trkpt>
      <trkpt lat="46.02137" lon="10.91593">
        <ele>1205.99</ele>
        <time>2022-09-18T08:46:53Z</time>
      </trkpt>
      <trkpt lat="46.02137" lon="10.91591">
        <ele>1208.44</ele>
        <time>2022-09-18T08:47:00Z</time>
      </trkpt>
      <trkpt lat="46.02138" lon="10.91592">
        <ele>1209.2</ele>
        <time>2022-09-18T08:47:04Z</time>
      </trkpt>
      <trkpt lat="46.02139" lon="10.91592">
        <ele>1209.21</ele>
        <time>2022-09-18T08:47:07Z</time>
      </trkpt>
      <trkpt lat="46.02141" lon="10.9159">
        <ele>1208.68</ele>
        <time>2022-09-18T08:47:09Z</time>
      </trkpt>
      <trkpt lat="46.02142" lon="10.9159">
        <ele>1209.81</ele>
        <time>2022-09-18T08:47:12Z</time>
      </trkpt>
      <trkpt lat="46.02141" lon="10.91589">
        <ele>1211.74</ele>
        <time>2022-09-18T08:47:16Z</time>
      </trkpt>
      <trkpt lat="46.02141" lon="10.91588">
        <ele>1212.54</ele>
        <time>2022-09-18T08:47:19Z</time>
      </trkpt>
      <trkpt lat="46.02141" lon="10.91589">
        <ele>1213.39</ele>
        <time>2022-09-18T08:47:22Z</time>
      </trkpt>
      <trkpt lat="46.0214" lon="10.91589">
        <ele>1214.04</ele>
        <time>2022-09-18T08:47:26Z</time>
      </trkpt>
      <trkpt lat="46.02138" lon="10.9159">
        <ele>1215.42</ele>
        <time>2022-09-18T08:47:29Z</time>
      </trkpt>
      <trkpt lat="46.02137" lon="10.9159">
        <ele>1216.75</ele>
        <time>2022-09-18T08:47:35Z</time>
      </trkpt>
      <trkpt lat="46.02137" lon="10.91588">
        <ele>1215.16</ele>
        <time>2022-09-18T08:47:38Z</time>
      </trkpt>
      <trkpt lat="46.02137" lon="10.91586">
        <ele>1214.46</ele>
        <time>2022-09-18T08:47:40Z</time>
      </trkpt>
      <trkpt lat="46.02137" lon="10.91584">
        <ele>1215.42</ele>
        <time>2022-09-18T08:47:42Z</time>
      </trkpt>
      <trkpt lat="46.02138" lon="10.91582">
        <ele>1215.58</ele>
        <time>2022-09-18T08:47:44Z</time>
      </trkpt>
      <trkpt lat="46.02136" lon="10.91582">
        <ele>1216.61</ele>
        <time>2022-09-18T08:47:47Z</time>
      </trkpt>
      <trkpt lat="46.02136" lon="10.9158">
        <ele>1216.32</ele>
        <time>2022-09-18T08:47:50Z</time>
      </trkpt>
      <trkpt lat="46.02135" lon="10.91579">
        <ele>1216.52</ele>
        <time>2022-09-18T08:47:55Z</time>
      </trkpt>
      <trkpt lat="46.02134" lon="10.91579">
        <ele>1217.19</ele>
        <time>2022-09-18T08:47:57Z</time>
      </trkpt>
      <trkpt lat="46.02133" lon="10.9158">
        <ele>1217.65</ele>
        <time>2022-09-18T08:47:58Z</time>
      </trkpt>
      <trkpt lat="46.02131" lon="10.9158">
        <ele>1219.31</ele>
        <time>2022-09-18T08:48:00Z</time>
      </trkpt>
      <trkpt lat="46.0213" lon="10.91581">
        <ele>1220.37</ele>
        <time>2022-09-18T08:48:01Z</time>
      </trkpt>
      <trkpt lat="46.02129" lon="10.91582">
        <ele>1220.2</ele>
        <time>2022-09-18T08:48:03Z</time>
      </trkpt>
      <trkpt lat="46.0213" lon="10.91581">
        <ele>1219.93</ele>
        <time>2022-09-18T08:48:05Z</time>
      </trkpt>
      <trkpt lat="46.02131" lon="10.91579">
        <ele>1219.94</ele>
        <time>2022-09-18T08:48:06Z</time>
      </trkpt>
      <trkpt lat="46.02132" lon="10.91577">
        <ele>1220.41</ele>
        <time>2022-09-18T08:48:07Z</time>
      </trkpt>
      <trkpt lat="46.02133" lon="10.91576">
        <ele>1220.46</ele>
        <time>2022-09-18T08:48:08Z</time>
      </trkpt>
      <trkpt lat="46.02133" lon="10.91575">
        <ele>1221.25</ele>
        <time>2022-09-18T08:48:10Z</time>
      </trkpt>
      <trkpt lat="46.02132" lon="10.91575">
        <ele>1221.72</ele>
        <time>2022-09-18T08:48:13Z</time>
      </trkpt>
      <trkpt lat="46.02132" lon="10.91573">
        <ele>1221.47</ele>
        <time>2022-09-18T08:48:16Z</time>
      </trkpt>
      <trkpt lat="46.02132" lon="10.91571">
        <ele>1221.39</ele>
        <time>2022-09-18T08:48:18Z</time>
      </trkpt>
      <trkpt lat="46.02133" lon="10.91569">
        <ele>1221.37</ele>
        <time>2022-09-18T08:48:20Z</time>
      </trkpt>
      <trkpt lat="46.02133" lon="10.91567">
        <ele>1221.2</ele>
        <time>2022-09-18T08:48:22Z</time>
      </trkpt>
      <trkpt lat="46.02134" lon="10.91566">
        <ele>1223.79</ele>
        <time>2022-09-18T08:48:25Z</time>
      </trkpt>
      <trkpt lat="46.02135" lon="10.91566">
        <ele>1223.92</ele>
        <time>2022-09-18T08:48:26Z</time>
      </trkpt>
      <trkpt lat="46.02136" lon="10.91566">
        <ele>1225.21</ele>
        <time>2022-09-18T08:48:29Z</time>
      </trkpt>
      <trkpt lat="46.02136" lon="10.91564">
        <ele>1229.25</ele>
        <time>2022-09-18T08:48:45Z</time>
      </trkpt>
      <trkpt lat="46.02134" lon="10.91566">
        <ele>1231.24</ele>
        <time>2022-09-18T08:48:47Z</time>
      </trkpt>
      <trkpt lat="46.02134" lon="10.91567">
        <ele>1231.66</ele>
        <time>2022-09-18T08:48:49Z</time>
      </trkpt>
      <trkpt lat="46.02133" lon="10.91566">
        <ele>1234.15</ele>
        <time>2022-09-18T08:48:57Z</time>
      </trkpt>
      <trkpt lat="46.02135" lon="10.91566">
        <ele>1236.15</ele>
        <time>2022-09-18T08:49:02Z</time>
      </trkpt>
      <trkpt lat="46.02135" lon="10.91565">
        <ele>1236.81</ele>
        <time>2022-09-18T08:49:04Z</time>
      </trkpt>
      <trkpt lat="46.02134" lon="10.91566">
        <ele>1236.27</ele>
        <time>2022-09-18T08:49:08Z</time>
      </trkpt>
      <trkpt lat="46.02135" lon="10.91567">
        <ele>1236.34</ele>
        <time>2022-09-18T08:49:14Z</time>
      </trkpt>
      <trkpt lat="46.02136" lon="10.91567">
        <ele>1235.62</ele>
        <time>2022-09-18T08:49:15Z</time>
      </trkpt>
      <trkpt lat="46.02137" lon="10.91567">
        <ele>1237.18</ele>
        <time>2022-09-18T08:49:17Z</time>
      </trkpt>
      <trkpt lat="46.02136" lon="10.91568">
        <ele>1240.24</ele>
        <time>2022-09-18T08:49:20Z</time>
      </trkpt>
      <trkpt lat="46.02135" lon="10.91568">
        <ele>1241.96</ele>
        <time>2022-09-18T08:49:24Z</time>
      </trkpt>
      <trkpt lat="46.02134" lon="10.91568">
        <ele>1242.14</ele>
        <time>2022-09-18T08:49:26Z</time>
      </trkpt>
      <trkpt lat="46.02134" lon="10.9157">
        <ele>1242.38</ele>
        <time>2022-09-18T08:49:29Z</time>
      </trkpt>
      <trkpt lat="46.02134" lon="10.91571">
        <ele>1241.82</ele>
        <time>2022-09-18T08:49:32Z</time>
      </trkpt>
      <trkpt lat="46.02134" lon="10.91572">
        <ele>1242.82</ele>
        <time>2022-09-18T08:49:36Z</time>
      </trkpt>
      <trkpt lat="46.02134" lon="10.91569">
        <ele>1243.37</ele>
        <time>2022-09-18T08:49:39Z</time>
      </trkpt>
      <trkpt lat="46.02135" lon="10.91568">
        <ele>1242.31</ele>
        <time>2022-09-18T08:49:41Z</time>
      </trkpt>
      <trkpt lat="46.02135" lon="10.91566">
        <ele>1242.5</ele>
        <time>2022-09-18T08:49:44Z</time>
      </trkpt>
      <trkpt lat="46.02134" lon="10.91565">
        <ele>1242.62</ele>
        <time>2022-09-18T08:49:46Z</time>
      </trkpt>
      <trkpt lat="46.02134" lon="10.91563">
        <ele>1244.11</ele>
        <time>2022-09-18T08:49:51Z</time>
      </trkpt>
      <trkpt lat="46.02134" lon="10.91562">
        <ele>1245.29</ele>
        <time>2022-09-18T08:49:56Z</time>
      </trkpt>
      <trkpt lat="46.02132" lon="10.91563">
        <ele>1246.43</ele>
        <time>2022-09-18T08:49:59Z</time>
      </trkpt>
      <trkpt lat="46.02131" lon="10.91564">
        <ele>1247.26</ele>
        <time>2022-09-18T08:50:02Z</time>
      </trkpt>
      <trkpt lat="46.02131" lon="10.91562">
        <ele>1248.93</ele>
        <time>2022-09-18T08:50:05Z</time>
      </trkpt>
      <trkpt lat="46.02131" lon="10.9156">
        <ele>1248.61</ele>
        <time>2022-09-18T08:50:07Z</time>
      </trkpt>
      <trkpt lat="46.02132" lon="10.91559">
        <ele>1248.12</ele>
        <time>2022-09-18T08:50:08Z</time>
      </trkpt>
      <trkpt lat="46.02132" lon="10.91558">
        <ele>1247.78</ele>
        <time>2022-09-18T08:50:10Z</time>
      </trkpt>
      <trkpt lat="46.02133" lon="10.91558">
        <ele>1246.39</ele>
        <time>2022-09-18T08:50:12Z</time>
      </trkpt>
      <trkpt lat="46.02134" lon="10.91557">
        <ele>1246.2</ele>
        <time>2022-09-18T08:50:15Z</time>
      </trkpt>
      <trkpt lat="46.02134" lon="10.91556">
        <ele>1246.63</ele>
        <time>2022-09-18T08:50:17Z</time>
      </trkpt>
      <trkpt lat="46.02134" lon="10.91554">
        <ele>1246.33</ele>
        <time>2022-09-18T08:50:18Z</time>
      </trkpt>
      <trkpt lat="46.02134" lon="10.91553">
        <ele>1246.85</ele>
        <time>2022-09-18T08:50:19Z</time>
      </trkpt>
      <trkpt lat="46.02133" lon="10.91552">
        <ele>1247.91</ele>
        <time>2022-09-18T08:50:21Z</time>
      </trkpt>
      <trkpt lat="46.02133" lon="10.9155">
        <ele>1247.75</ele>
        <time>2022-09-18T08:50:24Z</time>
      </trkpt>
      <trkpt lat="46.02133" lon="10.91548">
        <ele>1248.59</ele>
        <time>2022-09-18T08:50:25Z</time>
      </trkpt>
      <trkpt lat="46.02134" lon="10.91546">
        <ele>1248.9</ele>
        <time>2022-09-18T08:50:26Z</time>
      </trkpt>
      <trkpt lat="46.02134" lon="10.91544">
        <ele>1249.39</ele>
        <time>2022-09-18T08:50:27Z</time>
      </trkpt>
      <trkpt lat="46.02135" lon="10.91542">
        <ele>1248.97</ele>
        <time>2022-09-18T08:50:28Z</time>
      </trkpt>
      <trkpt lat="46.02135" lon="10.91541">
        <ele>1249.27</ele>
        <time>2022-09-18T08:50:30Z</time>
      </trkpt>
      <trkpt lat="46.02136" lon="10.91539">
        <ele>1249.56</ele>
        <time>2022-09-18T08:50:32Z</time>
      </trkpt>
      <trkpt lat="46.02136" lon="10.91537">
        <ele>1249.47</ele>
        <time>2022-09-18T08:50:33Z</time>
      </trkpt>
      <trkpt lat="46.02136" lon="10.91536">
        <ele>1249.64</ele>
        <time>2022-09-18T08:50:34Z</time>
      </trkpt>
      <trkpt lat="46.02136" lon="10.91535">
        <ele>1250.09</ele>
        <time>2022-09-18T08:50:35Z</time>
      </trkpt>
      <trkpt lat="46.02136" lon="10.91532">
        <ele>1248.47</ele>
        <time>2022-09-18T08:50:37Z</time>
      </trkpt>
      <trkpt lat="46.02136" lon="10.91531">
        <ele>1206.17</ele>
        <time>2022-09-18T08:50:39Z</time>
      </trkpt>
      <trkpt lat="46.02135" lon="10.9153">
        <ele>1221.58</ele>
        <time>2022-09-18T08:50:41Z</time>
      </trkpt>
      <trkpt lat="46.02135" lon="10.91528">
        <ele>1242.11</ele>
        <time>2022-09-18T08:50:51Z</time>
      </trkpt>
      <trkpt lat="46.02136" lon="10.91526">
        <ele>1242.6</ele>
        <time>2022-09-18T08:50:53Z</time>
      </trkpt>
      <trkpt lat="46.02135" lon="10.91525">
        <ele>1242.4</ele>
        <time>2022-09-18T08:50:55Z</time>
      </trkpt>
      <trkpt lat="46.02134" lon="10.91523">
        <ele>1242.12</ele>
        <time>2022-09-18T08:50:57Z</time>
      </trkpt>
      <trkpt lat="46.02134" lon="10.91521">
        <ele>1241.69</ele>
        <time>2022-09-18T08:50:59Z</time>
      </trkpt>
      <trkpt lat="46.02134" lon="10.91519">
        <ele>1242.41</ele>
        <time>2022-09-18T08:51:01Z</time>
      </trkpt>
      <trkpt lat="46.02133" lon="10.91519">
        <ele>1243.81</ele>
        <time>2022-09-18T08:51:05Z</time>
      </trkpt>
      <trkpt lat="46.02131" lon="10.9152">
        <ele>1244.14</ele>
        <time>2022-09-18T08:51:07Z</time>
      </trkpt>
      <trkpt lat="46.02131" lon="10.91522">
        <ele>1244.56</ele>
        <time>2022-09-18T08:51:08Z</time>
      </trkpt>
      <trkpt lat="46.0213" lon="10.91523">
        <ele>1244.19</ele>
        <time>2022-09-18T08:51:09Z</time>
      </trkpt>
      <trkpt lat="46.02129" lon="10.91524">
        <ele>1245.22</ele>
        <time>2022-09-18T08:51:10Z</time>
      </trkpt>
      <trkpt lat="46.02128" lon="10.91525">
        <ele>1245.57</ele>
        <time>2022-09-18T08:51:12Z</time>
      </trkpt>
      <trkpt lat="46.02127" lon="10.91525">
        <ele>1245.74</ele>
        <time>2022-09-18T08:51:14Z</time>
      </trkpt>
      <trkpt lat="46.02126" lon="10.91525">
        <ele>1246.94</ele>
        <time>2022-09-18T08:51:16Z</time>
      </trkpt>
      <trkpt lat="46.02125" lon="10.91526">
        <ele>1248.31</ele>
        <time>2022-09-18T08:51:17Z</time>
      </trkpt>
      <trkpt lat="46.02124" lon="10.91526">
        <ele>1249.03</ele>
        <time>2022-09-18T08:51:18Z</time>
      </trkpt>
      <trkpt lat="46.02123" lon="10.91527">
        <ele>1249.29</ele>
        <time>2022-09-18T08:51:19Z</time>
      </trkpt>
      <trkpt lat="46.02121" lon="10.91529">
        <ele>1250.34</ele>
        <time>2022-09-18T08:51:21Z</time>
      </trkpt>
      <trkpt lat="46.0212" lon="10.9153">
        <ele>1250.37</ele>
        <time>2022-09-18T08:51:22Z</time>
      </trkpt>
      <trkpt lat="46.02119" lon="10.91532">
        <ele>1250.74</ele>
        <time>2022-09-18T08:51:23Z</time>
      </trkpt>
      <trkpt lat="46.02119" lon="10.91533">
        <ele>1250.29</ele>
        <time>2022-09-18T08:51:24Z</time>
      </trkpt>
      <trkpt lat="46.02117" lon="10.91534">
        <ele>1249.48</ele>
        <time>2022-09-18T08:51:26Z</time>
      </trkpt>
      <trkpt lat="46.02117" lon="10.91534">
        <ele>1250.97</ele>
        <time>2022-09-18T08:51:29Z</time>
      </trkpt>
      <trkpt lat="46.02117" lon="10.91533">
        <ele>1252.71</ele>
        <time>2022-09-18T08:51:32Z</time>
      </trkpt>
      <trkpt lat="46.02118" lon="10.91534">
        <ele>1254.11</ele>
        <time>2022-09-18T08:51:34Z</time>
      </trkpt>
      <trkpt lat="46.02119" lon="10.91532">
        <ele>1254.38</ele>
        <time>2022-09-18T08:51:37Z</time>
      </trkpt>
      <trkpt lat="46.02117" lon="10.91531">
        <ele>1255.05</ele>
        <time>2022-09-18T08:51:39Z</time>
      </trkpt>
      <trkpt lat="46.02116" lon="10.91531">
        <ele>1255.99</ele>
        <time>2022-09-18T08:51:41Z</time>
      </trkpt>
      <trkpt lat="46.02115" lon="10.91531">
        <ele>1255.72</ele>
        <time>2022-09-18T08:51:42Z</time>
      </trkpt>
      <trkpt lat="46.02114" lon="10.91532">
        <ele>1256.88</ele>
        <time>2022-09-18T08:51:44Z</time>
      </trkpt>
      <trkpt lat="46.02113" lon="10.91532">
        <ele>1257.62</ele>
        <time>2022-09-18T08:51:45Z</time>
      </trkpt>
      <trkpt lat="46.02111" lon="10.91532">
        <ele>1257.51</ele>
        <time>2022-09-18T08:51:47Z</time>
      </trkpt>
      <trkpt lat="46.02112" lon="10.9153">
        <ele>1257.78</ele>
        <time>2022-09-18T08:51:49Z</time>
      </trkpt>
      <trkpt lat="46.0211" lon="10.91529">
        <ele>1258.36</ele>
        <time>2022-09-18T08:51:52Z</time>
      </trkpt>
      <trkpt lat="46.02109" lon="10.91529">
        <ele>1258.91</ele>
        <time>2022-09-18T08:51:55Z</time>
      </trkpt>
      <trkpt lat="46.0211" lon="10.91531">
        <ele>1260.33</ele>
        <time>2022-09-18T08:52:01Z</time>
      </trkpt>
      <trkpt lat="46.02109" lon="10.91532">
        <ele>1260.44</ele>
        <time>2022-09-18T08:52:03Z</time>
      </trkpt>
      <trkpt lat="46.02108" lon="10.91532">
        <ele>1261.66</ele>
        <time>2022-09-18T08:52:05Z</time>
      </trkpt>
      <trkpt lat="46.02107" lon="10.91531">
        <ele>1262.2</ele>
        <time>2022-09-18T08:52:11Z</time>
      </trkpt>
      <trkpt lat="46.02107" lon="10.91529">
        <ele>1260.66</ele>
        <time>2022-09-18T08:52:13Z</time>
      </trkpt>
      <trkpt lat="46.02106" lon="10.91528">
        <ele>1261.49</ele>
        <time>2022-09-18T08:52:16Z</time>
      </trkpt>
      <trkpt lat="46.02106" lon="10.91527">
        <ele>1262.64</ele>
        <time>2022-09-18T08:52:18Z</time>
      </trkpt>
      <trkpt lat="46.02104" lon="10.91528">
        <ele>1262.86</ele>
        <time>2022-09-18T08:52:20Z</time>
      </trkpt>
      <trkpt lat="46.02103" lon="10.91528">
        <ele>1263.67</ele>
        <time>2022-09-18T08:52:22Z</time>
      </trkpt>
      <trkpt lat="46.02102" lon="10.91528">
        <ele>1264.07</ele>
        <time>2022-09-18T08:52:23Z</time>
      </trkpt>
      <trkpt lat="46.02102" lon="10.91527">
        <ele>1264.16</ele>
        <time>2022-09-18T08:52:28Z</time>
      </trkpt>
      <trkpt lat="46.02101" lon="10.91525">
        <ele>1263.31</ele>
        <time>2022-09-18T08:52:30Z</time>
      </trkpt>
      <trkpt lat="46.02101" lon="10.91523">
        <ele>1262.6</ele>
        <time>2022-09-18T08:52:32Z</time>
      </trkpt>
      <trkpt lat="46.021" lon="10.91521">
        <ele>1261.89</ele>
        <time>2022-09-18T08:52:33Z</time>
      </trkpt>
      <trkpt lat="46.021" lon="10.9152">
        <ele>1262.83</ele>
        <time>2022-09-18T08:52:34Z</time>
      </trkpt>
      <trkpt lat="46.021" lon="10.91518">
        <ele>1263.38</ele>
        <time>2022-09-18T08:52:36Z</time>
      </trkpt>
      <trkpt lat="46.02099" lon="10.91517">
        <ele>1264.03</ele>
        <time>2022-09-18T08:52:38Z</time>
      </trkpt>
      <trkpt lat="46.02098" lon="10.91516">
        <ele>1264.65</ele>
        <time>2022-09-18T08:52:40Z</time>
      </trkpt>
      <trkpt lat="46.02097" lon="10.91515">
        <ele>1265.12</ele>
        <time>2022-09-18T08:52:41Z</time>
      </trkpt>
      <trkpt lat="46.02097" lon="10.91514">
        <ele>1264.82</ele>
        <time>2022-09-18T08:52:42Z</time>
      </trkpt>
      <trkpt lat="46.02097" lon="10.91513">
        <ele>1264.86</ele>
        <time>2022-09-18T08:52:44Z</time>
      </trkpt>
      <trkpt lat="46.02096" lon="10.91511">
        <ele>1265.29</ele>
        <time>2022-09-18T08:52:47Z</time>
      </trkpt>
      <trkpt lat="46.02096" lon="10.9151">
        <ele>1265.1</ele>
        <time>2022-09-18T08:52:49Z</time>
      </trkpt>
      <trkpt lat="46.02097" lon="10.91508">
        <ele>1264.96</ele>
        <time>2022-09-18T08:52:51Z</time>
      </trkpt>
      <trkpt lat="46.02098" lon="10.91506">
        <ele>1265.26</ele>
        <time>2022-09-18T08:52:53Z</time>
      </trkpt>
      <trkpt lat="46.02098" lon="10.91505">
        <ele>1265.48</ele>
        <time>2022-09-18T08:53:01Z</time>
      </trkpt>
      <trkpt lat="46.02099" lon="10.91504">
        <ele>1265.6</ele>
        <time>2022-09-18T08:53:03Z</time>
      </trkpt>
      <trkpt lat="46.021" lon="10.91505">
        <ele>1266.42</ele>
        <time>2022-09-18T08:53:05Z</time>
      </trkpt>
      <trkpt lat="46.021" lon="10.91506">
        <ele>1268.31</ele>
        <time>2022-09-18T08:53:07Z</time>
      </trkpt>
      <trkpt lat="46.02099" lon="10.91506">
        <ele>1269.65</ele>
        <time>2022-09-18T08:53:12Z</time>
      </trkpt>
      <trkpt lat="46.02099" lon="10.91504">
        <ele>1269.77</ele>
        <time>2022-09-18T08:53:14Z</time>
      </trkpt>
      <trkpt lat="46.02099" lon="10.91503">
        <ele>1269.29</ele>
        <time>2022-09-18T08:53:16Z</time>
      </trkpt>
      <trkpt lat="46.02099" lon="10.91501">
        <ele>1271.45</ele>
        <time>2022-09-18T08:53:20Z</time>
      </trkpt>
      <trkpt lat="46.02097" lon="10.91501">
        <ele>1272.62</ele>
        <time>2022-09-18T08:53:25Z</time>
      </trkpt>
      <trkpt lat="46.02096" lon="10.91499">
        <ele>1274.89</ele>
        <time>2022-09-18T08:53:28Z</time>
      </trkpt>
      <trkpt lat="46.02095" lon="10.91499">
        <ele>1275.37</ele>
        <time>2022-09-18T08:53:30Z</time>
      </trkpt>
      <trkpt lat="46.02094" lon="10.91499">
        <ele>1276.67</ele>
        <time>2022-09-18T08:53:31Z</time>
      </trkpt>
      <trkpt lat="46.02093" lon="10.915">
        <ele>1277.86</ele>
        <time>2022-09-18T08:53:33Z</time>
      </trkpt>
      <trkpt lat="46.02092" lon="10.91501">
        <ele>1277.53</ele>
        <time>2022-09-18T08:53:35Z</time>
      </trkpt>
      <trkpt lat="46.02091" lon="10.915">
        <ele>1278.51</ele>
        <time>2022-09-18T08:53:38Z</time>
      </trkpt>
      <trkpt lat="46.0209" lon="10.91501">
        <ele>1279.03</ele>
        <time>2022-09-18T08:53:39Z</time>
      </trkpt>
      <trkpt lat="46.0209" lon="10.91502">
        <ele>1282.12</ele>
        <time>2022-09-18T08:53:43Z</time>
      </trkpt>
      <trkpt lat="46.0209" lon="10.91504">
        <ele>1284.49</ele>
        <time>2022-09-18T08:53:45Z</time>
      </trkpt>
      <trkpt lat="46.0209" lon="10.91502">
        <ele>1284.29</ele>
        <time>2022-09-18T08:53:48Z</time>
      </trkpt>
      <trkpt lat="46.0209" lon="10.91501">
        <ele>1284.76</ele>
        <time>2022-09-18T08:53:50Z</time>
      </trkpt>
      <trkpt lat="46.0209" lon="10.91499">
        <ele>1284.87</ele>
        <time>2022-09-18T08:53:52Z</time>
      </trkpt>
      <trkpt lat="46.02089" lon="10.91498">
        <ele>1286.44</ele>
        <time>2022-09-18T08:53:54Z</time>
      </trkpt>
      <trkpt lat="46.02088" lon="10.91499">
        <ele>1288.06</ele>
        <time>2022-09-18T08:53:56Z</time>
      </trkpt>
      <trkpt lat="46.02087" lon="10.91501">
        <ele>1288.94</ele>
        <time>2022-09-18T08:53:58Z</time>
      </trkpt>
      <trkpt lat="46.02086" lon="10.91502">
        <ele>1289.07</ele>
        <time>2022-09-18T08:54:00Z</time>
      </trkpt>
      <trkpt lat="46.02087" lon="10.91503">
        <ele>1287.97</ele>
        <time>2022-09-18T08:54:04Z</time>
      </trkpt>
      <trkpt lat="46.02088" lon="10.91502">
        <ele>1285.8</ele>
        <time>2022-09-18T08:54:06Z</time>
      </trkpt>
      <trkpt lat="46.02088" lon="10.915">
        <ele>1285.93</ele>
        <time>2022-09-18T08:54:07Z</time>
      </trkpt>
      <trkpt lat="46.02089" lon="10.91499">
        <ele>1287.25</ele>
        <time>2022-09-18T08:54:08Z</time>
      </trkpt>
      <trkpt lat="46.02089" lon="10.91497">
        <ele>1288.3</ele>
        <time>2022-09-18T08:54:10Z</time>
      </trkpt>
      <trkpt lat="46.02089" lon="10.91496">
        <ele>1289.75</ele>
        <time>2022-09-18T08:54:13Z</time>
      </trkpt>
      <trkpt lat="46.02089" lon="10.91495">
        <ele>1289.64</ele>
        <time>2022-09-18T08:54:25Z</time>
      </trkpt>
      <trkpt lat="46.02089" lon="10.91493">
        <ele>1288.56</ele>
        <time>2022-09-18T08:54:26Z</time>
      </trkpt>
      <trkpt lat="46.0209" lon="10.91491">
        <ele>1288.68</ele>
        <time>2022-09-18T08:54:27Z</time>
      </trkpt>
      <trkpt lat="46.02089" lon="10.9149">
        <ele>1289.04</ele>
        <time>2022-09-18T08:54:28Z</time>
      </trkpt>
      <trkpt lat="46.02089" lon="10.91489">
        <ele>1292.31</ele>
        <time>2022-09-18T08:54:32Z</time>
      </trkpt>
      <trkpt lat="46.0209" lon="10.91488">
        <ele>1292.51</ele>
        <time>2022-09-18T08:54:36Z</time>
      </trkpt>
      <trkpt lat="46.02091" lon="10.91487">
        <ele>1292.64</ele>
        <time>2022-09-18T08:54:39Z</time>
      </trkpt>
      <trkpt lat="46.02092" lon="10.91487">
        <ele>1292.77</ele>
        <time>2022-09-18T08:54:42Z</time>
      </trkpt>
      <trkpt lat="46.02093" lon="10.91486">
        <ele>1292.98</ele>
        <time>2022-09-18T08:54:44Z</time>
      </trkpt>
      <trkpt lat="46.02093" lon="10.91485">
        <ele>1293.14</ele>
        <time>2022-09-18T08:54:47Z</time>
      </trkpt>
      <trkpt lat="46.02095" lon="10.91485">
        <ele>1294</ele>
        <time>2022-09-18T08:54:50Z</time>
      </trkpt>
      <trkpt lat="46.02096" lon="10.91484">
        <ele>1294.15</ele>
        <time>2022-09-18T08:54:51Z</time>
      </trkpt>
      <trkpt lat="46.02097" lon="10.91484">
        <ele>1293.6</ele>
        <time>2022-09-18T08:54:54Z</time>
      </trkpt>
      <trkpt lat="46.02097" lon="10.91485">
        <ele>1294.18</ele>
        <time>2022-09-18T08:54:56Z</time>
      </trkpt>
      <trkpt lat="46.02098" lon="10.91485">
        <ele>1293.67</ele>
        <time>2022-09-18T08:54:58Z</time>
      </trkpt>
      <trkpt lat="46.021" lon="10.91484">
        <ele>1293.33</ele>
        <time>2022-09-18T08:55:00Z</time>
      </trkpt>
      <trkpt lat="46.021" lon="10.91483">
        <ele>1293.47</ele>
        <time>2022-09-18T08:55:02Z</time>
      </trkpt>
      <trkpt lat="46.021" lon="10.91482">
        <ele>1292.2</ele>
        <time>2022-09-18T08:55:05Z</time>
      </trkpt>
      <trkpt lat="46.02101" lon="10.91481">
        <ele>1292.48</ele>
        <time>2022-09-18T08:55:08Z</time>
      </trkpt>
      <trkpt lat="46.02102" lon="10.91482">
        <ele>1291.23</ele>
        <time>2022-09-18T08:55:10Z</time>
      </trkpt>
      <trkpt lat="46.02103" lon="10.91482">
        <ele>1291.89</ele>
        <time>2022-09-18T08:55:11Z</time>
      </trkpt>
      <trkpt lat="46.02105" lon="10.91482">
        <ele>1290.74</ele>
        <time>2022-09-18T08:55:14Z</time>
      </trkpt>
      <trkpt lat="46.02105" lon="10.91481">
        <ele>1291.37</ele>
        <time>2022-09-18T08:55:16Z</time>
      </trkpt>
      <trkpt lat="46.02104" lon="10.91482">
        <ele>1292.77</ele>
        <time>2022-09-18T08:55:20Z</time>
      </trkpt>
      <trkpt lat="46.02103" lon="10.91482">
        <ele>1294.02</ele>
        <time>2022-09-18T08:55:22Z</time>
      </trkpt>
      <trkpt lat="46.02103" lon="10.9148">
        <ele>1295.15</ele>
        <time>2022-09-18T08:55:24Z</time>
      </trkpt>
      <trkpt lat="46.02103" lon="10.91479">
        <ele>1296.48</ele>
        <time>2022-09-18T08:55:26Z</time>
      </trkpt>
      <trkpt lat="46.02103" lon="10.91477">
        <ele>1298.12</ele>
        <time>2022-09-18T08:55:29Z</time>
      </trkpt>
      <trkpt lat="46.02103" lon="10.91476">
        <ele>1239.44</ele>
        <time>2022-09-18T08:55:34Z</time>
      </trkpt>
      <trkpt lat="46.02102" lon="10.91477">
        <ele>1281.24</ele>
        <time>2022-09-18T08:55:38Z</time>
      </trkpt>
      <trkpt lat="46.02101" lon="10.91478">
        <ele>1288.35</ele>
        <time>2022-09-18T08:55:40Z</time>
      </trkpt>
      <trkpt lat="46.02099" lon="10.91478">
        <ele>1292.08</ele>
        <time>2022-09-18T08:55:42Z</time>
      </trkpt>
      <trkpt lat="46.02098" lon="10.91478">
        <ele>1293.87</ele>
        <time>2022-09-18T08:55:44Z</time>
      </trkpt>
      <trkpt lat="46.02096" lon="10.91478">
        <ele>1299.33</ele>
        <time>2022-09-18T08:55:46Z</time>
      </trkpt>
      <trkpt lat="46.02095" lon="10.91479">
        <ele>1300.56</ele>
        <time>2022-09-18T08:55:47Z</time>
      </trkpt>
      <trkpt lat="46.02094" lon="10.91476">
        <ele>1300.8</ele>
        <time>2022-09-18T08:55:50Z</time>
      </trkpt>
      <trkpt lat="46.02095" lon="10.91474">
        <ele>1302.48</ele>
        <time>2022-09-18T08:55:51Z</time>
      </trkpt>
      <trkpt lat="46.02095" lon="10.91472">
        <ele>1302.62</ele>
        <time>2022-09-18T08:55:52Z</time>
      </trkpt>
      <trkpt lat="46.02095" lon="10.9147">
        <ele>1303.38</ele>
        <time>2022-09-18T08:55:53Z</time>
      </trkpt>
      <trkpt lat="46.02095" lon="10.91468">
        <ele>1304.2</ele>
        <time>2022-09-18T08:55:54Z</time>
      </trkpt>
      <trkpt lat="46.02095" lon="10.91466">
        <ele>1304.2</ele>
        <time>2022-09-18T08:55:55Z</time>
      </trkpt>
      <trkpt lat="46.02095" lon="10.91464">
        <ele>1303.39</ele>
        <time>2022-09-18T08:55:57Z</time>
      </trkpt>
      <trkpt lat="46.02094" lon="10.91464">
        <ele>1304.93</ele>
        <time>2022-09-18T08:56:00Z</time>
      </trkpt>
      <trkpt lat="46.02093" lon="10.91465">
        <ele>1305.49</ele>
        <time>2022-09-18T08:56:02Z</time>
      </trkpt>
      <trkpt lat="46.02092" lon="10.91466">
        <ele>1307.2</ele>
        <time>2022-09-18T08:56:03Z</time>
      </trkpt>
      <trkpt lat="46.02091" lon="10.91467">
        <ele>1308.13</ele>
        <time>2022-09-18T08:56:05Z</time>
      </trkpt>
      <trkpt lat="46.02091" lon="10.91468">
        <ele>1307.27</ele>
        <time>2022-09-18T08:56:07Z</time>
      </trkpt>
      <trkpt lat="46.0209" lon="10.91469">
        <ele>1307.36</ele>
        <time>2022-09-18T08:56:09Z</time>
      </trkpt>
      <trkpt lat="46.02089" lon="10.91469">
        <ele>1309.62</ele>
        <time>2022-09-18T08:56:12Z</time>
      </trkpt>
      <trkpt lat="46.02089" lon="10.91468">
        <ele>1311.96</ele>
        <time>2022-09-18T08:56:17Z</time>
      </trkpt>
      <trkpt lat="46.02089" lon="10.91466">
        <ele>1312.21</ele>
        <time>2022-09-18T08:56:19Z</time>
      </trkpt>
      <trkpt lat="46.02089" lon="10.91464">
        <ele>1313.2</ele>
        <time>2022-09-18T08:56:21Z</time>
      </trkpt>
      <trkpt lat="46.02088" lon="10.91463">
        <ele>1314.7</ele>
        <time>2022-09-18T08:56:25Z</time>
      </trkpt>
      <trkpt lat="46.02088" lon="10.91465">
        <ele>1314.17</ele>
        <time>2022-09-18T08:56:28Z</time>
      </trkpt>
      <trkpt lat="46.0209" lon="10.91463">
        <ele>1314.11</ele>
        <time>2022-09-18T08:56:30Z</time>
      </trkpt>
      <trkpt lat="46.02091" lon="10.91463">
        <ele>1314.54</ele>
        <time>2022-09-18T08:56:32Z</time>
      </trkpt>
      <trkpt lat="46.02092" lon="10.91462">
        <ele>1314.38</ele>
        <time>2022-09-18T08:56:34Z</time>
      </trkpt>
      <trkpt lat="46.02094" lon="10.91462">
        <ele>1314.04</ele>
        <time>2022-09-18T08:56:36Z</time>
      </trkpt>
      <trkpt lat="46.02094" lon="10.9146">
        <ele>1314.64</ele>
        <time>2022-09-18T08:56:40Z</time>
      </trkpt>
      <trkpt lat="46.02093" lon="10.91461">
        <ele>1313.33</ele>
        <time>2022-09-18T08:56:44Z</time>
      </trkpt>
      <trkpt lat="46.02095" lon="10.91461">
        <ele>1316.41</ele>
        <time>2022-09-18T08:56:50Z</time>
      </trkpt>
      <trkpt lat="46.02096" lon="10.9146">
        <ele>1315.79</ele>
        <time>2022-09-18T08:56:54Z</time>
      </trkpt>
      <trkpt lat="46.02097" lon="10.91458">
        <ele>1315.9</ele>
        <time>2022-09-18T08:56:56Z</time>
      </trkpt>
      <trkpt lat="46.02097" lon="10.91456">
        <ele>1315.84</ele>
        <time>2022-09-18T08:56:58Z</time>
      </trkpt>
      <trkpt lat="46.02098" lon="10.91454">
        <ele>1316.31</ele>
        <time>2022-09-18T08:57:00Z</time>
      </trkpt>
      <trkpt lat="46.02098" lon="10.91452">
        <ele>1317.09</ele>
        <time>2022-09-18T08:57:01Z</time>
      </trkpt>
      <trkpt lat="46.02097" lon="10.91451">
        <ele>1318.94</ele>
        <time>2022-09-18T08:57:04Z</time>
      </trkpt>
      <trkpt lat="46.02096" lon="10.91452">
        <ele>1318.16</ele>
        <time>2022-09-18T08:57:06Z</time>
      </trkpt>
      <trkpt lat="46.02094" lon="10.91453">
        <ele>1320.14</ele>
        <time>2022-09-18T08:57:09Z</time>
      </trkpt>
      <trkpt lat="46.02092" lon="10.91455">
        <ele>1320.72</ele>
        <time>2022-09-18T08:57:10Z</time>
      </trkpt>
      <trkpt lat="46.02091" lon="10.91457">
        <ele>1320.85</ele>
        <time>2022-09-18T08:57:11Z</time>
      </trkpt>
      <trkpt lat="46.0209" lon="10.91458">
        <ele>1320.21</ele>
        <time>2022-09-18T08:57:12Z</time>
      </trkpt>
      <trkpt lat="46.02089" lon="10.91457">
        <ele>1321.91</ele>
        <time>2022-09-18T08:57:16Z</time>
      </trkpt>
      <trkpt lat="46.0209" lon="10.91455">
        <ele>1321.7</ele>
        <time>2022-09-18T08:57:18Z</time>
      </trkpt>
      <trkpt lat="46.0209" lon="10.91453">
        <ele>1321.58</ele>
        <time>2022-09-18T08:57:20Z</time>
      </trkpt>
      <trkpt lat="46.02091" lon="10.91452">
        <ele>1078.22</ele>
        <time>2022-09-18T08:57:22Z</time>
      </trkpt>
      <trkpt lat="46.02089" lon="10.91451">
        <ele>1188.39</ele>
        <time>2022-09-18T08:57:24Z</time>
      </trkpt>
      <trkpt lat="46.02089" lon="10.9145">
        <ele>1247.2</ele>
        <time>2022-09-18T08:57:26Z</time>
      </trkpt>
      <trkpt lat="46.0209" lon="10.91449">
        <ele>1285.12</ele>
        <time>2022-09-18T08:57:29Z</time>
      </trkpt>
      <trkpt lat="46.02091" lon="10.91447">
        <ele>1312.19</ele>
        <time>2022-09-18T08:57:31Z</time>
      </trkpt>
      <trkpt lat="46.0209" lon="10.91446">
        <ele>1321.23</ele>
        <time>2022-09-18T08:57:35Z</time>
      </trkpt>
      <trkpt lat="46.02089" lon="10.91445">
        <ele>1321.88</ele>
        <time>2022-09-18T08:57:36Z</time>
      </trkpt>
      <trkpt lat="46.02088" lon="10.91444">
        <ele>1322.54</ele>
        <time>2022-09-18T08:57:37Z</time>
      </trkpt>
      <trkpt lat="46.02087" lon="10.91444">
        <ele>1323.42</ele>
        <time>2022-09-18T08:57:38Z</time>
      </trkpt>
      <trkpt lat="46.02086" lon="10.91443">
        <ele>1325.16</ele>
        <time>2022-09-18T08:57:41Z</time>
      </trkpt>
      <trkpt lat="46.02087" lon="10.91441">
        <ele>1324.88</ele>
        <time>2022-09-18T08:57:43Z</time>
      </trkpt>
      <trkpt lat="46.02087" lon="10.91439">
        <ele>1324.25</ele>
        <time>2022-09-18T08:57:48Z</time>
      </trkpt>
      <trkpt lat="46.02087" lon="10.91437">
        <ele>1324.18</ele>
        <time>2022-09-18T08:57:50Z</time>
      </trkpt>
      <trkpt lat="46.02086" lon="10.91435">
        <ele>1324.61</ele>
        <time>2022-09-18T08:57:52Z</time>
      </trkpt>
      <trkpt lat="46.02087" lon="10.91434">
        <ele>1324.22</ele>
        <time>2022-09-18T08:57:54Z</time>
      </trkpt>
      <trkpt lat="46.02088" lon="10.91435">
        <ele>1323.49</ele>
        <time>2022-09-18T08:57:57Z</time>
      </trkpt>
      <trkpt lat="46.02089" lon="10.91434">
        <ele>1323.75</ele>
        <time>2022-09-18T08:57:59Z</time>
      </trkpt>
      <trkpt lat="46.02088" lon="10.91433">
        <ele>1326.95</ele>
        <time>2022-09-18T08:58:04Z</time>
      </trkpt>
      <trkpt lat="46.02088" lon="10.91432">
        <ele>1326.41</ele>
        <time>2022-09-18T08:58:07Z</time>
      </trkpt>
      <trkpt lat="46.02089" lon="10.91433">
        <ele>1327.42</ele>
        <time>2022-09-18T08:58:09Z</time>
      </trkpt>
      <trkpt lat="46.02089" lon="10.91435">
        <ele>1327.68</ele>
        <time>2022-09-18T08:58:11Z</time>
      </trkpt>
      <trkpt lat="46.02088" lon="10.91437">
        <ele>1328.14</ele>
        <time>2022-09-18T08:58:13Z</time>
      </trkpt>
      <trkpt lat="46.02089" lon="10.91435">
        <ele>1325.52</ele>
        <time>2022-09-18T08:58:17Z</time>
      </trkpt>
      <trkpt lat="46.0209" lon="10.91433">
        <ele>1326.24</ele>
        <time>2022-09-18T08:58:18Z</time>
      </trkpt>
      <trkpt lat="46.02091" lon="10.91431">
        <ele>1325.94</ele>
        <time>2022-09-18T08:58:20Z</time>
      </trkpt>
      <trkpt lat="46.02092" lon="10.91433">
        <ele>1327.41</ele>
        <time>2022-09-18T08:58:23Z</time>
      </trkpt>
      <trkpt lat="46.02093" lon="10.91433">
        <ele>1327.44</ele>
        <time>2022-09-18T08:58:24Z</time>
      </trkpt>
      <trkpt lat="46.02094" lon="10.91433">
        <ele>1327.24</ele>
        <time>2022-09-18T08:58:26Z</time>
      </trkpt>
      <trkpt lat="46.02095" lon="10.91431">
        <ele>1326.46</ele>
        <time>2022-09-18T08:58:28Z</time>
      </trkpt>
      <trkpt lat="46.02096" lon="10.9143">
        <ele>1326.2</ele>
        <time>2022-09-18T08:58:30Z</time>
      </trkpt>
      <trkpt lat="46.02097" lon="10.91428">
        <ele>1326.08</ele>
        <time>2022-09-18T08:58:32Z</time>
      </trkpt>
      <trkpt lat="46.02097" lon="10.91427">
        <ele>1326.3</ele>
        <time>2022-09-18T08:58:33Z</time>
      </trkpt>
      <trkpt lat="46.02098" lon="10.91426">
        <ele>1327.2</ele>
        <time>2022-09-18T08:58:39Z</time>
      </trkpt>
      <trkpt lat="46.02097" lon="10.91425">
        <ele>1327.4</ele>
        <time>2022-09-18T08:58:42Z</time>
      </trkpt>
      <trkpt lat="46.02095" lon="10.91425">
        <ele>1329.05</ele>
        <time>2022-09-18T08:58:44Z</time>
      </trkpt>
      <trkpt lat="46.02094" lon="10.91427">
        <ele>1329.87</ele>
        <time>2022-09-18T08:58:46Z</time>
      </trkpt>
      <trkpt lat="46.02094" lon="10.91428">
        <ele>1330.68</ele>
        <time>2022-09-18T08:58:48Z</time>
      </trkpt>
      <trkpt lat="46.02095" lon="10.9143">
        <ele>1332.03</ele>
        <time>2022-09-18T08:58:50Z</time>
      </trkpt>
      <trkpt lat="46.02095" lon="10.91432">
        <ele>1331.83</ele>
        <time>2022-09-18T08:58:51Z</time>
      </trkpt>
      <trkpt lat="46.02096" lon="10.91432">
        <ele>1331.75</ele>
        <time>2022-09-18T08:58:53Z</time>
      </trkpt>
      <trkpt lat="46.02097" lon="10.91432">
        <ele>1334.59</ele>
        <time>2022-09-18T08:58:56Z</time>
      </trkpt>
      <trkpt lat="46.02098" lon="10.91432">
        <ele>1331.73</ele>
        <time>2022-09-18T08:58:59Z</time>
      </trkpt>
      <trkpt lat="46.02099" lon="10.91432">
        <ele>1270.61</ele>
        <time>2022-09-18T08:59:04Z</time>
      </trkpt>
      <trkpt lat="46.02098" lon="10.91433">
        <ele>1311.16</ele>
        <time>2022-09-18T08:59:09Z</time>
      </trkpt>
      <trkpt lat="46.02099" lon="10.91434">
        <ele>1328.68</ele>
        <time>2022-09-18T08:59:15Z</time>
      </trkpt>
      <trkpt lat="46.021" lon="10.91434">
        <ele>1331.55</ele>
        <time>2022-09-18T08:59:17Z</time>
      </trkpt>
      <trkpt lat="46.021" lon="10.91436">
        <ele>1335.51</ele>
        <time>2022-09-18T08:59:20Z</time>
      </trkpt>
      <trkpt lat="46.021" lon="10.91437">
        <ele>1337.03</ele>
        <time>2022-09-18T08:59:22Z</time>
      </trkpt>
      <trkpt lat="46.02099" lon="10.91436">
        <ele>1341.45</ele>
        <time>2022-09-18T08:59:27Z</time>
      </trkpt>
      <trkpt lat="46.021" lon="10.91433">
        <ele>1341.95</ele>
        <time>2022-09-18T08:59:28Z</time>
      </trkpt>
      <trkpt lat="46.021" lon="10.91431">
        <ele>1342.39</ele>
        <time>2022-09-18T08:59:29Z</time>
      </trkpt>
      <trkpt lat="46.021" lon="10.91429">
        <ele>1343.49</ele>
        <time>2022-09-18T08:59:30Z</time>
      </trkpt>
      <trkpt lat="46.021" lon="10.91427">
        <ele>1294.64</ele>
        <time>2022-09-18T08:59:32Z</time>
      </trkpt>
      <trkpt lat="46.02099" lon="10.91427">
        <ele>1322.22</ele>
        <time>2022-09-18T08:59:35Z</time>
      </trkpt>
      <trkpt lat="46.02099" lon="10.91425">
        <ele>1329.49</ele>
        <time>2022-09-18T08:59:37Z</time>
      </trkpt>
      <trkpt lat="46.02099" lon="10.91423">
        <ele>1336.63</ele>
        <time>2022-09-18T08:59:39Z</time>
      </trkpt>
      <trkpt lat="46.02099" lon="10.91422">
        <ele>1337.63</ele>
        <time>2022-09-18T08:59:40Z</time>
      </trkpt>
      <trkpt lat="46.02098" lon="10.91422">
        <ele>1341.04</ele>
        <time>2022-09-18T08:59:43Z</time>
      </trkpt>
      <trkpt lat="46.02096" lon="10.91421">
        <ele>1341.51</ele>
        <time>2022-09-18T08:59:45Z</time>
      </trkpt>
      <trkpt lat="46.02095" lon="10.91422">
        <ele>1344.24</ele>
        <time>2022-09-18T08:59:47Z</time>
      </trkpt>
      <trkpt lat="46.02094" lon="10.91423">
        <ele>1345.73</ele>
        <time>2022-09-18T08:59:49Z</time>
      </trkpt>
      <trkpt lat="46.02093" lon="10.91424">
        <ele>1344.74</ele>
        <time>2022-09-18T08:59:51Z</time>
      </trkpt>
      <trkpt lat="46.02094" lon="10.91423">
        <ele>1344.61</ele>
        <time>2022-09-18T08:59:55Z</time>
      </trkpt>
      <trkpt lat="46.02093" lon="10.91421">
        <ele>1343.71</ele>
        <time>2022-09-18T08:59:58Z</time>
      </trkpt>
      <trkpt lat="46.02092" lon="10.91422">
        <ele>1345.63</ele>
        <time>2022-09-18T09:00:01Z</time>
      </trkpt>
      <trkpt lat="46.02091" lon="10.91423">
        <ele>1348.55</ele>
        <time>2022-09-18T09:00:04Z</time>
      </trkpt>
      <trkpt lat="46.0209" lon="10.91423">
        <ele>1348.16</ele>
        <time>2022-09-18T09:00:06Z</time>
      </trkpt>
      <trkpt lat="46.02089" lon="10.91422">
        <ele>1315.96</ele>
        <time>2022-09-18T09:00:09Z</time>
      </trkpt>
      <trkpt lat="46.0209" lon="10.9142">
        <ele>1330.1</ele>
        <time>2022-09-18T09:00:11Z</time>
      </trkpt>
      <trkpt lat="46.02091" lon="10.91419">
        <ele>1336.81</ele>
        <time>2022-09-18T09:00:13Z</time>
      </trkpt>
      <trkpt lat="46.02091" lon="10.91417">
        <ele>1340.81</ele>
        <time>2022-09-18T09:00:15Z</time>
      </trkpt>
      <trkpt lat="46.02091" lon="10.91416">
        <ele>1344.98</ele>
        <time>2022-09-18T09:00:17Z</time>
      </trkpt>
      <trkpt lat="46.02091" lon="10.91414">
        <ele>1346.33</ele>
        <time>2022-09-18T09:00:21Z</time>
      </trkpt>
      <trkpt lat="46.02092" lon="10.91414">
        <ele>1349.83</ele>
        <time>2022-09-18T09:00:24Z</time>
      </trkpt>
      <trkpt lat="46.02092" lon="10.91413">
        <ele>1351.56</ele>
        <time>2022-09-18T09:00:26Z</time>
      </trkpt>
      <trkpt lat="46.02091" lon="10.91412">
        <ele>1351.83</ele>
        <time>2022-09-18T09:00:28Z</time>
      </trkpt>
      <trkpt lat="46.0209" lon="10.91412">
        <ele>1351.89</ele>
        <time>2022-09-18T09:00:29Z</time>
      </trkpt>
      <trkpt lat="46.02089" lon="10.91412">
        <ele>1352.11</ele>
        <time>2022-09-18T09:00:30Z</time>
      </trkpt>
      <trkpt lat="46.02087" lon="10.91412">
        <ele>1353.88</ele>
        <time>2022-09-18T09:00:32Z</time>
      </trkpt>
      <trkpt lat="46.02086" lon="10.91413">
        <ele>1354.42</ele>
        <time>2022-09-18T09:00:33Z</time>
      </trkpt>
      <trkpt lat="46.02085" lon="10.91414">
        <ele>1353.44</ele>
        <time>2022-09-18T09:00:35Z</time>
      </trkpt>
      <trkpt lat="46.02085" lon="10.91414">
        <ele>1354.85</ele>
        <time>2022-09-18T09:00:40Z</time>
      </trkpt>
      <trkpt lat="46.02084" lon="10.91413">
        <ele>1354.5</ele>
        <time>2022-09-18T09:00:44Z</time>
      </trkpt>
      <trkpt lat="46.02083" lon="10.91411">
        <ele>1354.65</ele>
        <time>2022-09-18T09:00:47Z</time>
      </trkpt>
      <trkpt lat="46.02082" lon="10.91411">
        <ele>1354.36</ele>
        <time>2022-09-18T09:00:49Z</time>
      </trkpt>
      <trkpt lat="46.02081" lon="10.91412">
        <ele>1354.26</ele>
        <time>2022-09-18T09:00:52Z</time>
      </trkpt>
      <trkpt lat="46.0208" lon="10.91412">
        <ele>1354.31</ele>
        <time>2022-09-18T09:00:55Z</time>
      </trkpt>
      <trkpt lat="46.0208" lon="10.9141">
        <ele>1354.3</ele>
        <time>2022-09-18T09:00:56Z</time>
      </trkpt>
      <trkpt lat="46.0208" lon="10.91408">
        <ele>1355.39</ele>
        <time>2022-09-18T09:00:58Z</time>
      </trkpt>
      <trkpt lat="46.02081" lon="10.91406">
        <ele>1355.46</ele>
        <time>2022-09-18T09:01:01Z</time>
      </trkpt>
      <trkpt lat="46.0208" lon="10.91405">
        <ele>1292.43</ele>
        <time>2022-09-18T09:01:03Z</time>
      </trkpt>
      <trkpt lat="46.02079" lon="10.91403">
        <ele>1320.09</ele>
        <time>2022-09-18T09:01:05Z</time>
      </trkpt>
      <trkpt lat="46.02078" lon="10.91404">
        <ele>1341.75</ele>
        <time>2022-09-18T09:01:10Z</time>
      </trkpt>
      <trkpt lat="46.02077" lon="10.91404">
        <ele>1345.95</ele>
        <time>2022-09-18T09:01:12Z</time>
      </trkpt>
      <trkpt lat="46.02076" lon="10.91405">
        <ele>1348.96</ele>
        <time>2022-09-18T09:01:13Z</time>
      </trkpt>
      <trkpt lat="46.02074" lon="10.91405">
        <ele>1350.68</ele>
        <time>2022-09-18T09:01:15Z</time>
      </trkpt>
      <trkpt lat="46.02073" lon="10.91406">
        <ele>1327.91</ele>
        <time>2022-09-18T09:01:19Z</time>
      </trkpt>
      <trkpt lat="46.02072" lon="10.91408">
        <ele>1339.07</ele>
        <time>2022-09-18T09:01:22Z</time>
      </trkpt>
      <trkpt lat="46.02073" lon="10.91407">
        <ele>1347.19</ele>
        <time>2022-09-18T09:01:25Z</time>
      </trkpt>
      <trkpt lat="46.02074" lon="10.91406">
        <ele>1331.2</ele>
        <time>2022-09-18T09:01:32Z</time>
      </trkpt>
      <trkpt lat="46.02074" lon="10.91407">
        <ele>1334.09</ele>
        <time>2022-09-18T09:01:33Z</time>
      </trkpt>
      <trkpt lat="46.02073" lon="10.91409">
        <ele>1337.86</ele>
        <time>2022-09-18T09:01:34Z</time>
      </trkpt>
      <trkpt lat="46.02074" lon="10.9141">
        <ele>1346.88</ele>
        <time>2022-09-18T09:01:37Z</time>
      </trkpt>
      <trkpt lat="46.02075" lon="10.9141">
        <ele>1351.34</ele>
        <time>2022-09-18T09:01:39Z</time>
      </trkpt>
      <trkpt lat="46.02077" lon="10.91409">
        <ele>1352.58</ele>
        <time>2022-09-18T09:01:41Z</time>
      </trkpt>
      <trkpt lat="46.02079" lon="10.91407">
        <ele>1354.56</ele>
        <time>2022-09-18T09:01:43Z</time>
      </trkpt>
      <trkpt lat="46.0208" lon="10.91406">
        <ele>1354.4</ele>
        <time>2022-09-18T09:01:44Z</time>
      </trkpt>
      <trkpt lat="46.0208" lon="10.91405">
        <ele>1355.08</ele>
        <time>2022-09-18T09:01:45Z</time>
      </trkpt>
      <trkpt lat="46.02081" lon="10.91403">
        <ele>1356.19</ele>
        <time>2022-09-18T09:01:47Z</time>
      </trkpt>
      <trkpt lat="46.0208" lon="10.91404">
        <ele>1357.03</ele>
        <time>2022-09-18T09:01:49Z</time>
      </trkpt>
      <trkpt lat="46.0208" lon="10.91407">
        <ele>1347.36</ele>
        <time>2022-09-18T09:01:51Z</time>
      </trkpt>
      <trkpt lat="46.02081" lon="10.91409">
        <ele>1353.19</ele>
        <time>2022-09-18T09:01:53Z</time>
      </trkpt>
      <trkpt lat="46.02082" lon="10.91408">
        <ele>1358.34</ele>
        <time>2022-09-18T09:01:57Z</time>
      </trkpt>
      <trkpt lat="46.02082" lon="10.91407">
        <ele>1358.99</ele>
        <time>2022-09-18T09:01:59Z</time>
      </trkpt>
      <trkpt lat="46.02083" lon="10.91405">
        <ele>1361.26</ele>
        <time>2022-09-18T09:02:01Z</time>
      </trkpt>
      <trkpt lat="46.02084" lon="10.91404">
        <ele>1362.54</ele>
        <time>2022-09-18T09:02:03Z</time>
      </trkpt>
      <trkpt lat="46.02084" lon="10.91402">
        <ele>1362.12</ele>
        <time>2022-09-18T09:02:05Z</time>
      </trkpt>
      <trkpt lat="46.02083" lon="10.91401">
        <ele>1363.51</ele>
        <time>2022-09-18T09:02:09Z</time>
      </trkpt>
      <trkpt lat="46.02081" lon="10.91402">
        <ele>1363.67</ele>
        <time>2022-09-18T09:02:11Z</time>
      </trkpt>
      <trkpt lat="46.0208" lon="10.91402">
        <ele>1364.52</ele>
        <time>2022-09-18T09:02:12Z</time>
      </trkpt>
      <trkpt lat="46.02079" lon="10.91401">
        <ele>1365.49</ele>
        <time>2022-09-18T09:02:14Z</time>
      </trkpt>
      <trkpt lat="46.02077" lon="10.91401">
        <ele>1274.05</ele>
        <time>2022-09-18T09:02:16Z</time>
      </trkpt>
      <trkpt lat="46.02076" lon="10.914">
        <ele>1307.94</ele>
        <time>2022-09-18T09:02:18Z</time>
      </trkpt>
      <trkpt lat="46.02076" lon="10.91399">
        <ele>1335.96</ele>
        <time>2022-09-18T09:02:21Z</time>
      </trkpt>
      <trkpt lat="46.02074" lon="10.91398">
        <ele>1348.82</ele>
        <time>2022-09-18T09:02:23Z</time>
      </trkpt>
      <trkpt lat="46.02073" lon="10.91398">
        <ele>1357.44</ele>
        <time>2022-09-18T09:02:25Z</time>
      </trkpt>
      <trkpt lat="46.02072" lon="10.91399">
        <ele>1360.31</ele>
        <time>2022-09-18T09:02:27Z</time>
      </trkpt>
      <trkpt lat="46.02073" lon="10.91399">
        <ele>1365.18</ele>
        <time>2022-09-18T09:02:31Z</time>
      </trkpt>
      <trkpt lat="46.02074" lon="10.91398">
        <ele>1369.56</ele>
        <time>2022-09-18T09:02:35Z</time>
      </trkpt>
      <trkpt lat="46.02073" lon="10.91397">
        <ele>1369.85</ele>
        <time>2022-09-18T09:02:37Z</time>
      </trkpt>
      <trkpt lat="46.02072" lon="10.91395">
        <ele>1369.58</ele>
        <time>2022-09-18T09:02:39Z</time>
      </trkpt>
      <trkpt lat="46.02071" lon="10.91394">
        <ele>1370.37</ele>
        <time>2022-09-18T09:02:41Z</time>
      </trkpt>
      <trkpt lat="46.0207" lon="10.91393">
        <ele>1372.74</ele>
        <time>2022-09-18T09:02:43Z</time>
      </trkpt>
      <trkpt lat="46.02069" lon="10.91392">
        <ele>1373.21</ele>
        <time>2022-09-18T09:02:45Z</time>
      </trkpt>
      <trkpt lat="46.02068" lon="10.91392">
        <ele>1374.52</ele>
        <time>2022-09-18T09:02:48Z</time>
      </trkpt>
      <trkpt lat="46.02067" lon="10.91393">
        <ele>1264.73</ele>
        <time>2022-09-18T09:02:50Z</time>
      </trkpt>
      <trkpt lat="46.02065" lon="10.91394">
        <ele>1309.02</ele>
        <time>2022-09-18T09:02:52Z</time>
      </trkpt>
      <trkpt lat="46.02064" lon="10.91395">
        <ele>1318.84</ele>
        <time>2022-09-18T09:02:53Z</time>
      </trkpt>
      <trkpt lat="46.02063" lon="10.91395">
        <ele>1331.1</ele>
        <time>2022-09-18T09:02:54Z</time>
      </trkpt>
      <trkpt lat="46.02062" lon="10.91395">
        <ele>1340.04</ele>
        <time>2022-09-18T09:02:55Z</time>
      </trkpt>
      <trkpt lat="46.02061" lon="10.91395">
        <ele>1347.48</ele>
        <time>2022-09-18T09:02:56Z</time>
      </trkpt>
      <trkpt lat="46.0206" lon="10.91394">
        <ele>1354.3</ele>
        <time>2022-09-18T09:02:57Z</time>
      </trkpt>
      <trkpt lat="46.02059" lon="10.91392">
        <ele>1355.69</ele>
        <time>2022-09-18T09:02:58Z</time>
      </trkpt>
      <trkpt lat="46.02057" lon="10.91391">
        <ele>1361.69</ele>
        <time>2022-09-18T09:02:59Z</time>
      </trkpt>
      <trkpt lat="46.02056" lon="10.91391">
        <ele>1366.17</ele>
        <time>2022-09-18T09:03:00Z</time>
      </trkpt>
      <trkpt lat="46.02054" lon="10.9139">
        <ele>1368.87</ele>
        <time>2022-09-18T09:03:01Z</time>
      </trkpt>
      <trkpt lat="46.02053" lon="10.91391">
        <ele>1373.12</ele>
        <time>2022-09-18T09:03:03Z</time>
      </trkpt>
      <trkpt lat="46.02052" lon="10.9139">
        <ele>1374.93</ele>
        <time>2022-09-18T09:03:04Z</time>
      </trkpt>
      <trkpt lat="46.02053" lon="10.91388">
        <ele>1379.45</ele>
        <time>2022-09-18T09:03:12Z</time>
      </trkpt>
      <trkpt lat="46.02053" lon="10.91387">
        <ele>1379.5</ele>
        <time>2022-09-18T09:03:13Z</time>
      </trkpt>
      <trkpt lat="46.02053" lon="10.91385">
        <ele>1378.91</ele>
        <time>2022-09-18T09:03:15Z</time>
      </trkpt>
      <trkpt lat="46.02053" lon="10.91383">
        <ele>1378.68</ele>
        <time>2022-09-18T09:03:16Z</time>
      </trkpt>
      <trkpt lat="46.02052" lon="10.91382">
        <ele>1378.74</ele>
        <time>2022-09-18T09:03:17Z</time>
      </trkpt>
      <trkpt lat="46.02051" lon="10.91383">
        <ele>1377.93</ele>
        <time>2022-09-18T09:03:18Z</time>
      </trkpt>
      <trkpt lat="46.0205" lon="10.91384">
        <ele>1378.2</ele>
        <time>2022-09-18T09:03:19Z</time>
      </trkpt>
      <trkpt lat="46.02049" lon="10.91385">
        <ele>1378.35</ele>
        <time>2022-09-18T09:03:21Z</time>
      </trkpt>
      <trkpt lat="46.02048" lon="10.91385">
        <ele>1384.47</ele>
        <time>2022-09-18T09:03:30Z</time>
      </trkpt>
      <trkpt lat="46.02047" lon="10.91386">
        <ele>1384.7</ele>
        <time>2022-09-18T09:03:31Z</time>
      </trkpt>
      <trkpt lat="46.02046" lon="10.91387">
        <ele>1383.8</ele>
        <time>2022-09-18T09:03:34Z</time>
      </trkpt>
      <trkpt lat="46.02045" lon="10.91387">
        <ele>1384.14</ele>
        <time>2022-09-18T09:03:35Z</time>
      </trkpt>
      <trkpt lat="46.02044" lon="10.91387">
        <ele>1384.85</ele>
        <time>2022-09-18T09:03:37Z</time>
      </trkpt>
      <trkpt lat="46.02043" lon="10.91386">
        <ele>1385.22</ele>
        <time>2022-09-18T09:03:39Z</time>
      </trkpt>
      <trkpt lat="46.02041" lon="10.91386">
        <ele>1385.53</ele>
        <time>2022-09-18T09:03:41Z</time>
      </trkpt>
      <trkpt lat="46.0204" lon="10.91387">
        <ele>1385.15</ele>
        <time>2022-09-18T09:03:44Z</time>
      </trkpt>
      <trkpt lat="46.02041" lon="10.91386">
        <ele>1386.62</ele>
        <time>2022-09-18T09:03:47Z</time>
      </trkpt>
      <trkpt lat="46.02042" lon="10.91385">
        <ele>1385.66</ele>
        <time>2022-09-18T09:03:49Z</time>
      </trkpt>
      <trkpt lat="46.02044" lon="10.91383">
        <ele>1387.78</ele>
        <time>2022-09-18T09:03:53Z</time>
      </trkpt>
      <trkpt lat="46.02045" lon="10.91382">
        <ele>1388.32</ele>
        <time>2022-09-18T09:03:54Z</time>
      </trkpt>
      <trkpt lat="46.02046" lon="10.91382">
        <ele>1388.64</ele>
        <time>2022-09-18T09:03:55Z</time>
      </trkpt>
      <trkpt lat="46.02047" lon="10.91382">
        <ele>1389.09</ele>
        <time>2022-09-18T09:03:56Z</time>
      </trkpt>
      <trkpt lat="46.02048" lon="10.91383">
        <ele>1388</ele>
        <time>2022-09-18T09:03:58Z</time>
      </trkpt>
      <trkpt lat="46.02049" lon="10.91383">
        <ele>1386.29</ele>
        <time>2022-09-18T09:04:00Z</time>
      </trkpt>
      <trkpt lat="46.02051" lon="10.91382">
        <ele>1386.85</ele>
        <time>2022-09-18T09:04:03Z</time>
      </trkpt>
      <trkpt lat="46.02052" lon="10.91382">
        <ele>1386.97</ele>
        <time>2022-09-18T09:04:04Z</time>
      </trkpt>
      <trkpt lat="46.02053" lon="10.91382">
        <ele>1386.32</ele>
        <time>2022-09-18T09:04:05Z</time>
      </trkpt>
      <trkpt lat="46.02054" lon="10.91382">
        <ele>1386.55</ele>
        <time>2022-09-18T09:04:06Z</time>
      </trkpt>
      <trkpt lat="46.02055" lon="10.91382">
        <ele>1387.13</ele>
        <time>2022-09-18T09:04:08Z</time>
      </trkpt>
      <trkpt lat="46.02054" lon="10.91381">
        <ele>1384.65</ele>
        <time>2022-09-18T09:04:11Z</time>
      </trkpt>
      <trkpt lat="46.02054" lon="10.91379">
        <ele>1385.95</ele>
        <time>2022-09-18T09:04:13Z</time>
      </trkpt>
      <trkpt lat="46.02053" lon="10.91378">
        <ele>1385.82</ele>
        <time>2022-09-18T09:04:15Z</time>
      </trkpt>
      <trkpt lat="46.02052" lon="10.91377">
        <ele>1386.45</ele>
        <time>2022-09-18T09:04:17Z</time>
      </trkpt>
      <trkpt lat="46.02051" lon="10.91376">
        <ele>1388.91</ele>
        <time>2022-09-18T09:04:19Z</time>
      </trkpt>
      <trkpt lat="46.0205" lon="10.91376">
        <ele>1390.44</ele>
        <time>2022-09-18T09:04:21Z</time>
      </trkpt>
      <trkpt lat="46.02049" lon="10.91377">
        <ele>1391.84</ele>
        <time>2022-09-18T09:04:23Z</time>
      </trkpt>
      <trkpt lat="46.02048" lon="10.91376">
        <ele>1395.01</ele>
        <time>2022-09-18T09:04:26Z</time>
      </trkpt>
      <trkpt lat="46.02048" lon="10.91374">
        <ele>1393.66</ele>
        <time>2022-09-18T09:04:28Z</time>
      </trkpt>
      <trkpt lat="46.02048" lon="10.91373">
        <ele>1392.88</ele>
        <time>2022-09-18T09:04:29Z</time>
      </trkpt>
      <trkpt lat="46.02048" lon="10.91371">
        <ele>1392.19</ele>
        <time>2022-09-18T09:04:30Z</time>
      </trkpt>
      <trkpt lat="46.02048" lon="10.91369">
        <ele>1391.06</ele>
        <time>2022-09-18T09:04:32Z</time>
      </trkpt>
      <trkpt lat="46.0205" lon="10.91367">
        <ele>1390.72</ele>
        <time>2022-09-18T09:04:34Z</time>
      </trkpt>
      <trkpt lat="46.02051" lon="10.91366">
        <ele>1389.63</ele>
        <time>2022-09-18T09:04:35Z</time>
      </trkpt>
      <trkpt lat="46.02053" lon="10.91366">
        <ele>1389.04</ele>
        <time>2022-09-18T09:04:36Z</time>
      </trkpt>
      <trkpt lat="46.02054" lon="10.91366">
        <ele>1388.73</ele>
        <time>2022-09-18T09:04:37Z</time>
      </trkpt>
      <trkpt lat="46.02056" lon="10.91366">
        <ele>1388.91</ele>
        <time>2022-09-18T09:04:38Z</time>
      </trkpt>
      <trkpt lat="46.02057" lon="10.91366">
        <ele>1389.78</ele>
        <time>2022-09-18T09:04:39Z</time>
      </trkpt>
      <trkpt lat="46.02058" lon="10.91367">
        <ele>1389.99</ele>
        <time>2022-09-18T09:04:40Z</time>
      </trkpt>
      <trkpt lat="46.0206" lon="10.91368">
        <ele>1389.79</ele>
        <time>2022-09-18T09:04:41Z</time>
      </trkpt>
      <trkpt lat="46.0206" lon="10.91369">
        <ele>1389.82</ele>
        <time>2022-09-18T09:04:42Z</time>
      </trkpt>
      <trkpt lat="46.0206" lon="10.91371">
        <ele>1389.72</ele>
        <time>2022-09-18T09:04:43Z</time>
      </trkpt>
      <trkpt lat="46.0206" lon="10.91373">
        <ele>1389.85</ele>
        <time>2022-09-18T09:04:44Z</time>
      </trkpt>
      <trkpt lat="46.02059" lon="10.91374">
        <ele>1390.7</ele>
        <time>2022-09-18T09:04:45Z</time>
      </trkpt>
      <trkpt lat="46.02059" lon="10.91375">
        <ele>1390.68</ele>
        <time>2022-09-18T09:04:46Z</time>
      </trkpt>
      <trkpt lat="46.02058" lon="10.91374">
        <ele>1386.26</ele>
        <time>2022-09-18T09:05:03Z</time>
      </trkpt>
      <trkpt lat="46.02059" lon="10.91373">
        <ele>1382.54</ele>
        <time>2022-09-18T09:05:44Z</time>
      </trkpt>
      <trkpt lat="46.0206" lon="10.91374">
        <ele>1374.96</ele>
        <time>2022-09-18T09:06:20Z</time>
      </trkpt>
      <trkpt lat="46.02059" lon="10.91375">
        <ele>1391.88</ele>
        <time>2022-09-18T09:06:34Z</time>
      </trkpt>
      <trkpt lat="46.0206" lon="10.91375">
        <ele>1393.99</ele>
        <time>2022-09-18T09:06:36Z</time>
      </trkpt>
      <trkpt lat="46.0206" lon="10.91373">
        <ele>1392.37</ele>
        <time>2022-09-18T09:06:46Z</time>
      </trkpt>
      <trkpt lat="46.0206" lon="10.91372">
        <ele>1390.8</ele>
        <time>2022-09-18T09:08:47Z</time>
      </trkpt>
      <trkpt lat="46.02061" lon="10.91371">
        <ele>1389.9</ele>
        <time>2022-09-18T09:09:49Z</time>
      </trkpt>
      <trkpt lat="46.0206" lon="10.91373">
        <ele>1390.81</ele>
        <time>2022-09-18T09:09:53Z</time>
      </trkpt>
      <trkpt lat="46.0206" lon="10.91372">
        <ele>1392.06</ele>
        <time>2022-09-18T09:10:48Z</time>
      </trkpt>
      <trkpt lat="46.02062" lon="10.91373">
        <ele>1389.5</ele>
        <time>2022-09-18T09:11:33Z</time>
      </trkpt>
      <trkpt lat="46.02063" lon="10.91374">
        <ele>1390.12</ele>
        <time>2022-09-18T09:11:35Z</time>
      </trkpt>
      <trkpt lat="46.02064" lon="10.91375">
        <ele>1390.34</ele>
        <time>2022-09-18T09:11:36Z</time>
      </trkpt>
      <trkpt lat="46.02067" lon="10.91376">
        <ele>1390.89</ele>
        <time>2022-09-18T09:11:39Z</time>
      </trkpt>
      <trkpt lat="46.02068" lon="10.91376">
        <ele>1390.82</ele>
        <time>2022-09-18T09:11:40Z</time>
      </trkpt>
      <trkpt lat="46.02069" lon="10.91376">
        <ele>1391.29</ele>
        <time>2022-09-18T09:11:41Z</time>
      </trkpt>
      <trkpt lat="46.0207" lon="10.91376">
        <ele>1392.38</ele>
        <time>2022-09-18T09:11:43Z</time>
      </trkpt>
      <trkpt lat="46.02072" lon="10.91376">
        <ele>1392.98</ele>
        <time>2022-09-18T09:11:45Z</time>
      </trkpt>
      <trkpt lat="46.02073" lon="10.91376">
        <ele>1392.94</ele>
        <time>2022-09-18T09:11:46Z</time>
      </trkpt>
      <trkpt lat="46.02074" lon="10.91376">
        <ele>1393.29</ele>
        <time>2022-09-18T09:11:47Z</time>
      </trkpt>
      <trkpt lat="46.02075" lon="10.91376">
        <ele>1393.78</ele>
        <time>2022-09-18T09:11:48Z</time>
      </trkpt>
      <trkpt lat="46.02077" lon="10.91376">
        <ele>1392.58</ele>
        <time>2022-09-18T09:11:50Z</time>
      </trkpt>
      <trkpt lat="46.02077" lon="10.91375">
        <ele>1392.73</ele>
        <time>2022-09-18T09:11:51Z</time>
      </trkpt>
      <trkpt lat="46.02078" lon="10.91373">
        <ele>1392.29</ele>
        <time>2022-09-18T09:11:52Z</time>
      </trkpt>
      <trkpt lat="46.02079" lon="10.91372">
        <ele>1392.25</ele>
        <time>2022-09-18T09:11:53Z</time>
      </trkpt>
      <trkpt lat="46.0208" lon="10.91371">
        <ele>1391.95</ele>
        <time>2022-09-18T09:11:54Z</time>
      </trkpt>
      <trkpt lat="46.02081" lon="10.91371">
        <ele>1392.51</ele>
        <time>2022-09-18T09:11:55Z</time>
      </trkpt>
      <trkpt lat="46.02082" lon="10.91371">
        <ele>1393.11</ele>
        <time>2022-09-18T09:11:56Z</time>
      </trkpt>
      <trkpt lat="46.02083" lon="10.91371">
        <ele>1393.67</ele>
        <time>2022-09-18T09:11:57Z</time>
      </trkpt>
      <trkpt lat="46.02084" lon="10.9137">
        <ele>1394.1</ele>
        <time>2022-09-18T09:11:59Z</time>
      </trkpt>
      <trkpt lat="46.02085" lon="10.9137">
        <ele>1394.14</ele>
        <time>2022-09-18T09:12:00Z</time>
      </trkpt>
      <trkpt lat="46.02086" lon="10.91371">
        <ele>1395</ele>
        <time>2022-09-18T09:12:01Z</time>
      </trkpt>
      <trkpt lat="46.02087" lon="10.91372">
        <ele>1395.35</ele>
        <time>2022-09-18T09:12:02Z</time>
      </trkpt>
      <trkpt lat="46.02088" lon="10.91372">
        <ele>1394.53</ele>
        <time>2022-09-18T09:12:03Z</time>
      </trkpt>
      <trkpt lat="46.0209" lon="10.91373">
        <ele>1394.84</ele>
        <time>2022-09-18T09:12:04Z</time>
      </trkpt>
      <trkpt lat="46.02091" lon="10.91373">
        <ele>1395.5</ele>
        <time>2022-09-18T09:12:05Z</time>
      </trkpt>
      <trkpt lat="46.02092" lon="10.91374">
        <ele>1395.95</ele>
        <time>2022-09-18T09:12:06Z</time>
      </trkpt>
      <trkpt lat="46.02093" lon="10.91375">
        <ele>1395.87</ele>
        <time>2022-09-18T09:12:07Z</time>
      </trkpt>
      <trkpt lat="46.02094" lon="10.91375">
        <ele>1395.23</ele>
        <time>2022-09-18T09:12:08Z</time>
      </trkpt>
      <trkpt lat="46.02095" lon="10.91376">
        <ele>1394.81</ele>
        <time>2022-09-18T09:12:10Z</time>
      </trkpt>
      <trkpt lat="46.02096" lon="10.91377">
        <ele>1394.7</ele>
        <time>2022-09-18T09:12:12Z</time>
      </trkpt>
      <trkpt lat="46.02097" lon="10.91378">
        <ele>1393.79</ele>
        <time>2022-09-18T09:12:13Z</time>
      </trkpt>
      <trkpt lat="46.02098" lon="10.91379">
        <ele>1393.55</ele>
        <time>2022-09-18T09:12:14Z</time>
      </trkpt>
      <trkpt lat="46.02099" lon="10.91381">
        <ele>1393.64</ele>
        <time>2022-09-18T09:12:15Z</time>
      </trkpt>
      <trkpt lat="46.021" lon="10.91382">
        <ele>1394.05</ele>
        <time>2022-09-18T09:12:16Z</time>
      </trkpt>
      <trkpt lat="46.02102" lon="10.91383">
        <ele>1394.1</ele>
        <time>2022-09-18T09:12:18Z</time>
      </trkpt>
      <trkpt lat="46.02104" lon="10.91382">
        <ele>1394.74</ele>
        <time>2022-09-18T09:12:21Z</time>
      </trkpt>
      <trkpt lat="46.02107" lon="10.91381">
        <ele>1394.68</ele>
        <time>2022-09-18T09:12:23Z</time>
      </trkpt>
      <trkpt lat="46.02108" lon="10.91381">
        <ele>1394.07</ele>
        <time>2022-09-18T09:12:24Z</time>
      </trkpt>
      <trkpt lat="46.02109" lon="10.91382">
        <ele>1393.9</ele>
        <time>2022-09-18T09:12:25Z</time>
      </trkpt>
      <trkpt lat="46.02111" lon="10.91385">
        <ele>1393.47</ele>
        <time>2022-09-18T09:12:27Z</time>
      </trkpt>
      <trkpt lat="46.02113" lon="10.91386">
        <ele>1394.71</ele>
        <time>2022-09-18T09:12:28Z</time>
      </trkpt>
      <trkpt lat="46.02114" lon="10.91386">
        <ele>1394.94</ele>
        <time>2022-09-18T09:12:29Z</time>
      </trkpt>
      <trkpt lat="46.02116" lon="10.91387">
        <ele>1394.36</ele>
        <time>2022-09-18T09:12:30Z</time>
      </trkpt>
      <trkpt lat="46.02117" lon="10.91388">
        <ele>1393.98</ele>
        <time>2022-09-18T09:12:31Z</time>
      </trkpt>
      <trkpt lat="46.02118" lon="10.9139">
        <ele>1394.05</ele>
        <time>2022-09-18T09:12:33Z</time>
      </trkpt>
      <trkpt lat="46.02119" lon="10.91391">
        <ele>1393.64</ele>
        <time>2022-09-18T09:12:34Z</time>
      </trkpt>
      <trkpt lat="46.02121" lon="10.91391">
        <ele>1393.3</ele>
        <time>2022-09-18T09:12:36Z</time>
      </trkpt>
      <trkpt lat="46.02122" lon="10.9139">
        <ele>1392.5</ele>
        <time>2022-09-18T09:12:37Z</time>
      </trkpt>
      <trkpt lat="46.02123" lon="10.91388">
        <ele>1392.38</ele>
        <time>2022-09-18T09:12:39Z</time>
      </trkpt>
      <trkpt lat="46.02124" lon="10.91387">
        <ele>1392.3</ele>
        <time>2022-09-18T09:12:40Z</time>
      </trkpt>
      <trkpt lat="46.02126" lon="10.91387">
        <ele>1391.39</ele>
        <time>2022-09-18T09:12:43Z</time>
      </trkpt>
      <trkpt lat="46.02127" lon="10.91388">
        <ele>1392.09</ele>
        <time>2022-09-18T09:12:44Z</time>
      </trkpt>
      <trkpt lat="46.02128" lon="10.91388">
        <ele>1392.43</ele>
        <time>2022-09-18T09:12:46Z</time>
      </trkpt>
      <trkpt lat="46.02129" lon="10.91388">
        <ele>1393.17</ele>
        <time>2022-09-18T09:12:47Z</time>
      </trkpt>
      <trkpt lat="46.0213" lon="10.91388">
        <ele>1393.96</ele>
        <time>2022-09-18T09:12:48Z</time>
      </trkpt>
      <trkpt lat="46.02131" lon="10.91388">
        <ele>1395.25</ele>
        <time>2022-09-18T09:12:49Z</time>
      </trkpt>
      <trkpt lat="46.02132" lon="10.91388">
        <ele>1395.46</ele>
        <time>2022-09-18T09:12:50Z</time>
      </trkpt>
      <trkpt lat="46.02134" lon="10.91388">
        <ele>1394.43</ele>
        <time>2022-09-18T09:12:52Z</time>
      </trkpt>
      <trkpt lat="46.02137" lon="10.91388">
        <ele>1394.9</ele>
        <time>2022-09-18T09:12:54Z</time>
      </trkpt>
      <trkpt lat="46.02138" lon="10.91389">
        <ele>1395.17</ele>
        <time>2022-09-18T09:12:55Z</time>
      </trkpt>
      <trkpt lat="46.0214" lon="10.91389">
        <ele>1394.36</ele>
        <time>2022-09-18T09:12:57Z</time>
      </trkpt>
      <trkpt lat="46.02141" lon="10.91389">
        <ele>1395.35</ele>
        <time>2022-09-18T09:12:58Z</time>
      </trkpt>
      <trkpt lat="46.02142" lon="10.91389">
        <ele>1394.92</ele>
        <time>2022-09-18T09:12:59Z</time>
      </trkpt>
      <trkpt lat="46.02144" lon="10.91389">
        <ele>1394.16</ele>
        <time>2022-09-18T09:13:00Z</time>
      </trkpt>
      <trkpt lat="46.02145" lon="10.91389">
        <ele>1393.92</ele>
        <time>2022-09-18T09:13:01Z</time>
      </trkpt>
      <trkpt lat="46.02147" lon="10.91389">
        <ele>1393.58</ele>
        <time>2022-09-18T09:13:02Z</time>
      </trkpt>
      <trkpt lat="46.02149" lon="10.9139">
        <ele>1395.3</ele>
        <time>2022-09-18T09:13:04Z</time>
      </trkpt>
      <trkpt lat="46.02151" lon="10.9139">
        <ele>1396.04</ele>
        <time>2022-09-18T09:13:05Z</time>
      </trkpt>
      <trkpt lat="46.02152" lon="10.9139">
        <ele>1395.89</ele>
        <time>2022-09-18T09:13:06Z</time>
      </trkpt>
      <trkpt lat="46.02154" lon="10.9139">
        <ele>1396.19</ele>
        <time>2022-09-18T09:13:07Z</time>
      </trkpt>
      <trkpt lat="46.02156" lon="10.9139">
        <ele>1396.01</ele>
        <time>2022-09-18T09:13:09Z</time>
      </trkpt>
      <trkpt lat="46.02158" lon="10.91391">
        <ele>1396.27</ele>
        <time>2022-09-18T09:13:10Z</time>
      </trkpt>
      <trkpt lat="46.02159" lon="10.91392">
        <ele>1359.14</ele>
        <time>2022-09-18T09:13:11Z</time>
      </trkpt>
      <trkpt lat="46.0216" lon="10.91393">
        <ele>1367.75</ele>
        <time>2022-09-18T09:13:12Z</time>
      </trkpt>
      <trkpt lat="46.02161" lon="10.91394">
        <ele>1374.17</ele>
        <time>2022-09-18T09:13:13Z</time>
      </trkpt>
      <trkpt lat="46.02162" lon="10.91394">
        <ele>1377.71</ele>
        <time>2022-09-18T09:13:14Z</time>
      </trkpt>
      <trkpt lat="46.02163" lon="10.91395">
        <ele>1381.12</ele>
        <time>2022-09-18T09:13:15Z</time>
      </trkpt>
      <trkpt lat="46.02165" lon="10.91396">
        <ele>1384.06</ele>
        <time>2022-09-18T09:13:16Z</time>
      </trkpt>
      <trkpt lat="46.02166" lon="10.91397">
        <ele>1387.12</ele>
        <time>2022-09-18T09:13:17Z</time>
      </trkpt>
      <trkpt lat="46.02167" lon="10.91397">
        <ele>1388.57</ele>
        <time>2022-09-18T09:13:18Z</time>
      </trkpt>
      <trkpt lat="46.02168" lon="10.91397">
        <ele>1394.93</ele>
        <time>2022-09-18T09:13:19Z</time>
      </trkpt>
      <trkpt lat="46.0217" lon="10.91397">
        <ele>1395.43</ele>
        <time>2022-09-18T09:13:20Z</time>
      </trkpt>
      <trkpt lat="46.02171" lon="10.91397">
        <ele>1395.47</ele>
        <time>2022-09-18T09:13:21Z</time>
      </trkpt>
      <trkpt lat="46.02172" lon="10.91396">
        <ele>1395.05</ele>
        <time>2022-09-18T09:13:22Z</time>
      </trkpt>
      <trkpt lat="46.02174" lon="10.91397">
        <ele>1394.86</ele>
        <time>2022-09-18T09:13:23Z</time>
      </trkpt>
      <trkpt lat="46.02175" lon="10.91397">
        <ele>1394.31</ele>
        <time>2022-09-18T09:13:24Z</time>
      </trkpt>
      <trkpt lat="46.02176" lon="10.91397">
        <ele>1394.68</ele>
        <time>2022-09-18T09:13:25Z</time>
      </trkpt>
      <trkpt lat="46.02177" lon="10.91397">
        <ele>1394.48</ele>
        <time>2022-09-18T09:13:26Z</time>
      </trkpt>
      <trkpt lat="46.02179" lon="10.91397">
        <ele>1395.3</ele>
        <time>2022-09-18T09:13:27Z</time>
      </trkpt>
      <trkpt lat="46.0218" lon="10.91398">
        <ele>1394.98</ele>
        <time>2022-09-18T09:13:28Z</time>
      </trkpt>
      <trkpt lat="46.02181" lon="10.91398">
        <ele>1394.43</ele>
        <time>2022-09-18T09:13:29Z</time>
      </trkpt>
      <trkpt lat="46.02183" lon="10.91398">
        <ele>1394.98</ele>
        <time>2022-09-18T09:13:30Z</time>
      </trkpt>
      <trkpt lat="46.02184" lon="10.91398">
        <ele>1396.16</ele>
        <time>2022-09-18T09:13:31Z</time>
      </trkpt>
      <trkpt lat="46.02185" lon="10.91399">
        <ele>1340.04</ele>
        <time>2022-09-18T09:13:32Z</time>
      </trkpt>
      <trkpt lat="46.02186" lon="10.91399">
        <ele>1357.42</ele>
        <time>2022-09-18T09:13:33Z</time>
      </trkpt>
      <trkpt lat="46.02188" lon="10.91399">
        <ele>1366.8</ele>
        <time>2022-09-18T09:13:34Z</time>
      </trkpt>
      <trkpt lat="46.02189" lon="10.91399">
        <ele>1372.7</ele>
        <time>2022-09-18T09:13:35Z</time>
      </trkpt>
      <trkpt lat="46.0219" lon="10.914">
        <ele>1377.55</ele>
        <time>2022-09-18T09:13:36Z</time>
      </trkpt>
      <trkpt lat="46.02192" lon="10.914">
        <ele>1380.91</ele>
        <time>2022-09-18T09:13:37Z</time>
      </trkpt>
      <trkpt lat="46.02193" lon="10.914">
        <ele>1384.14</ele>
        <time>2022-09-18T09:13:38Z</time>
      </trkpt>
      <trkpt lat="46.02194" lon="10.91402">
        <ele>1392.7</ele>
        <time>2022-09-18T09:13:39Z</time>
      </trkpt>
      <trkpt lat="46.02196" lon="10.91403">
        <ele>1392.73</ele>
        <time>2022-09-18T09:13:40Z</time>
      </trkpt>
      <trkpt lat="46.02197" lon="10.91404">
        <ele>1392.52</ele>
        <time>2022-09-18T09:13:41Z</time>
      </trkpt>
      <trkpt lat="46.02198" lon="10.91405">
        <ele>1392.36</ele>
        <time>2022-09-18T09:13:42Z</time>
      </trkpt>
      <trkpt lat="46.02199" lon="10.91405">
        <ele>1393.03</ele>
        <time>2022-09-18T09:13:43Z</time>
      </trkpt>
      <trkpt lat="46.02201" lon="10.91406">
        <ele>1392.62</ele>
        <time>2022-09-18T09:13:45Z</time>
      </trkpt>
      <trkpt lat="46.02202" lon="10.91407">
        <ele>1392.68</ele>
        <time>2022-09-18T09:13:46Z</time>
      </trkpt>
      <trkpt lat="46.02203" lon="10.91407">
        <ele>1393.55</ele>
        <time>2022-09-18T09:13:48Z</time>
      </trkpt>
      <trkpt lat="46.02204" lon="10.91408">
        <ele>1392.65</ele>
        <time>2022-09-18T09:13:50Z</time>
      </trkpt>
      <trkpt lat="46.02205" lon="10.91408">
        <ele>1392.31</ele>
        <time>2022-09-18T09:13:51Z</time>
      </trkpt>
      <trkpt lat="46.02206" lon="10.91409">
        <ele>1392.14</ele>
        <time>2022-09-18T09:13:52Z</time>
      </trkpt>
      <trkpt lat="46.02207" lon="10.91411">
        <ele>1391.55</ele>
        <time>2022-09-18T09:13:53Z</time>
      </trkpt>
      <trkpt lat="46.02207" lon="10.91412">
        <ele>1390.66</ele>
        <time>2022-09-18T09:13:54Z</time>
      </trkpt>
      <trkpt lat="46.02208" lon="10.91412">
        <ele>1391.74</ele>
        <time>2022-09-18T09:13:55Z</time>
      </trkpt>
      <trkpt lat="46.02209" lon="10.91412">
        <ele>1391.57</ele>
        <time>2022-09-18T09:13:56Z</time>
      </trkpt>
      <trkpt lat="46.02211" lon="10.91412">
        <ele>1392.31</ele>
        <time>2022-09-18T09:13:57Z</time>
      </trkpt>
      <trkpt lat="46.02212" lon="10.91411">
        <ele>1392.47</ele>
        <time>2022-09-18T09:13:58Z</time>
      </trkpt>
      <trkpt lat="46.02214" lon="10.9141">
        <ele>1392.54</ele>
        <time>2022-09-18T09:13:59Z</time>
      </trkpt>
      <trkpt lat="46.02215" lon="10.9141">
        <ele>1392.31</ele>
        <time>2022-09-18T09:14:00Z</time>
      </trkpt>
      <trkpt lat="46.02217" lon="10.9141">
        <ele>1392.16</ele>
        <time>2022-09-18T09:14:01Z</time>
      </trkpt>
      <trkpt lat="46.02218" lon="10.9141">
        <ele>1392.99</ele>
        <time>2022-09-18T09:14:02Z</time>
      </trkpt>
      <trkpt lat="46.02219" lon="10.91411">
        <ele>1392.19</ele>
        <time>2022-09-18T09:14:03Z</time>
      </trkpt>
      <trkpt lat="46.0222" lon="10.91412">
        <ele>1392.8</ele>
        <time>2022-09-18T09:14:04Z</time>
      </trkpt>
      <trkpt lat="46.02221" lon="10.91413">
        <ele>1394.18</ele>
        <time>2022-09-18T09:14:05Z</time>
      </trkpt>
      <trkpt lat="46.02222" lon="10.91414">
        <ele>1394.84</ele>
        <time>2022-09-18T09:14:06Z</time>
      </trkpt>
      <trkpt lat="46.02223" lon="10.91414">
        <ele>1396.16</ele>
        <time>2022-09-18T09:14:07Z</time>
      </trkpt>
      <trkpt lat="46.02224" lon="10.91415">
        <ele>1395.36</ele>
        <time>2022-09-18T09:14:08Z</time>
      </trkpt>
      <trkpt lat="46.02225" lon="10.91415">
        <ele>1395.17</ele>
        <time>2022-09-18T09:14:09Z</time>
      </trkpt>
      <trkpt lat="46.02226" lon="10.91415">
        <ele>1395.01</ele>
        <time>2022-09-18T09:14:10Z</time>
      </trkpt>
      <trkpt lat="46.02227" lon="10.91415">
        <ele>1395.19</ele>
        <time>2022-09-18T09:14:11Z</time>
      </trkpt>
      <trkpt lat="46.02228" lon="10.91414">
        <ele>1395.21</ele>
        <time>2022-09-18T09:14:12Z</time>
      </trkpt>
      <trkpt lat="46.02229" lon="10.91414">
        <ele>1343.91</ele>
        <time>2022-09-18T09:14:13Z</time>
      </trkpt>
      <trkpt lat="46.0223" lon="10.91412">
        <ele>1355.85</ele>
        <time>2022-09-18T09:14:14Z</time>
      </trkpt>
      <trkpt lat="46.02231" lon="10.91411">
        <ele>1364.58</ele>
        <time>2022-09-18T09:14:15Z</time>
      </trkpt>
      <trkpt lat="46.02232" lon="10.91409">
        <ele>1370.46</ele>
        <time>2022-09-18T09:14:16Z</time>
      </trkpt>
      <trkpt lat="46.02234" lon="10.91408">
        <ele>1374.07</ele>
        <time>2022-09-18T09:14:17Z</time>
      </trkpt>
      <trkpt lat="46.02235" lon="10.91407">
        <ele>1376.75</ele>
        <time>2022-09-18T09:14:18Z</time>
      </trkpt>
      <trkpt lat="46.02237" lon="10.91407">
        <ele>1380.09</ele>
        <time>2022-09-18T09:14:19Z</time>
      </trkpt>
      <trkpt lat="46.02238" lon="10.91407">
        <ele>1382.79</ele>
        <time>2022-09-18T09:14:20Z</time>
      </trkpt>
      <trkpt lat="46.0224" lon="10.91408">
        <ele>1385.88</ele>
        <time>2022-09-18T09:14:21Z</time>
      </trkpt>
      <trkpt lat="46.02241" lon="10.91408">
        <ele>1389.45</ele>
        <time>2022-09-18T09:14:22Z</time>
      </trkpt>
      <trkpt lat="46.02242" lon="10.91409">
        <ele>1390.22</ele>
        <time>2022-09-18T09:14:23Z</time>
      </trkpt>
      <trkpt lat="46.02242" lon="10.9141">
        <ele>1391.6</ele>
        <time>2022-09-18T09:14:24Z</time>
      </trkpt>
      <trkpt lat="46.02243" lon="10.91412">
        <ele>1391.63</ele>
        <time>2022-09-18T09:14:25Z</time>
      </trkpt>
      <trkpt lat="46.02244" lon="10.91413">
        <ele>1392.31</ele>
        <time>2022-09-18T09:14:26Z</time>
      </trkpt>
      <trkpt lat="46.02245" lon="10.91414">
        <ele>1394.08</ele>
        <time>2022-09-18T09:14:27Z</time>
      </trkpt>
      <trkpt lat="46.02247" lon="10.91415">
        <ele>1394.4</ele>
        <time>2022-09-18T09:14:28Z</time>
      </trkpt>
      <trkpt lat="46.02248" lon="10.91416">
        <ele>1394.91</ele>
        <time>2022-09-18T09:14:29Z</time>
      </trkpt>
      <trkpt lat="46.0225" lon="10.91417">
        <ele>1393.77</ele>
        <time>2022-09-18T09:14:30Z</time>
      </trkpt>
      <trkpt lat="46.02251" lon="10.91418">
        <ele>1394.49</ele>
        <time>2022-09-18T09:14:31Z</time>
      </trkpt>
      <trkpt lat="46.02252" lon="10.91419">
        <ele>1394.77</ele>
        <time>2022-09-18T09:14:32Z</time>
      </trkpt>
      <trkpt lat="46.02253" lon="10.9142">
        <ele>1394.6</ele>
        <time>2022-09-18T09:14:33Z</time>
      </trkpt>
      <trkpt lat="46.02255" lon="10.91421">
        <ele>1393.64</ele>
        <time>2022-09-18T09:14:34Z</time>
      </trkpt>
      <trkpt lat="46.02256" lon="10.91421">
        <ele>1394.66</ele>
        <time>2022-09-18T09:14:35Z</time>
      </trkpt>
      <trkpt lat="46.02257" lon="10.91421">
        <ele>1395.01</ele>
        <time>2022-09-18T09:14:36Z</time>
      </trkpt>
      <trkpt lat="46.02259" lon="10.91422">
        <ele>1394.75</ele>
        <time>2022-09-18T09:14:37Z</time>
      </trkpt>
      <trkpt lat="46.0226" lon="10.91423">
        <ele>1394.99</ele>
        <time>2022-09-18T09:14:38Z</time>
      </trkpt>
      <trkpt lat="46.02262" lon="10.91424">
        <ele>1395.21</ele>
        <time>2022-09-18T09:14:39Z</time>
      </trkpt>
      <trkpt lat="46.02263" lon="10.91425">
        <ele>1395.53</ele>
        <time>2022-09-18T09:14:40Z</time>
      </trkpt>
      <trkpt lat="46.02264" lon="10.91427">
        <ele>1395.47</ele>
        <time>2022-09-18T09:14:41Z</time>
      </trkpt>
      <trkpt lat="46.02265" lon="10.91428">
        <ele>1395.21</ele>
        <time>2022-09-18T09:14:42Z</time>
      </trkpt>
      <trkpt lat="46.02266" lon="10.91429">
        <ele>1394.83</ele>
        <time>2022-09-18T09:14:43Z</time>
      </trkpt>
      <trkpt lat="46.02267" lon="10.9143">
        <ele>1394.67</ele>
        <time>2022-09-18T09:14:44Z</time>
      </trkpt>
      <trkpt lat="46.02268" lon="10.91431">
        <ele>1394.94</ele>
        <time>2022-09-18T09:14:45Z</time>
      </trkpt>
      <trkpt lat="46.02269" lon="10.91432">
        <ele>1394.04</ele>
        <time>2022-09-18T09:14:46Z</time>
      </trkpt>
      <trkpt lat="46.02269" lon="10.91433">
        <ele>1394.68</ele>
        <time>2022-09-18T09:14:47Z</time>
      </trkpt>
      <trkpt lat="46.0227" lon="10.91435">
        <ele>1394.67</ele>
        <time>2022-09-18T09:14:48Z</time>
      </trkpt>
      <trkpt lat="46.02271" lon="10.91436">
        <ele>1395.48</ele>
        <time>2022-09-18T09:14:50Z</time>
      </trkpt>
      <trkpt lat="46.02273" lon="10.91436">
        <ele>1397.52</ele>
        <time>2022-09-18T09:14:52Z</time>
      </trkpt>
      <trkpt lat="46.02275" lon="10.91437">
        <ele>1400.76</ele>
        <time>2022-09-18T09:14:54Z</time>
      </trkpt>
      <trkpt lat="46.02276" lon="10.91438">
        <ele>1398.76</ele>
        <time>2022-09-18T09:14:55Z</time>
      </trkpt>
      <trkpt lat="46.02277" lon="10.91438">
        <ele>1399.17</ele>
        <time>2022-09-18T09:14:56Z</time>
      </trkpt>
      <trkpt lat="46.02278" lon="10.91437">
        <ele>1397.95</ele>
        <time>2022-09-18T09:14:57Z</time>
      </trkpt>
      <trkpt lat="46.02279" lon="10.91438">
        <ele>1399.74</ele>
        <time>2022-09-18T09:14:58Z</time>
      </trkpt>
      <trkpt lat="46.02281" lon="10.91438">
        <ele>1400.97</ele>
        <time>2022-09-18T09:15:00Z</time>
      </trkpt>
      <trkpt lat="46.02282" lon="10.91437">
        <ele>1400.25</ele>
        <time>2022-09-18T09:15:01Z</time>
      </trkpt>
      <trkpt lat="46.02283" lon="10.91438">
        <ele>1400.68</ele>
        <time>2022-09-18T09:15:03Z</time>
      </trkpt>
      <trkpt lat="46.02285" lon="10.91438">
        <ele>1402.45</ele>
        <time>2022-09-18T09:15:05Z</time>
      </trkpt>
      <trkpt lat="46.02286" lon="10.91437">
        <ele>1402.85</ele>
        <time>2022-09-18T09:15:07Z</time>
      </trkpt>
      <trkpt lat="46.02287" lon="10.91437">
        <ele>1403.32</ele>
        <time>2022-09-18T09:15:09Z</time>
      </trkpt>
      <trkpt lat="46.02288" lon="10.91436">
        <ele>1403.64</ele>
        <time>2022-09-18T09:15:11Z</time>
      </trkpt>
      <trkpt lat="46.02289" lon="10.91435">
        <ele>1403.57</ele>
        <time>2022-09-18T09:15:13Z</time>
      </trkpt>
      <trkpt lat="46.0229" lon="10.91436">
        <ele>1401.91</ele>
        <time>2022-09-18T09:15:15Z</time>
      </trkpt>
      <trkpt lat="46.02291" lon="10.91435">
        <ele>1402.75</ele>
        <time>2022-09-18T09:15:17Z</time>
      </trkpt>
      <trkpt lat="46.02291" lon="10.91437">
        <ele>1402.59</ele>
        <time>2022-09-18T09:15:19Z</time>
      </trkpt>
      <trkpt lat="46.02292" lon="10.91439">
        <ele>1402.01</ele>
        <time>2022-09-18T09:15:21Z</time>
      </trkpt>
      <trkpt lat="46.02292" lon="10.9144">
        <ele>1401.59</ele>
        <time>2022-09-18T09:15:22Z</time>
      </trkpt>
      <trkpt lat="46.02291" lon="10.91442">
        <ele>1401.53</ele>
        <time>2022-09-18T09:15:23Z</time>
      </trkpt>
      <trkpt lat="46.02291" lon="10.91443">
        <ele>1400.53</ele>
        <time>2022-09-18T09:15:24Z</time>
      </trkpt>
      <trkpt lat="46.02291" lon="10.91445">
        <ele>1400.36</ele>
        <time>2022-09-18T09:15:25Z</time>
      </trkpt>
      <trkpt lat="46.02291" lon="10.91446">
        <ele>1400.51</ele>
        <time>2022-09-18T09:15:26Z</time>
      </trkpt>
      <trkpt lat="46.02291" lon="10.91448">
        <ele>1332.52</ele>
        <time>2022-09-18T09:15:27Z</time>
      </trkpt>
      <trkpt lat="46.02292" lon="10.91449">
        <ele>1349.55</ele>
        <time>2022-09-18T09:15:28Z</time>
      </trkpt>
      <trkpt lat="46.02293" lon="10.9145">
        <ele>1360.29</ele>
        <time>2022-09-18T09:15:29Z</time>
      </trkpt>
      <trkpt lat="46.02293" lon="10.91452">
        <ele>1371.57</ele>
        <time>2022-09-18T09:15:30Z</time>
      </trkpt>
      <trkpt lat="46.02294" lon="10.91453">
        <ele>1380.97</ele>
        <time>2022-09-18T09:15:31Z</time>
      </trkpt>
      <trkpt lat="46.02295" lon="10.91455">
        <ele>1386.39</ele>
        <time>2022-09-18T09:15:32Z</time>
      </trkpt>
      <trkpt lat="46.02296" lon="10.91456">
        <ele>1389.5</ele>
        <time>2022-09-18T09:15:33Z</time>
      </trkpt>
      <trkpt lat="46.02297" lon="10.91457">
        <ele>1391.99</ele>
        <time>2022-09-18T09:15:34Z</time>
      </trkpt>
      <trkpt lat="46.02298" lon="10.91458">
        <ele>1393.13</ele>
        <time>2022-09-18T09:15:35Z</time>
      </trkpt>
      <trkpt lat="46.023" lon="10.91459">
        <ele>1394.94</ele>
        <time>2022-09-18T09:15:36Z</time>
      </trkpt>
      <trkpt lat="46.02301" lon="10.9146">
        <ele>1396.72</ele>
        <time>2022-09-18T09:15:37Z</time>
      </trkpt>
      <trkpt lat="46.02302" lon="10.9146">
        <ele>1398.29</ele>
        <time>2022-09-18T09:15:38Z</time>
      </trkpt>
      <trkpt lat="46.02304" lon="10.9146">
        <ele>1398.89</ele>
        <time>2022-09-18T09:15:39Z</time>
      </trkpt>
      <trkpt lat="46.02305" lon="10.9146">
        <ele>1400.29</ele>
        <time>2022-09-18T09:15:40Z</time>
      </trkpt>
      <trkpt lat="46.02306" lon="10.9146">
        <ele>1401.65</ele>
        <time>2022-09-18T09:15:41Z</time>
      </trkpt>
      <trkpt lat="46.02308" lon="10.91459">
        <ele>1402.37</ele>
        <time>2022-09-18T09:15:42Z</time>
      </trkpt>
      <trkpt lat="46.02309" lon="10.91459">
        <ele>1403.21</ele>
        <time>2022-09-18T09:15:43Z</time>
      </trkpt>
      <trkpt lat="46.0231" lon="10.9146">
        <ele>1405.08</ele>
        <time>2022-09-18T09:15:44Z</time>
      </trkpt>
      <trkpt lat="46.02311" lon="10.91461">
        <ele>1406.34</ele>
        <time>2022-09-18T09:15:45Z</time>
      </trkpt>
      <trkpt lat="46.02313" lon="10.91462">
        <ele>1359.18</ele>
        <time>2022-09-18T09:15:47Z</time>
      </trkpt>
      <trkpt lat="46.02315" lon="10.91463">
        <ele>1370.85</ele>
        <time>2022-09-18T09:15:48Z</time>
      </trkpt>
      <trkpt lat="46.02316" lon="10.91463">
        <ele>1380.26</ele>
        <time>2022-09-18T09:15:49Z</time>
      </trkpt>
      <trkpt lat="46.02317" lon="10.91464">
        <ele>1389.81</ele>
        <time>2022-09-18T09:15:50Z</time>
      </trkpt>
      <trkpt lat="46.02318" lon="10.91464">
        <ele>1395.64</ele>
        <time>2022-09-18T09:15:51Z</time>
      </trkpt>
      <trkpt lat="46.02319" lon="10.91464">
        <ele>1399.28</ele>
        <time>2022-09-18T09:15:52Z</time>
      </trkpt>
      <trkpt lat="46.0232" lon="10.91464">
        <ele>1402.17</ele>
        <time>2022-09-18T09:15:53Z</time>
      </trkpt>
      <trkpt lat="46.02321" lon="10.91465">
        <ele>1404.17</ele>
        <time>2022-09-18T09:15:54Z</time>
      </trkpt>
      <trkpt lat="46.02322" lon="10.91465">
        <ele>1405.42</ele>
        <time>2022-09-18T09:15:55Z</time>
      </trkpt>
      <trkpt lat="46.02323" lon="10.91466">
        <ele>1405.97</ele>
        <time>2022-09-18T09:15:56Z</time>
      </trkpt>
      <trkpt lat="46.02324" lon="10.91466">
        <ele>1406.56</ele>
        <time>2022-09-18T09:15:57Z</time>
      </trkpt>
      <trkpt lat="46.02325" lon="10.91467">
        <ele>1407.78</ele>
        <time>2022-09-18T09:15:58Z</time>
      </trkpt>
      <trkpt lat="46.02326" lon="10.91468">
        <ele>1407.11</ele>
        <time>2022-09-18T09:15:59Z</time>
      </trkpt>
      <trkpt lat="46.02328" lon="10.91469">
        <ele>1407.77</ele>
        <time>2022-09-18T09:16:00Z</time>
      </trkpt>
      <trkpt lat="46.02329" lon="10.9147">
        <ele>1408.62</ele>
        <time>2022-09-18T09:16:01Z</time>
      </trkpt>
      <trkpt lat="46.0233" lon="10.9147">
        <ele>1408.84</ele>
        <time>2022-09-18T09:16:02Z</time>
      </trkpt>
      <trkpt lat="46.02331" lon="10.9147">
        <ele>1409.52</ele>
        <time>2022-09-18T09:16:03Z</time>
      </trkpt>
      <trkpt lat="46.02332" lon="10.9147">
        <ele>1409.88</ele>
        <time>2022-09-18T09:16:04Z</time>
      </trkpt>
      <trkpt lat="46.02333" lon="10.91471">
        <ele>1408.84</ele>
        <time>2022-09-18T09:16:05Z</time>
      </trkpt>
      <trkpt lat="46.02334" lon="10.91472">
        <ele>1409.06</ele>
        <time>2022-09-18T09:16:06Z</time>
      </trkpt>
      <trkpt lat="46.02335" lon="10.91473">
        <ele>1409.61</ele>
        <time>2022-09-18T09:16:07Z</time>
      </trkpt>
      <trkpt lat="46.02336" lon="10.91475">
        <ele>1410.89</ele>
        <time>2022-09-18T09:16:09Z</time>
      </trkpt>
      <trkpt lat="46.02337" lon="10.91475">
        <ele>1410.78</ele>
        <time>2022-09-18T09:16:10Z</time>
      </trkpt>
      <trkpt lat="46.02338" lon="10.91476">
        <ele>1414.06</ele>
        <time>2022-09-18T09:16:11Z</time>
      </trkpt>
      <trkpt lat="46.02339" lon="10.91477">
        <ele>1409.96</ele>
        <time>2022-09-18T09:16:13Z</time>
      </trkpt>
      <trkpt lat="46.02338" lon="10.91478">
        <ele>1412.1</ele>
        <time>2022-09-18T09:16:15Z</time>
      </trkpt>
      <trkpt lat="46.0234" lon="10.91478">
        <ele>1412.78</ele>
        <time>2022-09-18T09:16:17Z</time>
      </trkpt>
      <trkpt lat="46.02341" lon="10.91478">
        <ele>1413.47</ele>
        <time>2022-09-18T09:16:19Z</time>
      </trkpt>
      <trkpt lat="46.02342" lon="10.91478">
        <ele>1414.04</ele>
        <time>2022-09-18T09:16:21Z</time>
      </trkpt>
      <trkpt lat="46.02343" lon="10.91478">
        <ele>1413.41</ele>
        <time>2022-09-18T09:16:24Z</time>
      </trkpt>
      <trkpt lat="46.02345" lon="10.91478">
        <ele>1413.34</ele>
        <time>2022-09-18T09:16:26Z</time>
      </trkpt>
      <trkpt lat="46.02346" lon="10.91477">
        <ele>1415.09</ele>
        <time>2022-09-18T09:16:28Z</time>
      </trkpt>
      <trkpt lat="46.02347" lon="10.91477">
        <ele>1414.58</ele>
        <time>2022-09-18T09:16:29Z</time>
      </trkpt>
      <trkpt lat="46.02348" lon="10.91476">
        <ele>1414.95</ele>
        <time>2022-09-18T09:16:30Z</time>
      </trkpt>
      <trkpt lat="46.0235" lon="10.91476">
        <ele>1415.51</ele>
        <time>2022-09-18T09:16:31Z</time>
      </trkpt>
      <trkpt lat="46.02351" lon="10.91476">
        <ele>1415.59</ele>
        <time>2022-09-18T09:16:32Z</time>
      </trkpt>
      <trkpt lat="46.02353" lon="10.91477">
        <ele>1415.37</ele>
        <time>2022-09-18T09:16:33Z</time>
      </trkpt>
      <trkpt lat="46.02354" lon="10.91477">
        <ele>1415.62</ele>
        <time>2022-09-18T09:16:34Z</time>
      </trkpt>
      <trkpt lat="46.02355" lon="10.91477">
        <ele>1417.06</ele>
        <time>2022-09-18T09:16:35Z</time>
      </trkpt>
      <trkpt lat="46.02356" lon="10.91477">
        <ele>1417.27</ele>
        <time>2022-09-18T09:16:36Z</time>
      </trkpt>
      <trkpt lat="46.02357" lon="10.91478">
        <ele>1417.92</ele>
        <time>2022-09-18T09:16:37Z</time>
      </trkpt>
      <trkpt lat="46.02358" lon="10.9148">
        <ele>1417.75</ele>
        <time>2022-09-18T09:16:38Z</time>
      </trkpt>
      <trkpt lat="46.02359" lon="10.91481">
        <ele>1416.7</ele>
        <time>2022-09-18T09:16:39Z</time>
      </trkpt>
      <trkpt lat="46.0236" lon="10.91482">
        <ele>1416.41</ele>
        <time>2022-09-18T09:16:40Z</time>
      </trkpt>
      <trkpt lat="46.02361" lon="10.91483">
        <ele>1415.63</ele>
        <time>2022-09-18T09:16:41Z</time>
      </trkpt>
      <trkpt lat="46.02362" lon="10.91485">
        <ele>1416.76</ele>
        <time>2022-09-18T09:16:42Z</time>
      </trkpt>
      <trkpt lat="46.02363" lon="10.91486">
        <ele>1417.71</ele>
        <time>2022-09-18T09:16:43Z</time>
      </trkpt>
      <trkpt lat="46.02364" lon="10.91487">
        <ele>1417.13</ele>
        <time>2022-09-18T09:16:44Z</time>
      </trkpt>
      <trkpt lat="46.02365" lon="10.91488">
        <ele>1415.65</ele>
        <time>2022-09-18T09:16:45Z</time>
      </trkpt>
      <trkpt lat="46.02365" lon="10.91489">
        <ele>1417.13</ele>
        <time>2022-09-18T09:16:46Z</time>
      </trkpt>
      <trkpt lat="46.02366" lon="10.91489">
        <ele>1418.07</ele>
        <time>2022-09-18T09:16:47Z</time>
      </trkpt>
      <trkpt lat="46.02368" lon="10.9149">
        <ele>1417.87</ele>
        <time>2022-09-18T09:16:48Z</time>
      </trkpt>
      <trkpt lat="46.02368" lon="10.91491">
        <ele>1416.64</ele>
        <time>2022-09-18T09:16:49Z</time>
      </trkpt>
      <trkpt lat="46.02369" lon="10.91491">
        <ele>1417.8</ele>
        <time>2022-09-18T09:16:50Z</time>
      </trkpt>
      <trkpt lat="46.0237" lon="10.91492">
        <ele>1418.63</ele>
        <time>2022-09-18T09:16:51Z</time>
      </trkpt>
      <trkpt lat="46.02371" lon="10.91493">
        <ele>1418.45</ele>
        <time>2022-09-18T09:16:52Z</time>
      </trkpt>
      <trkpt lat="46.02372" lon="10.91494">
        <ele>1419.31</ele>
        <time>2022-09-18T09:16:54Z</time>
      </trkpt>
      <trkpt lat="46.02374" lon="10.91495">
        <ele>1419.57</ele>
        <time>2022-09-18T09:16:56Z</time>
      </trkpt>
      <trkpt lat="46.02375" lon="10.91496">
        <ele>1418.25</ele>
        <time>2022-09-18T09:16:57Z</time>
      </trkpt>
      <trkpt lat="46.02376" lon="10.91497">
        <ele>1420.2</ele>
        <time>2022-09-18T09:16:59Z</time>
      </trkpt>
      <trkpt lat="46.02377" lon="10.91498">
        <ele>1420.37</ele>
        <time>2022-09-18T09:17:01Z</time>
      </trkpt>
      <trkpt lat="46.02378" lon="10.915">
        <ele>1420.43</ele>
        <time>2022-09-18T09:17:03Z</time>
      </trkpt>
      <trkpt lat="46.02379" lon="10.91501">
        <ele>1421.12</ele>
        <time>2022-09-18T09:17:05Z</time>
      </trkpt>
      <trkpt lat="46.0238" lon="10.91503">
        <ele>1422.55</ele>
        <time>2022-09-18T09:17:07Z</time>
      </trkpt>
      <trkpt lat="46.02381" lon="10.91505">
        <ele>1422.57</ele>
        <time>2022-09-18T09:17:09Z</time>
      </trkpt>
      <trkpt lat="46.02382" lon="10.91506">
        <ele>1421.9</ele>
        <time>2022-09-18T09:17:10Z</time>
      </trkpt>
      <trkpt lat="46.02383" lon="10.91507">
        <ele>1422.3</ele>
        <time>2022-09-18T09:17:11Z</time>
      </trkpt>
      <trkpt lat="46.02383" lon="10.91508">
        <ele>1422.84</ele>
        <time>2022-09-18T09:17:12Z</time>
      </trkpt>
      <trkpt lat="46.02384" lon="10.91509">
        <ele>1422.96</ele>
        <time>2022-09-18T09:17:13Z</time>
      </trkpt>
      <trkpt lat="46.02385" lon="10.91509">
        <ele>1422.78</ele>
        <time>2022-09-18T09:17:16Z</time>
      </trkpt>
      <trkpt lat="46.02386" lon="10.91511">
        <ele>1423.26</ele>
        <time>2022-09-18T09:17:18Z</time>
      </trkpt>
      <trkpt lat="46.02388" lon="10.91514">
        <ele>1423.77</ele>
        <time>2022-09-18T09:17:21Z</time>
      </trkpt>
      <trkpt lat="46.02389" lon="10.91514">
        <ele>1424.43</ele>
        <time>2022-09-18T09:17:23Z</time>
      </trkpt>
      <trkpt lat="46.0239" lon="10.91513">
        <ele>1424.3</ele>
        <time>2022-09-18T09:17:24Z</time>
      </trkpt>
      <trkpt lat="46.02391" lon="10.91513">
        <ele>1424.36</ele>
        <time>2022-09-18T09:17:25Z</time>
      </trkpt>
      <trkpt lat="46.02393" lon="10.91512">
        <ele>1424.81</ele>
        <time>2022-09-18T09:17:27Z</time>
      </trkpt>
      <trkpt lat="46.02394" lon="10.91512">
        <ele>1425.04</ele>
        <time>2022-09-18T09:17:29Z</time>
      </trkpt>
      <trkpt lat="46.02395" lon="10.91512">
        <ele>1424.35</ele>
        <time>2022-09-18T09:17:31Z</time>
      </trkpt>
      <trkpt lat="46.02397" lon="10.91511">
        <ele>1423.61</ele>
        <time>2022-09-18T09:17:33Z</time>
      </trkpt>
      <trkpt lat="46.02398" lon="10.91511">
        <ele>1424.24</ele>
        <time>2022-09-18T09:17:35Z</time>
      </trkpt>
      <trkpt lat="46.024" lon="10.9151">
        <ele>1423.5</ele>
        <time>2022-09-18T09:17:37Z</time>
      </trkpt>
      <trkpt lat="46.02401" lon="10.9151">
        <ele>1423.31</ele>
        <time>2022-09-18T09:17:39Z</time>
      </trkpt>
      <trkpt lat="46.02402" lon="10.91511">
        <ele>1425.56</ele>
        <time>2022-09-18T09:17:41Z</time>
      </trkpt>
      <trkpt lat="46.02403" lon="10.91511">
        <ele>1425.43</ele>
        <time>2022-09-18T09:17:42Z</time>
      </trkpt>
      <trkpt lat="46.02405" lon="10.91512">
        <ele>1426.26</ele>
        <time>2022-09-18T09:17:45Z</time>
      </trkpt>
      <trkpt lat="46.02406" lon="10.91512">
        <ele>1427.64</ele>
        <time>2022-09-18T09:17:47Z</time>
      </trkpt>
      <trkpt lat="46.02407" lon="10.91513">
        <ele>1428.48</ele>
        <time>2022-09-18T09:17:49Z</time>
      </trkpt>
      <trkpt lat="46.02408" lon="10.91513">
        <ele>1430.5</ele>
        <time>2022-09-18T09:17:51Z</time>
      </trkpt>
      <trkpt lat="46.0241" lon="10.91513">
        <ele>1430.37</ele>
        <time>2022-09-18T09:17:53Z</time>
      </trkpt>
      <trkpt lat="46.02411" lon="10.91513">
        <ele>1431.85</ele>
        <time>2022-09-18T09:17:55Z</time>
      </trkpt>
      <trkpt lat="46.02412" lon="10.91513">
        <ele>1433.34</ele>
        <time>2022-09-18T09:17:57Z</time>
      </trkpt>
      <trkpt lat="46.02414" lon="10.91514">
        <ele>1434.36</ele>
        <time>2022-09-18T09:17:59Z</time>
      </trkpt>
      <trkpt lat="46.02415" lon="10.91515">
        <ele>1435.89</ele>
        <time>2022-09-18T09:18:01Z</time>
      </trkpt>
      <trkpt lat="46.02416" lon="10.91516">
        <ele>1435.28</ele>
        <time>2022-09-18T09:18:03Z</time>
      </trkpt>
      <trkpt lat="46.02417" lon="10.91517">
        <ele>1435.04</ele>
        <time>2022-09-18T09:18:05Z</time>
      </trkpt>
      <trkpt lat="46.02418" lon="10.91517">
        <ele>1435.9</ele>
        <time>2022-09-18T09:18:06Z</time>
      </trkpt>
      <trkpt lat="46.0242" lon="10.91519">
        <ele>1438.58</ele>
        <time>2022-09-18T09:18:08Z</time>
      </trkpt>
      <trkpt lat="46.02421" lon="10.9152">
        <ele>1436.63</ele>
        <time>2022-09-18T09:18:10Z</time>
      </trkpt>
      <trkpt lat="46.02422" lon="10.91521">
        <ele>1439.49</ele>
        <time>2022-09-18T09:18:12Z</time>
      </trkpt>
      <trkpt lat="46.02423" lon="10.91522">
        <ele>1440.66</ele>
        <time>2022-09-18T09:18:14Z</time>
      </trkpt>
      <trkpt lat="46.02424" lon="10.91523">
        <ele>1440.81</ele>
        <time>2022-09-18T09:18:16Z</time>
      </trkpt>
      <trkpt lat="46.02425" lon="10.91523">
        <ele>1437.63</ele>
        <time>2022-09-18T09:18:18Z</time>
      </trkpt>
      <trkpt lat="46.02427" lon="10.91525">
        <ele>1437.4</ele>
        <time>2022-09-18T09:18:21Z</time>
      </trkpt>
      <trkpt lat="46.02428" lon="10.91526">
        <ele>1437.2</ele>
        <time>2022-09-18T09:18:23Z</time>
      </trkpt>
      <trkpt lat="46.02429" lon="10.91528">
        <ele>1440.52</ele>
        <time>2022-09-18T09:18:25Z</time>
      </trkpt>
      <trkpt lat="46.0243" lon="10.91529">
        <ele>1437.66</ele>
        <time>2022-09-18T09:18:26Z</time>
      </trkpt>
      <trkpt lat="46.02431" lon="10.9153">
        <ele>1436.29</ele>
        <time>2022-09-18T09:18:28Z</time>
      </trkpt>
      <trkpt lat="46.02432" lon="10.91531">
        <ele>1436.66</ele>
        <time>2022-09-18T09:18:30Z</time>
      </trkpt>
      <trkpt lat="46.02434" lon="10.91532">
        <ele>1439.55</ele>
        <time>2022-09-18T09:18:32Z</time>
      </trkpt>
      <trkpt lat="46.02435" lon="10.91532">
        <ele>1437.86</ele>
        <time>2022-09-18T09:18:33Z</time>
      </trkpt>
      <trkpt lat="46.02436" lon="10.91532">
        <ele>1439.26</ele>
        <time>2022-09-18T09:18:34Z</time>
      </trkpt>
      <trkpt lat="46.02438" lon="10.91533">
        <ele>1437.71</ele>
        <time>2022-09-18T09:18:36Z</time>
      </trkpt>
      <trkpt lat="46.02439" lon="10.91533">
        <ele>1436.9</ele>
        <time>2022-09-18T09:18:38Z</time>
      </trkpt>
      <trkpt lat="46.02441" lon="10.91534">
        <ele>1435.4</ele>
        <time>2022-09-18T09:18:40Z</time>
      </trkpt>
      <trkpt lat="46.02443" lon="10.91534">
        <ele>1434.73</ele>
        <time>2022-09-18T09:18:42Z</time>
      </trkpt>
      <trkpt lat="46.02443" lon="10.91534">
        <ele>1433.26</ele>
        <time>2022-09-18T09:18:43Z</time>
      </trkpt>
      <trkpt lat="46.02445" lon="10.91535">
        <ele>1435.28</ele>
        <time>2022-09-18T09:18:45Z</time>
      </trkpt>
      <trkpt lat="46.02446" lon="10.91536">
        <ele>1436.33</ele>
        <time>2022-09-18T09:18:46Z</time>
      </trkpt>
      <trkpt lat="46.02447" lon="10.91536">
        <ele>1436.05</ele>
        <time>2022-09-18T09:18:47Z</time>
      </trkpt>
      <trkpt lat="46.02448" lon="10.91536">
        <ele>1438.39</ele>
        <time>2022-09-18T09:18:48Z</time>
      </trkpt>
      <trkpt lat="46.02449" lon="10.91536">
        <ele>1437.66</ele>
        <time>2022-09-18T09:18:49Z</time>
      </trkpt>
      <trkpt lat="46.02451" lon="10.91536">
        <ele>1438.18</ele>
        <time>2022-09-18T09:18:51Z</time>
      </trkpt>
      <trkpt lat="46.02452" lon="10.91536">
        <ele>1438.62</ele>
        <time>2022-09-18T09:18:53Z</time>
      </trkpt>
      <trkpt lat="46.02453" lon="10.91536">
        <ele>1437.5</ele>
        <time>2022-09-18T09:18:55Z</time>
      </trkpt>
      <trkpt lat="46.02455" lon="10.91535">
        <ele>1438.04</ele>
        <time>2022-09-18T09:18:57Z</time>
      </trkpt>
      <trkpt lat="46.02456" lon="10.91535">
        <ele>1436.37</ele>
        <time>2022-09-18T09:18:59Z</time>
      </trkpt>
      <trkpt lat="46.02457" lon="10.91535">
        <ele>1437.56</ele>
        <time>2022-09-18T09:19:02Z</time>
      </trkpt>
      <trkpt lat="46.02458" lon="10.91537">
        <ele>1438.05</ele>
        <time>2022-09-18T09:19:05Z</time>
      </trkpt>
      <trkpt lat="46.02459" lon="10.91538">
        <ele>1440.06</ele>
        <time>2022-09-18T09:19:07Z</time>
      </trkpt>
      <trkpt lat="46.0246" lon="10.91538">
        <ele>1440.07</ele>
        <time>2022-09-18T09:19:10Z</time>
      </trkpt>
      <trkpt lat="46.02461" lon="10.91539">
        <ele>1437.53</ele>
        <time>2022-09-18T09:19:12Z</time>
      </trkpt>
      <trkpt lat="46.02462" lon="10.91541">
        <ele>1436.64</ele>
        <time>2022-09-18T09:19:14Z</time>
      </trkpt>
      <trkpt lat="46.02463" lon="10.91541">
        <ele>1436.27</ele>
        <time>2022-09-18T09:19:15Z</time>
      </trkpt>
      <trkpt lat="46.02464" lon="10.91541">
        <ele>1435.62</ele>
        <time>2022-09-18T09:19:16Z</time>
      </trkpt>
      <trkpt lat="46.02465" lon="10.91542">
        <ele>1437.31</ele>
        <time>2022-09-18T09:19:17Z</time>
      </trkpt>
      <trkpt lat="46.02466" lon="10.91542">
        <ele>1436.07</ele>
        <time>2022-09-18T09:19:18Z</time>
      </trkpt>
      <trkpt lat="46.02467" lon="10.91543">
        <ele>1436.23</ele>
        <time>2022-09-18T09:19:19Z</time>
      </trkpt>
      <trkpt lat="46.02468" lon="10.91543">
        <ele>1436.26</ele>
        <time>2022-09-18T09:19:20Z</time>
      </trkpt>
      <trkpt lat="46.02469" lon="10.91544">
        <ele>1438.09</ele>
        <time>2022-09-18T09:19:21Z</time>
      </trkpt>
      <trkpt lat="46.02471" lon="10.91544">
        <ele>1440.98</ele>
        <time>2022-09-18T09:19:22Z</time>
      </trkpt>
      <trkpt lat="46.02472" lon="10.91545">
        <ele>1442.87</ele>
        <time>2022-09-18T09:19:23Z</time>
      </trkpt>
      <trkpt lat="46.02472" lon="10.91546">
        <ele>1443.14</ele>
        <time>2022-09-18T09:19:24Z</time>
      </trkpt>
      <trkpt lat="46.02473" lon="10.91547">
        <ele>1443.15</ele>
        <time>2022-09-18T09:19:25Z</time>
      </trkpt>
      <trkpt lat="46.02474" lon="10.91547">
        <ele>1446.16</ele>
        <time>2022-09-18T09:19:26Z</time>
      </trkpt>
      <trkpt lat="46.02475" lon="10.91548">
        <ele>1446.71</ele>
        <time>2022-09-18T09:19:27Z</time>
      </trkpt>
      <trkpt lat="46.02476" lon="10.91549">
        <ele>1447.29</ele>
        <time>2022-09-18T09:19:28Z</time>
      </trkpt>
      <trkpt lat="46.02477" lon="10.9155">
        <ele>1447.47</ele>
        <time>2022-09-18T09:19:29Z</time>
      </trkpt>
      <trkpt lat="46.02479" lon="10.91552">
        <ele>1449.03</ele>
        <time>2022-09-18T09:19:31Z</time>
      </trkpt>
      <trkpt lat="46.02479" lon="10.91553">
        <ele>1449.34</ele>
        <time>2022-09-18T09:19:32Z</time>
      </trkpt>
      <trkpt lat="46.0248" lon="10.91554">
        <ele>1448.74</ele>
        <time>2022-09-18T09:19:33Z</time>
      </trkpt>
      <trkpt lat="46.02481" lon="10.91555">
        <ele>1449.14</ele>
        <time>2022-09-18T09:19:35Z</time>
      </trkpt>
      <trkpt lat="46.02483" lon="10.91557">
        <ele>1448.71</ele>
        <time>2022-09-18T09:19:37Z</time>
      </trkpt>
      <trkpt lat="46.02484" lon="10.91558">
        <ele>1448.2</ele>
        <time>2022-09-18T09:19:39Z</time>
      </trkpt>
      <trkpt lat="46.02484" lon="10.91559">
        <ele>1454.01</ele>
        <time>2022-09-18T09:19:41Z</time>
      </trkpt>
      <trkpt lat="46.02485" lon="10.9156">
        <ele>1454.59</ele>
        <time>2022-09-18T09:19:43Z</time>
      </trkpt>
      <trkpt lat="46.02486" lon="10.91561">
        <ele>1453.88</ele>
        <time>2022-09-18T09:19:45Z</time>
      </trkpt>
      <trkpt lat="46.02488" lon="10.91562">
        <ele>1453.72</ele>
        <time>2022-09-18T09:19:47Z</time>
      </trkpt>
      <trkpt lat="46.02488" lon="10.91562">
        <ele>1454.49</ele>
        <time>2022-09-18T09:19:49Z</time>
      </trkpt>
      <trkpt lat="46.0249" lon="10.91564">
        <ele>1453.5</ele>
        <time>2022-09-18T09:19:53Z</time>
      </trkpt>
      <trkpt lat="46.0249" lon="10.91563">
        <ele>1451.04</ele>
        <time>2022-09-18T09:19:57Z</time>
      </trkpt>
      <trkpt lat="46.02492" lon="10.91563">
        <ele>1450.73</ele>
        <time>2022-09-18T09:19:59Z</time>
      </trkpt>
      <trkpt lat="46.02493" lon="10.91563">
        <ele>1452.61</ele>
        <time>2022-09-18T09:20:01Z</time>
      </trkpt>
      <trkpt lat="46.02494" lon="10.91562">
        <ele>1452.14</ele>
        <time>2022-09-18T09:20:03Z</time>
      </trkpt>
      <trkpt lat="46.02496" lon="10.91562">
        <ele>1452.03</ele>
        <time>2022-09-18T09:20:05Z</time>
      </trkpt>
      <trkpt lat="46.02498" lon="10.91563">
        <ele>1452.03</ele>
        <time>2022-09-18T09:20:07Z</time>
      </trkpt>
      <trkpt lat="46.025" lon="10.91565">
        <ele>1452.47</ele>
        <time>2022-09-18T09:20:08Z</time>
      </trkpt>
      <trkpt lat="46.02501" lon="10.91567">
        <ele>1452.56</ele>
        <time>2022-09-18T09:20:10Z</time>
      </trkpt>
      <trkpt lat="46.02502" lon="10.91567">
        <ele>1453.8</ele>
        <time>2022-09-18T09:20:12Z</time>
      </trkpt>
      <trkpt lat="46.02503" lon="10.91567">
        <ele>1456.09</ele>
        <time>2022-09-18T09:20:17Z</time>
      </trkpt>
      <trkpt lat="46.02504" lon="10.91567">
        <ele>1455.9</ele>
        <time>2022-09-18T09:20:21Z</time>
      </trkpt>
      <trkpt lat="46.02504" lon="10.91569">
        <ele>1457.97</ele>
        <time>2022-09-18T09:20:24Z</time>
      </trkpt>
      <trkpt lat="46.02505" lon="10.91568">
        <ele>1458.93</ele>
        <time>2022-09-18T09:20:29Z</time>
      </trkpt>
      <trkpt lat="46.02506" lon="10.91569">
        <ele>1459.72</ele>
        <time>2022-09-18T09:20:31Z</time>
      </trkpt>
      <trkpt lat="46.02507" lon="10.9157">
        <ele>1461.53</ele>
        <time>2022-09-18T09:20:33Z</time>
      </trkpt>
      <trkpt lat="46.02508" lon="10.91571">
        <ele>1461.19</ele>
        <time>2022-09-18T09:20:34Z</time>
      </trkpt>
      <trkpt lat="46.02509" lon="10.91571">
        <ele>1438.3</ele>
        <time>2022-09-18T09:20:35Z</time>
      </trkpt>
      <trkpt lat="46.0251" lon="10.91571">
        <ele>1443.9</ele>
        <time>2022-09-18T09:20:36Z</time>
      </trkpt>
      <trkpt lat="46.02513" lon="10.91571">
        <ele>1457.45</ele>
        <time>2022-09-18T09:20:43Z</time>
      </trkpt>
      <trkpt lat="46.02514" lon="10.91571">
        <ele>1458.16</ele>
        <time>2022-09-18T09:20:45Z</time>
      </trkpt>
      <trkpt lat="46.02516" lon="10.91571">
        <ele>1460.93</ele>
        <time>2022-09-18T09:20:47Z</time>
      </trkpt>
      <trkpt lat="46.02517" lon="10.91572">
        <ele>1461.68</ele>
        <time>2022-09-18T09:20:48Z</time>
      </trkpt>
      <trkpt lat="46.02518" lon="10.91572">
        <ele>1463.12</ele>
        <time>2022-09-18T09:20:49Z</time>
      </trkpt>
      <trkpt lat="46.02519" lon="10.91572">
        <ele>1464.02</ele>
        <time>2022-09-18T09:20:50Z</time>
      </trkpt>
      <trkpt lat="46.0252" lon="10.91572">
        <ele>1464.43</ele>
        <time>2022-09-18T09:20:51Z</time>
      </trkpt>
      <trkpt lat="46.02521" lon="10.91572">
        <ele>1462.85</ele>
        <time>2022-09-18T09:20:52Z</time>
      </trkpt>
      <trkpt lat="46.02522" lon="10.91572">
        <ele>1463.27</ele>
        <time>2022-09-18T09:20:53Z</time>
      </trkpt>
      <trkpt lat="46.02523" lon="10.91572">
        <ele>1466.05</ele>
        <time>2022-09-18T09:20:54Z</time>
      </trkpt>
      <trkpt lat="46.02524" lon="10.91572">
        <ele>1465.64</ele>
        <time>2022-09-18T09:20:56Z</time>
      </trkpt>
      <trkpt lat="46.02526" lon="10.91572">
        <ele>1467.08</ele>
        <time>2022-09-18T09:20:58Z</time>
      </trkpt>
      <trkpt lat="46.02527" lon="10.91572">
        <ele>1466.57</ele>
        <time>2022-09-18T09:20:59Z</time>
      </trkpt>
      <trkpt lat="46.02529" lon="10.91573">
        <ele>1468.35</ele>
        <time>2022-09-18T09:21:01Z</time>
      </trkpt>
      <trkpt lat="46.0253" lon="10.91573">
        <ele>1467.98</ele>
        <time>2022-09-18T09:21:03Z</time>
      </trkpt>
      <trkpt lat="46.02531" lon="10.91574">
        <ele>1469.05</ele>
        <time>2022-09-18T09:21:05Z</time>
      </trkpt>
      <trkpt lat="46.02532" lon="10.91575">
        <ele>1467.06</ele>
        <time>2022-09-18T09:21:07Z</time>
      </trkpt>
      <trkpt lat="46.02533" lon="10.91577">
        <ele>1469.81</ele>
        <time>2022-09-18T09:21:09Z</time>
      </trkpt>
      <trkpt lat="46.02533" lon="10.91578">
        <ele>1473.08</ele>
        <time>2022-09-18T09:21:11Z</time>
      </trkpt>
      <trkpt lat="46.02533" lon="10.91581">
        <ele>1475.92</ele>
        <time>2022-09-18T09:21:13Z</time>
      </trkpt>
      <trkpt lat="46.02534" lon="10.91582">
        <ele>1474.47</ele>
        <time>2022-09-18T09:21:15Z</time>
      </trkpt>
      <trkpt lat="46.02535" lon="10.91584">
        <ele>1475.1</ele>
        <time>2022-09-18T09:21:17Z</time>
      </trkpt>
      <trkpt lat="46.02536" lon="10.91585">
        <ele>1475.69</ele>
        <time>2022-09-18T09:21:19Z</time>
      </trkpt>
      <trkpt lat="46.02536" lon="10.91586">
        <ele>1476.91</ele>
        <time>2022-09-18T09:21:21Z</time>
      </trkpt>
      <trkpt lat="46.02537" lon="10.91588">
        <ele>1476.79</ele>
        <time>2022-09-18T09:21:24Z</time>
      </trkpt>
      <trkpt lat="46.02537" lon="10.91589">
        <ele>1476.07</ele>
        <time>2022-09-18T09:21:26Z</time>
      </trkpt>
      <trkpt lat="46.02538" lon="10.91591">
        <ele>1474.88</ele>
        <time>2022-09-18T09:21:28Z</time>
      </trkpt>
      <trkpt lat="46.02538" lon="10.91593">
        <ele>1476</ele>
        <time>2022-09-18T09:21:30Z</time>
      </trkpt>
      <trkpt lat="46.0254" lon="10.91594">
        <ele>1475.46</ele>
        <time>2022-09-18T09:21:32Z</time>
      </trkpt>
      <trkpt lat="46.02541" lon="10.91596">
        <ele>1478.15</ele>
        <time>2022-09-18T09:21:34Z</time>
      </trkpt>
      <trkpt lat="46.02541" lon="10.91597">
        <ele>1479.58</ele>
        <time>2022-09-18T09:21:36Z</time>
      </trkpt>
      <trkpt lat="46.02542" lon="10.91599">
        <ele>1480.63</ele>
        <time>2022-09-18T09:21:38Z</time>
      </trkpt>
      <trkpt lat="46.02542" lon="10.916">
        <ele>1480.19</ele>
        <time>2022-09-18T09:21:40Z</time>
      </trkpt>
      <trkpt lat="46.02543" lon="10.91602">
        <ele>1477.85</ele>
        <time>2022-09-18T09:21:43Z</time>
      </trkpt>
      <trkpt lat="46.02543" lon="10.91603">
        <ele>1479.93</ele>
        <time>2022-09-18T09:21:45Z</time>
      </trkpt>
      <trkpt lat="46.02544" lon="10.91605">
        <ele>1479.18</ele>
        <time>2022-09-18T09:21:47Z</time>
      </trkpt>
      <trkpt lat="46.02544" lon="10.91607">
        <ele>1477.05</ele>
        <time>2022-09-18T09:21:49Z</time>
      </trkpt>
      <trkpt lat="46.02544" lon="10.91609">
        <ele>1478.21</ele>
        <time>2022-09-18T09:21:52Z</time>
      </trkpt>
      <trkpt lat="46.02544" lon="10.91611">
        <ele>1480.69</ele>
        <time>2022-09-18T09:21:54Z</time>
      </trkpt>
      <trkpt lat="46.02544" lon="10.91612">
        <ele>1482.61</ele>
        <time>2022-09-18T09:21:56Z</time>
      </trkpt>
      <trkpt lat="46.02544" lon="10.91614">
        <ele>1480.89</ele>
        <time>2022-09-18T09:21:58Z</time>
      </trkpt>
      <trkpt lat="46.02545" lon="10.91615">
        <ele>1482.21</ele>
        <time>2022-09-18T09:22:01Z</time>
      </trkpt>
      <trkpt lat="46.02545" lon="10.91616">
        <ele>1482.57</ele>
        <time>2022-09-18T09:22:03Z</time>
      </trkpt>
      <trkpt lat="46.02546" lon="10.91616">
        <ele>1482.99</ele>
        <time>2022-09-18T09:22:04Z</time>
      </trkpt>
      <trkpt lat="46.02547" lon="10.91617">
        <ele>1483.36</ele>
        <time>2022-09-18T09:22:06Z</time>
      </trkpt>
      <trkpt lat="46.02547" lon="10.91619">
        <ele>1484.26</ele>
        <time>2022-09-18T09:22:09Z</time>
      </trkpt>
      <trkpt lat="46.02546" lon="10.91621">
        <ele>1486.74</ele>
        <time>2022-09-18T09:22:13Z</time>
      </trkpt>
      <trkpt lat="46.02547" lon="10.91622">
        <ele>1488.71</ele>
        <time>2022-09-18T09:22:15Z</time>
      </trkpt>
      <trkpt lat="46.02547" lon="10.91624">
        <ele>1487.44</ele>
        <time>2022-09-18T09:22:17Z</time>
      </trkpt>
      <trkpt lat="46.02547" lon="10.91626">
        <ele>1487.88</ele>
        <time>2022-09-18T09:22:19Z</time>
      </trkpt>
      <trkpt lat="46.02548" lon="10.91627">
        <ele>1487.7</ele>
        <time>2022-09-18T09:22:21Z</time>
      </trkpt>
      <trkpt lat="46.02548" lon="10.91628">
        <ele>1487.63</ele>
        <time>2022-09-18T09:22:23Z</time>
      </trkpt>
      <trkpt lat="46.02549" lon="10.9163">
        <ele>1486.42</ele>
        <time>2022-09-18T09:22:25Z</time>
      </trkpt>
      <trkpt lat="46.0255" lon="10.91632">
        <ele>1485.83</ele>
        <time>2022-09-18T09:22:27Z</time>
      </trkpt>
      <trkpt lat="46.02551" lon="10.91634">
        <ele>1487.62</ele>
        <time>2022-09-18T09:22:29Z</time>
      </trkpt>
      <trkpt lat="46.02552" lon="10.91635">
        <ele>1488.14</ele>
        <time>2022-09-18T09:22:31Z</time>
      </trkpt>
      <trkpt lat="46.02553" lon="10.91636">
        <ele>1487.27</ele>
        <time>2022-09-18T09:22:32Z</time>
      </trkpt>
      <trkpt lat="46.02554" lon="10.91638">
        <ele>1488.99</ele>
        <time>2022-09-18T09:22:34Z</time>
      </trkpt>
      <trkpt lat="46.02554" lon="10.91641">
        <ele>1488.89</ele>
        <time>2022-09-18T09:22:36Z</time>
      </trkpt>
      <trkpt lat="46.02555" lon="10.91642">
        <ele>1489.12</ele>
        <time>2022-09-18T09:22:38Z</time>
      </trkpt>
      <trkpt lat="46.02555" lon="10.91644">
        <ele>1489.07</ele>
        <time>2022-09-18T09:22:40Z</time>
      </trkpt>
      <trkpt lat="46.02556" lon="10.91646">
        <ele>1488.73</ele>
        <time>2022-09-18T09:22:42Z</time>
      </trkpt>
      <trkpt lat="46.02557" lon="10.91647">
        <ele>1489.48</ele>
        <time>2022-09-18T09:22:44Z</time>
      </trkpt>
      <trkpt lat="46.02559" lon="10.91648">
        <ele>1489.56</ele>
        <time>2022-09-18T09:22:46Z</time>
      </trkpt>
      <trkpt lat="46.0256" lon="10.91648">
        <ele>1489.18</ele>
        <time>2022-09-18T09:22:47Z</time>
      </trkpt>
      <trkpt lat="46.02561" lon="10.91649">
        <ele>1490.28</ele>
        <time>2022-09-18T09:22:48Z</time>
      </trkpt>
      <trkpt lat="46.02561" lon="10.91652">
        <ele>1490.07</ele>
        <time>2022-09-18T09:22:50Z</time>
      </trkpt>
      <trkpt lat="46.02562" lon="10.91653">
        <ele>1489.65</ele>
        <time>2022-09-18T09:22:51Z</time>
      </trkpt>
      <trkpt lat="46.02562" lon="10.91655">
        <ele>1489.5</ele>
        <time>2022-09-18T09:22:52Z</time>
      </trkpt>
      <trkpt lat="46.02563" lon="10.91656">
        <ele>1489.71</ele>
        <time>2022-09-18T09:22:53Z</time>
      </trkpt>
      <trkpt lat="46.02563" lon="10.91657">
        <ele>1490.16</ele>
        <time>2022-09-18T09:22:54Z</time>
      </trkpt>
      <trkpt lat="46.02564" lon="10.91658">
        <ele>1492.1</ele>
        <time>2022-09-18T09:22:55Z</time>
      </trkpt>
      <trkpt lat="46.02565" lon="10.9166">
        <ele>1490.74</ele>
        <time>2022-09-18T09:22:57Z</time>
      </trkpt>
      <trkpt lat="46.02566" lon="10.91662">
        <ele>1492.25</ele>
        <time>2022-09-18T09:22:59Z</time>
      </trkpt>
      <trkpt lat="46.02567" lon="10.91664">
        <ele>1492.73</ele>
        <time>2022-09-18T09:23:01Z</time>
      </trkpt>
      <trkpt lat="46.02568" lon="10.91666">
        <ele>1493.44</ele>
        <time>2022-09-18T09:23:03Z</time>
      </trkpt>
      <trkpt lat="46.02569" lon="10.91668">
        <ele>1494.53</ele>
        <time>2022-09-18T09:23:05Z</time>
      </trkpt>
      <trkpt lat="46.0257" lon="10.91669">
        <ele>1494.25</ele>
        <time>2022-09-18T09:23:06Z</time>
      </trkpt>
      <trkpt lat="46.0257" lon="10.9167">
        <ele>1494.08</ele>
        <time>2022-09-18T09:23:07Z</time>
      </trkpt>
      <trkpt lat="46.02571" lon="10.91671">
        <ele>1495</ele>
        <time>2022-09-18T09:23:08Z</time>
      </trkpt>
      <trkpt lat="46.02572" lon="10.91672">
        <ele>1494.64</ele>
        <time>2022-09-18T09:23:09Z</time>
      </trkpt>
      <trkpt lat="46.02573" lon="10.91674">
        <ele>1495</ele>
        <time>2022-09-18T09:23:10Z</time>
      </trkpt>
      <trkpt lat="46.02573" lon="10.91675">
        <ele>1494.72</ele>
        <time>2022-09-18T09:23:11Z</time>
      </trkpt>
      <trkpt lat="46.02574" lon="10.91677">
        <ele>1494.24</ele>
        <time>2022-09-18T09:23:12Z</time>
      </trkpt>
      <trkpt lat="46.02575" lon="10.91678">
        <ele>1494.65</ele>
        <time>2022-09-18T09:23:13Z</time>
      </trkpt>
      <trkpt lat="46.02576" lon="10.91681">
        <ele>1494.27</ele>
        <time>2022-09-18T09:23:15Z</time>
      </trkpt>
      <trkpt lat="46.02577" lon="10.91683">
        <ele>1495.33</ele>
        <time>2022-09-18T09:23:16Z</time>
      </trkpt>
      <trkpt lat="46.02577" lon="10.91684">
        <ele>1495.84</ele>
        <time>2022-09-18T09:23:17Z</time>
      </trkpt>
      <trkpt lat="46.02578" lon="10.91686">
        <ele>1495.21</ele>
        <time>2022-09-18T09:23:18Z</time>
      </trkpt>
      <trkpt lat="46.02579" lon="10.91687">
        <ele>1494.4</ele>
        <time>2022-09-18T09:23:19Z</time>
      </trkpt>
      <trkpt lat="46.02579" lon="10.91689">
        <ele>1495.5</ele>
        <time>2022-09-18T09:23:20Z</time>
      </trkpt>
      <trkpt lat="46.0258" lon="10.9169">
        <ele>1495.14</ele>
        <time>2022-09-18T09:23:21Z</time>
      </trkpt>
      <trkpt lat="46.02581" lon="10.91692">
        <ele>1496.76</ele>
        <time>2022-09-18T09:23:22Z</time>
      </trkpt>
      <trkpt lat="46.02581" lon="10.91693">
        <ele>1495.85</ele>
        <time>2022-09-18T09:23:23Z</time>
      </trkpt>
      <trkpt lat="46.02582" lon="10.91694">
        <ele>1494.69</ele>
        <time>2022-09-18T09:23:24Z</time>
      </trkpt>
      <trkpt lat="46.02582" lon="10.91695">
        <ele>1494.93</ele>
        <time>2022-09-18T09:23:25Z</time>
      </trkpt>
      <trkpt lat="46.02583" lon="10.91697">
        <ele>1497.76</ele>
        <time>2022-09-18T09:23:26Z</time>
      </trkpt>
      <trkpt lat="46.02583" lon="10.91698">
        <ele>1496.5</ele>
        <time>2022-09-18T09:23:27Z</time>
      </trkpt>
      <trkpt lat="46.02584" lon="10.91699">
        <ele>1495.27</ele>
        <time>2022-09-18T09:23:29Z</time>
      </trkpt>
      <trkpt lat="46.02585" lon="10.91703">
        <ele>1499.15</ele>
        <time>2022-09-18T09:23:32Z</time>
      </trkpt>
      <trkpt lat="46.02586" lon="10.91704">
        <ele>1499.08</ele>
        <time>2022-09-18T09:23:33Z</time>
      </trkpt>
      <trkpt lat="46.02586" lon="10.91706">
        <ele>1499.98</ele>
        <time>2022-09-18T09:23:35Z</time>
      </trkpt>
      <trkpt lat="46.02587" lon="10.91708">
        <ele>1502.17</ele>
        <time>2022-09-18T09:23:38Z</time>
      </trkpt>
      <trkpt lat="46.02588" lon="10.91709">
        <ele>1500.18</ele>
        <time>2022-09-18T09:23:40Z</time>
      </trkpt>
      <trkpt lat="46.02588" lon="10.91711">
        <ele>1501.91</ele>
        <time>2022-09-18T09:23:42Z</time>
      </trkpt>
      <trkpt lat="46.02589" lon="10.91713">
        <ele>1499.82</ele>
        <time>2022-09-18T09:23:44Z</time>
      </trkpt>
      <trkpt lat="46.0259" lon="10.91714">
        <ele>1499.62</ele>
        <time>2022-09-18T09:23:46Z</time>
      </trkpt>
      <trkpt lat="46.0259" lon="10.91716">
        <ele>1503.45</ele>
        <time>2022-09-18T09:23:48Z</time>
      </trkpt>
      <trkpt lat="46.02591" lon="10.91717">
        <ele>1501.7</ele>
        <time>2022-09-18T09:23:50Z</time>
      </trkpt>
      <trkpt lat="46.02592" lon="10.91719">
        <ele>1500.73</ele>
        <time>2022-09-18T09:23:52Z</time>
      </trkpt>
      <trkpt lat="46.02594" lon="10.91721">
        <ele>1496.96</ele>
        <time>2022-09-18T09:23:54Z</time>
      </trkpt>
      <trkpt lat="46.02595" lon="10.91722">
        <ele>1498.13</ele>
        <time>2022-09-18T09:23:56Z</time>
      </trkpt>
      <trkpt lat="46.02596" lon="10.91724">
        <ele>1499.41</ele>
        <time>2022-09-18T09:23:58Z</time>
      </trkpt>
      <trkpt lat="46.02599" lon="10.91726">
        <ele>1502.02</ele>
        <time>2022-09-18T09:24:00Z</time>
      </trkpt>
      <trkpt lat="46.026" lon="10.91727">
        <ele>1502.5</ele>
        <time>2022-09-18T09:24:01Z</time>
      </trkpt>
      <trkpt lat="46.026" lon="10.91728">
        <ele>1503.51</ele>
        <time>2022-09-18T09:24:02Z</time>
      </trkpt>
      <trkpt lat="46.02602" lon="10.91729">
        <ele>1503.82</ele>
        <time>2022-09-18T09:24:03Z</time>
      </trkpt>
      <trkpt lat="46.02602" lon="10.91729">
        <ele>1506.07</ele>
        <time>2022-09-18T09:24:04Z</time>
      </trkpt>
      <trkpt lat="46.02603" lon="10.91729">
        <ele>1505.49</ele>
        <time>2022-09-18T09:24:05Z</time>
      </trkpt>
      <trkpt lat="46.02605" lon="10.9173">
        <ele>1506.73</ele>
        <time>2022-09-18T09:24:07Z</time>
      </trkpt>
      <trkpt lat="46.02606" lon="10.91731">
        <ele>1507.54</ele>
        <time>2022-09-18T09:24:08Z</time>
      </trkpt>
      <trkpt lat="46.02608" lon="10.91733">
        <ele>1507.94</ele>
        <time>2022-09-18T09:24:10Z</time>
      </trkpt>
      <trkpt lat="46.02609" lon="10.91733">
        <ele>1507.67</ele>
        <time>2022-09-18T09:24:12Z</time>
      </trkpt>
      <trkpt lat="46.0261" lon="10.91734">
        <ele>1506.61</ele>
        <time>2022-09-18T09:24:14Z</time>
      </trkpt>
      <trkpt lat="46.02611" lon="10.91736">
        <ele>1508.94</ele>
        <time>2022-09-18T09:24:16Z</time>
      </trkpt>
      <trkpt lat="46.02612" lon="10.91737">
        <ele>1508.62</ele>
        <time>2022-09-18T09:24:18Z</time>
      </trkpt>
      <trkpt lat="46.02614" lon="10.91739">
        <ele>1509.51</ele>
        <time>2022-09-18T09:24:20Z</time>
      </trkpt>
      <trkpt lat="46.02614" lon="10.9174">
        <ele>1509.39</ele>
        <time>2022-09-18T09:24:21Z</time>
      </trkpt>
      <trkpt lat="46.02615" lon="10.91741">
        <ele>1509.3</ele>
        <time>2022-09-18T09:24:22Z</time>
      </trkpt>
      <trkpt lat="46.02615" lon="10.91742">
        <ele>1508.75</ele>
        <time>2022-09-18T09:24:23Z</time>
      </trkpt>
      <trkpt lat="46.02616" lon="10.91743">
        <ele>1509.53</ele>
        <time>2022-09-18T09:24:24Z</time>
      </trkpt>
      <trkpt lat="46.02617" lon="10.91745">
        <ele>1510.08</ele>
        <time>2022-09-18T09:24:25Z</time>
      </trkpt>
      <trkpt lat="46.02617" lon="10.91746">
        <ele>1510.5</ele>
        <time>2022-09-18T09:24:26Z</time>
      </trkpt>
      <trkpt lat="46.02618" lon="10.91748">
        <ele>1510.38</ele>
        <time>2022-09-18T09:24:27Z</time>
      </trkpt>
      <trkpt lat="46.02619" lon="10.91749">
        <ele>1511.88</ele>
        <time>2022-09-18T09:24:28Z</time>
      </trkpt>
      <trkpt lat="46.02619" lon="10.9175">
        <ele>1512.49</ele>
        <time>2022-09-18T09:24:29Z</time>
      </trkpt>
      <trkpt lat="46.0262" lon="10.91752">
        <ele>1511.82</ele>
        <time>2022-09-18T09:24:30Z</time>
      </trkpt>
      <trkpt lat="46.02621" lon="10.91753">
        <ele>1512.33</ele>
        <time>2022-09-18T09:24:31Z</time>
      </trkpt>
      <trkpt lat="46.02621" lon="10.91754">
        <ele>1512.42</ele>
        <time>2022-09-18T09:24:32Z</time>
      </trkpt>
      <trkpt lat="46.02622" lon="10.91756">
        <ele>1513.08</ele>
        <time>2022-09-18T09:24:33Z</time>
      </trkpt>
      <trkpt lat="46.02623" lon="10.91757">
        <ele>1513.32</ele>
        <time>2022-09-18T09:24:34Z</time>
      </trkpt>
      <trkpt lat="46.02624" lon="10.91759">
        <ele>1513.97</ele>
        <time>2022-09-18T09:24:35Z</time>
      </trkpt>
      <trkpt lat="46.02625" lon="10.9176">
        <ele>1514.92</ele>
        <time>2022-09-18T09:24:36Z</time>
      </trkpt>
      <trkpt lat="46.02625" lon="10.91761">
        <ele>1514.33</ele>
        <time>2022-09-18T09:24:37Z</time>
      </trkpt>
      <trkpt lat="46.02626" lon="10.91762">
        <ele>1514.5</ele>
        <time>2022-09-18T09:24:38Z</time>
      </trkpt>
      <trkpt lat="46.02627" lon="10.91764">
        <ele>1514.96</ele>
        <time>2022-09-18T09:24:39Z</time>
      </trkpt>
      <trkpt lat="46.02628" lon="10.91765">
        <ele>1516.13</ele>
        <time>2022-09-18T09:24:40Z</time>
      </trkpt>
      <trkpt lat="46.02628" lon="10.91766">
        <ele>1517.43</ele>
        <time>2022-09-18T09:24:41Z</time>
      </trkpt>
      <trkpt lat="46.02629" lon="10.91767">
        <ele>1518.03</ele>
        <time>2022-09-18T09:24:42Z</time>
      </trkpt>
      <trkpt lat="46.02629" lon="10.91768">
        <ele>1518.24</ele>
        <time>2022-09-18T09:24:43Z</time>
      </trkpt>
      <trkpt lat="46.0263" lon="10.91769">
        <ele>1517.26</ele>
        <time>2022-09-18T09:24:44Z</time>
      </trkpt>
      <trkpt lat="46.02632" lon="10.9177">
        <ele>1518.57</ele>
        <time>2022-09-18T09:24:46Z</time>
      </trkpt>
      <trkpt lat="46.02633" lon="10.91771">
        <ele>1519.3</ele>
        <time>2022-09-18T09:24:48Z</time>
      </trkpt>
      <trkpt lat="46.02635" lon="10.91772">
        <ele>1517.64</ele>
        <time>2022-09-18T09:24:50Z</time>
      </trkpt>
      <trkpt lat="46.02635" lon="10.91773">
        <ele>1518.3</ele>
        <time>2022-09-18T09:24:51Z</time>
      </trkpt>
      <trkpt lat="46.02636" lon="10.91776">
        <ele>1519.61</ele>
        <time>2022-09-18T09:24:53Z</time>
      </trkpt>
      <trkpt lat="46.02637" lon="10.91777">
        <ele>1519.84</ele>
        <time>2022-09-18T09:24:54Z</time>
      </trkpt>
      <trkpt lat="46.02638" lon="10.91778">
        <ele>1519.54</ele>
        <time>2022-09-18T09:24:55Z</time>
      </trkpt>
      <trkpt lat="46.02638" lon="10.9178">
        <ele>1520.64</ele>
        <time>2022-09-18T09:24:57Z</time>
      </trkpt>
      <trkpt lat="46.02638" lon="10.91782">
        <ele>1520.64</ele>
        <time>2022-09-18T09:24:59Z</time>
      </trkpt>
      <trkpt lat="46.02638" lon="10.91784">
        <ele>1519.6</ele>
        <time>2022-09-18T09:25:01Z</time>
      </trkpt>
      <trkpt lat="46.02638" lon="10.91786">
        <ele>1520.64</ele>
        <time>2022-09-18T09:25:03Z</time>
      </trkpt>
      <trkpt lat="46.02638" lon="10.91788">
        <ele>1521</ele>
        <time>2022-09-18T09:25:04Z</time>
      </trkpt>
      <trkpt lat="46.02638" lon="10.91789">
        <ele>1522</ele>
        <time>2022-09-18T09:25:05Z</time>
      </trkpt>
      <trkpt lat="46.02638" lon="10.91791">
        <ele>1521.44</ele>
        <time>2022-09-18T09:25:06Z</time>
      </trkpt>
      <trkpt lat="46.02638" lon="10.91793">
        <ele>1521.54</ele>
        <time>2022-09-18T09:25:08Z</time>
      </trkpt>
      <trkpt lat="46.02638" lon="10.91795">
        <ele>1521.43</ele>
        <time>2022-09-18T09:25:10Z</time>
      </trkpt>
      <trkpt lat="46.02638" lon="10.91798">
        <ele>1522.3</ele>
        <time>2022-09-18T09:25:13Z</time>
      </trkpt>
      <trkpt lat="46.02638" lon="10.91802">
        <ele>1523.99</ele>
        <time>2022-09-18T09:25:16Z</time>
      </trkpt>
      <trkpt lat="46.02638" lon="10.91803">
        <ele>1524.05</ele>
        <time>2022-09-18T09:25:17Z</time>
      </trkpt>
      <trkpt lat="46.02638" lon="10.91805">
        <ele>1523.64</ele>
        <time>2022-09-18T09:25:18Z</time>
      </trkpt>
      <trkpt lat="46.02638" lon="10.91808">
        <ele>1524.01</ele>
        <time>2022-09-18T09:25:20Z</time>
      </trkpt>
      <trkpt lat="46.02639" lon="10.91811">
        <ele>1524.74</ele>
        <time>2022-09-18T09:25:22Z</time>
      </trkpt>
      <trkpt lat="46.02638" lon="10.91812">
        <ele>1524.82</ele>
        <time>2022-09-18T09:25:23Z</time>
      </trkpt>
      <trkpt lat="46.02638" lon="10.91814">
        <ele>1525.29</ele>
        <time>2022-09-18T09:25:24Z</time>
      </trkpt>
      <trkpt lat="46.02638" lon="10.91815">
        <ele>1524.71</ele>
        <time>2022-09-18T09:25:25Z</time>
      </trkpt>
      <trkpt lat="46.02638" lon="10.91817">
        <ele>1524.61</ele>
        <time>2022-09-18T09:25:26Z</time>
      </trkpt>
      <trkpt lat="46.02637" lon="10.9182">
        <ele>1524.2</ele>
        <time>2022-09-18T09:25:28Z</time>
      </trkpt>
      <trkpt lat="46.02637" lon="10.91822">
        <ele>1523.88</ele>
        <time>2022-09-18T09:25:29Z</time>
      </trkpt>
      <trkpt lat="46.02636" lon="10.91823">
        <ele>1524.44</ele>
        <time>2022-09-18T09:25:30Z</time>
      </trkpt>
      <trkpt lat="46.02636" lon="10.91825">
        <ele>1524.78</ele>
        <time>2022-09-18T09:25:31Z</time>
      </trkpt>
      <trkpt lat="46.02636" lon="10.91827">
        <ele>1524.49</ele>
        <time>2022-09-18T09:25:32Z</time>
      </trkpt>
      <trkpt lat="46.02635" lon="10.9183">
        <ele>1524.65</ele>
        <time>2022-09-18T09:25:34Z</time>
      </trkpt>
      <trkpt lat="46.02634" lon="10.91831">
        <ele>1524.23</ele>
        <time>2022-09-18T09:25:35Z</time>
      </trkpt>
      <trkpt lat="46.02634" lon="10.91833">
        <ele>1524.35</ele>
        <time>2022-09-18T09:25:36Z</time>
      </trkpt>
      <trkpt lat="46.02634" lon="10.91835">
        <ele>1525.14</ele>
        <time>2022-09-18T09:25:37Z</time>
      </trkpt>
      <trkpt lat="46.02634" lon="10.91836">
        <ele>1525.22</ele>
        <time>2022-09-18T09:25:38Z</time>
      </trkpt>
      <trkpt lat="46.02635" lon="10.91838">
        <ele>1525.64</ele>
        <time>2022-09-18T09:25:39Z</time>
      </trkpt>
      <trkpt lat="46.02636" lon="10.91839">
        <ele>1524.77</ele>
        <time>2022-09-18T09:25:40Z</time>
      </trkpt>
      <trkpt lat="46.02636" lon="10.9184">
        <ele>1525.09</ele>
        <time>2022-09-18T09:25:41Z</time>
      </trkpt>
      <trkpt lat="46.02637" lon="10.91841">
        <ele>1524.5</ele>
        <time>2022-09-18T09:25:42Z</time>
      </trkpt>
      <trkpt lat="46.02638" lon="10.91843">
        <ele>1525.26</ele>
        <time>2022-09-18T09:25:44Z</time>
      </trkpt>
      <trkpt lat="46.02638" lon="10.91845">
        <ele>1525.82</ele>
        <time>2022-09-18T09:25:46Z</time>
      </trkpt>
      <trkpt lat="46.02639" lon="10.91846">
        <ele>1525.52</ele>
        <time>2022-09-18T09:25:47Z</time>
      </trkpt>
      <trkpt lat="46.02639" lon="10.91848">
        <ele>1526.28</ele>
        <time>2022-09-18T09:25:48Z</time>
      </trkpt>
      <trkpt lat="46.02639" lon="10.91849">
        <ele>1526.77</ele>
        <time>2022-09-18T09:25:49Z</time>
      </trkpt>
      <trkpt lat="46.02639" lon="10.91851">
        <ele>1527.03</ele>
        <time>2022-09-18T09:25:51Z</time>
      </trkpt>
      <trkpt lat="46.0264" lon="10.91854">
        <ele>1526.91</ele>
        <time>2022-09-18T09:25:53Z</time>
      </trkpt>
      <trkpt lat="46.0264" lon="10.91855">
        <ele>1526.64</ele>
        <time>2022-09-18T09:25:54Z</time>
      </trkpt>
      <trkpt lat="46.02639" lon="10.91856">
        <ele>1525.59</ele>
        <time>2022-09-18T09:25:55Z</time>
      </trkpt>
      <trkpt lat="46.02639" lon="10.91858">
        <ele>1526.14</ele>
        <time>2022-09-18T09:25:56Z</time>
      </trkpt>
      <trkpt lat="46.0264" lon="10.91859">
        <ele>1526.5</ele>
        <time>2022-09-18T09:25:57Z</time>
      </trkpt>
      <trkpt lat="46.0264" lon="10.91861">
        <ele>1526.5</ele>
        <time>2022-09-18T09:25:58Z</time>
      </trkpt>
      <trkpt lat="46.02641" lon="10.91863">
        <ele>1526.36</ele>
        <time>2022-09-18T09:26:00Z</time>
      </trkpt>
      <trkpt lat="46.02641" lon="10.91865">
        <ele>1527.58</ele>
        <time>2022-09-18T09:26:02Z</time>
      </trkpt>
      <trkpt lat="46.02641" lon="10.91868">
        <ele>1528.03</ele>
        <time>2022-09-18T09:26:04Z</time>
      </trkpt>
      <trkpt lat="46.02641" lon="10.91871">
        <ele>1529.66</ele>
        <time>2022-09-18T09:26:06Z</time>
      </trkpt>
      <trkpt lat="46.02641" lon="10.91873">
        <ele>1529.56</ele>
        <time>2022-09-18T09:26:08Z</time>
      </trkpt>
      <trkpt lat="46.02641" lon="10.91876">
        <ele>1530.3</ele>
        <time>2022-09-18T09:26:10Z</time>
      </trkpt>
      <trkpt lat="46.0264" lon="10.91878">
        <ele>1530.05</ele>
        <time>2022-09-18T09:26:12Z</time>
      </trkpt>
      <trkpt lat="46.02639" lon="10.91879">
        <ele>1529.8</ele>
        <time>2022-09-18T09:26:13Z</time>
      </trkpt>
      <trkpt lat="46.02639" lon="10.9188">
        <ele>1530.09</ele>
        <time>2022-09-18T09:26:14Z</time>
      </trkpt>
      <trkpt lat="46.02638" lon="10.91881">
        <ele>1530.19</ele>
        <time>2022-09-18T09:26:15Z</time>
      </trkpt>
      <trkpt lat="46.02637" lon="10.91882">
        <ele>1530.48</ele>
        <time>2022-09-18T09:26:16Z</time>
      </trkpt>
      <trkpt lat="46.02637" lon="10.91883">
        <ele>1530.46</ele>
        <time>2022-09-18T09:26:17Z</time>
      </trkpt>
      <trkpt lat="46.02635" lon="10.91885">
        <ele>1531.18</ele>
        <time>2022-09-18T09:26:19Z</time>
      </trkpt>
      <trkpt lat="46.02635" lon="10.91886">
        <ele>1530.85</ele>
        <time>2022-09-18T09:26:20Z</time>
      </trkpt>
      <trkpt lat="46.02634" lon="10.91886">
        <ele>1530.68</ele>
        <time>2022-09-18T09:26:21Z</time>
      </trkpt>
      <trkpt lat="46.02633" lon="10.91887">
        <ele>1531.56</ele>
        <time>2022-09-18T09:26:23Z</time>
      </trkpt>
      <trkpt lat="46.02632" lon="10.91889">
        <ele>1531.34</ele>
        <time>2022-09-18T09:26:25Z</time>
      </trkpt>
      <trkpt lat="46.02631" lon="10.91889">
        <ele>1531.72</ele>
        <time>2022-09-18T09:26:27Z</time>
      </trkpt>
      <trkpt lat="46.0263" lon="10.9189">
        <ele>1530.98</ele>
        <time>2022-09-18T09:26:29Z</time>
      </trkpt>
      <trkpt lat="46.02629" lon="10.91891">
        <ele>1532.16</ele>
        <time>2022-09-18T09:26:31Z</time>
      </trkpt>
      <trkpt lat="46.02628" lon="10.91891">
        <ele>1532.45</ele>
        <time>2022-09-18T09:26:33Z</time>
      </trkpt>
      <trkpt lat="46.02628" lon="10.91893">
        <ele>1533.96</ele>
        <time>2022-09-18T09:26:35Z</time>
      </trkpt>
      <trkpt lat="46.02628" lon="10.91894">
        <ele>1533.82</ele>
        <time>2022-09-18T09:26:36Z</time>
      </trkpt>
      <trkpt lat="46.02629" lon="10.91895">
        <ele>1534.11</ele>
        <time>2022-09-18T09:26:37Z</time>
      </trkpt>
      <trkpt lat="46.02629" lon="10.91896">
        <ele>1534.32</ele>
        <time>2022-09-18T09:26:38Z</time>
      </trkpt>
      <trkpt lat="46.0263" lon="10.91898">
        <ele>1534.19</ele>
        <time>2022-09-18T09:26:39Z</time>
      </trkpt>
      <trkpt lat="46.0263" lon="10.91899">
        <ele>1534.23</ele>
        <time>2022-09-18T09:26:40Z</time>
      </trkpt>
      <trkpt lat="46.02631" lon="10.919">
        <ele>1534.58</ele>
        <time>2022-09-18T09:26:41Z</time>
      </trkpt>
      <trkpt lat="46.02632" lon="10.91901">
        <ele>1534.87</ele>
        <time>2022-09-18T09:26:42Z</time>
      </trkpt>
      <trkpt lat="46.02633" lon="10.91902">
        <ele>1535.57</ele>
        <time>2022-09-18T09:26:43Z</time>
      </trkpt>
      <trkpt lat="46.02634" lon="10.91903">
        <ele>1535.68</ele>
        <time>2022-09-18T09:26:44Z</time>
      </trkpt>
      <trkpt lat="46.02634" lon="10.91904">
        <ele>1535.54</ele>
        <time>2022-09-18T09:26:45Z</time>
      </trkpt>
      <trkpt lat="46.02635" lon="10.91905">
        <ele>1534.97</ele>
        <time>2022-09-18T09:26:46Z</time>
      </trkpt>
      <trkpt lat="46.02636" lon="10.91907">
        <ele>1537.71</ele>
        <time>2022-09-18T09:26:48Z</time>
      </trkpt>
      <trkpt lat="46.02636" lon="10.9191">
        <ele>1538.75</ele>
        <time>2022-09-18T09:26:50Z</time>
      </trkpt>
      <trkpt lat="46.02636" lon="10.91912">
        <ele>1538.96</ele>
        <time>2022-09-18T09:26:52Z</time>
      </trkpt>
      <trkpt lat="46.02635" lon="10.91913">
        <ele>1538.08</ele>
        <time>2022-09-18T09:26:53Z</time>
      </trkpt>
      <trkpt lat="46.02635" lon="10.91915">
        <ele>1537.72</ele>
        <time>2022-09-18T09:26:55Z</time>
      </trkpt>
      <trkpt lat="46.02634" lon="10.91916">
        <ele>1536.93</ele>
        <time>2022-09-18T09:26:56Z</time>
      </trkpt>
      <trkpt lat="46.02634" lon="10.91918">
        <ele>1537.01</ele>
        <time>2022-09-18T09:26:57Z</time>
      </trkpt>
      <trkpt lat="46.02633" lon="10.91919">
        <ele>1536.7</ele>
        <time>2022-09-18T09:26:58Z</time>
      </trkpt>
      <trkpt lat="46.02633" lon="10.9192">
        <ele>1537.53</ele>
        <time>2022-09-18T09:27:01Z</time>
      </trkpt>
      <trkpt lat="46.02632" lon="10.9192">
        <ele>1536.78</ele>
        <time>2022-09-18T09:27:07Z</time>
      </trkpt>
      <trkpt lat="46.02631" lon="10.91922">
        <ele>1536.47</ele>
        <time>2022-09-18T09:27:08Z</time>
      </trkpt>
      <trkpt lat="46.02631" lon="10.91923">
        <ele>1536.03</ele>
        <time>2022-09-18T09:27:09Z</time>
      </trkpt>
      <trkpt lat="46.0263" lon="10.91924">
        <ele>1534.67</ele>
        <time>2022-09-18T09:27:10Z</time>
      </trkpt>
      <trkpt lat="46.02629" lon="10.91925">
        <ele>1534.95</ele>
        <time>2022-09-18T09:27:11Z</time>
      </trkpt>
      <trkpt lat="46.02628" lon="10.91925">
        <ele>1534.7</ele>
        <time>2022-09-18T09:27:12Z</time>
      </trkpt>
      <trkpt lat="46.02627" lon="10.91925">
        <ele>1535.03</ele>
        <time>2022-09-18T09:27:13Z</time>
      </trkpt>
      <trkpt lat="46.02626" lon="10.91926">
        <ele>1534.45</ele>
        <time>2022-09-18T09:27:14Z</time>
      </trkpt>
      <trkpt lat="46.02625" lon="10.91926">
        <ele>1534.31</ele>
        <time>2022-09-18T09:27:15Z</time>
      </trkpt>
      <trkpt lat="46.02624" lon="10.91926">
        <ele>1534.53</ele>
        <time>2022-09-18T09:27:16Z</time>
      </trkpt>
      <trkpt lat="46.02623" lon="10.91927">
        <ele>1534.61</ele>
        <time>2022-09-18T09:27:17Z</time>
      </trkpt>
      <trkpt lat="46.02623" lon="10.91928">
        <ele>1534.66</ele>
        <time>2022-09-18T09:27:18Z</time>
      </trkpt>
      <trkpt lat="46.02622" lon="10.91928">
        <ele>1535.45</ele>
        <time>2022-09-18T09:27:19Z</time>
      </trkpt>
      <trkpt lat="46.0262" lon="10.91928">
        <ele>1535.89</ele>
        <time>2022-09-18T09:27:21Z</time>
      </trkpt>
      <trkpt lat="46.02621" lon="10.91928">
        <ele>1536.11</ele>
        <time>2022-09-18T09:27:38Z</time>
      </trkpt>
      <trkpt lat="46.02622" lon="10.91929">
        <ele>1536.83</ele>
        <time>2022-09-18T09:27:42Z</time>
      </trkpt>
      <trkpt lat="46.02621" lon="10.91929">
        <ele>1535.9</ele>
        <time>2022-09-18T09:27:59Z</time>
      </trkpt>
      <trkpt lat="46.0262" lon="10.91929">
        <ele>1536.66</ele>
        <time>2022-09-18T09:28:00Z</time>
      </trkpt>
      <trkpt lat="46.02618" lon="10.9193">
        <ele>1534.53</ele>
        <time>2022-09-18T09:28:01Z</time>
      </trkpt>
      <trkpt lat="46.02617" lon="10.91931">
        <ele>1534.76</ele>
        <time>2022-09-18T09:28:02Z</time>
      </trkpt>
      <trkpt lat="46.02616" lon="10.91931">
        <ele>1535.23</ele>
        <time>2022-09-18T09:28:03Z</time>
      </trkpt>
      <trkpt lat="46.02615" lon="10.91932">
        <ele>1535.28</ele>
        <time>2022-09-18T09:28:05Z</time>
      </trkpt>
      <trkpt lat="46.02613" lon="10.91934">
        <ele>1535.25</ele>
        <time>2022-09-18T09:28:07Z</time>
      </trkpt>
      <trkpt lat="46.02613" lon="10.91935">
        <ele>1535.62</ele>
        <time>2022-09-18T09:28:08Z</time>
      </trkpt>
      <trkpt lat="46.02611" lon="10.91936">
        <ele>1535.24</ele>
        <time>2022-09-18T09:28:10Z</time>
      </trkpt>
      <trkpt lat="46.0261" lon="10.91936">
        <ele>1534.7</ele>
        <time>2022-09-18T09:28:11Z</time>
      </trkpt>
      <trkpt lat="46.02609" lon="10.91936">
        <ele>1534.98</ele>
        <time>2022-09-18T09:28:12Z</time>
      </trkpt>
      <trkpt lat="46.02608" lon="10.91935">
        <ele>1535.25</ele>
        <time>2022-09-18T09:28:13Z</time>
      </trkpt>
      <trkpt lat="46.02607" lon="10.91935">
        <ele>1534.29</ele>
        <time>2022-09-18T09:28:14Z</time>
      </trkpt>
      <trkpt lat="46.02606" lon="10.91934">
        <ele>1533.89</ele>
        <time>2022-09-18T09:28:15Z</time>
      </trkpt>
      <trkpt lat="46.02605" lon="10.91934">
        <ele>1533.48</ele>
        <time>2022-09-18T09:28:16Z</time>
      </trkpt>
      <trkpt lat="46.02604" lon="10.91934">
        <ele>1533.58</ele>
        <time>2022-09-18T09:28:17Z</time>
      </trkpt>
      <trkpt lat="46.02602" lon="10.91934">
        <ele>1530.97</ele>
        <time>2022-09-18T09:28:20Z</time>
      </trkpt>
      <trkpt lat="46.02601" lon="10.91934">
        <ele>1530.23</ele>
        <time>2022-09-18T09:28:21Z</time>
      </trkpt>
      <trkpt lat="46.026" lon="10.91934">
        <ele>1530.75</ele>
        <time>2022-09-18T09:28:22Z</time>
      </trkpt>
      <trkpt lat="46.02599" lon="10.91935">
        <ele>1530.52</ele>
        <time>2022-09-18T09:28:23Z</time>
      </trkpt>
      <trkpt lat="46.02598" lon="10.91936">
        <ele>1531.03</ele>
        <time>2022-09-18T09:28:24Z</time>
      </trkpt>
      <trkpt lat="46.02597" lon="10.91936">
        <ele>1530.89</ele>
        <time>2022-09-18T09:28:25Z</time>
      </trkpt>
      <trkpt lat="46.02596" lon="10.91938">
        <ele>1530.9</ele>
        <time>2022-09-18T09:28:26Z</time>
      </trkpt>
      <trkpt lat="46.02596" lon="10.91939">
        <ele>1531.51</ele>
        <time>2022-09-18T09:28:27Z</time>
      </trkpt>
      <trkpt lat="46.02595" lon="10.9194">
        <ele>1531.21</ele>
        <time>2022-09-18T09:28:28Z</time>
      </trkpt>
      <trkpt lat="46.02594" lon="10.91941">
        <ele>1530.83</ele>
        <time>2022-09-18T09:28:29Z</time>
      </trkpt>
      <trkpt lat="46.02593" lon="10.91942">
        <ele>1531.39</ele>
        <time>2022-09-18T09:28:30Z</time>
      </trkpt>
      <trkpt lat="46.02591" lon="10.91942">
        <ele>1530.97</ele>
        <time>2022-09-18T09:28:32Z</time>
      </trkpt>
      <trkpt lat="46.0259" lon="10.91941">
        <ele>1531.13</ele>
        <time>2022-09-18T09:28:33Z</time>
      </trkpt>
      <trkpt lat="46.02589" lon="10.9194">
        <ele>1531.13</ele>
        <time>2022-09-18T09:28:34Z</time>
      </trkpt>
      <trkpt lat="46.02588" lon="10.91939">
        <ele>1531.16</ele>
        <time>2022-09-18T09:28:35Z</time>
      </trkpt>
      <trkpt lat="46.02587" lon="10.91938">
        <ele>1531.12</ele>
        <time>2022-09-18T09:28:36Z</time>
      </trkpt>
      <trkpt lat="46.02586" lon="10.91938">
        <ele>1530.56</ele>
        <time>2022-09-18T09:28:37Z</time>
      </trkpt>
      <trkpt lat="46.02585" lon="10.91937">
        <ele>1531.19</ele>
        <time>2022-09-18T09:28:38Z</time>
      </trkpt>
      <trkpt lat="46.02583" lon="10.91937">
        <ele>1530.99</ele>
        <time>2022-09-18T09:28:39Z</time>
      </trkpt>
      <trkpt lat="46.02582" lon="10.91936">
        <ele>1530.99</ele>
        <time>2022-09-18T09:28:40Z</time>
      </trkpt>
      <trkpt lat="46.02581" lon="10.91936">
        <ele>1529.79</ele>
        <time>2022-09-18T09:28:41Z</time>
      </trkpt>
      <trkpt lat="46.02579" lon="10.91936">
        <ele>1529.33</ele>
        <time>2022-09-18T09:28:42Z</time>
      </trkpt>
      <trkpt lat="46.02578" lon="10.91936">
        <ele>1529.02</ele>
        <time>2022-09-18T09:28:43Z</time>
      </trkpt>
      <trkpt lat="46.02577" lon="10.91937">
        <ele>1529.25</ele>
        <time>2022-09-18T09:28:44Z</time>
      </trkpt>
      <trkpt lat="46.02576" lon="10.91938">
        <ele>1529.94</ele>
        <time>2022-09-18T09:28:45Z</time>
      </trkpt>
      <trkpt lat="46.02576" lon="10.9194">
        <ele>1530.53</ele>
        <time>2022-09-18T09:28:46Z</time>
      </trkpt>
      <trkpt lat="46.02575" lon="10.91941">
        <ele>1529.83</ele>
        <time>2022-09-18T09:28:47Z</time>
      </trkpt>
      <trkpt lat="46.02575" lon="10.91943">
        <ele>1528.85</ele>
        <time>2022-09-18T09:28:48Z</time>
      </trkpt>
      <trkpt lat="46.02574" lon="10.91944">
        <ele>1528.67</ele>
        <time>2022-09-18T09:28:49Z</time>
      </trkpt>
      <trkpt lat="46.02572" lon="10.91944">
        <ele>1528.84</ele>
        <time>2022-09-18T09:28:50Z</time>
      </trkpt>
      <trkpt lat="46.02571" lon="10.91944">
        <ele>1528.56</ele>
        <time>2022-09-18T09:28:51Z</time>
      </trkpt>
      <trkpt lat="46.0257" lon="10.91943">
        <ele>1527.2</ele>
        <time>2022-09-18T09:28:52Z</time>
      </trkpt>
      <trkpt lat="46.02568" lon="10.91943">
        <ele>1526.86</ele>
        <time>2022-09-18T09:28:53Z</time>
      </trkpt>
      <trkpt lat="46.02567" lon="10.91943">
        <ele>1527</ele>
        <time>2022-09-18T09:28:54Z</time>
      </trkpt>
      <trkpt lat="46.02566" lon="10.91942">
        <ele>1526.98</ele>
        <time>2022-09-18T09:28:55Z</time>
      </trkpt>
      <trkpt lat="46.02564" lon="10.91942">
        <ele>1526.94</ele>
        <time>2022-09-18T09:28:56Z</time>
      </trkpt>
      <trkpt lat="46.02563" lon="10.91941">
        <ele>1527.34</ele>
        <time>2022-09-18T09:28:57Z</time>
      </trkpt>
      <trkpt lat="46.02562" lon="10.91941">
        <ele>1527.99</ele>
        <time>2022-09-18T09:28:58Z</time>
      </trkpt>
      <trkpt lat="46.02561" lon="10.91942">
        <ele>1528.21</ele>
        <time>2022-09-18T09:28:59Z</time>
      </trkpt>
      <trkpt lat="46.02559" lon="10.91942">
        <ele>1528.16</ele>
        <time>2022-09-18T09:29:00Z</time>
      </trkpt>
      <trkpt lat="46.02558" lon="10.91942">
        <ele>1529.19</ele>
        <time>2022-09-18T09:29:01Z</time>
      </trkpt>
      <trkpt lat="46.02557" lon="10.91943">
        <ele>1527.97</ele>
        <time>2022-09-18T09:29:02Z</time>
      </trkpt>
      <trkpt lat="46.02556" lon="10.91943">
        <ele>1527.97</ele>
        <time>2022-09-18T09:29:03Z</time>
      </trkpt>
      <trkpt lat="46.02555" lon="10.91943">
        <ele>1528.5</ele>
        <time>2022-09-18T09:29:04Z</time>
      </trkpt>
      <trkpt lat="46.02554" lon="10.91943">
        <ele>1527.76</ele>
        <time>2022-09-18T09:29:05Z</time>
      </trkpt>
      <trkpt lat="46.02553" lon="10.91942">
        <ele>1527.32</ele>
        <time>2022-09-18T09:29:06Z</time>
      </trkpt>
      <trkpt lat="46.02552" lon="10.91941">
        <ele>1527.11</ele>
        <time>2022-09-18T09:29:07Z</time>
      </trkpt>
      <trkpt lat="46.02551" lon="10.91941">
        <ele>1526.94</ele>
        <time>2022-09-18T09:29:08Z</time>
      </trkpt>
      <trkpt lat="46.0255" lon="10.9194">
        <ele>1526.15</ele>
        <time>2022-09-18T09:29:09Z</time>
      </trkpt>
      <trkpt lat="46.02549" lon="10.9194">
        <ele>1526</ele>
        <time>2022-09-18T09:29:10Z</time>
      </trkpt>
      <trkpt lat="46.02548" lon="10.91939">
        <ele>1526.6</ele>
        <time>2022-09-18T09:29:11Z</time>
      </trkpt>
      <trkpt lat="46.02547" lon="10.91939">
        <ele>1527.21</ele>
        <time>2022-09-18T09:29:12Z</time>
      </trkpt>
      <trkpt lat="46.02546" lon="10.9194">
        <ele>1528.07</ele>
        <time>2022-09-18T09:29:13Z</time>
      </trkpt>
      <trkpt lat="46.02545" lon="10.91941">
        <ele>1527.49</ele>
        <time>2022-09-18T09:29:14Z</time>
      </trkpt>
      <trkpt lat="46.02544" lon="10.91941">
        <ele>1527.94</ele>
        <time>2022-09-18T09:29:15Z</time>
      </trkpt>
      <trkpt lat="46.02542" lon="10.91941">
        <ele>1526.65</ele>
        <time>2022-09-18T09:29:16Z</time>
      </trkpt>
      <trkpt lat="46.02541" lon="10.91941">
        <ele>1526.52</ele>
        <time>2022-09-18T09:29:17Z</time>
      </trkpt>
      <trkpt lat="46.0254" lon="10.91941">
        <ele>1526.04</ele>
        <time>2022-09-18T09:29:18Z</time>
      </trkpt>
      <trkpt lat="46.02539" lon="10.91941">
        <ele>1526.4</ele>
        <time>2022-09-18T09:29:19Z</time>
      </trkpt>
      <trkpt lat="46.02538" lon="10.91941">
        <ele>1526.56</ele>
        <time>2022-09-18T09:29:20Z</time>
      </trkpt>
      <trkpt lat="46.02537" lon="10.91941">
        <ele>1525.88</ele>
        <time>2022-09-18T09:29:21Z</time>
      </trkpt>
      <trkpt lat="46.02536" lon="10.9194">
        <ele>1525.35</ele>
        <time>2022-09-18T09:29:22Z</time>
      </trkpt>
      <trkpt lat="46.02535" lon="10.9194">
        <ele>1524.26</ele>
        <time>2022-09-18T09:29:23Z</time>
      </trkpt>
      <trkpt lat="46.02534" lon="10.9194">
        <ele>1524.3</ele>
        <time>2022-09-18T09:29:24Z</time>
      </trkpt>
      <trkpt lat="46.02532" lon="10.9194">
        <ele>1523.19</ele>
        <time>2022-09-18T09:29:26Z</time>
      </trkpt>
      <trkpt lat="46.02531" lon="10.9194">
        <ele>1523.04</ele>
        <time>2022-09-18T09:29:27Z</time>
      </trkpt>
      <trkpt lat="46.0253" lon="10.91939">
        <ele>1524.23</ele>
        <time>2022-09-18T09:29:28Z</time>
      </trkpt>
      <trkpt lat="46.0253" lon="10.91939">
        <ele>1524.84</ele>
        <time>2022-09-18T09:29:29Z</time>
      </trkpt>
      <trkpt lat="46.02529" lon="10.91938">
        <ele>1525.48</ele>
        <time>2022-09-18T09:29:30Z</time>
      </trkpt>
      <trkpt lat="46.02528" lon="10.91937">
        <ele>1525.2</ele>
        <time>2022-09-18T09:29:31Z</time>
      </trkpt>
      <trkpt lat="46.02527" lon="10.91935">
        <ele>1523.54</ele>
        <time>2022-09-18T09:29:32Z</time>
      </trkpt>
      <trkpt lat="46.02526" lon="10.91935">
        <ele>1525.17</ele>
        <time>2022-09-18T09:29:33Z</time>
      </trkpt>
      <trkpt lat="46.02524" lon="10.91934">
        <ele>1525.43</ele>
        <time>2022-09-18T09:29:35Z</time>
      </trkpt>
      <trkpt lat="46.02523" lon="10.91933">
        <ele>1524.17</ele>
        <time>2022-09-18T09:29:37Z</time>
      </trkpt>
      <trkpt lat="46.02522" lon="10.91932">
        <ele>1524.92</ele>
        <time>2022-09-18T09:29:38Z</time>
      </trkpt>
      <trkpt lat="46.02521" lon="10.91931">
        <ele>1524.34</ele>
        <time>2022-09-18T09:29:39Z</time>
      </trkpt>
      <trkpt lat="46.0252" lon="10.9193">
        <ele>1524.54</ele>
        <time>2022-09-18T09:29:40Z</time>
      </trkpt>
      <trkpt lat="46.02519" lon="10.91929">
        <ele>1523.7</ele>
        <time>2022-09-18T09:29:42Z</time>
      </trkpt>
      <trkpt lat="46.02518" lon="10.91928">
        <ele>1522.37</ele>
        <time>2022-09-18T09:29:43Z</time>
      </trkpt>
      <trkpt lat="46.02517" lon="10.91928">
        <ele>1522.16</ele>
        <time>2022-09-18T09:29:44Z</time>
      </trkpt>
      <trkpt lat="46.02516" lon="10.91928">
        <ele>1522.51</ele>
        <time>2022-09-18T09:29:45Z</time>
      </trkpt>
      <trkpt lat="46.02515" lon="10.91928">
        <ele>1521.78</ele>
        <time>2022-09-18T09:29:46Z</time>
      </trkpt>
      <trkpt lat="46.02514" lon="10.91927">
        <ele>1521.76</ele>
        <time>2022-09-18T09:29:47Z</time>
      </trkpt>
      <trkpt lat="46.02512" lon="10.91927">
        <ele>1521.08</ele>
        <time>2022-09-18T09:29:48Z</time>
      </trkpt>
      <trkpt lat="46.02511" lon="10.91926">
        <ele>1519.95</ele>
        <time>2022-09-18T09:29:49Z</time>
      </trkpt>
      <trkpt lat="46.0251" lon="10.91925">
        <ele>1519.07</ele>
        <time>2022-09-18T09:29:50Z</time>
      </trkpt>
      <trkpt lat="46.02509" lon="10.91925">
        <ele>1518.16</ele>
        <time>2022-09-18T09:29:51Z</time>
      </trkpt>
      <trkpt lat="46.02508" lon="10.91924">
        <ele>1518.26</ele>
        <time>2022-09-18T09:29:52Z</time>
      </trkpt>
      <trkpt lat="46.02506" lon="10.91923">
        <ele>1518.89</ele>
        <time>2022-09-18T09:29:53Z</time>
      </trkpt>
      <trkpt lat="46.02505" lon="10.91923">
        <ele>1519.03</ele>
        <time>2022-09-18T09:29:54Z</time>
      </trkpt>
      <trkpt lat="46.02504" lon="10.91922">
        <ele>1519.02</ele>
        <time>2022-09-18T09:29:55Z</time>
      </trkpt>
      <trkpt lat="46.02503" lon="10.91922">
        <ele>1519.39</ele>
        <time>2022-09-18T09:29:56Z</time>
      </trkpt>
      <trkpt lat="46.02501" lon="10.91921">
        <ele>1519.66</ele>
        <time>2022-09-18T09:29:58Z</time>
      </trkpt>
      <trkpt lat="46.025" lon="10.9192">
        <ele>1518.91</ele>
        <time>2022-09-18T09:30:01Z</time>
      </trkpt>
      <trkpt lat="46.02499" lon="10.91921">
        <ele>1520.04</ele>
        <time>2022-09-18T09:30:03Z</time>
      </trkpt>
      <trkpt lat="46.02498" lon="10.91922">
        <ele>1519.16</ele>
        <time>2022-09-18T09:30:04Z</time>
      </trkpt>
      <trkpt lat="46.02497" lon="10.91922">
        <ele>1518.44</ele>
        <time>2022-09-18T09:30:05Z</time>
      </trkpt>
      <trkpt lat="46.02496" lon="10.91921">
        <ele>1518.4</ele>
        <time>2022-09-18T09:30:06Z</time>
      </trkpt>
      <trkpt lat="46.02494" lon="10.9192">
        <ele>1519.14</ele>
        <time>2022-09-18T09:30:08Z</time>
      </trkpt>
      <trkpt lat="46.02493" lon="10.9192">
        <ele>1518.91</ele>
        <time>2022-09-18T09:30:10Z</time>
      </trkpt>
      <trkpt lat="46.02491" lon="10.91919">
        <ele>1518.99</ele>
        <time>2022-09-18T09:30:12Z</time>
      </trkpt>
      <trkpt lat="46.0249" lon="10.91918">
        <ele>1517.9</ele>
        <time>2022-09-18T09:30:13Z</time>
      </trkpt>
      <trkpt lat="46.0249" lon="10.91917">
        <ele>1517.6</ele>
        <time>2022-09-18T09:30:14Z</time>
      </trkpt>
      <trkpt lat="46.02488" lon="10.91916">
        <ele>1516.23</ele>
        <time>2022-09-18T09:30:16Z</time>
      </trkpt>
      <trkpt lat="46.02487" lon="10.91915">
        <ele>1516.59</ele>
        <time>2022-09-18T09:30:18Z</time>
      </trkpt>
      <trkpt lat="46.02486" lon="10.91915">
        <ele>1514.92</ele>
        <time>2022-09-18T09:30:20Z</time>
      </trkpt>
      <trkpt lat="46.02484" lon="10.91914">
        <ele>1514.51</ele>
        <time>2022-09-18T09:30:21Z</time>
      </trkpt>
      <trkpt lat="46.02483" lon="10.91914">
        <ele>1514.42</ele>
        <time>2022-09-18T09:30:22Z</time>
      </trkpt>
      <trkpt lat="46.02482" lon="10.91913">
        <ele>1514.36</ele>
        <time>2022-09-18T09:30:23Z</time>
      </trkpt>
      <trkpt lat="46.02481" lon="10.91912">
        <ele>1514.62</ele>
        <time>2022-09-18T09:30:24Z</time>
      </trkpt>
      <trkpt lat="46.0248" lon="10.91912">
        <ele>1514.61</ele>
        <time>2022-09-18T09:30:25Z</time>
      </trkpt>
      <trkpt lat="46.02478" lon="10.91911">
        <ele>1514.87</ele>
        <time>2022-09-18T09:30:26Z</time>
      </trkpt>
      <trkpt lat="46.02476" lon="10.91911">
        <ele>1516.6</ele>
        <time>2022-09-18T09:30:27Z</time>
      </trkpt>
      <trkpt lat="46.02474" lon="10.91911">
        <ele>1517.19</ele>
        <time>2022-09-18T09:30:28Z</time>
      </trkpt>
      <trkpt lat="46.02472" lon="10.91911">
        <ele>1517.54</ele>
        <time>2022-09-18T09:30:29Z</time>
      </trkpt>
      <trkpt lat="46.02471" lon="10.91912">
        <ele>1516.85</ele>
        <time>2022-09-18T09:30:30Z</time>
      </trkpt>
      <trkpt lat="46.0247" lon="10.91912">
        <ele>1517.43</ele>
        <time>2022-09-18T09:30:31Z</time>
      </trkpt>
      <trkpt lat="46.02469" lon="10.91913">
        <ele>1517.43</ele>
        <time>2022-09-18T09:30:32Z</time>
      </trkpt>
      <trkpt lat="46.02468" lon="10.91913">
        <ele>1517.46</ele>
        <time>2022-09-18T09:30:33Z</time>
      </trkpt>
      <trkpt lat="46.02467" lon="10.91914">
        <ele>1516.49</ele>
        <time>2022-09-18T09:30:34Z</time>
      </trkpt>
      <trkpt lat="46.02466" lon="10.91914">
        <ele>1515.72</ele>
        <time>2022-09-18T09:30:35Z</time>
      </trkpt>
      <trkpt lat="46.02465" lon="10.91915">
        <ele>1513.6</ele>
        <time>2022-09-18T09:30:36Z</time>
      </trkpt>
      <trkpt lat="46.02463" lon="10.91916">
        <ele>1513.16</ele>
        <time>2022-09-18T09:30:37Z</time>
      </trkpt>
      <trkpt lat="46.02462" lon="10.91918">
        <ele>1512.59</ele>
        <time>2022-09-18T09:30:38Z</time>
      </trkpt>
      <trkpt lat="46.02461" lon="10.9192">
        <ele>1511.31</ele>
        <time>2022-09-18T09:30:39Z</time>
      </trkpt>
      <trkpt lat="46.02461" lon="10.91922">
        <ele>1512.03</ele>
        <time>2022-09-18T09:30:40Z</time>
      </trkpt>
      <trkpt lat="46.0246" lon="10.91924">
        <ele>1511.91</ele>
        <time>2022-09-18T09:30:41Z</time>
      </trkpt>
      <trkpt lat="46.0246" lon="10.91926">
        <ele>1512.41</ele>
        <time>2022-09-18T09:30:42Z</time>
      </trkpt>
      <trkpt lat="46.02459" lon="10.91928">
        <ele>1512.46</ele>
        <time>2022-09-18T09:30:43Z</time>
      </trkpt>
      <trkpt lat="46.02458" lon="10.91929">
        <ele>1512.53</ele>
        <time>2022-09-18T09:30:44Z</time>
      </trkpt>
      <trkpt lat="46.02457" lon="10.9193">
        <ele>1512.46</ele>
        <time>2022-09-18T09:30:45Z</time>
      </trkpt>
      <trkpt lat="46.02456" lon="10.91931">
        <ele>1512.4</ele>
        <time>2022-09-18T09:30:46Z</time>
      </trkpt>
      <trkpt lat="46.02455" lon="10.91932">
        <ele>1513.59</ele>
        <time>2022-09-18T09:30:47Z</time>
      </trkpt>
      <trkpt lat="46.02454" lon="10.91933">
        <ele>1512.67</ele>
        <time>2022-09-18T09:30:48Z</time>
      </trkpt>
      <trkpt lat="46.02452" lon="10.91933">
        <ele>1511.77</ele>
        <time>2022-09-18T09:30:49Z</time>
      </trkpt>
      <trkpt lat="46.02451" lon="10.91934">
        <ele>1512.31</ele>
        <time>2022-09-18T09:30:50Z</time>
      </trkpt>
      <trkpt lat="46.0245" lon="10.91934">
        <ele>1511.04</ele>
        <time>2022-09-18T09:30:51Z</time>
      </trkpt>
      <trkpt lat="46.02449" lon="10.91934">
        <ele>1510.61</ele>
        <time>2022-09-18T09:30:52Z</time>
      </trkpt>
      <trkpt lat="46.02447" lon="10.91935">
        <ele>1511.1</ele>
        <time>2022-09-18T09:30:53Z</time>
      </trkpt>
      <trkpt lat="46.02446" lon="10.91936">
        <ele>1510.01</ele>
        <time>2022-09-18T09:30:54Z</time>
      </trkpt>
      <trkpt lat="46.02445" lon="10.91936">
        <ele>1510.39</ele>
        <time>2022-09-18T09:30:56Z</time>
      </trkpt>
      <trkpt lat="46.02443" lon="10.91937">
        <ele>1510.47</ele>
        <time>2022-09-18T09:30:57Z</time>
      </trkpt>
      <trkpt lat="46.02442" lon="10.91938">
        <ele>1509.9</ele>
        <time>2022-09-18T09:30:58Z</time>
      </trkpt>
      <trkpt lat="46.02441" lon="10.91938">
        <ele>1511.25</ele>
        <time>2022-09-18T09:30:59Z</time>
      </trkpt>
      <trkpt lat="46.0244" lon="10.91939">
        <ele>1510.57</ele>
        <time>2022-09-18T09:31:00Z</time>
      </trkpt>
      <trkpt lat="46.0244" lon="10.9194">
        <ele>1511.21</ele>
        <time>2022-09-18T09:31:01Z</time>
      </trkpt>
      <trkpt lat="46.02439" lon="10.91942">
        <ele>1511.21</ele>
        <time>2022-09-18T09:31:03Z</time>
      </trkpt>
      <trkpt lat="46.02438" lon="10.91943">
        <ele>1511.54</ele>
        <time>2022-09-18T09:31:04Z</time>
      </trkpt>
      <trkpt lat="46.02437" lon="10.91944">
        <ele>1511.13</ele>
        <time>2022-09-18T09:31:05Z</time>
      </trkpt>
      <trkpt lat="46.02436" lon="10.91946">
        <ele>1510.79</ele>
        <time>2022-09-18T09:31:07Z</time>
      </trkpt>
      <trkpt lat="46.02435" lon="10.91947">
        <ele>1509.82</ele>
        <time>2022-09-18T09:31:10Z</time>
      </trkpt>
      <trkpt lat="46.02435" lon="10.9195">
        <ele>1511.04</ele>
        <time>2022-09-18T09:31:13Z</time>
      </trkpt>
      <trkpt lat="46.02435" lon="10.91952">
        <ele>1510.46</ele>
        <time>2022-09-18T09:31:14Z</time>
      </trkpt>
      <trkpt lat="46.02435" lon="10.91953">
        <ele>1511.08</ele>
        <time>2022-09-18T09:31:15Z</time>
      </trkpt>
      <trkpt lat="46.02435" lon="10.91955">
        <ele>1510.33</ele>
        <time>2022-09-18T09:31:17Z</time>
      </trkpt>
      <trkpt lat="46.02434" lon="10.91956">
        <ele>1509.76</ele>
        <time>2022-09-18T09:31:19Z</time>
      </trkpt>
      <trkpt lat="46.02434" lon="10.91959">
        <ele>1509.72</ele>
        <time>2022-09-18T09:31:21Z</time>
      </trkpt>
      <trkpt lat="46.02433" lon="10.91961">
        <ele>1510.21</ele>
        <time>2022-09-18T09:31:23Z</time>
      </trkpt>
      <trkpt lat="46.02433" lon="10.91963">
        <ele>1509.13</ele>
        <time>2022-09-18T09:31:25Z</time>
      </trkpt>
      <trkpt lat="46.02432" lon="10.91964">
        <ele>1507.75</ele>
        <time>2022-09-18T09:31:27Z</time>
      </trkpt>
      <trkpt lat="46.02431" lon="10.91966">
        <ele>1505.88</ele>
        <time>2022-09-18T09:31:29Z</time>
      </trkpt>
      <trkpt lat="46.02431" lon="10.91967">
        <ele>1505.97</ele>
        <time>2022-09-18T09:31:30Z</time>
      </trkpt>
      <trkpt lat="46.0243" lon="10.91968">
        <ele>1504.67</ele>
        <time>2022-09-18T09:31:31Z</time>
      </trkpt>
      <trkpt lat="46.02428" lon="10.91968">
        <ele>1504.67</ele>
        <time>2022-09-18T09:31:32Z</time>
      </trkpt>
      <trkpt lat="46.02427" lon="10.91968">
        <ele>1503.89</ele>
        <time>2022-09-18T09:31:33Z</time>
      </trkpt>
      <trkpt lat="46.02426" lon="10.91969">
        <ele>1503.59</ele>
        <time>2022-09-18T09:31:34Z</time>
      </trkpt>
      <trkpt lat="46.02425" lon="10.91969">
        <ele>1502.9</ele>
        <time>2022-09-18T09:31:35Z</time>
      </trkpt>
      <trkpt lat="46.02424" lon="10.91969">
        <ele>1503.65</ele>
        <time>2022-09-18T09:31:36Z</time>
      </trkpt>
      <trkpt lat="46.02423" lon="10.91969">
        <ele>1503.44</ele>
        <time>2022-09-18T09:31:38Z</time>
      </trkpt>
      <trkpt lat="46.02422" lon="10.91967">
        <ele>1502.75</ele>
        <time>2022-09-18T09:31:40Z</time>
      </trkpt>
      <trkpt lat="46.02422" lon="10.91966">
        <ele>1502.42</ele>
        <time>2022-09-18T09:31:43Z</time>
      </trkpt>
      <trkpt lat="46.02422" lon="10.91964">
        <ele>1501.58</ele>
        <time>2022-09-18T09:31:45Z</time>
      </trkpt>
      <trkpt lat="46.02421" lon="10.91963">
        <ele>1501.37</ele>
        <time>2022-09-18T09:31:46Z</time>
      </trkpt>
      <trkpt lat="46.02421" lon="10.91961">
        <ele>1500.52</ele>
        <time>2022-09-18T09:31:47Z</time>
      </trkpt>
      <trkpt lat="46.0242" lon="10.91961">
        <ele>1500.49</ele>
        <time>2022-09-18T09:31:48Z</time>
      </trkpt>
      <trkpt lat="46.02418" lon="10.9196">
        <ele>1499.66</ele>
        <time>2022-09-18T09:31:49Z</time>
      </trkpt>
      <trkpt lat="46.02417" lon="10.9196">
        <ele>1499.9</ele>
        <time>2022-09-18T09:31:50Z</time>
      </trkpt>
      <trkpt lat="46.02416" lon="10.9196">
        <ele>1500.07</ele>
        <time>2022-09-18T09:31:51Z</time>
      </trkpt>
      <trkpt lat="46.02414" lon="10.9196">
        <ele>1500.41</ele>
        <time>2022-09-18T09:31:54Z</time>
      </trkpt>
      <trkpt lat="46.02413" lon="10.91961">
        <ele>1500.38</ele>
        <time>2022-09-18T09:31:55Z</time>
      </trkpt>
      <trkpt lat="46.02412" lon="10.91961">
        <ele>1500.3</ele>
        <time>2022-09-18T09:31:56Z</time>
      </trkpt>
      <trkpt lat="46.02411" lon="10.91961">
        <ele>1499.72</ele>
        <time>2022-09-18T09:31:57Z</time>
      </trkpt>
      <trkpt lat="46.0241" lon="10.91962">
        <ele>1499.64</ele>
        <time>2022-09-18T09:31:58Z</time>
      </trkpt>
      <trkpt lat="46.02408" lon="10.91964">
        <ele>1498.29</ele>
        <time>2022-09-18T09:32:00Z</time>
      </trkpt>
      <trkpt lat="46.02407" lon="10.91965">
        <ele>1497.61</ele>
        <time>2022-09-18T09:32:01Z</time>
      </trkpt>
      <trkpt lat="46.02405" lon="10.91967">
        <ele>1497.33</ele>
        <time>2022-09-18T09:32:03Z</time>
      </trkpt>
      <trkpt lat="46.02405" lon="10.91968">
        <ele>1497.1</ele>
        <time>2022-09-18T09:32:04Z</time>
      </trkpt>
      <trkpt lat="46.02405" lon="10.9197">
        <ele>1497.06</ele>
        <time>2022-09-18T09:32:06Z</time>
      </trkpt>
      <trkpt lat="46.02405" lon="10.91971">
        <ele>1496.69</ele>
        <time>2022-09-18T09:32:07Z</time>
      </trkpt>
      <trkpt lat="46.02404" lon="10.91974">
        <ele>1496.06</ele>
        <time>2022-09-18T09:32:10Z</time>
      </trkpt>
      <trkpt lat="46.02403" lon="10.91975">
        <ele>1496.64</ele>
        <time>2022-09-18T09:32:12Z</time>
      </trkpt>
      <trkpt lat="46.02402" lon="10.91974">
        <ele>1496.16</ele>
        <time>2022-09-18T09:32:14Z</time>
      </trkpt>
      <trkpt lat="46.02401" lon="10.91973">
        <ele>1495.67</ele>
        <time>2022-09-18T09:32:18Z</time>
      </trkpt>
      <trkpt lat="46.024" lon="10.91972">
        <ele>1494.59</ele>
        <time>2022-09-18T09:32:20Z</time>
      </trkpt>
      <trkpt lat="46.02399" lon="10.91972">
        <ele>1492.95</ele>
        <time>2022-09-18T09:32:23Z</time>
      </trkpt>
      <trkpt lat="46.02398" lon="10.91973">
        <ele>1492.21</ele>
        <time>2022-09-18T09:32:25Z</time>
      </trkpt>
      <trkpt lat="46.02396" lon="10.91975">
        <ele>1489.68</ele>
        <time>2022-09-18T09:32:28Z</time>
      </trkpt>
      <trkpt lat="46.02395" lon="10.91975">
        <ele>1488.53</ele>
        <time>2022-09-18T09:32:30Z</time>
      </trkpt>
      <trkpt lat="46.02394" lon="10.91976">
        <ele>1488.11</ele>
        <time>2022-09-18T09:32:31Z</time>
      </trkpt>
      <trkpt lat="46.02393" lon="10.91977">
        <ele>1488.93</ele>
        <time>2022-09-18T09:32:33Z</time>
      </trkpt>
      <trkpt lat="46.02393" lon="10.91976">
        <ele>1490.41</ele>
        <time>2022-09-18T09:32:35Z</time>
      </trkpt>
      <trkpt lat="46.02393" lon="10.91974">
        <ele>1490.43</ele>
        <time>2022-09-18T09:32:37Z</time>
      </trkpt>
      <trkpt lat="46.02393" lon="10.91972">
        <ele>1490.59</ele>
        <time>2022-09-18T09:32:38Z</time>
      </trkpt>
      <trkpt lat="46.02392" lon="10.91971">
        <ele>1490.24</ele>
        <time>2022-09-18T09:32:40Z</time>
      </trkpt>
      <trkpt lat="46.02391" lon="10.9197">
        <ele>1490.06</ele>
        <time>2022-09-18T09:32:43Z</time>
      </trkpt>
      <trkpt lat="46.0239" lon="10.91969">
        <ele>1487.01</ele>
        <time>2022-09-18T09:33:00Z</time>
      </trkpt>
      <trkpt lat="46.02389" lon="10.91969">
        <ele>1485.95</ele>
        <time>2022-09-18T09:33:03Z</time>
      </trkpt>
      <trkpt lat="46.02388" lon="10.91968">
        <ele>1484.1</ele>
        <time>2022-09-18T09:33:07Z</time>
      </trkpt>
      <trkpt lat="46.02387" lon="10.91967">
        <ele>1483.95</ele>
        <time>2022-09-18T09:33:09Z</time>
      </trkpt>
      <trkpt lat="46.02387" lon="10.91967">
        <ele>1481.28</ele>
        <time>2022-09-18T09:33:12Z</time>
      </trkpt>
      <trkpt lat="46.02386" lon="10.91966">
        <ele>1480.82</ele>
        <time>2022-09-18T09:33:14Z</time>
      </trkpt>
      <trkpt lat="46.02384" lon="10.91968">
        <ele>1481.05</ele>
        <time>2022-09-18T09:33:18Z</time>
      </trkpt>
      <trkpt lat="46.02383" lon="10.91968">
        <ele>1480.8</ele>
        <time>2022-09-18T09:33:22Z</time>
      </trkpt>
      <trkpt lat="46.02382" lon="10.91969">
        <ele>1480.71</ele>
        <time>2022-09-18T09:33:26Z</time>
      </trkpt>
      <trkpt lat="46.02381" lon="10.91969">
        <ele>1480.43</ele>
        <time>2022-09-18T09:33:31Z</time>
      </trkpt>
      <trkpt lat="46.0238" lon="10.9197">
        <ele>1479.4</ele>
        <time>2022-09-18T09:33:34Z</time>
      </trkpt>
      <trkpt lat="46.02378" lon="10.91972">
        <ele>1480.88</ele>
        <time>2022-09-18T09:33:37Z</time>
      </trkpt>
      <trkpt lat="46.02378" lon="10.91973">
        <ele>1480.5</ele>
        <time>2022-09-18T09:33:38Z</time>
      </trkpt>
      <trkpt lat="46.02377" lon="10.91974">
        <ele>1480.26</ele>
        <time>2022-09-18T09:33:39Z</time>
      </trkpt>
      <trkpt lat="46.02377" lon="10.91976">
        <ele>1480.89</ele>
        <time>2022-09-18T09:33:40Z</time>
      </trkpt>
      <trkpt lat="46.02377" lon="10.91978">
        <ele>1481.56</ele>
        <time>2022-09-18T09:33:42Z</time>
      </trkpt>
      <trkpt lat="46.02377" lon="10.9198">
        <ele>1480.18</ele>
        <time>2022-09-18T09:33:45Z</time>
      </trkpt>
      <trkpt lat="46.02376" lon="10.91982">
        <ele>1478.43</ele>
        <time>2022-09-18T09:33:47Z</time>
      </trkpt>
      <trkpt lat="46.02375" lon="10.91984">
        <ele>1477.89</ele>
        <time>2022-09-18T09:33:48Z</time>
      </trkpt>
      <trkpt lat="46.02375" lon="10.91985">
        <ele>1478.21</ele>
        <time>2022-09-18T09:33:49Z</time>
      </trkpt>
      <trkpt lat="46.02376" lon="10.91988">
        <ele>1478.05</ele>
        <time>2022-09-18T09:33:51Z</time>
      </trkpt>
      <trkpt lat="46.02376" lon="10.91989">
        <ele>1478.66</ele>
        <time>2022-09-18T09:33:52Z</time>
      </trkpt>
      <trkpt lat="46.02377" lon="10.9199">
        <ele>1478.85</ele>
        <time>2022-09-18T09:33:53Z</time>
      </trkpt>
      <trkpt lat="46.02377" lon="10.91991">
        <ele>1478.13</ele>
        <time>2022-09-18T09:33:54Z</time>
      </trkpt>
      <trkpt lat="46.02377" lon="10.91993">
        <ele>1477.04</ele>
        <time>2022-09-18T09:33:56Z</time>
      </trkpt>
      <trkpt lat="46.02377" lon="10.91995">
        <ele>1475.27</ele>
        <time>2022-09-18T09:33:59Z</time>
      </trkpt>
      <trkpt lat="46.02377" lon="10.91997">
        <ele>1473.89</ele>
        <time>2022-09-18T09:34:01Z</time>
      </trkpt>
      <trkpt lat="46.02377" lon="10.91998">
        <ele>1472.85</ele>
        <time>2022-09-18T09:34:03Z</time>
      </trkpt>
      <trkpt lat="46.02377" lon="10.92002">
        <ele>1472.58</ele>
        <time>2022-09-18T09:34:06Z</time>
      </trkpt>
      <trkpt lat="46.02376" lon="10.92004">
        <ele>1472.9</ele>
        <time>2022-09-18T09:34:08Z</time>
      </trkpt>
      <trkpt lat="46.02376" lon="10.92006">
        <ele>1473.08</ele>
        <time>2022-09-18T09:34:09Z</time>
      </trkpt>
      <trkpt lat="46.02376" lon="10.92008">
        <ele>1472.48</ele>
        <time>2022-09-18T09:34:10Z</time>
      </trkpt>
      <trkpt lat="46.02376" lon="10.92009">
        <ele>1472.88</ele>
        <time>2022-09-18T09:34:11Z</time>
      </trkpt>
      <trkpt lat="46.02375" lon="10.92011">
        <ele>1472.28</ele>
        <time>2022-09-18T09:34:12Z</time>
      </trkpt>
      <trkpt lat="46.02375" lon="10.92013">
        <ele>1472.59</ele>
        <time>2022-09-18T09:34:14Z</time>
      </trkpt>
      <trkpt lat="46.02376" lon="10.92014">
        <ele>1471.15</ele>
        <time>2022-09-18T09:34:15Z</time>
      </trkpt>
      <trkpt lat="46.02376" lon="10.92016">
        <ele>1471.49</ele>
        <time>2022-09-18T09:34:17Z</time>
      </trkpt>
      <trkpt lat="46.02376" lon="10.92018">
        <ele>1470.71</ele>
        <time>2022-09-18T09:34:19Z</time>
      </trkpt>
      <trkpt lat="46.02377" lon="10.9202">
        <ele>1470.74</ele>
        <time>2022-09-18T09:34:21Z</time>
      </trkpt>
      <trkpt lat="46.02377" lon="10.92021">
        <ele>1471.01</ele>
        <time>2022-09-18T09:34:22Z</time>
      </trkpt>
      <trkpt lat="46.02378" lon="10.92023">
        <ele>1471.7</ele>
        <time>2022-09-18T09:34:24Z</time>
      </trkpt>
      <trkpt lat="46.02378" lon="10.92024">
        <ele>1471.33</ele>
        <time>2022-09-18T09:34:26Z</time>
      </trkpt>
      <trkpt lat="46.02377" lon="10.92024">
        <ele>1467.26</ele>
        <time>2022-09-18T09:34:34Z</time>
      </trkpt>
      <trkpt lat="46.02376" lon="10.92025">
        <ele>1467.41</ele>
        <time>2022-09-18T09:34:35Z</time>
      </trkpt>
      <trkpt lat="46.02376" lon="10.92027">
        <ele>1466.75</ele>
        <time>2022-09-18T09:34:37Z</time>
      </trkpt>
      <trkpt lat="46.02377" lon="10.92029">
        <ele>1466.77</ele>
        <time>2022-09-18T09:34:39Z</time>
      </trkpt>
      <trkpt lat="46.02377" lon="10.92032">
        <ele>1470.96</ele>
        <time>2022-09-18T09:34:41Z</time>
      </trkpt>
      <trkpt lat="46.02378" lon="10.92033">
        <ele>1468.67</ele>
        <time>2022-09-18T09:34:43Z</time>
      </trkpt>
      <trkpt lat="46.02378" lon="10.92034">
        <ele>1467.43</ele>
        <time>2022-09-18T09:34:44Z</time>
      </trkpt>
      <trkpt lat="46.02379" lon="10.92035">
        <ele>1467.83</ele>
        <time>2022-09-18T09:34:45Z</time>
      </trkpt>
      <trkpt lat="46.02381" lon="10.92036">
        <ele>1467.01</ele>
        <time>2022-09-18T09:34:46Z</time>
      </trkpt>
      <trkpt lat="46.02382" lon="10.92037">
        <ele>1466.94</ele>
        <time>2022-09-18T09:34:47Z</time>
      </trkpt>
      <trkpt lat="46.02383" lon="10.92038">
        <ele>1467.52</ele>
        <time>2022-09-18T09:34:48Z</time>
      </trkpt>
      <trkpt lat="46.02384" lon="10.92039">
        <ele>1466.57</ele>
        <time>2022-09-18T09:34:52Z</time>
      </trkpt>
      <trkpt lat="46.02385" lon="10.9204">
        <ele>1466.4</ele>
        <time>2022-09-18T09:34:53Z</time>
      </trkpt>
      <trkpt lat="46.02386" lon="10.92041">
        <ele>1465.76</ele>
        <time>2022-09-18T09:34:54Z</time>
      </trkpt>
      <trkpt lat="46.02387" lon="10.92043">
        <ele>1465.65</ele>
        <time>2022-09-18T09:34:55Z</time>
      </trkpt>
      <trkpt lat="46.02388" lon="10.92045">
        <ele>1466.37</ele>
        <time>2022-09-18T09:34:56Z</time>
      </trkpt>
      <trkpt lat="46.02387" lon="10.92047">
        <ele>1464.36</ele>
        <time>2022-09-18T09:34:58Z</time>
      </trkpt>
      <trkpt lat="46.02386" lon="10.92047">
        <ele>1463.97</ele>
        <time>2022-09-18T09:34:59Z</time>
      </trkpt>
      <trkpt lat="46.02385" lon="10.92048">
        <ele>1462.77</ele>
        <time>2022-09-18T09:35:00Z</time>
      </trkpt>
      <trkpt lat="46.02383" lon="10.92047">
        <ele>1462.77</ele>
        <time>2022-09-18T09:35:01Z</time>
      </trkpt>
      <trkpt lat="46.02382" lon="10.92047">
        <ele>1461.81</ele>
        <time>2022-09-18T09:35:02Z</time>
      </trkpt>
      <trkpt lat="46.02381" lon="10.92046">
        <ele>1461.53</ele>
        <time>2022-09-18T09:35:03Z</time>
      </trkpt>
      <trkpt lat="46.0238" lon="10.92045">
        <ele>1461.89</ele>
        <time>2022-09-18T09:35:04Z</time>
      </trkpt>
      <trkpt lat="46.0238" lon="10.92046">
        <ele>1462.58</ele>
        <time>2022-09-18T09:35:07Z</time>
      </trkpt>
      <trkpt lat="46.0238" lon="10.92044">
        <ele>1462.68</ele>
        <time>2022-09-18T09:35:10Z</time>
      </trkpt>
      <trkpt lat="46.0238" lon="10.92042">
        <ele>1461.16</ele>
        <time>2022-09-18T09:35:11Z</time>
      </trkpt>
      <trkpt lat="46.02379" lon="10.92041">
        <ele>1460.35</ele>
        <time>2022-09-18T09:35:12Z</time>
      </trkpt>
      <trkpt lat="46.02378" lon="10.92041">
        <ele>1458.63</ele>
        <time>2022-09-18T09:35:15Z</time>
      </trkpt>
      <trkpt lat="46.02377" lon="10.92042">
        <ele>1460.18</ele>
        <time>2022-09-18T09:35:16Z</time>
      </trkpt>
      <trkpt lat="46.02376" lon="10.92042">
        <ele>1461.38</ele>
        <time>2022-09-18T09:35:17Z</time>
      </trkpt>
      <trkpt lat="46.02375" lon="10.92043">
        <ele>1460.92</ele>
        <time>2022-09-18T09:35:19Z</time>
      </trkpt>
      <trkpt lat="46.02374" lon="10.92042">
        <ele>1460.16</ele>
        <time>2022-09-18T09:35:23Z</time>
      </trkpt>
      <trkpt lat="46.02374" lon="10.9204">
        <ele>1459.19</ele>
        <time>2022-09-18T09:35:25Z</time>
      </trkpt>
      <trkpt lat="46.02374" lon="10.92038">
        <ele>1458.53</ele>
        <time>2022-09-18T09:35:26Z</time>
      </trkpt>
      <trkpt lat="46.02374" lon="10.92037">
        <ele>1459.1</ele>
        <time>2022-09-18T09:35:27Z</time>
      </trkpt>
      <trkpt lat="46.02373" lon="10.92035">
        <ele>1457.91</ele>
        <time>2022-09-18T09:35:29Z</time>
      </trkpt>
      <trkpt lat="46.02372" lon="10.92034">
        <ele>1458.58</ele>
        <time>2022-09-18T09:35:31Z</time>
      </trkpt>
      <trkpt lat="46.02371" lon="10.92032">
        <ele>1458.12</ele>
        <time>2022-09-18T09:35:33Z</time>
      </trkpt>
      <trkpt lat="46.02372" lon="10.92034">
        <ele>1458.23</ele>
        <time>2022-09-18T09:35:36Z</time>
      </trkpt>
      <trkpt lat="46.02372" lon="10.92036">
        <ele>1458.2</ele>
        <time>2022-09-18T09:35:38Z</time>
      </trkpt>
      <trkpt lat="46.02373" lon="10.92037">
        <ele>1458.29</ele>
        <time>2022-09-18T09:35:40Z</time>
      </trkpt>
      <trkpt lat="46.02373" lon="10.92039">
        <ele>1458</ele>
        <time>2022-09-18T09:35:42Z</time>
      </trkpt>
      <trkpt lat="46.02374" lon="10.92044">
        <ele>1448.16</ele>
        <time>2022-09-18T09:35:44Z</time>
      </trkpt>
      <trkpt lat="46.02375" lon="10.92048">
        <ele>1447.38</ele>
        <time>2022-09-18T09:35:45Z</time>
      </trkpt>
      <trkpt lat="46.02375" lon="10.92051">
        <ele>1450.34</ele>
        <time>2022-09-18T09:35:46Z</time>
      </trkpt>
      <trkpt lat="46.02375" lon="10.92054">
        <ele>1448.13</ele>
        <time>2022-09-18T09:35:47Z</time>
      </trkpt>
      <trkpt lat="46.02374" lon="10.92056">
        <ele>1448.72</ele>
        <time>2022-09-18T09:35:48Z</time>
      </trkpt>
      <trkpt lat="46.02374" lon="10.92058">
        <ele>1445.55</ele>
        <time>2022-09-18T09:35:49Z</time>
      </trkpt>
      <trkpt lat="46.02373" lon="10.92059">
        <ele>1446.91</ele>
        <time>2022-09-18T09:35:50Z</time>
      </trkpt>
      <trkpt lat="46.02373" lon="10.9206">
        <ele>1447.05</ele>
        <time>2022-09-18T09:35:51Z</time>
      </trkpt>
      <trkpt lat="46.02372" lon="10.92061">
        <ele>1447.9</ele>
        <time>2022-09-18T09:35:52Z</time>
      </trkpt>
      <trkpt lat="46.0237" lon="10.92061">
        <ele>1450.08</ele>
        <time>2022-09-18T09:35:57Z</time>
      </trkpt>
      <trkpt lat="46.0237" lon="10.92062">
        <ele>1449.41</ele>
        <time>2022-09-18T09:35:58Z</time>
      </trkpt>
      <trkpt lat="46.02369" lon="10.92064">
        <ele>1449.67</ele>
        <time>2022-09-18T09:35:59Z</time>
      </trkpt>
      <trkpt lat="46.02368" lon="10.92065">
        <ele>1449.82</ele>
        <time>2022-09-18T09:36:00Z</time>
      </trkpt>
      <trkpt lat="46.02367" lon="10.92066">
        <ele>1450.39</ele>
        <time>2022-09-18T09:36:01Z</time>
      </trkpt>
      <trkpt lat="46.02366" lon="10.92066">
        <ele>1450.61</ele>
        <time>2022-09-18T09:36:02Z</time>
      </trkpt>
      <trkpt lat="46.02365" lon="10.92067">
        <ele>1449.54</ele>
        <time>2022-09-18T09:36:03Z</time>
      </trkpt>
      <trkpt lat="46.02364" lon="10.92067">
        <ele>1456.59</ele>
        <time>2022-09-18T09:36:04Z</time>
      </trkpt>
      <trkpt lat="46.02363" lon="10.92067">
        <ele>1453.64</ele>
        <time>2022-09-18T09:36:05Z</time>
      </trkpt>
      <trkpt lat="46.02362" lon="10.92068">
        <ele>1451.55</ele>
        <time>2022-09-18T09:36:06Z</time>
      </trkpt>
      <trkpt lat="46.02361" lon="10.92068">
        <ele>1450.52</ele>
        <time>2022-09-18T09:36:07Z</time>
      </trkpt>
      <trkpt lat="46.0236" lon="10.92069">
        <ele>1450.49</ele>
        <time>2022-09-18T09:36:08Z</time>
      </trkpt>
      <trkpt lat="46.02359" lon="10.9207">
        <ele>1450.71</ele>
        <time>2022-09-18T09:36:09Z</time>
      </trkpt>
      <trkpt lat="46.02358" lon="10.9207">
        <ele>1450.13</ele>
        <time>2022-09-18T09:36:10Z</time>
      </trkpt>
      <trkpt lat="46.02357" lon="10.9207">
        <ele>1450.01</ele>
        <time>2022-09-18T09:36:11Z</time>
      </trkpt>
      <trkpt lat="46.02356" lon="10.92071">
        <ele>1449.6</ele>
        <time>2022-09-18T09:36:12Z</time>
      </trkpt>
      <trkpt lat="46.02356" lon="10.92072">
        <ele>1450.98</ele>
        <time>2022-09-18T09:36:13Z</time>
      </trkpt>
      <trkpt lat="46.02355" lon="10.92073">
        <ele>1450.73</ele>
        <time>2022-09-18T09:36:14Z</time>
      </trkpt>
      <trkpt lat="46.02353" lon="10.92073">
        <ele>1449.26</ele>
        <time>2022-09-18T09:36:15Z</time>
      </trkpt>
      <trkpt lat="46.02352" lon="10.92073">
        <ele>1448.39</ele>
        <time>2022-09-18T09:36:16Z</time>
      </trkpt>
      <trkpt lat="46.02351" lon="10.92073">
        <ele>1447.98</ele>
        <time>2022-09-18T09:36:17Z</time>
      </trkpt>
      <trkpt lat="46.0235" lon="10.92073">
        <ele>1448.76</ele>
        <time>2022-09-18T09:36:18Z</time>
      </trkpt>
      <trkpt lat="46.02349" lon="10.92073">
        <ele>1449.28</ele>
        <time>2022-09-18T09:36:19Z</time>
      </trkpt>
      <trkpt lat="46.02348" lon="10.92074">
        <ele>1450.28</ele>
        <time>2022-09-18T09:36:20Z</time>
      </trkpt>
      <trkpt lat="46.02346" lon="10.92074">
        <ele>1448.47</ele>
        <time>2022-09-18T09:36:22Z</time>
      </trkpt>
      <trkpt lat="46.02345" lon="10.92074">
        <ele>1447.8</ele>
        <time>2022-09-18T09:36:24Z</time>
      </trkpt>
      <trkpt lat="46.02344" lon="10.92074">
        <ele>1447.06</ele>
        <time>2022-09-18T09:36:25Z</time>
      </trkpt>
      <trkpt lat="46.02343" lon="10.92073">
        <ele>1447.05</ele>
        <time>2022-09-18T09:36:26Z</time>
      </trkpt>
      <trkpt lat="46.02342" lon="10.92072">
        <ele>1446.49</ele>
        <time>2022-09-18T09:36:27Z</time>
      </trkpt>
      <trkpt lat="46.02341" lon="10.92072">
        <ele>1444.81</ele>
        <time>2022-09-18T09:36:28Z</time>
      </trkpt>
      <trkpt lat="46.0234" lon="10.92071">
        <ele>1444.02</ele>
        <time>2022-09-18T09:36:29Z</time>
      </trkpt>
      <trkpt lat="46.02339" lon="10.9207">
        <ele>1442.63</ele>
        <time>2022-09-18T09:36:31Z</time>
      </trkpt>
      <trkpt lat="46.02337" lon="10.92069">
        <ele>1443.42</ele>
        <time>2022-09-18T09:36:33Z</time>
      </trkpt>
      <trkpt lat="46.02336" lon="10.92069">
        <ele>1441.48</ele>
        <time>2022-09-18T09:36:35Z</time>
      </trkpt>
      <trkpt lat="46.02335" lon="10.92069">
        <ele>1440.16</ele>
        <time>2022-09-18T09:36:36Z</time>
      </trkpt>
      <trkpt lat="46.02334" lon="10.92069">
        <ele>1439.65</ele>
        <time>2022-09-18T09:36:37Z</time>
      </trkpt>
      <trkpt lat="46.02333" lon="10.92068">
        <ele>1439.41</ele>
        <time>2022-09-18T09:36:38Z</time>
      </trkpt>
      <trkpt lat="46.02332" lon="10.92068">
        <ele>1439.33</ele>
        <time>2022-09-18T09:36:39Z</time>
      </trkpt>
      <trkpt lat="46.02331" lon="10.92068">
        <ele>1439.45</ele>
        <time>2022-09-18T09:36:40Z</time>
      </trkpt>
      <trkpt lat="46.02329" lon="10.92069">
        <ele>1440.77</ele>
        <time>2022-09-18T09:36:41Z</time>
      </trkpt>
      <trkpt lat="46.02328" lon="10.92069">
        <ele>1439.75</ele>
        <time>2022-09-18T09:36:42Z</time>
      </trkpt>
      <trkpt lat="46.02326" lon="10.92069">
        <ele>1439.73</ele>
        <time>2022-09-18T09:36:44Z</time>
      </trkpt>
      <trkpt lat="46.02325" lon="10.92068">
        <ele>1440.01</ele>
        <time>2022-09-18T09:36:45Z</time>
      </trkpt>
      <trkpt lat="46.02325" lon="10.92067">
        <ele>1439.27</ele>
        <time>2022-09-18T09:36:46Z</time>
      </trkpt>
      <trkpt lat="46.02323" lon="10.92066">
        <ele>1438.63</ele>
        <time>2022-09-18T09:36:48Z</time>
      </trkpt>
      <trkpt lat="46.02322" lon="10.92065">
        <ele>1438.25</ele>
        <time>2022-09-18T09:36:49Z</time>
      </trkpt>
      <trkpt lat="46.02322" lon="10.92063">
        <ele>1438.18</ele>
        <time>2022-09-18T09:36:50Z</time>
      </trkpt>
      <trkpt lat="46.02321" lon="10.92063">
        <ele>1438.1</ele>
        <time>2022-09-18T09:36:51Z</time>
      </trkpt>
      <trkpt lat="46.0232" lon="10.92061">
        <ele>1437.17</ele>
        <time>2022-09-18T09:36:53Z</time>
      </trkpt>
      <trkpt lat="46.02318" lon="10.9206">
        <ele>1436.46</ele>
        <time>2022-09-18T09:36:55Z</time>
      </trkpt>
      <trkpt lat="46.02318" lon="10.92059">
        <ele>1436.78</ele>
        <time>2022-09-18T09:36:56Z</time>
      </trkpt>
      <trkpt lat="46.02316" lon="10.92059">
        <ele>1445.65</ele>
        <time>2022-09-18T09:36:58Z</time>
      </trkpt>
      <trkpt lat="46.02315" lon="10.92059">
        <ele>1443.06</ele>
        <time>2022-09-18T09:37:00Z</time>
      </trkpt>
      <trkpt lat="46.02313" lon="10.92059">
        <ele>1440.43</ele>
        <time>2022-09-18T09:37:02Z</time>
      </trkpt>
      <trkpt lat="46.02312" lon="10.92059">
        <ele>1439.35</ele>
        <time>2022-09-18T09:37:03Z</time>
      </trkpt>
      <trkpt lat="46.02311" lon="10.92059">
        <ele>1438.35</ele>
        <time>2022-09-18T09:37:04Z</time>
      </trkpt>
      <trkpt lat="46.0231" lon="10.92058">
        <ele>1438.95</ele>
        <time>2022-09-18T09:37:06Z</time>
      </trkpt>
      <trkpt lat="46.02309" lon="10.92057">
        <ele>1437.9</ele>
        <time>2022-09-18T09:37:08Z</time>
      </trkpt>
      <trkpt lat="46.02307" lon="10.92058">
        <ele>1438.24</ele>
        <time>2022-09-18T09:37:10Z</time>
      </trkpt>
      <trkpt lat="46.02306" lon="10.92059">
        <ele>1437.44</ele>
        <time>2022-09-18T09:37:11Z</time>
      </trkpt>
      <trkpt lat="46.02305" lon="10.9206">
        <ele>1437.06</ele>
        <time>2022-09-18T09:37:13Z</time>
      </trkpt>
      <trkpt lat="46.02303" lon="10.92061">
        <ele>1437.2</ele>
        <time>2022-09-18T09:37:15Z</time>
      </trkpt>
      <trkpt lat="46.02302" lon="10.9206">
        <ele>1436.52</ele>
        <time>2022-09-18T09:37:17Z</time>
      </trkpt>
      <trkpt lat="46.02301" lon="10.9206">
        <ele>1435.82</ele>
        <time>2022-09-18T09:37:19Z</time>
      </trkpt>
      <trkpt lat="46.02299" lon="10.9206">
        <ele>1437.2</ele>
        <time>2022-09-18T09:37:21Z</time>
      </trkpt>
      <trkpt lat="46.02298" lon="10.9206">
        <ele>1436.16</ele>
        <time>2022-09-18T09:37:23Z</time>
      </trkpt>
      <trkpt lat="46.02296" lon="10.9206">
        <ele>1435.27</ele>
        <time>2022-09-18T09:37:25Z</time>
      </trkpt>
      <trkpt lat="46.02296" lon="10.92059">
        <ele>1433.83</ele>
        <time>2022-09-18T09:37:27Z</time>
      </trkpt>
      <trkpt lat="46.02294" lon="10.92059">
        <ele>1433.54</ele>
        <time>2022-09-18T09:37:29Z</time>
      </trkpt>
      <trkpt lat="46.02292" lon="10.92059">
        <ele>1439.69</ele>
        <time>2022-09-18T09:37:31Z</time>
      </trkpt>
      <trkpt lat="46.02291" lon="10.92059">
        <ele>1435.73</ele>
        <time>2022-09-18T09:37:33Z</time>
      </trkpt>
      <trkpt lat="46.0229" lon="10.9206">
        <ele>1434.31</ele>
        <time>2022-09-18T09:37:43Z</time>
      </trkpt>
      <trkpt lat="46.02289" lon="10.9206">
        <ele>1433.41</ele>
        <time>2022-09-18T09:37:48Z</time>
      </trkpt>
      <trkpt lat="46.02289" lon="10.9206">
        <ele>1432.95</ele>
        <time>2022-09-18T09:37:55Z</time>
      </trkpt>
      <trkpt lat="46.02288" lon="10.9206">
        <ele>1432.7</ele>
        <time>2022-09-18T09:38:17Z</time>
      </trkpt>
    </trkseg>
  </trk>
</gpx>